<?xml version="1.0" encoding="UTF-8" standalone="no" ?>
<gpx xmlns="http://www.topografix.com/GPX/1/1" xmlns:xsi="http://www.w3.org/2001/XMLSchema-instance" xsi:schemaLocation="http://www.topografix.com/GPX/1/1 http://www.topografix.com/GPX/1/1/gpx.xsd" version="1.1" creator="VisuGPX - https://www.visugpx.com">
  <metadata>
    <name>Randonnée Poses</name>
    <desc><![CDATA[Circuit au départ de écluses de poses faisant le tour des lacs]]></desc>
  </metadata>
  <trk>
    <name><![CDATA[Randonnée Poses_1]]></name>
    <trkseg>
      <trkpt lat="49.3128" lon="1.23709">
        <ele>8</ele>
        <time>2017-04-04T13:57:39Z</time>
      </trkpt>
      <trkpt lat="49.3128" lon="1.23709">
        <ele>8</ele>
        <time>2017-04-04T13:57:39Z</time>
      </trkpt>
      <trkpt lat="49.3128" lon="1.23709">
        <ele>8</ele>
        <time>2017-04-04T13:57:39Z</time>
      </trkpt>
      <trkpt lat="49.31267" lon="1.23771">
        <ele>8</ele>
        <time>2017-04-04T13:57:39Z</time>
      </trkpt>
      <trkpt lat="49.31266" lon="1.23776">
        <ele>8</ele>
        <time>2017-04-04T13:57:39Z</time>
      </trkpt>
      <trkpt lat="49.31266" lon="1.23783">
        <ele>8</ele>
        <time>2017-04-04T13:57:55Z</time>
      </trkpt>
      <trkpt lat="49.31266" lon="1.23787">
        <ele>8</ele>
        <time>2017-04-04T13:57:55Z</time>
      </trkpt>
      <trkpt lat="49.31265" lon="1.23793">
        <ele>9</ele>
        <time>2017-04-04T13:57:55Z</time>
      </trkpt>
      <trkpt lat="49.31267" lon="1.23799">
        <ele>9</ele>
        <time>2017-04-04T13:57:55Z</time>
      </trkpt>
      <trkpt lat="49.31266" lon="1.23806">
        <ele>9</ele>
        <time>2017-04-04T13:58:11Z</time>
      </trkpt>
      <trkpt lat="49.31264" lon="1.23812">
        <ele>9</ele>
        <time>2017-04-04T13:58:11Z</time>
      </trkpt>
      <trkpt lat="49.31263" lon="1.23818">
        <ele>9</ele>
        <time>2017-04-04T13:58:11Z</time>
      </trkpt>
      <trkpt lat="49.31264" lon="1.23823">
        <ele>9</ele>
        <time>2017-04-04T13:58:11Z</time>
      </trkpt>
      <trkpt lat="49.31265" lon="1.23829">
        <ele>9</ele>
        <time>2017-04-04T13:58:31Z</time>
      </trkpt>
      <trkpt lat="49.31267" lon="1.23833">
        <ele>9</ele>
        <time>2017-04-04T13:58:31Z</time>
      </trkpt>
      <trkpt lat="49.31263" lon="1.23835">
        <ele>9</ele>
        <time>2017-04-04T13:58:31Z</time>
      </trkpt>
      <trkpt lat="49.31259" lon="1.23832">
        <ele>9</ele>
        <time>2017-04-04T13:58:31Z</time>
      </trkpt>
      <trkpt lat="49.31255" lon="1.2383">
        <ele>9</ele>
        <time>2017-04-04T13:58:31Z</time>
      </trkpt>
      <trkpt lat="49.31251" lon="1.23828">
        <ele>9</ele>
        <time>2017-04-04T13:58:47Z</time>
      </trkpt>
      <trkpt lat="49.31248" lon="1.23824">
        <ele>9</ele>
        <time>2017-04-04T13:58:47Z</time>
      </trkpt>
      <trkpt lat="49.31244" lon="1.23822">
        <ele>9</ele>
        <time>2017-04-04T13:58:47Z</time>
      </trkpt>
      <trkpt lat="49.31239" lon="1.23821">
        <ele>9</ele>
        <time>2017-04-04T13:58:47Z</time>
      </trkpt>
      <trkpt lat="49.31233" lon="1.23818">
        <ele>9</ele>
        <time>2017-04-04T13:59:03Z</time>
      </trkpt>
      <trkpt lat="49.31228" lon="1.23813">
        <ele>9</ele>
        <time>2017-04-04T13:59:03Z</time>
      </trkpt>
      <trkpt lat="49.31223" lon="1.2381">
        <ele>9</ele>
        <time>2017-04-04T13:59:03Z</time>
      </trkpt>
      <trkpt lat="49.31219" lon="1.23806">
        <ele>9</ele>
        <time>2017-04-04T13:59:03Z</time>
      </trkpt>
      <trkpt lat="49.31216" lon="1.23801">
        <ele>9</ele>
        <time>2017-04-04T13:59:19Z</time>
      </trkpt>
      <trkpt lat="49.31211" lon="1.23797">
        <ele>9</ele>
        <time>2017-04-04T13:59:19Z</time>
      </trkpt>
      <trkpt lat="49.31206" lon="1.23793">
        <ele>9</ele>
        <time>2017-04-04T13:59:19Z</time>
      </trkpt>
      <trkpt lat="49.31202" lon="1.23789">
        <ele>8</ele>
        <time>2017-04-04T13:59:19Z</time>
      </trkpt>
      <trkpt lat="49.31197" lon="1.23784">
        <ele>8</ele>
        <time>2017-04-04T13:59:35Z</time>
      </trkpt>
      <trkpt lat="49.31193" lon="1.23779">
        <ele>8</ele>
        <time>2017-04-04T13:59:35Z</time>
      </trkpt>
      <trkpt lat="49.31189" lon="1.23776">
        <ele>8</ele>
        <time>2017-04-04T13:59:35Z</time>
      </trkpt>
      <trkpt lat="49.31185" lon="1.23772">
        <ele>8</ele>
        <time>2017-04-04T13:59:35Z</time>
      </trkpt>
      <trkpt lat="49.31178" lon="1.23762">
        <ele>8</ele>
        <time>2017-04-04T14:00:07Z</time>
      </trkpt>
      <trkpt lat="49.31177" lon="1.23761">
        <ele>8</ele>
        <time>2017-04-04T14:00:07Z</time>
      </trkpt>
      <trkpt lat="49.31172" lon="1.23757">
        <ele>8</ele>
        <time>2017-04-04T14:00:07Z</time>
      </trkpt>
      <trkpt lat="49.31168" lon="1.23753">
        <ele>8</ele>
        <time>2017-04-04T14:00:07Z</time>
      </trkpt>
      <trkpt lat="49.31165" lon="1.23757">
        <ele>8</ele>
        <time>2017-04-04T14:00:07Z</time>
      </trkpt>
      <trkpt lat="49.31159" lon="1.23754">
        <ele>8</ele>
        <time>2017-04-04T14:00:23Z</time>
      </trkpt>
      <trkpt lat="49.31155" lon="1.23754">
        <ele>8</ele>
        <time>2017-04-04T14:00:23Z</time>
      </trkpt>
      <trkpt lat="49.31149" lon="1.23749">
        <ele>8</ele>
        <time>2017-04-04T14:00:23Z</time>
      </trkpt>
      <trkpt lat="49.31145" lon="1.23744">
        <ele>8</ele>
        <time>2017-04-04T14:00:23Z</time>
      </trkpt>
      <trkpt lat="49.31144" lon="1.23744">
        <ele>8</ele>
        <time>2017-04-04T14:00:39Z</time>
      </trkpt>
      <trkpt lat="49.31138" lon="1.23738">
        <ele>8</ele>
        <time>2017-04-04T14:00:39Z</time>
      </trkpt>
      <trkpt lat="49.31132" lon="1.23733">
        <ele>8</ele>
        <time>2017-04-04T14:00:39Z</time>
      </trkpt>
      <trkpt lat="49.31127" lon="1.23729">
        <ele>8</ele>
        <time>2017-04-04T14:00:39Z</time>
      </trkpt>
      <trkpt lat="49.31123" lon="1.23723">
        <ele>8</ele>
        <time>2017-04-04T14:00:55Z</time>
      </trkpt>
      <trkpt lat="49.31118" lon="1.23719">
        <ele>8</ele>
        <time>2017-04-04T14:00:55Z</time>
      </trkpt>
      <trkpt lat="49.31114" lon="1.23717">
        <ele>8</ele>
        <time>2017-04-04T14:00:55Z</time>
      </trkpt>
      <trkpt lat="49.31108" lon="1.23712">
        <ele>8</ele>
        <time>2017-04-04T14:00:55Z</time>
      </trkpt>
      <trkpt lat="49.31104" lon="1.23708">
        <ele>5</ele>
        <time>2017-04-04T14:01:11Z</time>
      </trkpt>
      <trkpt lat="49.31101" lon="1.23704">
        <ele>5</ele>
        <time>2017-04-04T14:01:11Z</time>
      </trkpt>
      <trkpt lat="49.31096" lon="1.23701">
        <ele>5</ele>
        <time>2017-04-04T14:01:11Z</time>
      </trkpt>
      <trkpt lat="49.31092" lon="1.23696">
        <ele>5</ele>
        <time>2017-04-04T14:01:11Z</time>
      </trkpt>
      <trkpt lat="49.31087" lon="1.23693">
        <ele>5</ele>
        <time>2017-04-04T14:01:27Z</time>
      </trkpt>
      <trkpt lat="49.31083" lon="1.23692">
        <ele>5</ele>
        <time>2017-04-04T14:01:27Z</time>
      </trkpt>
      <trkpt lat="49.31079" lon="1.23689">
        <ele>5</ele>
        <time>2017-04-04T14:01:27Z</time>
      </trkpt>
      <trkpt lat="49.31075" lon="1.23686">
        <ele>5</ele>
        <time>2017-04-04T14:01:27Z</time>
      </trkpt>
      <trkpt lat="49.31071" lon="1.23682">
        <ele>5</ele>
        <time>2017-04-04T14:01:43Z</time>
      </trkpt>
      <trkpt lat="49.31065" lon="1.2368">
        <ele>5</ele>
        <time>2017-04-04T14:01:43Z</time>
      </trkpt>
      <trkpt lat="49.31061" lon="1.23678">
        <ele>5</ele>
        <time>2017-04-04T14:01:43Z</time>
      </trkpt>
      <trkpt lat="49.31055" lon="1.23672">
        <ele>5</ele>
        <time>2017-04-04T14:01:43Z</time>
      </trkpt>
      <trkpt lat="49.3105" lon="1.23668">
        <ele>5</ele>
        <time>2017-04-04T14:01:59Z</time>
      </trkpt>
      <trkpt lat="49.31047" lon="1.23664">
        <ele>5</ele>
        <time>2017-04-04T14:01:59Z</time>
      </trkpt>
      <trkpt lat="49.31041" lon="1.2366">
        <ele>5</ele>
        <time>2017-04-04T14:01:59Z</time>
      </trkpt>
      <trkpt lat="49.31035" lon="1.23656">
        <ele>5</ele>
        <time>2017-04-04T14:01:59Z</time>
      </trkpt>
      <trkpt lat="49.3103" lon="1.23654">
        <ele>5</ele>
        <time>2017-04-04T14:02:15Z</time>
      </trkpt>
      <trkpt lat="49.31026" lon="1.23651">
        <ele>5</ele>
        <time>2017-04-04T14:02:15Z</time>
      </trkpt>
      <trkpt lat="49.31024" lon="1.23643">
        <ele>5</ele>
        <time>2017-04-04T14:02:15Z</time>
      </trkpt>
      <trkpt lat="49.3102" lon="1.23637">
        <ele>5</ele>
        <time>2017-04-04T14:02:15Z</time>
      </trkpt>
      <trkpt lat="49.31017" lon="1.23631">
        <ele>5</ele>
        <time>2017-04-04T14:02:31Z</time>
      </trkpt>
      <trkpt lat="49.31013" lon="1.23624">
        <ele>5</ele>
        <time>2017-04-04T14:02:31Z</time>
      </trkpt>
      <trkpt lat="49.31008" lon="1.23619">
        <ele>5</ele>
        <time>2017-04-04T14:02:31Z</time>
      </trkpt>
      <trkpt lat="49.31004" lon="1.23615">
        <ele>5</ele>
        <time>2017-04-04T14:02:31Z</time>
      </trkpt>
      <trkpt lat="49.30999" lon="1.2361">
        <ele>5</ele>
        <time>2017-04-04T14:02:47Z</time>
      </trkpt>
      <trkpt lat="49.30995" lon="1.23605">
        <ele>5</ele>
        <time>2017-04-04T14:02:47Z</time>
      </trkpt>
      <trkpt lat="49.3099" lon="1.23601">
        <ele>5</ele>
        <time>2017-04-04T14:02:47Z</time>
      </trkpt>
      <trkpt lat="49.30984" lon="1.23599">
        <ele>5</ele>
        <time>2017-04-04T14:02:47Z</time>
      </trkpt>
      <trkpt lat="49.30979" lon="1.23595">
        <ele>5</ele>
        <time>2017-04-04T14:03:03Z</time>
      </trkpt>
      <trkpt lat="49.30974" lon="1.23592">
        <ele>5</ele>
        <time>2017-04-04T14:03:03Z</time>
      </trkpt>
      <trkpt lat="49.30971" lon="1.23588">
        <ele>5</ele>
        <time>2017-04-04T14:03:03Z</time>
      </trkpt>
      <trkpt lat="49.30968" lon="1.23585">
        <ele>5</ele>
        <time>2017-04-04T14:03:03Z</time>
      </trkpt>
      <trkpt lat="49.30964" lon="1.23582">
        <ele>5</ele>
        <time>2017-04-04T14:03:19Z</time>
      </trkpt>
      <trkpt lat="49.3096" lon="1.23579">
        <ele>5</ele>
        <time>2017-04-04T14:03:19Z</time>
      </trkpt>
      <trkpt lat="49.30955" lon="1.23574">
        <ele>5</ele>
        <time>2017-04-04T14:03:19Z</time>
      </trkpt>
      <trkpt lat="49.3095" lon="1.23571">
        <ele>5</ele>
        <time>2017-04-04T14:03:19Z</time>
      </trkpt>
      <trkpt lat="49.30944" lon="1.23566">
        <ele>5</ele>
        <time>2017-04-04T14:03:35Z</time>
      </trkpt>
      <trkpt lat="49.30939" lon="1.23562">
        <ele>5</ele>
        <time>2017-04-04T14:03:35Z</time>
      </trkpt>
      <trkpt lat="49.30936" lon="1.23562">
        <ele>5</ele>
        <time>2017-04-04T14:03:35Z</time>
      </trkpt>
      <trkpt lat="49.30931" lon="1.23557">
        <ele>5</ele>
        <time>2017-04-04T14:03:35Z</time>
      </trkpt>
      <trkpt lat="49.30927" lon="1.23551">
        <ele>5</ele>
        <time>2017-04-04T14:03:51Z</time>
      </trkpt>
      <trkpt lat="49.30924" lon="1.23546">
        <ele>5</ele>
        <time>2017-04-04T14:03:51Z</time>
      </trkpt>
      <trkpt lat="49.3092" lon="1.23542">
        <ele>5</ele>
        <time>2017-04-04T14:03:51Z</time>
      </trkpt>
      <trkpt lat="49.30918" lon="1.2354">
        <ele>5</ele>
        <time>2017-04-04T14:03:51Z</time>
      </trkpt>
      <trkpt lat="49.30913" lon="1.23543">
        <ele>5</ele>
        <time>2017-04-04T14:04:07Z</time>
      </trkpt>
      <trkpt lat="49.3091" lon="1.23541">
        <ele>5</ele>
        <time>2017-04-04T14:04:07Z</time>
      </trkpt>
      <trkpt lat="49.30906" lon="1.23537">
        <ele>5</ele>
        <time>2017-04-04T14:04:07Z</time>
      </trkpt>
      <trkpt lat="49.30901" lon="1.23532">
        <ele>5</ele>
        <time>2017-04-04T14:04:07Z</time>
      </trkpt>
      <trkpt lat="49.30894" lon="1.23525">
        <ele>5</ele>
        <time>2017-04-04T14:04:23Z</time>
      </trkpt>
      <trkpt lat="49.30892" lon="1.23522">
        <ele>5</ele>
        <time>2017-04-04T14:04:23Z</time>
      </trkpt>
      <trkpt lat="49.3089" lon="1.23519">
        <ele>5</ele>
        <time>2017-04-04T14:04:23Z</time>
      </trkpt>
      <trkpt lat="49.30886" lon="1.23515">
        <ele>5</ele>
        <time>2017-04-04T14:04:23Z</time>
      </trkpt>
      <trkpt lat="49.30882" lon="1.23511">
        <ele>5</ele>
        <time>2017-04-04T14:04:39Z</time>
      </trkpt>
      <trkpt lat="49.30877" lon="1.23507">
        <ele>5</ele>
        <time>2017-04-04T14:04:39Z</time>
      </trkpt>
      <trkpt lat="49.30872" lon="1.23506">
        <ele>9</ele>
        <time>2017-04-04T14:04:39Z</time>
      </trkpt>
      <trkpt lat="49.30865" lon="1.23509">
        <ele>9</ele>
        <time>2017-04-04T14:04:39Z</time>
      </trkpt>
      <trkpt lat="49.30861" lon="1.23512">
        <ele>9</ele>
        <time>2017-04-04T14:04:55Z</time>
      </trkpt>
      <trkpt lat="49.30856" lon="1.23516">
        <ele>9</ele>
        <time>2017-04-04T14:04:55Z</time>
      </trkpt>
      <trkpt lat="49.30852" lon="1.23519">
        <ele>9</ele>
        <time>2017-04-04T14:04:55Z</time>
      </trkpt>
      <trkpt lat="49.3085" lon="1.23523">
        <ele>9</ele>
        <time>2017-04-04T14:04:55Z</time>
      </trkpt>
      <trkpt lat="49.3085" lon="1.23527">
        <ele>9</ele>
        <time>2017-04-04T14:05:11Z</time>
      </trkpt>
      <trkpt lat="49.30847" lon="1.23533">
        <ele>9</ele>
        <time>2017-04-04T14:05:11Z</time>
      </trkpt>
      <trkpt lat="49.30845" lon="1.23541">
        <ele>9</ele>
        <time>2017-04-04T14:05:11Z</time>
      </trkpt>
      <trkpt lat="49.30847" lon="1.23549">
        <ele>9</ele>
        <time>2017-04-04T14:05:11Z</time>
      </trkpt>
      <trkpt lat="49.30847" lon="1.23555">
        <ele>9</ele>
        <time>2017-04-04T14:05:27Z</time>
      </trkpt>
      <trkpt lat="49.30849" lon="1.23564">
        <ele>9</ele>
        <time>2017-04-04T14:05:27Z</time>
      </trkpt>
      <trkpt lat="49.3085" lon="1.2357">
        <ele>9</ele>
        <time>2017-04-04T14:05:27Z</time>
      </trkpt>
      <trkpt lat="49.30849" lon="1.23578">
        <ele>9</ele>
        <time>2017-04-04T14:05:27Z</time>
      </trkpt>
      <trkpt lat="49.3085" lon="1.23586">
        <ele>9</ele>
        <time>2017-04-04T14:05:43Z</time>
      </trkpt>
      <trkpt lat="49.30853" lon="1.23594">
        <ele>9</ele>
        <time>2017-04-04T14:05:43Z</time>
      </trkpt>
      <trkpt lat="49.30854" lon="1.236">
        <ele>9</ele>
        <time>2017-04-04T14:05:43Z</time>
      </trkpt>
      <trkpt lat="49.30852" lon="1.23609">
        <ele>9</ele>
        <time>2017-04-04T14:05:43Z</time>
      </trkpt>
      <trkpt lat="49.30852" lon="1.23617">
        <ele>9</ele>
        <time>2017-04-04T14:05:59Z</time>
      </trkpt>
      <trkpt lat="49.30851" lon="1.23627">
        <ele>5</ele>
        <time>2017-04-04T14:05:59Z</time>
      </trkpt>
      <trkpt lat="49.3085" lon="1.23636">
        <ele>5</ele>
        <time>2017-04-04T14:05:59Z</time>
      </trkpt>
      <trkpt lat="49.3085" lon="1.23646">
        <ele>5</ele>
        <time>2017-04-04T14:05:59Z</time>
      </trkpt>
      <trkpt lat="49.3085" lon="1.23654">
        <ele>5</ele>
        <time>2017-04-04T14:06:15Z</time>
      </trkpt>
      <trkpt lat="49.30851" lon="1.23662">
        <ele>5</ele>
        <time>2017-04-04T14:06:15Z</time>
      </trkpt>
      <trkpt lat="49.30851" lon="1.23668">
        <ele>5</ele>
        <time>2017-04-04T14:06:15Z</time>
      </trkpt>
      <trkpt lat="49.30853" lon="1.23677">
        <ele>5</ele>
        <time>2017-04-04T14:06:15Z</time>
      </trkpt>
      <trkpt lat="49.30855" lon="1.23685">
        <ele>5</ele>
        <time>2017-04-04T14:06:31Z</time>
      </trkpt>
      <trkpt lat="49.30858" lon="1.23692">
        <ele>5</ele>
        <time>2017-04-04T14:06:31Z</time>
      </trkpt>
      <trkpt lat="49.30859" lon="1.23698">
        <ele>5</ele>
        <time>2017-04-04T14:06:31Z</time>
      </trkpt>
      <trkpt lat="49.30861" lon="1.23704">
        <ele>5</ele>
        <time>2017-04-04T14:06:31Z</time>
      </trkpt>
      <trkpt lat="49.30863" lon="1.23711">
        <ele>5</ele>
        <time>2017-04-04T14:06:47Z</time>
      </trkpt>
      <trkpt lat="49.30865" lon="1.23719">
        <ele>5</ele>
        <time>2017-04-04T14:06:47Z</time>
      </trkpt>
      <trkpt lat="49.30867" lon="1.23726">
        <ele>5</ele>
        <time>2017-04-04T14:06:47Z</time>
      </trkpt>
      <trkpt lat="49.30868" lon="1.23736">
        <ele>5</ele>
        <time>2017-04-04T14:06:47Z</time>
      </trkpt>
      <trkpt lat="49.30868" lon="1.23745">
        <ele>5</ele>
        <time>2017-04-04T14:07:03Z</time>
      </trkpt>
      <trkpt lat="49.30867" lon="1.23752">
        <ele>5</ele>
        <time>2017-04-04T14:07:03Z</time>
      </trkpt>
      <trkpt lat="49.30868" lon="1.2376">
        <ele>5</ele>
        <time>2017-04-04T14:07:03Z</time>
      </trkpt>
      <trkpt lat="49.30867" lon="1.23768">
        <ele>5</ele>
        <time>2017-04-04T14:07:03Z</time>
      </trkpt>
      <trkpt lat="49.30864" lon="1.23776">
        <ele>5</ele>
        <time>2017-04-04T14:07:19Z</time>
      </trkpt>
      <trkpt lat="49.30862" lon="1.23782">
        <ele>5</ele>
        <time>2017-04-04T14:07:19Z</time>
      </trkpt>
      <trkpt lat="49.30861" lon="1.2379">
        <ele>5</ele>
        <time>2017-04-04T14:07:19Z</time>
      </trkpt>
      <trkpt lat="49.30859" lon="1.23799">
        <ele>5</ele>
        <time>2017-04-04T14:07:19Z</time>
      </trkpt>
      <trkpt lat="49.30856" lon="1.23804">
        <ele>5</ele>
        <time>2017-04-04T14:07:35Z</time>
      </trkpt>
      <trkpt lat="49.30851" lon="1.23807">
        <ele>5</ele>
        <time>2017-04-04T14:07:35Z</time>
      </trkpt>
      <trkpt lat="49.30849" lon="1.23816">
        <ele>5</ele>
        <time>2017-04-04T14:07:35Z</time>
      </trkpt>
      <trkpt lat="49.30845" lon="1.23822">
        <ele>5</ele>
        <time>2017-04-04T14:07:35Z</time>
      </trkpt>
      <trkpt lat="49.30841" lon="1.23827">
        <ele>5</ele>
        <time>2017-04-04T14:07:51Z</time>
      </trkpt>
      <trkpt lat="49.30837" lon="1.23832">
        <ele>5</ele>
        <time>2017-04-04T14:07:51Z</time>
      </trkpt>
      <trkpt lat="49.30832" lon="1.23839">
        <ele>5</ele>
        <time>2017-04-04T14:07:51Z</time>
      </trkpt>
      <trkpt lat="49.30828" lon="1.23844">
        <ele>5</ele>
        <time>2017-04-04T14:07:51Z</time>
      </trkpt>
      <trkpt lat="49.30824" lon="1.23849">
        <ele>5</ele>
        <time>2017-04-04T14:08:07Z</time>
      </trkpt>
      <trkpt lat="49.30821" lon="1.23854">
        <ele>5</ele>
        <time>2017-04-04T14:08:07Z</time>
      </trkpt>
      <trkpt lat="49.30821" lon="1.23861">
        <ele>5</ele>
        <time>2017-04-04T14:08:07Z</time>
      </trkpt>
      <trkpt lat="49.3082" lon="1.23866">
        <ele>5</ele>
        <time>2017-04-04T14:08:07Z</time>
      </trkpt>
      <trkpt lat="49.30819" lon="1.23874">
        <ele>5</ele>
        <time>2017-04-04T14:08:23Z</time>
      </trkpt>
      <trkpt lat="49.30818" lon="1.23882">
        <ele>5</ele>
        <time>2017-04-04T14:08:23Z</time>
      </trkpt>
      <trkpt lat="49.30816" lon="1.23892">
        <ele>5</ele>
        <time>2017-04-04T14:08:23Z</time>
      </trkpt>
      <trkpt lat="49.30816" lon="1.23899">
        <ele>5</ele>
        <time>2017-04-04T14:08:23Z</time>
      </trkpt>
      <trkpt lat="49.30815" lon="1.23903">
        <ele>5</ele>
        <time>2017-04-04T14:08:39Z</time>
      </trkpt>
      <trkpt lat="49.30813" lon="1.23909">
        <ele>5</ele>
        <time>2017-04-04T14:08:39Z</time>
      </trkpt>
      <trkpt lat="49.30813" lon="1.23916">
        <ele>5</ele>
        <time>2017-04-04T14:08:39Z</time>
      </trkpt>
      <trkpt lat="49.30812" lon="1.23922">
        <ele>5</ele>
        <time>2017-04-04T14:08:39Z</time>
      </trkpt>
      <trkpt lat="49.30809" lon="1.23931">
        <ele>5</ele>
        <time>2017-04-04T14:08:55Z</time>
      </trkpt>
      <trkpt lat="49.30806" lon="1.2394">
        <ele>5</ele>
        <time>2017-04-04T14:08:55Z</time>
      </trkpt>
      <trkpt lat="49.30805" lon="1.2395">
        <ele>5</ele>
        <time>2017-04-04T14:08:55Z</time>
      </trkpt>
      <trkpt lat="49.30803" lon="1.23958">
        <ele>5</ele>
        <time>2017-04-04T14:08:55Z</time>
      </trkpt>
      <trkpt lat="49.30801" lon="1.23965">
        <ele>5</ele>
        <time>2017-04-04T14:09:11Z</time>
      </trkpt>
      <trkpt lat="49.30799" lon="1.23973">
        <ele>5</ele>
        <time>2017-04-04T14:09:11Z</time>
      </trkpt>
      <trkpt lat="49.30798" lon="1.23978">
        <ele>5</ele>
        <time>2017-04-04T14:09:11Z</time>
      </trkpt>
      <trkpt lat="49.30797" lon="1.23986">
        <ele>5</ele>
        <time>2017-04-04T14:09:11Z</time>
      </trkpt>
      <trkpt lat="49.30796" lon="1.23995">
        <ele>5</ele>
        <time>2017-04-04T14:09:27Z</time>
      </trkpt>
      <trkpt lat="49.30796" lon="1.24006">
        <ele>5</ele>
        <time>2017-04-04T14:09:27Z</time>
      </trkpt>
      <trkpt lat="49.30795" lon="1.24013">
        <ele>5</ele>
        <time>2017-04-04T14:09:27Z</time>
      </trkpt>
      <trkpt lat="49.30796" lon="1.24022">
        <ele>5</ele>
        <time>2017-04-04T14:09:27Z</time>
      </trkpt>
      <trkpt lat="49.30796" lon="1.24028">
        <ele>5</ele>
        <time>2017-04-04T14:09:43Z</time>
      </trkpt>
      <trkpt lat="49.30796" lon="1.24036">
        <ele>5</ele>
        <time>2017-04-04T14:09:43Z</time>
      </trkpt>
      <trkpt lat="49.30795" lon="1.24043">
        <ele>5</ele>
        <time>2017-04-04T14:09:43Z</time>
      </trkpt>
      <trkpt lat="49.30791" lon="1.2405">
        <ele>9</ele>
        <time>2017-04-04T14:09:43Z</time>
      </trkpt>
      <trkpt lat="49.30786" lon="1.24057">
        <ele>9</ele>
        <time>2017-04-04T14:09:59Z</time>
      </trkpt>
      <trkpt lat="49.30783" lon="1.24066">
        <ele>9</ele>
        <time>2017-04-04T14:09:59Z</time>
      </trkpt>
      <trkpt lat="49.3078" lon="1.24074">
        <ele>9</ele>
        <time>2017-04-04T14:09:59Z</time>
      </trkpt>
      <trkpt lat="49.30778" lon="1.2408">
        <ele>9</ele>
        <time>2017-04-04T14:09:59Z</time>
      </trkpt>
      <trkpt lat="49.30775" lon="1.24086">
        <ele>9</ele>
        <time>2017-04-04T14:10:15Z</time>
      </trkpt>
      <trkpt lat="49.30771" lon="1.24092">
        <ele>9</ele>
        <time>2017-04-04T14:10:15Z</time>
      </trkpt>
      <trkpt lat="49.30766" lon="1.24098">
        <ele>9</ele>
        <time>2017-04-04T14:10:15Z</time>
      </trkpt>
      <trkpt lat="49.30759" lon="1.24103">
        <ele>9</ele>
        <time>2017-04-04T14:10:15Z</time>
      </trkpt>
      <trkpt lat="49.30753" lon="1.24108">
        <ele>9</ele>
        <time>2017-04-04T14:10:31Z</time>
      </trkpt>
      <trkpt lat="49.3075" lon="1.24115">
        <ele>9</ele>
        <time>2017-04-04T14:10:31Z</time>
      </trkpt>
      <trkpt lat="49.30745" lon="1.2412">
        <ele>9</ele>
        <time>2017-04-04T14:10:31Z</time>
      </trkpt>
      <trkpt lat="49.30741" lon="1.24126">
        <ele>10</ele>
        <time>2017-04-04T14:10:31Z</time>
      </trkpt>
      <trkpt lat="49.30737" lon="1.24131">
        <ele>10</ele>
        <time>2017-04-04T14:10:47Z</time>
      </trkpt>
      <trkpt lat="49.30733" lon="1.24137">
        <ele>10</ele>
        <time>2017-04-04T14:10:47Z</time>
      </trkpt>
      <trkpt lat="49.30728" lon="1.2414">
        <ele>10</ele>
        <time>2017-04-04T14:10:47Z</time>
      </trkpt>
      <trkpt lat="49.30724" lon="1.24145">
        <ele>10</ele>
        <time>2017-04-04T14:10:47Z</time>
      </trkpt>
      <trkpt lat="49.30722" lon="1.24151">
        <ele>10</ele>
        <time>2017-04-04T14:11:03Z</time>
      </trkpt>
      <trkpt lat="49.30722" lon="1.24161">
        <ele>10</ele>
        <time>2017-04-04T14:11:03Z</time>
      </trkpt>
      <trkpt lat="49.30718" lon="1.24169">
        <ele>10</ele>
        <time>2017-04-04T14:11:03Z</time>
      </trkpt>
      <trkpt lat="49.30713" lon="1.24176">
        <ele>10</ele>
        <time>2017-04-04T14:11:03Z</time>
      </trkpt>
      <trkpt lat="49.30709" lon="1.24178">
        <ele>10</ele>
        <time>2017-04-04T14:11:19Z</time>
      </trkpt>
      <trkpt lat="49.30705" lon="1.24181">
        <ele>10</ele>
        <time>2017-04-04T14:11:19Z</time>
      </trkpt>
      <trkpt lat="49.30703" lon="1.24187">
        <ele>10</ele>
        <time>2017-04-04T14:11:19Z</time>
      </trkpt>
      <trkpt lat="49.30701" lon="1.24192">
        <ele>10</ele>
        <time>2017-04-04T14:11:19Z</time>
      </trkpt>
      <trkpt lat="49.30696" lon="1.242">
        <ele>10</ele>
        <time>2017-04-04T14:11:35Z</time>
      </trkpt>
      <trkpt lat="49.30692" lon="1.24208">
        <ele>9</ele>
        <time>2017-04-04T14:11:35Z</time>
      </trkpt>
      <trkpt lat="49.30689" lon="1.24214">
        <ele>9</ele>
        <time>2017-04-04T14:11:35Z</time>
      </trkpt>
      <trkpt lat="49.30686" lon="1.24222">
        <ele>9</ele>
        <time>2017-04-04T14:11:35Z</time>
      </trkpt>
      <trkpt lat="49.30684" lon="1.24228">
        <ele>9</ele>
        <time>2017-04-04T14:11:51Z</time>
      </trkpt>
      <trkpt lat="49.30682" lon="1.24235">
        <ele>9</ele>
        <time>2017-04-04T14:11:51Z</time>
      </trkpt>
      <trkpt lat="49.30679" lon="1.24242">
        <ele>9</ele>
        <time>2017-04-04T14:11:51Z</time>
      </trkpt>
      <trkpt lat="49.30678" lon="1.24248">
        <ele>9</ele>
        <time>2017-04-04T14:11:51Z</time>
      </trkpt>
      <trkpt lat="49.30674" lon="1.24253">
        <ele>9</ele>
        <time>2017-04-04T14:12:07Z</time>
      </trkpt>
      <trkpt lat="49.30669" lon="1.24257">
        <ele>9</ele>
        <time>2017-04-04T14:12:07Z</time>
      </trkpt>
      <trkpt lat="49.30665" lon="1.24264">
        <ele>9</ele>
        <time>2017-04-04T14:12:07Z</time>
      </trkpt>
      <trkpt lat="49.30662" lon="1.24269">
        <ele>9</ele>
        <time>2017-04-04T14:12:07Z</time>
      </trkpt>
      <trkpt lat="49.30659" lon="1.24277">
        <ele>9</ele>
        <time>2017-04-04T14:12:23Z</time>
      </trkpt>
      <trkpt lat="49.30655" lon="1.24282">
        <ele>9</ele>
        <time>2017-04-04T14:12:23Z</time>
      </trkpt>
      <trkpt lat="49.30654" lon="1.24288">
        <ele>9</ele>
        <time>2017-04-04T14:12:23Z</time>
      </trkpt>
      <trkpt lat="49.30654" lon="1.24295">
        <ele>11</ele>
        <time>2017-04-04T14:12:23Z</time>
      </trkpt>
      <trkpt lat="49.30652" lon="1.24304">
        <ele>11</ele>
        <time>2017-04-04T14:12:39Z</time>
      </trkpt>
      <trkpt lat="49.30651" lon="1.2431">
        <ele>11</ele>
        <time>2017-04-04T14:12:39Z</time>
      </trkpt>
      <trkpt lat="49.30645" lon="1.24316">
        <ele>11</ele>
        <time>2017-04-04T14:12:39Z</time>
      </trkpt>
      <trkpt lat="49.30641" lon="1.2432">
        <ele>11</ele>
        <time>2017-04-04T14:12:39Z</time>
      </trkpt>
      <trkpt lat="49.30637" lon="1.24328">
        <ele>11</ele>
        <time>2017-04-04T14:12:55Z</time>
      </trkpt>
      <trkpt lat="49.30634" lon="1.24335">
        <ele>11</ele>
        <time>2017-04-04T14:12:55Z</time>
      </trkpt>
      <trkpt lat="49.30631" lon="1.2434">
        <ele>11</ele>
        <time>2017-04-04T14:12:55Z</time>
      </trkpt>
      <trkpt lat="49.30628" lon="1.24347">
        <ele>11</ele>
        <time>2017-04-04T14:12:55Z</time>
      </trkpt>
      <trkpt lat="49.30624" lon="1.24352">
        <ele>10</ele>
        <time>2017-04-04T14:13:11Z</time>
      </trkpt>
      <trkpt lat="49.30619" lon="1.24359">
        <ele>10</ele>
        <time>2017-04-04T14:13:11Z</time>
      </trkpt>
      <trkpt lat="49.30614" lon="1.24367">
        <ele>10</ele>
        <time>2017-04-04T14:13:11Z</time>
      </trkpt>
      <trkpt lat="49.30611" lon="1.2437">
        <ele>10</ele>
        <time>2017-04-04T14:13:11Z</time>
      </trkpt>
      <trkpt lat="49.30609" lon="1.24376">
        <ele>8</ele>
        <time>2017-04-04T14:13:27Z</time>
      </trkpt>
      <trkpt lat="49.30607" lon="1.24382">
        <ele>8</ele>
        <time>2017-04-04T14:13:27Z</time>
      </trkpt>
      <trkpt lat="49.30606" lon="1.24389">
        <ele>8</ele>
        <time>2017-04-04T14:13:27Z</time>
      </trkpt>
      <trkpt lat="49.30605" lon="1.24398">
        <ele>8</ele>
        <time>2017-04-04T14:13:27Z</time>
      </trkpt>
      <trkpt lat="49.30599" lon="1.24409">
        <ele>8</ele>
        <time>2017-04-04T14:14:27Z</time>
      </trkpt>
      <trkpt lat="49.30598" lon="1.24408">
        <ele>8</ele>
        <time>2017-04-04T14:14:27Z</time>
      </trkpt>
      <trkpt lat="49.30596" lon="1.24404">
        <ele>8</ele>
        <time>2017-04-04T14:14:27Z</time>
      </trkpt>
      <trkpt lat="49.30595" lon="1.24403">
        <ele>8</ele>
        <time>2017-04-04T14:14:27Z</time>
      </trkpt>
      <trkpt lat="49.30594" lon="1.24403">
        <ele>8</ele>
        <time>2017-04-04T14:14:27Z</time>
      </trkpt>
      <trkpt lat="49.30587" lon="1.2441">
        <ele>8</ele>
        <time>2017-04-04T14:20:59Z</time>
      </trkpt>
      <trkpt lat="49.30587" lon="1.2441">
        <ele>8</ele>
        <time>2017-04-04T14:20:59Z</time>
      </trkpt>
      <trkpt lat="49.30587" lon="1.2441">
        <ele>8</ele>
        <time>2017-04-04T14:20:59Z</time>
      </trkpt>
      <trkpt lat="49.30586" lon="1.2441">
        <ele>8</ele>
        <time>2017-04-04T14:20:59Z</time>
      </trkpt>
      <trkpt lat="49.30587" lon="1.24414">
        <ele>8</ele>
        <time>2017-04-04T14:20:59Z</time>
      </trkpt>
      <trkpt lat="49.30585" lon="1.24418">
        <ele>8</ele>
        <time>2017-04-04T14:21:15Z</time>
      </trkpt>
      <trkpt lat="49.30584" lon="1.24422">
        <ele>8</ele>
        <time>2017-04-04T14:21:15Z</time>
      </trkpt>
      <trkpt lat="49.30582" lon="1.24429">
        <ele>8</ele>
        <time>2017-04-04T14:21:15Z</time>
      </trkpt>
      <trkpt lat="49.30579" lon="1.24436">
        <ele>8</ele>
        <time>2017-04-04T14:21:15Z</time>
      </trkpt>
      <trkpt lat="49.30575" lon="1.24442">
        <ele>8</ele>
        <time>2017-04-04T14:21:31Z</time>
      </trkpt>
      <trkpt lat="49.30573" lon="1.24448">
        <ele>8</ele>
        <time>2017-04-04T14:21:31Z</time>
      </trkpt>
      <trkpt lat="49.30569" lon="1.24454">
        <ele>8</ele>
        <time>2017-04-04T14:21:31Z</time>
      </trkpt>
      <trkpt lat="49.30567" lon="1.24458">
        <ele>8</ele>
        <time>2017-04-04T14:21:31Z</time>
      </trkpt>
      <trkpt lat="49.30565" lon="1.24465">
        <ele>8</ele>
        <time>2017-04-04T14:21:47Z</time>
      </trkpt>
      <trkpt lat="49.30563" lon="1.24471">
        <ele>8</ele>
        <time>2017-04-04T14:21:47Z</time>
      </trkpt>
      <trkpt lat="49.30561" lon="1.24476">
        <ele>8</ele>
        <time>2017-04-04T14:21:47Z</time>
      </trkpt>
      <trkpt lat="49.30559" lon="1.24481">
        <ele>8</ele>
        <time>2017-04-04T14:21:47Z</time>
      </trkpt>
      <trkpt lat="49.30557" lon="1.24488">
        <ele>8</ele>
        <time>2017-04-04T14:22:03Z</time>
      </trkpt>
      <trkpt lat="49.30552" lon="1.24494">
        <ele>8</ele>
        <time>2017-04-04T14:22:03Z</time>
      </trkpt>
      <trkpt lat="49.30551" lon="1.24506">
        <ele>8</ele>
        <time>2017-04-04T14:22:03Z</time>
      </trkpt>
      <trkpt lat="49.30549" lon="1.24515">
        <ele>8</ele>
        <time>2017-04-04T14:22:03Z</time>
      </trkpt>
      <trkpt lat="49.30549" lon="1.24521">
        <ele>8</ele>
        <time>2017-04-04T14:22:19Z</time>
      </trkpt>
      <trkpt lat="49.30549" lon="1.24527">
        <ele>8</ele>
        <time>2017-04-04T14:22:19Z</time>
      </trkpt>
      <trkpt lat="49.30547" lon="1.24535">
        <ele>8</ele>
        <time>2017-04-04T14:22:19Z</time>
      </trkpt>
      <trkpt lat="49.30544" lon="1.24539">
        <ele>8</ele>
        <time>2017-04-04T14:22:19Z</time>
      </trkpt>
      <trkpt lat="49.30543" lon="1.24544">
        <ele>6</ele>
        <time>2017-04-04T14:22:35Z</time>
      </trkpt>
      <trkpt lat="49.30541" lon="1.24551">
        <ele>9</ele>
        <time>2017-04-04T14:22:35Z</time>
      </trkpt>
      <trkpt lat="49.30538" lon="1.24555">
        <ele>9</ele>
        <time>2017-04-04T14:22:35Z</time>
      </trkpt>
      <trkpt lat="49.30536" lon="1.24561">
        <ele>9</ele>
        <time>2017-04-04T14:22:35Z</time>
      </trkpt>
      <trkpt lat="49.30533" lon="1.24565">
        <ele>9</ele>
        <time>2017-04-04T14:22:51Z</time>
      </trkpt>
      <trkpt lat="49.30532" lon="1.24573">
        <ele>9</ele>
        <time>2017-04-04T14:22:51Z</time>
      </trkpt>
      <trkpt lat="49.3053" lon="1.24578">
        <ele>9</ele>
        <time>2017-04-04T14:22:51Z</time>
      </trkpt>
      <trkpt lat="49.30528" lon="1.24583">
        <ele>9</ele>
        <time>2017-04-04T14:22:51Z</time>
      </trkpt>
      <trkpt lat="49.30525" lon="1.24592">
        <ele>9</ele>
        <time>2017-04-04T14:23:07Z</time>
      </trkpt>
      <trkpt lat="49.30522" lon="1.24597">
        <ele>9</ele>
        <time>2017-04-04T14:23:07Z</time>
      </trkpt>
      <trkpt lat="49.3052" lon="1.24603">
        <ele>9</ele>
        <time>2017-04-04T14:23:07Z</time>
      </trkpt>
      <trkpt lat="49.30519" lon="1.2461">
        <ele>9</ele>
        <time>2017-04-04T14:23:07Z</time>
      </trkpt>
      <trkpt lat="49.30517" lon="1.24619">
        <ele>9</ele>
        <time>2017-04-04T14:23:23Z</time>
      </trkpt>
      <trkpt lat="49.30513" lon="1.24626">
        <ele>6</ele>
        <time>2017-04-04T14:23:23Z</time>
      </trkpt>
      <trkpt lat="49.30511" lon="1.24633">
        <ele>6</ele>
        <time>2017-04-04T14:23:23Z</time>
      </trkpt>
      <trkpt lat="49.30509" lon="1.24638">
        <ele>6</ele>
        <time>2017-04-04T14:23:23Z</time>
      </trkpt>
      <trkpt lat="49.30502" lon="1.24642">
        <ele>6</ele>
        <time>2017-04-04T14:23:39Z</time>
      </trkpt>
      <trkpt lat="49.30498" lon="1.24648">
        <ele>6</ele>
        <time>2017-04-04T14:23:39Z</time>
      </trkpt>
      <trkpt lat="49.30495" lon="1.24656">
        <ele>6</ele>
        <time>2017-04-04T14:23:39Z</time>
      </trkpt>
      <trkpt lat="49.30493" lon="1.24665">
        <ele>6</ele>
        <time>2017-04-04T14:23:39Z</time>
      </trkpt>
      <trkpt lat="49.30491" lon="1.2467">
        <ele>6</ele>
        <time>2017-04-04T14:23:55Z</time>
      </trkpt>
      <trkpt lat="49.30491" lon="1.24675">
        <ele>6</ele>
        <time>2017-04-04T14:23:55Z</time>
      </trkpt>
      <trkpt lat="49.30491" lon="1.24681">
        <ele>6</ele>
        <time>2017-04-04T14:23:55Z</time>
      </trkpt>
      <trkpt lat="49.30492" lon="1.24689">
        <ele>6</ele>
        <time>2017-04-04T14:23:55Z</time>
      </trkpt>
      <trkpt lat="49.30492" lon="1.24697">
        <ele>6</ele>
        <time>2017-04-04T14:24:11Z</time>
      </trkpt>
      <trkpt lat="49.30492" lon="1.24704">
        <ele>6</ele>
        <time>2017-04-04T14:24:11Z</time>
      </trkpt>
      <trkpt lat="49.30492" lon="1.24712">
        <ele>6</ele>
        <time>2017-04-04T14:24:11Z</time>
      </trkpt>
      <trkpt lat="49.30491" lon="1.24719">
        <ele>6</ele>
        <time>2017-04-04T14:24:11Z</time>
      </trkpt>
      <trkpt lat="49.30491" lon="1.24727">
        <ele>6</ele>
        <time>2017-04-04T14:24:27Z</time>
      </trkpt>
      <trkpt lat="49.30488" lon="1.24734">
        <ele>6</ele>
        <time>2017-04-04T14:24:27Z</time>
      </trkpt>
      <trkpt lat="49.30479" lon="1.2474">
        <ele>6</ele>
        <time>2017-04-04T14:24:27Z</time>
      </trkpt>
      <trkpt lat="49.30469" lon="1.24745">
        <ele>6</ele>
        <time>2017-04-04T14:24:27Z</time>
      </trkpt>
      <trkpt lat="49.30464" lon="1.24752">
        <ele>6</ele>
        <time>2017-04-04T14:24:43Z</time>
      </trkpt>
      <trkpt lat="49.30454" lon="1.24753">
        <ele>10</ele>
        <time>2017-04-04T14:24:43Z</time>
      </trkpt>
      <trkpt lat="49.30448" lon="1.24754">
        <ele>10</ele>
        <time>2017-04-04T14:24:43Z</time>
      </trkpt>
      <trkpt lat="49.30439" lon="1.24757">
        <ele>10</ele>
        <time>2017-04-04T14:24:43Z</time>
      </trkpt>
      <trkpt lat="49.30435" lon="1.24759">
        <ele>10</ele>
        <time>2017-04-04T14:24:59Z</time>
      </trkpt>
      <trkpt lat="49.30432" lon="1.24765">
        <ele>10</ele>
        <time>2017-04-04T14:24:59Z</time>
      </trkpt>
      <trkpt lat="49.30427" lon="1.2477">
        <ele>10</ele>
        <time>2017-04-04T14:24:59Z</time>
      </trkpt>
      <trkpt lat="49.30424" lon="1.24772">
        <ele>10</ele>
        <time>2017-04-04T14:24:59Z</time>
      </trkpt>
      <trkpt lat="49.3042" lon="1.24777">
        <ele>10</ele>
        <time>2017-04-04T14:25:15Z</time>
      </trkpt>
      <trkpt lat="49.30416" lon="1.24782">
        <ele>10</ele>
        <time>2017-04-04T14:25:15Z</time>
      </trkpt>
      <trkpt lat="49.30412" lon="1.24789">
        <ele>10</ele>
        <time>2017-04-04T14:25:15Z</time>
      </trkpt>
      <trkpt lat="49.30408" lon="1.24793">
        <ele>6</ele>
        <time>2017-04-04T14:25:15Z</time>
      </trkpt>
      <trkpt lat="49.30406" lon="1.24798">
        <ele>6</ele>
        <time>2017-04-04T14:25:31Z</time>
      </trkpt>
      <trkpt lat="49.30404" lon="1.24805">
        <ele>6</ele>
        <time>2017-04-04T14:25:31Z</time>
      </trkpt>
      <trkpt lat="49.30402" lon="1.24812">
        <ele>6</ele>
        <time>2017-04-04T14:25:31Z</time>
      </trkpt>
      <trkpt lat="49.30396" lon="1.24817">
        <ele>6</ele>
        <time>2017-04-04T14:25:31Z</time>
      </trkpt>
      <trkpt lat="49.30392" lon="1.2482">
        <ele>6</ele>
        <time>2017-04-04T14:25:47Z</time>
      </trkpt>
      <trkpt lat="49.30386" lon="1.24824">
        <ele>6</ele>
        <time>2017-04-04T14:25:47Z</time>
      </trkpt>
      <trkpt lat="49.3038" lon="1.24827">
        <ele>6</ele>
        <time>2017-04-04T14:25:47Z</time>
      </trkpt>
      <trkpt lat="49.30375" lon="1.2483">
        <ele>10</ele>
        <time>2017-04-04T14:25:47Z</time>
      </trkpt>
      <trkpt lat="49.30367" lon="1.24836">
        <ele>10</ele>
        <time>2017-04-04T14:26:03Z</time>
      </trkpt>
      <trkpt lat="49.30363" lon="1.2484">
        <ele>10</ele>
        <time>2017-04-04T14:26:03Z</time>
      </trkpt>
      <trkpt lat="49.3036" lon="1.24844">
        <ele>10</ele>
        <time>2017-04-04T14:26:03Z</time>
      </trkpt>
      <trkpt lat="49.30357" lon="1.2485">
        <ele>10</ele>
        <time>2017-04-04T14:26:03Z</time>
      </trkpt>
      <trkpt lat="49.30352" lon="1.24854">
        <ele>10</ele>
        <time>2017-04-04T14:26:19Z</time>
      </trkpt>
      <trkpt lat="49.30345" lon="1.24855">
        <ele>10</ele>
        <time>2017-04-04T14:26:19Z</time>
      </trkpt>
      <trkpt lat="49.30339" lon="1.24858">
        <ele>10</ele>
        <time>2017-04-04T14:26:19Z</time>
      </trkpt>
      <trkpt lat="49.30334" lon="1.24861">
        <ele>10</ele>
        <time>2017-04-04T14:26:19Z</time>
      </trkpt>
      <trkpt lat="49.3033" lon="1.24868">
        <ele>10</ele>
        <time>2017-04-04T14:26:35Z</time>
      </trkpt>
      <trkpt lat="49.30322" lon="1.24873">
        <ele>10</ele>
        <time>2017-04-04T14:26:35Z</time>
      </trkpt>
      <trkpt lat="49.30318" lon="1.24875">
        <ele>10</ele>
        <time>2017-04-04T14:26:35Z</time>
      </trkpt>
      <trkpt lat="49.30314" lon="1.24877">
        <ele>6</ele>
        <time>2017-04-04T14:26:35Z</time>
      </trkpt>
      <trkpt lat="49.30312" lon="1.24883">
        <ele>6</ele>
        <time>2017-04-04T14:26:51Z</time>
      </trkpt>
      <trkpt lat="49.30308" lon="1.24885">
        <ele>6</ele>
        <time>2017-04-04T14:26:51Z</time>
      </trkpt>
      <trkpt lat="49.30305" lon="1.24888">
        <ele>6</ele>
        <time>2017-04-04T14:26:51Z</time>
      </trkpt>
      <trkpt lat="49.303" lon="1.24896">
        <ele>6</ele>
        <time>2017-04-04T14:26:51Z</time>
      </trkpt>
      <trkpt lat="49.30297" lon="1.24901">
        <ele>6</ele>
        <time>2017-04-04T14:27:07Z</time>
      </trkpt>
      <trkpt lat="49.30293" lon="1.24908">
        <ele>6</ele>
        <time>2017-04-04T14:27:07Z</time>
      </trkpt>
      <trkpt lat="49.30291" lon="1.24911">
        <ele>11</ele>
        <time>2017-04-04T14:27:07Z</time>
      </trkpt>
      <trkpt lat="49.30285" lon="1.24917">
        <ele>11</ele>
        <time>2017-04-04T14:27:07Z</time>
      </trkpt>
      <trkpt lat="49.30283" lon="1.24921">
        <ele>11</ele>
        <time>2017-04-04T14:27:23Z</time>
      </trkpt>
      <trkpt lat="49.3028" lon="1.2493">
        <ele>11</ele>
        <time>2017-04-04T14:27:23Z</time>
      </trkpt>
      <trkpt lat="49.30277" lon="1.24937">
        <ele>11</ele>
        <time>2017-04-04T14:27:23Z</time>
      </trkpt>
      <trkpt lat="49.30276" lon="1.24941">
        <ele>11</ele>
        <time>2017-04-04T14:27:23Z</time>
      </trkpt>
      <trkpt lat="49.30273" lon="1.24947">
        <ele>11</ele>
        <time>2017-04-04T14:27:39Z</time>
      </trkpt>
      <trkpt lat="49.3027" lon="1.24953">
        <ele>11</ele>
        <time>2017-04-04T14:27:39Z</time>
      </trkpt>
      <trkpt lat="49.30268" lon="1.24961">
        <ele>6</ele>
        <time>2017-04-04T14:27:39Z</time>
      </trkpt>
      <trkpt lat="49.30265" lon="1.24969">
        <ele>6</ele>
        <time>2017-04-04T14:27:39Z</time>
      </trkpt>
      <trkpt lat="49.30262" lon="1.24977">
        <ele>6</ele>
        <time>2017-04-04T14:27:55Z</time>
      </trkpt>
      <trkpt lat="49.30257" lon="1.24983">
        <ele>6</ele>
        <time>2017-04-04T14:27:55Z</time>
      </trkpt>
      <trkpt lat="49.30254" lon="1.24988">
        <ele>6</ele>
        <time>2017-04-04T14:27:55Z</time>
      </trkpt>
      <trkpt lat="49.30253" lon="1.24992">
        <ele>6</ele>
        <time>2017-04-04T14:27:55Z</time>
      </trkpt>
      <trkpt lat="49.30251" lon="1.24997">
        <ele>6</ele>
        <time>2017-04-04T14:28:11Z</time>
      </trkpt>
      <trkpt lat="49.3025" lon="1.25001">
        <ele>6</ele>
        <time>2017-04-04T14:28:11Z</time>
      </trkpt>
      <trkpt lat="49.30247" lon="1.25009">
        <ele>6</ele>
        <time>2017-04-04T14:28:11Z</time>
      </trkpt>
      <trkpt lat="49.30242" lon="1.25015">
        <ele>6</ele>
        <time>2017-04-04T14:28:11Z</time>
      </trkpt>
      <trkpt lat="49.30239" lon="1.2502">
        <ele>6</ele>
        <time>2017-04-04T14:28:27Z</time>
      </trkpt>
      <trkpt lat="49.30238" lon="1.25027">
        <ele>6</ele>
        <time>2017-04-04T14:28:27Z</time>
      </trkpt>
      <trkpt lat="49.30237" lon="1.25034">
        <ele>6</ele>
        <time>2017-04-04T14:28:27Z</time>
      </trkpt>
      <trkpt lat="49.30234" lon="1.25042">
        <ele>6</ele>
        <time>2017-04-04T14:28:27Z</time>
      </trkpt>
      <trkpt lat="49.3023" lon="1.25051">
        <ele>6</ele>
        <time>2017-04-04T14:28:43Z</time>
      </trkpt>
      <trkpt lat="49.30226" lon="1.25059">
        <ele>6</ele>
        <time>2017-04-04T14:28:43Z</time>
      </trkpt>
      <trkpt lat="49.30222" lon="1.25066">
        <ele>6</ele>
        <time>2017-04-04T14:28:43Z</time>
      </trkpt>
      <trkpt lat="49.30217" lon="1.25072">
        <ele>6</ele>
        <time>2017-04-04T14:28:43Z</time>
      </trkpt>
      <trkpt lat="49.30211" lon="1.25075">
        <ele>6</ele>
        <time>2017-04-04T14:28:59Z</time>
      </trkpt>
      <trkpt lat="49.30206" lon="1.25077">
        <ele>11</ele>
        <time>2017-04-04T14:28:59Z</time>
      </trkpt>
      <trkpt lat="49.30201" lon="1.25079">
        <ele>11</ele>
        <time>2017-04-04T14:28:59Z</time>
      </trkpt>
      <trkpt lat="49.30195" lon="1.25082">
        <ele>11</ele>
        <time>2017-04-04T14:28:59Z</time>
      </trkpt>
      <trkpt lat="49.3019" lon="1.25087">
        <ele>11</ele>
        <time>2017-04-04T14:29:15Z</time>
      </trkpt>
      <trkpt lat="49.30184" lon="1.25091">
        <ele>11</ele>
        <time>2017-04-04T14:29:15Z</time>
      </trkpt>
      <trkpt lat="49.30178" lon="1.25095">
        <ele>11</ele>
        <time>2017-04-04T14:29:15Z</time>
      </trkpt>
      <trkpt lat="49.30174" lon="1.25097">
        <ele>11</ele>
        <time>2017-04-04T14:29:15Z</time>
      </trkpt>
      <trkpt lat="49.3017" lon="1.25102">
        <ele>11</ele>
        <time>2017-04-04T14:29:31Z</time>
      </trkpt>
      <trkpt lat="49.30166" lon="1.25108">
        <ele>11</ele>
        <time>2017-04-04T14:29:31Z</time>
      </trkpt>
      <trkpt lat="49.30162" lon="1.25114">
        <ele>11</ele>
        <time>2017-04-04T14:29:31Z</time>
      </trkpt>
      <trkpt lat="49.30158" lon="1.25117">
        <ele>11</ele>
        <time>2017-04-04T14:29:31Z</time>
      </trkpt>
      <trkpt lat="49.30154" lon="1.25122">
        <ele>11</ele>
        <time>2017-04-04T14:29:47Z</time>
      </trkpt>
      <trkpt lat="49.3015" lon="1.25126">
        <ele>14</ele>
        <time>2017-04-04T14:29:47Z</time>
      </trkpt>
      <trkpt lat="49.30146" lon="1.25129">
        <ele>14</ele>
        <time>2017-04-04T14:29:47Z</time>
      </trkpt>
      <trkpt lat="49.30142" lon="1.25132">
        <ele>14</ele>
        <time>2017-04-04T14:29:47Z</time>
      </trkpt>
      <trkpt lat="49.30138" lon="1.25135">
        <ele>14</ele>
        <time>2017-04-04T14:30:03Z</time>
      </trkpt>
      <trkpt lat="49.30134" lon="1.25139">
        <ele>14</ele>
        <time>2017-04-04T14:30:03Z</time>
      </trkpt>
      <trkpt lat="49.3013" lon="1.25143">
        <ele>14</ele>
        <time>2017-04-04T14:30:03Z</time>
      </trkpt>
      <trkpt lat="49.30125" lon="1.25148">
        <ele>12</ele>
        <time>2017-04-04T14:30:03Z</time>
      </trkpt>
      <trkpt lat="49.3012" lon="1.2515">
        <ele>12</ele>
        <time>2017-04-04T14:30:19Z</time>
      </trkpt>
      <trkpt lat="49.30115" lon="1.25154">
        <ele>12</ele>
        <time>2017-04-04T14:30:19Z</time>
      </trkpt>
      <trkpt lat="49.3011" lon="1.25158">
        <ele>12</ele>
        <time>2017-04-04T14:30:19Z</time>
      </trkpt>
      <trkpt lat="49.30105" lon="1.25161">
        <ele>12</ele>
        <time>2017-04-04T14:30:19Z</time>
      </trkpt>
      <trkpt lat="49.30098" lon="1.25165">
        <ele>12</ele>
        <time>2017-04-04T14:30:35Z</time>
      </trkpt>
      <trkpt lat="49.30095" lon="1.25169">
        <ele>12</ele>
        <time>2017-04-04T14:30:35Z</time>
      </trkpt>
      <trkpt lat="49.3009" lon="1.25174">
        <ele>12</ele>
        <time>2017-04-04T14:30:35Z</time>
      </trkpt>
      <trkpt lat="49.30085" lon="1.25179">
        <ele>12</ele>
        <time>2017-04-04T14:30:35Z</time>
      </trkpt>
      <trkpt lat="49.30082" lon="1.25183">
        <ele>12</ele>
        <time>2017-04-04T14:30:51Z</time>
      </trkpt>
      <trkpt lat="49.30078" lon="1.25184">
        <ele>12</ele>
        <time>2017-04-04T14:30:51Z</time>
      </trkpt>
      <trkpt lat="49.30074" lon="1.25185">
        <ele>12</ele>
        <time>2017-04-04T14:30:51Z</time>
      </trkpt>
      <trkpt lat="49.30069" lon="1.25186">
        <ele>12</ele>
        <time>2017-04-04T14:30:51Z</time>
      </trkpt>
      <trkpt lat="49.30062" lon="1.25188">
        <ele>12</ele>
        <time>2017-04-04T14:31:07Z</time>
      </trkpt>
      <trkpt lat="49.30057" lon="1.25191">
        <ele>12</ele>
        <time>2017-04-04T14:31:07Z</time>
      </trkpt>
      <trkpt lat="49.30051" lon="1.25194">
        <ele>12</ele>
        <time>2017-04-04T14:31:07Z</time>
      </trkpt>
      <trkpt lat="49.30047" lon="1.25198">
        <ele>12</ele>
        <time>2017-04-04T14:31:07Z</time>
      </trkpt>
      <trkpt lat="49.30043" lon="1.25202">
        <ele>12</ele>
        <time>2017-04-04T14:31:23Z</time>
      </trkpt>
      <trkpt lat="49.30039" lon="1.25208">
        <ele>11</ele>
        <time>2017-04-04T14:31:23Z</time>
      </trkpt>
      <trkpt lat="49.30035" lon="1.25212">
        <ele>12</ele>
        <time>2017-04-04T14:31:23Z</time>
      </trkpt>
      <trkpt lat="49.3003" lon="1.25216">
        <ele>12</ele>
        <time>2017-04-04T14:31:23Z</time>
      </trkpt>
      <trkpt lat="49.30026" lon="1.2522">
        <ele>12</ele>
        <time>2017-04-04T14:31:39Z</time>
      </trkpt>
      <trkpt lat="49.30021" lon="1.25223">
        <ele>12</ele>
        <time>2017-04-04T14:31:39Z</time>
      </trkpt>
      <trkpt lat="49.30017" lon="1.25228">
        <ele>12</ele>
        <time>2017-04-04T14:31:39Z</time>
      </trkpt>
      <trkpt lat="49.30013" lon="1.2523">
        <ele>12</ele>
        <time>2017-04-04T14:31:39Z</time>
      </trkpt>
      <trkpt lat="49.3001" lon="1.25236">
        <ele>12</ele>
        <time>2017-04-04T14:31:55Z</time>
      </trkpt>
      <trkpt lat="49.30006" lon="1.25242">
        <ele>12</ele>
        <time>2017-04-04T14:31:55Z</time>
      </trkpt>
      <trkpt lat="49.30001" lon="1.25246">
        <ele>12</ele>
        <time>2017-04-04T14:31:55Z</time>
      </trkpt>
      <trkpt lat="49.29996" lon="1.2525">
        <ele>12</ele>
        <time>2017-04-04T14:31:55Z</time>
      </trkpt>
      <trkpt lat="49.29992" lon="1.25255">
        <ele>12</ele>
        <time>2017-04-04T14:32:11Z</time>
      </trkpt>
      <trkpt lat="49.29989" lon="1.25255">
        <ele>12</ele>
        <time>2017-04-04T14:32:11Z</time>
      </trkpt>
      <trkpt lat="49.29979" lon="1.25245">
        <ele>12</ele>
        <time>2017-04-04T14:32:11Z</time>
      </trkpt>
      <trkpt lat="49.29975" lon="1.25244">
        <ele>12</ele>
        <time>2017-04-04T14:32:11Z</time>
      </trkpt>
      <trkpt lat="49.29969" lon="1.25243">
        <ele>12</ele>
        <time>2017-04-04T14:32:27Z</time>
      </trkpt>
      <trkpt lat="49.29964" lon="1.25245">
        <ele>12</ele>
        <time>2017-04-04T14:32:27Z</time>
      </trkpt>
      <trkpt lat="49.29961" lon="1.2525">
        <ele>12</ele>
        <time>2017-04-04T14:32:27Z</time>
      </trkpt>
      <trkpt lat="49.2996" lon="1.25256">
        <ele>12</ele>
        <time>2017-04-04T14:32:27Z</time>
      </trkpt>
      <trkpt lat="49.29955" lon="1.25263">
        <ele>12</ele>
        <time>2017-04-04T14:32:43Z</time>
      </trkpt>
      <trkpt lat="49.29953" lon="1.25272">
        <ele>12</ele>
        <time>2017-04-04T14:32:43Z</time>
      </trkpt>
      <trkpt lat="49.2995" lon="1.25283">
        <ele>12</ele>
        <time>2017-04-04T14:32:43Z</time>
      </trkpt>
      <trkpt lat="49.29947" lon="1.25292">
        <ele>12</ele>
        <time>2017-04-04T14:32:43Z</time>
      </trkpt>
      <trkpt lat="49.29943" lon="1.25299">
        <ele>12</ele>
        <time>2017-04-04T14:32:59Z</time>
      </trkpt>
      <trkpt lat="49.2994" lon="1.25306">
        <ele>12</ele>
        <time>2017-04-04T14:32:59Z</time>
      </trkpt>
      <trkpt lat="49.29938" lon="1.25312">
        <ele>12</ele>
        <time>2017-04-04T14:32:59Z</time>
      </trkpt>
      <trkpt lat="49.29937" lon="1.25319">
        <ele>12</ele>
        <time>2017-04-04T14:32:59Z</time>
      </trkpt>
      <trkpt lat="49.29936" lon="1.25327">
        <ele>12</ele>
        <time>2017-04-04T14:33:15Z</time>
      </trkpt>
      <trkpt lat="49.29935" lon="1.25334">
        <ele>12</ele>
        <time>2017-04-04T14:33:15Z</time>
      </trkpt>
      <trkpt lat="49.29934" lon="1.25342">
        <ele>12</ele>
        <time>2017-04-04T14:33:15Z</time>
      </trkpt>
      <trkpt lat="49.29933" lon="1.25349">
        <ele>12</ele>
        <time>2017-04-04T14:33:15Z</time>
      </trkpt>
      <trkpt lat="49.29932" lon="1.25356">
        <ele>12</ele>
        <time>2017-04-04T14:33:31Z</time>
      </trkpt>
      <trkpt lat="49.29929" lon="1.25362">
        <ele>12</ele>
        <time>2017-04-04T14:33:31Z</time>
      </trkpt>
      <trkpt lat="49.2992" lon="1.25362">
        <ele>12</ele>
        <time>2017-04-04T14:33:31Z</time>
      </trkpt>
      <trkpt lat="49.29917" lon="1.25365">
        <ele>12</ele>
        <time>2017-04-04T14:33:31Z</time>
      </trkpt>
      <trkpt lat="49.29916" lon="1.25371">
        <ele>12</ele>
        <time>2017-04-04T14:33:47Z</time>
      </trkpt>
      <trkpt lat="49.29916" lon="1.25379">
        <ele>15</ele>
        <time>2017-04-04T14:33:47Z</time>
      </trkpt>
      <trkpt lat="49.29915" lon="1.25386">
        <ele>15</ele>
        <time>2017-04-04T14:33:47Z</time>
      </trkpt>
      <trkpt lat="49.29914" lon="1.25393">
        <ele>15</ele>
        <time>2017-04-04T14:33:47Z</time>
      </trkpt>
      <trkpt lat="49.2991" lon="1.25399">
        <ele>15</ele>
        <time>2017-04-04T14:34:43Z</time>
      </trkpt>
      <trkpt lat="49.29833" lon="1.25416">
        <ele>17</ele>
        <time>2017-04-04T14:34:43Z</time>
      </trkpt>
      <trkpt lat="49.29829" lon="1.25418">
        <ele>17</ele>
        <time>2017-04-04T14:34:43Z</time>
      </trkpt>
      <trkpt lat="49.29824" lon="1.25422">
        <ele>17</ele>
        <time>2017-04-04T14:34:43Z</time>
      </trkpt>
      <trkpt lat="49.29821" lon="1.25425">
        <ele>17</ele>
        <time>2017-04-04T14:34:59Z</time>
      </trkpt>
      <trkpt lat="49.29819" lon="1.25432">
        <ele>17</ele>
        <time>2017-04-04T14:34:59Z</time>
      </trkpt>
      <trkpt lat="49.29817" lon="1.25439">
        <ele>17</ele>
        <time>2017-04-04T14:34:59Z</time>
      </trkpt>
      <trkpt lat="49.29815" lon="1.25446">
        <ele>17</ele>
        <time>2017-04-04T14:34:59Z</time>
      </trkpt>
      <trkpt lat="49.29811" lon="1.25451">
        <ele>17</ele>
        <time>2017-04-04T14:35:15Z</time>
      </trkpt>
      <trkpt lat="49.29805" lon="1.25455">
        <ele>17</ele>
        <time>2017-04-04T14:35:15Z</time>
      </trkpt>
      <trkpt lat="49.29801" lon="1.25459">
        <ele>19</ele>
        <time>2017-04-04T14:35:15Z</time>
      </trkpt>
      <trkpt lat="49.29798" lon="1.25463">
        <ele>19</ele>
        <time>2017-04-04T14:35:15Z</time>
      </trkpt>
      <trkpt lat="49.29793" lon="1.25469">
        <ele>19</ele>
        <time>2017-04-04T14:35:31Z</time>
      </trkpt>
      <trkpt lat="49.29792" lon="1.25474">
        <ele>15</ele>
        <time>2017-04-04T14:35:31Z</time>
      </trkpt>
      <trkpt lat="49.2979" lon="1.2548">
        <ele>15</ele>
        <time>2017-04-04T14:35:31Z</time>
      </trkpt>
      <trkpt lat="49.29786" lon="1.25486">
        <ele>15</ele>
        <time>2017-04-04T14:35:31Z</time>
      </trkpt>
      <trkpt lat="49.29781" lon="1.25489">
        <ele>15</ele>
        <time>2017-04-04T14:35:47Z</time>
      </trkpt>
      <trkpt lat="49.29779" lon="1.25496">
        <ele>15</ele>
        <time>2017-04-04T14:35:47Z</time>
      </trkpt>
      <trkpt lat="49.29773" lon="1.25496">
        <ele>15</ele>
        <time>2017-04-04T14:35:47Z</time>
      </trkpt>
      <trkpt lat="49.29765" lon="1.25498">
        <ele>15</ele>
        <time>2017-04-04T14:35:47Z</time>
      </trkpt>
      <trkpt lat="49.29762" lon="1.25499">
        <ele>15</ele>
        <time>2017-04-04T14:36:03Z</time>
      </trkpt>
      <trkpt lat="49.29759" lon="1.25504">
        <ele>15</ele>
        <time>2017-04-04T14:36:03Z</time>
      </trkpt>
      <trkpt lat="49.29757" lon="1.2551">
        <ele>15</ele>
        <time>2017-04-04T14:36:03Z</time>
      </trkpt>
      <trkpt lat="49.29755" lon="1.25517">
        <ele>15</ele>
        <time>2017-04-04T14:36:03Z</time>
      </trkpt>
      <trkpt lat="49.29752" lon="1.25525">
        <ele>15</ele>
        <time>2017-04-04T14:36:19Z</time>
      </trkpt>
      <trkpt lat="49.2975" lon="1.25529">
        <ele>15</ele>
        <time>2017-04-04T14:36:19Z</time>
      </trkpt>
      <trkpt lat="49.29742" lon="1.25526">
        <ele>15</ele>
        <time>2017-04-04T14:36:19Z</time>
      </trkpt>
      <trkpt lat="49.29736" lon="1.25519">
        <ele>15</ele>
        <time>2017-04-04T14:36:19Z</time>
      </trkpt>
      <trkpt lat="49.29732" lon="1.25516">
        <ele>15</ele>
        <time>2017-04-04T14:36:35Z</time>
      </trkpt>
      <trkpt lat="49.29729" lon="1.2552">
        <ele>15</ele>
        <time>2017-04-04T14:36:35Z</time>
      </trkpt>
      <trkpt lat="49.29727" lon="1.25527">
        <ele>15</ele>
        <time>2017-04-04T14:36:35Z</time>
      </trkpt>
      <trkpt lat="49.29725" lon="1.25534">
        <ele>15</ele>
        <time>2017-04-04T14:36:35Z</time>
      </trkpt>
      <trkpt lat="49.29724" lon="1.25541">
        <ele>15</ele>
        <time>2017-04-04T14:36:51Z</time>
      </trkpt>
      <trkpt lat="49.29722" lon="1.25549">
        <ele>14</ele>
        <time>2017-04-04T14:36:51Z</time>
      </trkpt>
      <trkpt lat="49.29721" lon="1.25555">
        <ele>14</ele>
        <time>2017-04-04T14:36:51Z</time>
      </trkpt>
      <trkpt lat="49.29719" lon="1.25562">
        <ele>14</ele>
        <time>2017-04-04T14:36:51Z</time>
      </trkpt>
      <trkpt lat="49.29718" lon="1.25569">
        <ele>14</ele>
        <time>2017-04-04T14:37:07Z</time>
      </trkpt>
      <trkpt lat="49.29717" lon="1.25576">
        <ele>14</ele>
        <time>2017-04-04T14:37:07Z</time>
      </trkpt>
      <trkpt lat="49.29716" lon="1.25584">
        <ele>14</ele>
        <time>2017-04-04T14:37:07Z</time>
      </trkpt>
      <trkpt lat="49.29708" lon="1.2559">
        <ele>13</ele>
        <time>2017-04-04T14:37:07Z</time>
      </trkpt>
      <trkpt lat="49.29697" lon="1.25591">
        <ele>13</ele>
        <time>2017-04-04T14:37:23Z</time>
      </trkpt>
      <trkpt lat="49.29689" lon="1.25596">
        <ele>13</ele>
        <time>2017-04-04T14:37:23Z</time>
      </trkpt>
      <trkpt lat="49.29678" lon="1.25602">
        <ele>13</ele>
        <time>2017-04-04T14:37:23Z</time>
      </trkpt>
      <trkpt lat="49.29673" lon="1.25607">
        <ele>13</ele>
        <time>2017-04-04T14:37:23Z</time>
      </trkpt>
      <trkpt lat="49.29666" lon="1.25608">
        <ele>13</ele>
        <time>2017-04-04T14:37:39Z</time>
      </trkpt>
      <trkpt lat="49.29661" lon="1.25613">
        <ele>13</ele>
        <time>2017-04-04T14:37:39Z</time>
      </trkpt>
      <trkpt lat="49.29653" lon="1.25618">
        <ele>13</ele>
        <time>2017-04-04T14:37:39Z</time>
      </trkpt>
      <trkpt lat="49.2965" lon="1.25621">
        <ele>13</ele>
        <time>2017-04-04T14:37:39Z</time>
      </trkpt>
      <trkpt lat="49.29645" lon="1.25626">
        <ele>14</ele>
        <time>2017-04-04T14:37:55Z</time>
      </trkpt>
      <trkpt lat="49.29641" lon="1.25629">
        <ele>14</ele>
        <time>2017-04-04T14:37:55Z</time>
      </trkpt>
      <trkpt lat="49.29636" lon="1.25632">
        <ele>14</ele>
        <time>2017-04-04T14:37:55Z</time>
      </trkpt>
      <trkpt lat="49.29633" lon="1.25636">
        <ele>14</ele>
        <time>2017-04-04T14:37:55Z</time>
      </trkpt>
      <trkpt lat="49.29631" lon="1.2564">
        <ele>14</ele>
        <time>2017-04-04T14:38:11Z</time>
      </trkpt>
      <trkpt lat="49.29628" lon="1.25647">
        <ele>14</ele>
        <time>2017-04-04T14:38:11Z</time>
      </trkpt>
      <trkpt lat="49.29625" lon="1.25654">
        <ele>11</ele>
        <time>2017-04-04T14:38:11Z</time>
      </trkpt>
      <trkpt lat="49.29621" lon="1.25658">
        <ele>11</ele>
        <time>2017-04-04T14:38:11Z</time>
      </trkpt>
      <trkpt lat="49.29615" lon="1.25663">
        <ele>11</ele>
        <time>2017-04-04T14:38:27Z</time>
      </trkpt>
      <trkpt lat="49.29612" lon="1.25668">
        <ele>11</ele>
        <time>2017-04-04T14:38:27Z</time>
      </trkpt>
      <trkpt lat="49.29608" lon="1.25674">
        <ele>11</ele>
        <time>2017-04-04T14:38:27Z</time>
      </trkpt>
      <trkpt lat="49.29604" lon="1.25678">
        <ele>11</ele>
        <time>2017-04-04T14:38:27Z</time>
      </trkpt>
      <trkpt lat="49.29601" lon="1.25684">
        <ele>11</ele>
        <time>2017-04-04T14:38:43Z</time>
      </trkpt>
      <trkpt lat="49.296" lon="1.25691">
        <ele>11</ele>
        <time>2017-04-04T14:38:43Z</time>
      </trkpt>
      <trkpt lat="49.29597" lon="1.25696">
        <ele>11</ele>
        <time>2017-04-04T14:38:43Z</time>
      </trkpt>
      <trkpt lat="49.29595" lon="1.257">
        <ele>11</ele>
        <time>2017-04-04T14:38:43Z</time>
      </trkpt>
      <trkpt lat="49.2959" lon="1.25706">
        <ele>11</ele>
        <time>2017-04-04T14:38:59Z</time>
      </trkpt>
      <trkpt lat="49.29586" lon="1.25708">
        <ele>11</ele>
        <time>2017-04-04T14:38:59Z</time>
      </trkpt>
      <trkpt lat="49.2958" lon="1.25713">
        <ele>12</ele>
        <time>2017-04-04T14:38:59Z</time>
      </trkpt>
      <trkpt lat="49.29575" lon="1.25719">
        <ele>12</ele>
        <time>2017-04-04T14:38:59Z</time>
      </trkpt>
      <trkpt lat="49.29568" lon="1.25723">
        <ele>12</ele>
        <time>2017-04-04T14:39:15Z</time>
      </trkpt>
      <trkpt lat="49.29563" lon="1.25727">
        <ele>12</ele>
        <time>2017-04-04T14:39:15Z</time>
      </trkpt>
      <trkpt lat="49.29557" lon="1.25732">
        <ele>12</ele>
        <time>2017-04-04T14:39:15Z</time>
      </trkpt>
      <trkpt lat="49.29554" lon="1.25734">
        <ele>12</ele>
        <time>2017-04-04T14:39:15Z</time>
      </trkpt>
      <trkpt lat="49.29548" lon="1.25738">
        <ele>12</ele>
        <time>2017-04-04T14:39:31Z</time>
      </trkpt>
      <trkpt lat="49.29543" lon="1.25743">
        <ele>12</ele>
        <time>2017-04-04T14:39:31Z</time>
      </trkpt>
      <trkpt lat="49.29541" lon="1.25747">
        <ele>11</ele>
        <time>2017-04-04T14:39:31Z</time>
      </trkpt>
      <trkpt lat="49.29536" lon="1.25751">
        <ele>11</ele>
        <time>2017-04-04T14:39:31Z</time>
      </trkpt>
      <trkpt lat="49.2953" lon="1.25755">
        <ele>11</ele>
        <time>2017-04-04T14:39:47Z</time>
      </trkpt>
      <trkpt lat="49.29526" lon="1.25757">
        <ele>11</ele>
        <time>2017-04-04T14:39:47Z</time>
      </trkpt>
      <trkpt lat="49.29521" lon="1.2576">
        <ele>11</ele>
        <time>2017-04-04T14:39:47Z</time>
      </trkpt>
      <trkpt lat="49.29517" lon="1.25763">
        <ele>11</ele>
        <time>2017-04-04T14:39:47Z</time>
      </trkpt>
      <trkpt lat="49.29512" lon="1.25768">
        <ele>11</ele>
        <time>2017-04-04T14:40:03Z</time>
      </trkpt>
      <trkpt lat="49.29507" lon="1.25772">
        <ele>11</ele>
        <time>2017-04-04T14:40:03Z</time>
      </trkpt>
      <trkpt lat="49.29503" lon="1.25775">
        <ele>11</ele>
        <time>2017-04-04T14:40:03Z</time>
      </trkpt>
      <trkpt lat="49.29499" lon="1.25778">
        <ele>11</ele>
        <time>2017-04-04T14:40:03Z</time>
      </trkpt>
      <trkpt lat="49.29494" lon="1.25782">
        <ele>11</ele>
        <time>2017-04-04T14:40:19Z</time>
      </trkpt>
      <trkpt lat="49.2949" lon="1.25787">
        <ele>11</ele>
        <time>2017-04-04T14:40:19Z</time>
      </trkpt>
      <trkpt lat="49.29487" lon="1.25791">
        <ele>11</ele>
        <time>2017-04-04T14:40:19Z</time>
      </trkpt>
      <trkpt lat="49.29484" lon="1.25796">
        <ele>13</ele>
        <time>2017-04-04T14:40:19Z</time>
      </trkpt>
      <trkpt lat="49.29479" lon="1.25803">
        <ele>13</ele>
        <time>2017-04-04T14:40:35Z</time>
      </trkpt>
      <trkpt lat="49.29474" lon="1.25806">
        <ele>13</ele>
        <time>2017-04-04T14:40:35Z</time>
      </trkpt>
      <trkpt lat="49.2947" lon="1.25811">
        <ele>13</ele>
        <time>2017-04-04T14:40:35Z</time>
      </trkpt>
      <trkpt lat="49.29465" lon="1.25816">
        <ele>13</ele>
        <time>2017-04-04T14:40:35Z</time>
      </trkpt>
      <trkpt lat="49.2946" lon="1.2582">
        <ele>13</ele>
        <time>2017-04-04T14:40:51Z</time>
      </trkpt>
      <trkpt lat="49.29454" lon="1.25822">
        <ele>13</ele>
        <time>2017-04-04T14:40:51Z</time>
      </trkpt>
      <trkpt lat="49.2945" lon="1.25824">
        <ele>13</ele>
        <time>2017-04-04T14:40:51Z</time>
      </trkpt>
      <trkpt lat="49.29446" lon="1.2583">
        <ele>13</ele>
        <time>2017-04-04T14:40:51Z</time>
      </trkpt>
      <trkpt lat="49.29441" lon="1.25831">
        <ele>13</ele>
        <time>2017-04-04T14:41:07Z</time>
      </trkpt>
      <trkpt lat="49.29437" lon="1.25834">
        <ele>13</ele>
        <time>2017-04-04T14:41:07Z</time>
      </trkpt>
      <trkpt lat="49.29433" lon="1.2584">
        <ele>13</ele>
        <time>2017-04-04T14:41:07Z</time>
      </trkpt>
      <trkpt lat="49.29429" lon="1.25847">
        <ele>13</ele>
        <time>2017-04-04T14:41:07Z</time>
      </trkpt>
      <trkpt lat="49.29424" lon="1.25849">
        <ele>13</ele>
        <time>2017-04-04T14:41:23Z</time>
      </trkpt>
      <trkpt lat="49.29418" lon="1.25851">
        <ele>13</ele>
        <time>2017-04-04T14:41:23Z</time>
      </trkpt>
      <trkpt lat="49.29414" lon="1.25856">
        <ele>13</ele>
        <time>2017-04-04T14:41:23Z</time>
      </trkpt>
      <trkpt lat="49.29411" lon="1.25862">
        <ele>13</ele>
        <time>2017-04-04T14:41:23Z</time>
      </trkpt>
      <trkpt lat="49.29407" lon="1.25868">
        <ele>13</ele>
        <time>2017-04-04T14:41:39Z</time>
      </trkpt>
      <trkpt lat="49.29404" lon="1.25874">
        <ele>13</ele>
        <time>2017-04-04T14:41:39Z</time>
      </trkpt>
      <trkpt lat="49.294" lon="1.25881">
        <ele>6</ele>
        <time>2017-04-04T14:41:39Z</time>
      </trkpt>
      <trkpt lat="49.29397" lon="1.25886">
        <ele>6</ele>
        <time>2017-04-04T14:41:39Z</time>
      </trkpt>
      <trkpt lat="49.29391" lon="1.25893">
        <ele>6</ele>
        <time>2017-04-04T14:41:55Z</time>
      </trkpt>
      <trkpt lat="49.29387" lon="1.25898">
        <ele>6</ele>
        <time>2017-04-04T14:41:55Z</time>
      </trkpt>
      <trkpt lat="49.29385" lon="1.25902">
        <ele>6</ele>
        <time>2017-04-04T14:41:55Z</time>
      </trkpt>
      <trkpt lat="49.29378" lon="1.25906">
        <ele>6</ele>
        <time>2017-04-04T14:41:55Z</time>
      </trkpt>
      <trkpt lat="49.29375" lon="1.25909">
        <ele>6</ele>
        <time>2017-04-04T14:42:11Z</time>
      </trkpt>
      <trkpt lat="49.29372" lon="1.25913">
        <ele>15</ele>
        <time>2017-04-04T14:42:11Z</time>
      </trkpt>
      <trkpt lat="49.29368" lon="1.25919">
        <ele>15</ele>
        <time>2017-04-04T14:42:11Z</time>
      </trkpt>
      <trkpt lat="49.29364" lon="1.25925">
        <ele>15</ele>
        <time>2017-04-04T14:42:11Z</time>
      </trkpt>
      <trkpt lat="49.29361" lon="1.25931">
        <ele>15</ele>
        <time>2017-04-04T14:42:27Z</time>
      </trkpt>
      <trkpt lat="49.29358" lon="1.25934">
        <ele>15</ele>
        <time>2017-04-04T14:42:27Z</time>
      </trkpt>
      <trkpt lat="49.29353" lon="1.25939">
        <ele>15</ele>
        <time>2017-04-04T14:42:27Z</time>
      </trkpt>
      <trkpt lat="49.29347" lon="1.25946">
        <ele>15</ele>
        <time>2017-04-04T14:42:27Z</time>
      </trkpt>
      <trkpt lat="49.29344" lon="1.25951">
        <ele>15</ele>
        <time>2017-04-04T14:42:43Z</time>
      </trkpt>
      <trkpt lat="49.29341" lon="1.25958">
        <ele>15</ele>
        <time>2017-04-04T14:42:43Z</time>
      </trkpt>
      <trkpt lat="49.29337" lon="1.25963">
        <ele>6</ele>
        <time>2017-04-04T14:42:43Z</time>
      </trkpt>
      <trkpt lat="49.2933" lon="1.25961">
        <ele>6</ele>
        <time>2017-04-04T14:42:43Z</time>
      </trkpt>
      <trkpt lat="49.29327" lon="1.2596">
        <ele>6</ele>
        <time>2017-04-04T14:42:59Z</time>
      </trkpt>
      <trkpt lat="49.29322" lon="1.25962">
        <ele>6</ele>
        <time>2017-04-04T14:42:59Z</time>
      </trkpt>
      <trkpt lat="49.29317" lon="1.25963">
        <ele>6</ele>
        <time>2017-04-04T14:42:59Z</time>
      </trkpt>
      <trkpt lat="49.29312" lon="1.25964">
        <ele>6</ele>
        <time>2017-04-04T14:42:59Z</time>
      </trkpt>
      <trkpt lat="49.29306" lon="1.25965">
        <ele>6</ele>
        <time>2017-04-04T14:43:15Z</time>
      </trkpt>
      <trkpt lat="49.29301" lon="1.2597">
        <ele>6</ele>
        <time>2017-04-04T14:43:15Z</time>
      </trkpt>
      <trkpt lat="49.29298" lon="1.25973">
        <ele>6</ele>
        <time>2017-04-04T14:43:15Z</time>
      </trkpt>
      <trkpt lat="49.29292" lon="1.25976">
        <ele>6</ele>
        <time>2017-04-04T14:43:15Z</time>
      </trkpt>
      <trkpt lat="49.29289" lon="1.25979">
        <ele>11</ele>
        <time>2017-04-04T14:43:31Z</time>
      </trkpt>
      <trkpt lat="49.29284" lon="1.25983">
        <ele>11</ele>
        <time>2017-04-04T14:43:31Z</time>
      </trkpt>
      <trkpt lat="49.2928" lon="1.25986">
        <ele>11</ele>
        <time>2017-04-04T14:43:31Z</time>
      </trkpt>
      <trkpt lat="49.29275" lon="1.25991">
        <ele>11</ele>
        <time>2017-04-04T14:43:31Z</time>
      </trkpt>
      <trkpt lat="49.29268" lon="1.25996">
        <ele>11</ele>
        <time>2017-04-04T14:43:47Z</time>
      </trkpt>
      <trkpt lat="49.29265" lon="1.25999">
        <ele>11</ele>
        <time>2017-04-04T14:43:47Z</time>
      </trkpt>
      <trkpt lat="49.29261" lon="1.26002">
        <ele>11</ele>
        <time>2017-04-04T14:43:47Z</time>
      </trkpt>
      <trkpt lat="49.29256" lon="1.26007">
        <ele>11</ele>
        <time>2017-04-04T14:43:47Z</time>
      </trkpt>
      <trkpt lat="49.2925" lon="1.26011">
        <ele>11</ele>
        <time>2017-04-04T14:44:03Z</time>
      </trkpt>
      <trkpt lat="49.29245" lon="1.26015">
        <ele>11</ele>
        <time>2017-04-04T14:44:03Z</time>
      </trkpt>
      <trkpt lat="49.2924" lon="1.2602">
        <ele>11</ele>
        <time>2017-04-04T14:44:03Z</time>
      </trkpt>
      <trkpt lat="49.29237" lon="1.26024">
        <ele>11</ele>
        <time>2017-04-04T14:44:03Z</time>
      </trkpt>
      <trkpt lat="49.29233" lon="1.2603">
        <ele>11</ele>
        <time>2017-04-04T14:44:19Z</time>
      </trkpt>
      <trkpt lat="49.29228" lon="1.26033">
        <ele>11</ele>
        <time>2017-04-04T14:44:19Z</time>
      </trkpt>
      <trkpt lat="49.29225" lon="1.26038">
        <ele>11</ele>
        <time>2017-04-04T14:44:19Z</time>
      </trkpt>
      <trkpt lat="49.29221" lon="1.26045">
        <ele>6</ele>
        <time>2017-04-04T14:44:19Z</time>
      </trkpt>
      <trkpt lat="49.2922" lon="1.26053">
        <ele>6</ele>
        <time>2017-04-04T14:44:35Z</time>
      </trkpt>
      <trkpt lat="49.29215" lon="1.26061">
        <ele>6</ele>
        <time>2017-04-04T14:44:35Z</time>
      </trkpt>
      <trkpt lat="49.29213" lon="1.26063">
        <ele>6</ele>
        <time>2017-04-04T14:44:35Z</time>
      </trkpt>
      <trkpt lat="49.29208" lon="1.2607">
        <ele>10</ele>
        <time>2017-04-04T14:44:35Z</time>
      </trkpt>
      <trkpt lat="49.29205" lon="1.26076">
        <ele>10</ele>
        <time>2017-04-04T14:44:51Z</time>
      </trkpt>
      <trkpt lat="49.29201" lon="1.2608">
        <ele>10</ele>
        <time>2017-04-04T14:44:51Z</time>
      </trkpt>
      <trkpt lat="49.29197" lon="1.26084">
        <ele>10</ele>
        <time>2017-04-04T14:44:51Z</time>
      </trkpt>
      <trkpt lat="49.29194" lon="1.26085">
        <ele>10</ele>
        <time>2017-04-04T14:44:51Z</time>
      </trkpt>
      <trkpt lat="49.2919" lon="1.26091">
        <ele>10</ele>
        <time>2017-04-04T14:45:07Z</time>
      </trkpt>
      <trkpt lat="49.29188" lon="1.26096">
        <ele>10</ele>
        <time>2017-04-04T14:45:07Z</time>
      </trkpt>
      <trkpt lat="49.29186" lon="1.26102">
        <ele>10</ele>
        <time>2017-04-04T14:45:07Z</time>
      </trkpt>
      <trkpt lat="49.29184" lon="1.26101">
        <ele>10</ele>
        <time>2017-04-04T14:45:07Z</time>
      </trkpt>
      <trkpt lat="49.29184" lon="1.261">
        <ele>10</ele>
        <time>2017-04-04T14:46:35Z</time>
      </trkpt>
      <trkpt lat="49.29184" lon="1.261">
        <ele>10</ele>
        <time>2017-04-04T14:46:35Z</time>
      </trkpt>
      <trkpt lat="49.29183" lon="1.26106">
        <ele>10</ele>
        <time>2017-04-04T14:46:35Z</time>
      </trkpt>
      <trkpt lat="49.2918" lon="1.26113">
        <ele>10</ele>
        <time>2017-04-04T14:46:35Z</time>
      </trkpt>
      <trkpt lat="49.29176" lon="1.26123">
        <ele>10</ele>
        <time>2017-04-04T14:46:35Z</time>
      </trkpt>
      <trkpt lat="49.29174" lon="1.26129">
        <ele>9</ele>
        <time>2017-04-04T14:46:51Z</time>
      </trkpt>
      <trkpt lat="49.29172" lon="1.26134">
        <ele>9</ele>
        <time>2017-04-04T14:46:51Z</time>
      </trkpt>
      <trkpt lat="49.2917" lon="1.26139">
        <ele>9</ele>
        <time>2017-04-04T14:46:51Z</time>
      </trkpt>
      <trkpt lat="49.29169" lon="1.26144">
        <ele>9</ele>
        <time>2017-04-04T14:46:51Z</time>
      </trkpt>
      <trkpt lat="49.29166" lon="1.26152">
        <ele>9</ele>
        <time>2017-04-04T14:47:07Z</time>
      </trkpt>
      <trkpt lat="49.29163" lon="1.26157">
        <ele>9</ele>
        <time>2017-04-04T14:47:07Z</time>
      </trkpt>
      <trkpt lat="49.29158" lon="1.26164">
        <ele>9</ele>
        <time>2017-04-04T14:47:07Z</time>
      </trkpt>
      <trkpt lat="49.29156" lon="1.26169">
        <ele>9</ele>
        <time>2017-04-04T14:47:07Z</time>
      </trkpt>
      <trkpt lat="49.29155" lon="1.26175">
        <ele>9</ele>
        <time>2017-04-04T14:47:23Z</time>
      </trkpt>
      <trkpt lat="49.29152" lon="1.26183">
        <ele>9</ele>
        <time>2017-04-04T14:47:23Z</time>
      </trkpt>
      <trkpt lat="49.29148" lon="1.26187">
        <ele>9</ele>
        <time>2017-04-04T14:47:23Z</time>
      </trkpt>
      <trkpt lat="49.29146" lon="1.26192">
        <ele>9</ele>
        <time>2017-04-04T14:47:23Z</time>
      </trkpt>
      <trkpt lat="49.29141" lon="1.26197">
        <ele>9</ele>
        <time>2017-04-04T14:47:40Z</time>
      </trkpt>
      <trkpt lat="49.29138" lon="1.262">
        <ele>9</ele>
        <time>2017-04-04T14:47:40Z</time>
      </trkpt>
      <trkpt lat="49.29134" lon="1.26204">
        <ele>9</ele>
        <time>2017-04-04T14:47:40Z</time>
      </trkpt>
      <trkpt lat="49.29128" lon="1.26209">
        <ele>6</ele>
        <time>2017-04-04T14:47:40Z</time>
      </trkpt>
      <trkpt lat="49.29125" lon="1.26212">
        <ele>10</ele>
        <time>2017-04-04T14:47:55Z</time>
      </trkpt>
      <trkpt lat="49.2912" lon="1.26216">
        <ele>10</ele>
        <time>2017-04-04T14:47:55Z</time>
      </trkpt>
      <trkpt lat="49.29117" lon="1.2622">
        <ele>10</ele>
        <time>2017-04-04T14:47:55Z</time>
      </trkpt>
      <trkpt lat="49.29115" lon="1.26222">
        <ele>10</ele>
        <time>2017-04-04T14:47:55Z</time>
      </trkpt>
      <trkpt lat="49.29112" lon="1.26228">
        <ele>10</ele>
        <time>2017-04-04T14:48:11Z</time>
      </trkpt>
      <trkpt lat="49.29109" lon="1.26237">
        <ele>10</ele>
        <time>2017-04-04T14:48:11Z</time>
      </trkpt>
      <trkpt lat="49.29104" lon="1.26241">
        <ele>10</ele>
        <time>2017-04-04T14:48:11Z</time>
      </trkpt>
      <trkpt lat="49.291" lon="1.26243">
        <ele>10</ele>
        <time>2017-04-04T14:48:11Z</time>
      </trkpt>
      <trkpt lat="49.29097" lon="1.26245">
        <ele>10</ele>
        <time>2017-04-04T14:48:27Z</time>
      </trkpt>
      <trkpt lat="49.29093" lon="1.26248">
        <ele>10</ele>
        <time>2017-04-04T14:48:27Z</time>
      </trkpt>
      <trkpt lat="49.29089" lon="1.26249">
        <ele>10</ele>
        <time>2017-04-04T14:48:27Z</time>
      </trkpt>
      <trkpt lat="49.29085" lon="1.26251">
        <ele>10</ele>
        <time>2017-04-04T14:48:27Z</time>
      </trkpt>
      <trkpt lat="49.29082" lon="1.26254">
        <ele>10</ele>
        <time>2017-04-04T14:48:43Z</time>
      </trkpt>
      <trkpt lat="49.29077" lon="1.26257">
        <ele>10</ele>
        <time>2017-04-04T14:48:43Z</time>
      </trkpt>
      <trkpt lat="49.29071" lon="1.26262">
        <ele>10</ele>
        <time>2017-04-04T14:48:43Z</time>
      </trkpt>
      <trkpt lat="49.29068" lon="1.26264">
        <ele>10</ele>
        <time>2017-04-04T14:48:43Z</time>
      </trkpt>
      <trkpt lat="49.29064" lon="1.26268">
        <ele>10</ele>
        <time>2017-04-04T14:48:59Z</time>
      </trkpt>
      <trkpt lat="49.29058" lon="1.26271">
        <ele>10</ele>
        <time>2017-04-04T14:48:59Z</time>
      </trkpt>
      <trkpt lat="49.29054" lon="1.26273">
        <ele>10</ele>
        <time>2017-04-04T14:48:59Z</time>
      </trkpt>
      <trkpt lat="49.29051" lon="1.26276">
        <ele>10</ele>
        <time>2017-04-04T14:48:59Z</time>
      </trkpt>
      <trkpt lat="49.29046" lon="1.26282">
        <ele>10</ele>
        <time>2017-04-04T14:49:15Z</time>
      </trkpt>
      <trkpt lat="49.29041" lon="1.26284">
        <ele>13</ele>
        <time>2017-04-04T14:49:15Z</time>
      </trkpt>
      <trkpt lat="49.29036" lon="1.26283">
        <ele>13</ele>
        <time>2017-04-04T14:49:15Z</time>
      </trkpt>
      <trkpt lat="49.29033" lon="1.26282">
        <ele>13</ele>
        <time>2017-04-04T14:49:15Z</time>
      </trkpt>
      <trkpt lat="49.29027" lon="1.26282">
        <ele>13</ele>
        <time>2017-04-04T14:49:32Z</time>
      </trkpt>
      <trkpt lat="49.29023" lon="1.26283">
        <ele>13</ele>
        <time>2017-04-04T14:49:32Z</time>
      </trkpt>
      <trkpt lat="49.29018" lon="1.26286">
        <ele>13</ele>
        <time>2017-04-04T14:49:32Z</time>
      </trkpt>
      <trkpt lat="49.29011" lon="1.26286">
        <ele>13</ele>
        <time>2017-04-04T14:49:32Z</time>
      </trkpt>
      <trkpt lat="49.29007" lon="1.26286">
        <ele>13</ele>
        <time>2017-04-04T14:49:47Z</time>
      </trkpt>
      <trkpt lat="49.29003" lon="1.26288">
        <ele>13</ele>
        <time>2017-04-04T14:49:47Z</time>
      </trkpt>
      <trkpt lat="49.28995" lon="1.26291">
        <ele>13</ele>
        <time>2017-04-04T14:49:47Z</time>
      </trkpt>
      <trkpt lat="49.2899" lon="1.26293">
        <ele>6</ele>
        <time>2017-04-04T14:49:47Z</time>
      </trkpt>
      <trkpt lat="49.28986" lon="1.26294">
        <ele>6</ele>
        <time>2017-04-04T14:50:03Z</time>
      </trkpt>
      <trkpt lat="49.28981" lon="1.26294">
        <ele>6</ele>
        <time>2017-04-04T14:50:03Z</time>
      </trkpt>
      <trkpt lat="49.28976" lon="1.26294">
        <ele>6</ele>
        <time>2017-04-04T14:50:03Z</time>
      </trkpt>
      <trkpt lat="49.28971" lon="1.26293">
        <ele>6</ele>
        <time>2017-04-04T14:50:03Z</time>
      </trkpt>
      <trkpt lat="49.28968" lon="1.26293">
        <ele>6</ele>
        <time>2017-04-04T14:50:19Z</time>
      </trkpt>
      <trkpt lat="49.28962" lon="1.26291">
        <ele>13</ele>
        <time>2017-04-04T14:50:19Z</time>
      </trkpt>
      <trkpt lat="49.28956" lon="1.26292">
        <ele>10</ele>
        <time>2017-04-04T14:50:19Z</time>
      </trkpt>
      <trkpt lat="49.28953" lon="1.26292">
        <ele>14</ele>
        <time>2017-04-04T14:50:19Z</time>
      </trkpt>
      <trkpt lat="49.28949" lon="1.26292">
        <ele>14</ele>
        <time>2017-04-04T14:50:35Z</time>
      </trkpt>
      <trkpt lat="49.28945" lon="1.26292">
        <ele>14</ele>
        <time>2017-04-04T14:50:35Z</time>
      </trkpt>
      <trkpt lat="49.28939" lon="1.26292">
        <ele>14</ele>
        <time>2017-04-04T14:50:35Z</time>
      </trkpt>
      <trkpt lat="49.28935" lon="1.26292">
        <ele>10</ele>
        <time>2017-04-04T14:50:35Z</time>
      </trkpt>
      <trkpt lat="49.2893" lon="1.26292">
        <ele>14</ele>
        <time>2017-04-04T14:50:51Z</time>
      </trkpt>
      <trkpt lat="49.28924" lon="1.26294">
        <ele>14</ele>
        <time>2017-04-04T14:50:51Z</time>
      </trkpt>
      <trkpt lat="49.28919" lon="1.26295">
        <ele>14</ele>
        <time>2017-04-04T14:50:52Z</time>
      </trkpt>
      <trkpt lat="49.28912" lon="1.26295">
        <ele>14</ele>
        <time>2017-04-04T14:50:52Z</time>
      </trkpt>
      <trkpt lat="49.28908" lon="1.26291">
        <ele>10</ele>
        <time>2017-04-04T14:51:08Z</time>
      </trkpt>
      <trkpt lat="49.28903" lon="1.26287">
        <ele>10</ele>
        <time>2017-04-04T14:51:08Z</time>
      </trkpt>
      <trkpt lat="49.28896" lon="1.26285">
        <ele>10</ele>
        <time>2017-04-04T14:51:08Z</time>
      </trkpt>
      <trkpt lat="49.2889" lon="1.26284">
        <ele>10</ele>
        <time>2017-04-04T14:51:08Z</time>
      </trkpt>
      <trkpt lat="49.28886" lon="1.26283">
        <ele>10</ele>
        <time>2017-04-04T14:51:23Z</time>
      </trkpt>
      <trkpt lat="49.28879" lon="1.26283">
        <ele>10</ele>
        <time>2017-04-04T14:51:23Z</time>
      </trkpt>
      <trkpt lat="49.28876" lon="1.26283">
        <ele>10</ele>
        <time>2017-04-04T14:51:23Z</time>
      </trkpt>
      <trkpt lat="49.28869" lon="1.26281">
        <ele>11</ele>
        <time>2017-04-04T14:51:23Z</time>
      </trkpt>
      <trkpt lat="49.28866" lon="1.26281">
        <ele>11</ele>
        <time>2017-04-04T14:51:40Z</time>
      </trkpt>
      <trkpt lat="49.28863" lon="1.26279">
        <ele>11</ele>
        <time>2017-04-04T14:51:40Z</time>
      </trkpt>
      <trkpt lat="49.28857" lon="1.26279">
        <ele>11</ele>
        <time>2017-04-04T14:51:40Z</time>
      </trkpt>
      <trkpt lat="49.2885" lon="1.26277">
        <ele>11</ele>
        <time>2017-04-04T14:51:40Z</time>
      </trkpt>
      <trkpt lat="49.28847" lon="1.26277">
        <ele>11</ele>
        <time>2017-04-04T14:51:55Z</time>
      </trkpt>
      <trkpt lat="49.2884" lon="1.26277">
        <ele>11</ele>
        <time>2017-04-04T14:51:55Z</time>
      </trkpt>
      <trkpt lat="49.28835" lon="1.26277">
        <ele>11</ele>
        <time>2017-04-04T14:51:55Z</time>
      </trkpt>
      <trkpt lat="49.28831" lon="1.26275">
        <ele>11</ele>
        <time>2017-04-04T14:51:55Z</time>
      </trkpt>
      <trkpt lat="49.28826" lon="1.26273">
        <ele>11</ele>
        <time>2017-04-04T14:52:11Z</time>
      </trkpt>
      <trkpt lat="49.28819" lon="1.26272">
        <ele>11</ele>
        <time>2017-04-04T14:52:11Z</time>
      </trkpt>
      <trkpt lat="49.28816" lon="1.26271">
        <ele>11</ele>
        <time>2017-04-04T14:52:11Z</time>
      </trkpt>
      <trkpt lat="49.28811" lon="1.2627">
        <ele>11</ele>
        <time>2017-04-04T14:52:11Z</time>
      </trkpt>
      <trkpt lat="49.28806" lon="1.26269">
        <ele>11</ele>
        <time>2017-04-04T14:52:28Z</time>
      </trkpt>
      <trkpt lat="49.28801" lon="1.26268">
        <ele>11</ele>
        <time>2017-04-04T14:52:28Z</time>
      </trkpt>
      <trkpt lat="49.28795" lon="1.26266">
        <ele>11</ele>
        <time>2017-04-04T14:52:28Z</time>
      </trkpt>
      <trkpt lat="49.28791" lon="1.26264">
        <ele>12</ele>
        <time>2017-04-04T14:52:28Z</time>
      </trkpt>
      <trkpt lat="49.28788" lon="1.26262">
        <ele>12</ele>
        <time>2017-04-04T14:52:43Z</time>
      </trkpt>
      <trkpt lat="49.28782" lon="1.26261">
        <ele>12</ele>
        <time>2017-04-04T14:52:43Z</time>
      </trkpt>
      <trkpt lat="49.28777" lon="1.26261">
        <ele>12</ele>
        <time>2017-04-04T14:52:43Z</time>
      </trkpt>
      <trkpt lat="49.28772" lon="1.26259">
        <ele>12</ele>
        <time>2017-04-04T14:52:43Z</time>
      </trkpt>
      <trkpt lat="49.28767" lon="1.26258">
        <ele>12</ele>
        <time>2017-04-04T14:52:59Z</time>
      </trkpt>
      <trkpt lat="49.28761" lon="1.26257">
        <ele>12</ele>
        <time>2017-04-04T14:52:59Z</time>
      </trkpt>
      <trkpt lat="49.28758" lon="1.26256">
        <ele>12</ele>
        <time>2017-04-04T14:52:59Z</time>
      </trkpt>
      <trkpt lat="49.28752" lon="1.26254">
        <ele>12</ele>
        <time>2017-04-04T14:52:59Z</time>
      </trkpt>
      <trkpt lat="49.28747" lon="1.26253">
        <ele>12</ele>
        <time>2017-04-04T14:53:15Z</time>
      </trkpt>
      <trkpt lat="49.28742" lon="1.26251">
        <ele>12</ele>
        <time>2017-04-04T14:53:15Z</time>
      </trkpt>
      <trkpt lat="49.28735" lon="1.26246">
        <ele>12</ele>
        <time>2017-04-04T14:53:15Z</time>
      </trkpt>
      <trkpt lat="49.28731" lon="1.26242">
        <ele>12</ele>
        <time>2017-04-04T14:53:15Z</time>
      </trkpt>
      <trkpt lat="49.28725" lon="1.26239">
        <ele>12</ele>
        <time>2017-04-04T14:53:31Z</time>
      </trkpt>
      <trkpt lat="49.28718" lon="1.26238">
        <ele>12</ele>
        <time>2017-04-04T14:53:31Z</time>
      </trkpt>
      <trkpt lat="49.28712" lon="1.26237">
        <ele>12</ele>
        <time>2017-04-04T14:53:31Z</time>
      </trkpt>
      <trkpt lat="49.2871" lon="1.26236">
        <ele>12</ele>
        <time>2017-04-04T14:53:31Z</time>
      </trkpt>
      <trkpt lat="49.28706" lon="1.26235">
        <ele>11</ele>
        <time>2017-04-04T14:53:47Z</time>
      </trkpt>
      <trkpt lat="49.28701" lon="1.26234">
        <ele>11</ele>
        <time>2017-04-04T14:53:47Z</time>
      </trkpt>
      <trkpt lat="49.28697" lon="1.26232">
        <ele>11</ele>
        <time>2017-04-04T14:53:47Z</time>
      </trkpt>
      <trkpt lat="49.28691" lon="1.26233">
        <ele>11</ele>
        <time>2017-04-04T14:53:47Z</time>
      </trkpt>
      <trkpt lat="49.28684" lon="1.26228">
        <ele>11</ele>
        <time>2017-04-04T14:54:03Z</time>
      </trkpt>
      <trkpt lat="49.28679" lon="1.26225">
        <ele>11</ele>
        <time>2017-04-04T14:54:03Z</time>
      </trkpt>
      <trkpt lat="49.28673" lon="1.26224">
        <ele>11</ele>
        <time>2017-04-04T14:54:03Z</time>
      </trkpt>
      <trkpt lat="49.28669" lon="1.26223">
        <ele>11</ele>
        <time>2017-04-04T14:54:03Z</time>
      </trkpt>
      <trkpt lat="49.28664" lon="1.26221">
        <ele>11</ele>
        <time>2017-04-04T14:54:19Z</time>
      </trkpt>
      <trkpt lat="49.2866" lon="1.2622">
        <ele>11</ele>
        <time>2017-04-04T14:54:19Z</time>
      </trkpt>
      <trkpt lat="49.28657" lon="1.2622">
        <ele>11</ele>
        <time>2017-04-04T14:54:19Z</time>
      </trkpt>
      <trkpt lat="49.28651" lon="1.26219">
        <ele>11</ele>
        <time>2017-04-04T14:54:19Z</time>
      </trkpt>
      <trkpt lat="49.28647" lon="1.26218">
        <ele>11</ele>
        <time>2017-04-04T14:54:35Z</time>
      </trkpt>
      <trkpt lat="49.28643" lon="1.26217">
        <ele>11</ele>
        <time>2017-04-04T14:54:35Z</time>
      </trkpt>
      <trkpt lat="49.28638" lon="1.26215">
        <ele>11</ele>
        <time>2017-04-04T14:54:35Z</time>
      </trkpt>
      <trkpt lat="49.28634" lon="1.26216">
        <ele>11</ele>
        <time>2017-04-04T14:54:35Z</time>
      </trkpt>
      <trkpt lat="49.28628" lon="1.26215">
        <ele>11</ele>
        <time>2017-04-04T14:54:51Z</time>
      </trkpt>
      <trkpt lat="49.28622" lon="1.26215">
        <ele>9</ele>
        <time>2017-04-04T14:54:51Z</time>
      </trkpt>
      <trkpt lat="49.28619" lon="1.26215">
        <ele>9</ele>
        <time>2017-04-04T14:54:51Z</time>
      </trkpt>
      <trkpt lat="49.28618" lon="1.26205">
        <ele>15</ele>
        <time>2017-04-04T14:54:51Z</time>
      </trkpt>
      <trkpt lat="49.2862" lon="1.26197">
        <ele>15</ele>
        <time>2017-04-04T14:55:07Z</time>
      </trkpt>
      <trkpt lat="49.2862" lon="1.26188">
        <ele>15</ele>
        <time>2017-04-04T14:55:07Z</time>
      </trkpt>
      <trkpt lat="49.2862" lon="1.26182">
        <ele>15</ele>
        <time>2017-04-04T14:55:07Z</time>
      </trkpt>
      <trkpt lat="49.28623" lon="1.26172">
        <ele>15</ele>
        <time>2017-04-04T14:55:07Z</time>
      </trkpt>
      <trkpt lat="49.28624" lon="1.26163">
        <ele>15</ele>
        <time>2017-04-04T14:55:23Z</time>
      </trkpt>
      <trkpt lat="49.28624" lon="1.26159">
        <ele>15</ele>
        <time>2017-04-04T14:55:23Z</time>
      </trkpt>
      <trkpt lat="49.28626" lon="1.26153">
        <ele>13</ele>
        <time>2017-04-04T14:55:23Z</time>
      </trkpt>
      <trkpt lat="49.2863" lon="1.26149">
        <ele>13</ele>
        <time>2017-04-04T14:55:23Z</time>
      </trkpt>
      <trkpt lat="49.28638" lon="1.26146">
        <ele>13</ele>
        <time>2017-04-04T14:55:47Z</time>
      </trkpt>
      <trkpt lat="49.28637" lon="1.26142">
        <ele>13</ele>
        <time>2017-04-04T14:55:47Z</time>
      </trkpt>
      <trkpt lat="49.28637" lon="1.26138">
        <ele>13</ele>
        <time>2017-04-04T14:55:47Z</time>
      </trkpt>
      <trkpt lat="49.28634" lon="1.26135">
        <ele>13</ele>
        <time>2017-04-04T14:55:47Z</time>
      </trkpt>
      <trkpt lat="49.28631" lon="1.26134">
        <ele>13</ele>
        <time>2017-04-04T14:55:47Z</time>
      </trkpt>
      <trkpt lat="49.2863" lon="1.26126">
        <ele>13</ele>
        <time>2017-04-04T14:56:03Z</time>
      </trkpt>
      <trkpt lat="49.28628" lon="1.26119">
        <ele>14</ele>
        <time>2017-04-04T14:56:03Z</time>
      </trkpt>
      <trkpt lat="49.28628" lon="1.2611">
        <ele>14</ele>
        <time>2017-04-04T14:56:04Z</time>
      </trkpt>
      <trkpt lat="49.28626" lon="1.26105">
        <ele>14</ele>
        <time>2017-04-04T14:56:04Z</time>
      </trkpt>
      <trkpt lat="49.28626" lon="1.26102">
        <ele>14</ele>
        <time>2017-04-04T14:56:19Z</time>
      </trkpt>
      <trkpt lat="49.28626" lon="1.26096">
        <ele>14</ele>
        <time>2017-04-04T14:56:19Z</time>
      </trkpt>
      <trkpt lat="49.28627" lon="1.26086">
        <ele>14</ele>
        <time>2017-04-04T14:56:19Z</time>
      </trkpt>
      <trkpt lat="49.28627" lon="1.26079">
        <ele>14</ele>
        <time>2017-04-04T14:56:19Z</time>
      </trkpt>
      <trkpt lat="49.28628" lon="1.26072">
        <ele>14</ele>
        <time>2017-04-04T14:56:35Z</time>
      </trkpt>
      <trkpt lat="49.28627" lon="1.26065">
        <ele>14</ele>
        <time>2017-04-04T14:56:35Z</time>
      </trkpt>
      <trkpt lat="49.28627" lon="1.26056">
        <ele>14</ele>
        <time>2017-04-04T14:56:35Z</time>
      </trkpt>
      <trkpt lat="49.28627" lon="1.26051">
        <ele>14</ele>
        <time>2017-04-04T14:56:35Z</time>
      </trkpt>
      <trkpt lat="49.28626" lon="1.26044">
        <ele>14</ele>
        <time>2017-04-04T14:56:51Z</time>
      </trkpt>
      <trkpt lat="49.28626" lon="1.26035">
        <ele>12</ele>
        <time>2017-04-04T14:56:51Z</time>
      </trkpt>
      <trkpt lat="49.28622" lon="1.26028">
        <ele>12</ele>
        <time>2017-04-04T14:56:51Z</time>
      </trkpt>
      <trkpt lat="49.2862" lon="1.26021">
        <ele>12</ele>
        <time>2017-04-04T14:56:51Z</time>
      </trkpt>
      <trkpt lat="49.28618" lon="1.26012">
        <ele>12</ele>
        <time>2017-04-04T14:57:20Z</time>
      </trkpt>
      <trkpt lat="49.28615" lon="1.26005">
        <ele>12</ele>
        <time>2017-04-04T14:57:20Z</time>
      </trkpt>
      <trkpt lat="49.2861" lon="1.25994">
        <ele>12</ele>
        <time>2017-04-04T14:57:20Z</time>
      </trkpt>
      <trkpt lat="49.28606" lon="1.25989">
        <ele>12</ele>
        <time>2017-04-04T14:57:20Z</time>
      </trkpt>
      <trkpt lat="49.28601" lon="1.25981">
        <ele>12</ele>
        <time>2017-04-04T14:57:20Z</time>
      </trkpt>
      <trkpt lat="49.28598" lon="1.25977">
        <ele>12</ele>
        <time>2017-04-04T14:57:35Z</time>
      </trkpt>
      <trkpt lat="49.28592" lon="1.25973">
        <ele>12</ele>
        <time>2017-04-04T14:57:35Z</time>
      </trkpt>
      <trkpt lat="49.28589" lon="1.25971">
        <ele>12</ele>
        <time>2017-04-04T14:57:35Z</time>
      </trkpt>
      <trkpt lat="49.28586" lon="1.25968">
        <ele>12</ele>
        <time>2017-04-04T14:57:35Z</time>
      </trkpt>
      <trkpt lat="49.28581" lon="1.25968">
        <ele>12</ele>
        <time>2017-04-04T14:57:51Z</time>
      </trkpt>
      <trkpt lat="49.28576" lon="1.25965">
        <ele>12</ele>
        <time>2017-04-04T14:57:51Z</time>
      </trkpt>
      <trkpt lat="49.28571" lon="1.25963">
        <ele>12</ele>
        <time>2017-04-04T14:57:51Z</time>
      </trkpt>
      <trkpt lat="49.28566" lon="1.25963">
        <ele>12</ele>
        <time>2017-04-04T14:57:51Z</time>
      </trkpt>
      <trkpt lat="49.28561" lon="1.25963">
        <ele>12</ele>
        <time>2017-04-04T14:58:07Z</time>
      </trkpt>
      <trkpt lat="49.28556" lon="1.25963">
        <ele>12</ele>
        <time>2017-04-04T14:58:07Z</time>
      </trkpt>
      <trkpt lat="49.28553" lon="1.25963">
        <ele>12</ele>
        <time>2017-04-04T14:58:07Z</time>
      </trkpt>
      <trkpt lat="49.28547" lon="1.25963">
        <ele>12</ele>
        <time>2017-04-04T14:58:07Z</time>
      </trkpt>
      <trkpt lat="49.28542" lon="1.25961">
        <ele>12</ele>
        <time>2017-04-04T14:58:23Z</time>
      </trkpt>
      <trkpt lat="49.28538" lon="1.25961">
        <ele>12</ele>
        <time>2017-04-04T14:58:23Z</time>
      </trkpt>
      <trkpt lat="49.28531" lon="1.25963">
        <ele>12</ele>
        <time>2017-04-04T14:58:23Z</time>
      </trkpt>
      <trkpt lat="49.28527" lon="1.25962">
        <ele>12</ele>
        <time>2017-04-04T14:58:23Z</time>
      </trkpt>
      <trkpt lat="49.2852" lon="1.2596">
        <ele>12</ele>
        <time>2017-04-04T14:58:39Z</time>
      </trkpt>
      <trkpt lat="49.28517" lon="1.25959">
        <ele>12</ele>
        <time>2017-04-04T14:58:39Z</time>
      </trkpt>
      <trkpt lat="49.28514" lon="1.25959">
        <ele>12</ele>
        <time>2017-04-04T14:58:39Z</time>
      </trkpt>
      <trkpt lat="49.28509" lon="1.25958">
        <ele>12</ele>
        <time>2017-04-04T14:58:39Z</time>
      </trkpt>
      <trkpt lat="49.28505" lon="1.25957">
        <ele>12</ele>
        <time>2017-04-04T14:58:55Z</time>
      </trkpt>
      <trkpt lat="49.28499" lon="1.25957">
        <ele>12</ele>
        <time>2017-04-04T14:58:55Z</time>
      </trkpt>
      <trkpt lat="49.28495" lon="1.25957">
        <ele>12</ele>
        <time>2017-04-04T14:58:55Z</time>
      </trkpt>
      <trkpt lat="49.28488" lon="1.25957">
        <ele>12</ele>
        <time>2017-04-04T14:58:55Z</time>
      </trkpt>
      <trkpt lat="49.28485" lon="1.25957">
        <ele>12</ele>
        <time>2017-04-04T14:59:11Z</time>
      </trkpt>
      <trkpt lat="49.28483" lon="1.25956">
        <ele>12</ele>
        <time>2017-04-04T14:59:11Z</time>
      </trkpt>
      <trkpt lat="49.28476" lon="1.25955">
        <ele>12</ele>
        <time>2017-04-04T14:59:11Z</time>
      </trkpt>
      <trkpt lat="49.28471" lon="1.25955">
        <ele>12</ele>
        <time>2017-04-04T14:59:11Z</time>
      </trkpt>
      <trkpt lat="49.28467" lon="1.25956">
        <ele>12</ele>
        <time>2017-04-04T14:59:27Z</time>
      </trkpt>
      <trkpt lat="49.2846" lon="1.25956">
        <ele>12</ele>
        <time>2017-04-04T14:59:27Z</time>
      </trkpt>
      <trkpt lat="49.28455" lon="1.25953">
        <ele>10</ele>
        <time>2017-04-04T14:59:27Z</time>
      </trkpt>
      <trkpt lat="49.28451" lon="1.25951">
        <ele>10</ele>
        <time>2017-04-04T14:59:27Z</time>
      </trkpt>
      <trkpt lat="49.28447" lon="1.25951">
        <ele>10</ele>
        <time>2017-04-04T14:59:43Z</time>
      </trkpt>
      <trkpt lat="49.28442" lon="1.25952">
        <ele>10</ele>
        <time>2017-04-04T14:59:43Z</time>
      </trkpt>
      <trkpt lat="49.28434" lon="1.25952">
        <ele>10</ele>
        <time>2017-04-04T14:59:43Z</time>
      </trkpt>
      <trkpt lat="49.28431" lon="1.25952">
        <ele>10</ele>
        <time>2017-04-04T14:59:43Z</time>
      </trkpt>
      <trkpt lat="49.28426" lon="1.25951">
        <ele>10</ele>
        <time>2017-04-04T14:59:59Z</time>
      </trkpt>
      <trkpt lat="49.28419" lon="1.25951">
        <ele>10</ele>
        <time>2017-04-04T14:59:59Z</time>
      </trkpt>
      <trkpt lat="49.28415" lon="1.25951">
        <ele>10</ele>
        <time>2017-04-04T14:59:59Z</time>
      </trkpt>
      <trkpt lat="49.2841" lon="1.25952">
        <ele>10</ele>
        <time>2017-04-04T14:59:59Z</time>
      </trkpt>
      <trkpt lat="49.28406" lon="1.25953">
        <ele>10</ele>
        <time>2017-04-04T15:00:15Z</time>
      </trkpt>
      <trkpt lat="49.284" lon="1.25957">
        <ele>10</ele>
        <time>2017-04-04T15:00:15Z</time>
      </trkpt>
      <trkpt lat="49.28394" lon="1.25955">
        <ele>10</ele>
        <time>2017-04-04T15:00:15Z</time>
      </trkpt>
      <trkpt lat="49.28389" lon="1.25955">
        <ele>10</ele>
        <time>2017-04-04T15:00:15Z</time>
      </trkpt>
      <trkpt lat="49.28383" lon="1.25955">
        <ele>10</ele>
        <time>2017-04-04T15:00:32Z</time>
      </trkpt>
      <trkpt lat="49.28378" lon="1.25954">
        <ele>10</ele>
        <time>2017-04-04T15:00:32Z</time>
      </trkpt>
      <trkpt lat="49.28373" lon="1.25954">
        <ele>9</ele>
        <time>2017-04-04T15:00:32Z</time>
      </trkpt>
      <trkpt lat="49.28368" lon="1.25954">
        <ele>9</ele>
        <time>2017-04-04T15:00:32Z</time>
      </trkpt>
      <trkpt lat="49.28365" lon="1.25955">
        <ele>9</ele>
        <time>2017-04-04T15:00:47Z</time>
      </trkpt>
      <trkpt lat="49.2836" lon="1.25956">
        <ele>9</ele>
        <time>2017-04-04T15:00:47Z</time>
      </trkpt>
      <trkpt lat="49.28353" lon="1.25958">
        <ele>9</ele>
        <time>2017-04-04T15:00:47Z</time>
      </trkpt>
      <trkpt lat="49.28347" lon="1.25961">
        <ele>11</ele>
        <time>2017-04-04T15:00:47Z</time>
      </trkpt>
      <trkpt lat="49.28342" lon="1.25963">
        <ele>11</ele>
        <time>2017-04-04T15:01:03Z</time>
      </trkpt>
      <trkpt lat="49.28338" lon="1.25965">
        <ele>11</ele>
        <time>2017-04-04T15:01:03Z</time>
      </trkpt>
      <trkpt lat="49.28332" lon="1.25965">
        <ele>11</ele>
        <time>2017-04-04T15:01:03Z</time>
      </trkpt>
      <trkpt lat="49.28328" lon="1.25967">
        <ele>11</ele>
        <time>2017-04-04T15:01:03Z</time>
      </trkpt>
      <trkpt lat="49.28322" lon="1.2597">
        <ele>11</ele>
        <time>2017-04-04T15:01:19Z</time>
      </trkpt>
      <trkpt lat="49.28318" lon="1.25973">
        <ele>11</ele>
        <time>2017-04-04T15:01:19Z</time>
      </trkpt>
      <trkpt lat="49.28315" lon="1.25974">
        <ele>11</ele>
        <time>2017-04-04T15:01:19Z</time>
      </trkpt>
      <trkpt lat="49.28311" lon="1.25976">
        <ele>11</ele>
        <time>2017-04-04T15:01:19Z</time>
      </trkpt>
      <trkpt lat="49.28306" lon="1.25976">
        <ele>11</ele>
        <time>2017-04-04T15:01:35Z</time>
      </trkpt>
      <trkpt lat="49.28302" lon="1.25978">
        <ele>11</ele>
        <time>2017-04-04T15:01:35Z</time>
      </trkpt>
      <trkpt lat="49.28295" lon="1.25979">
        <ele>11</ele>
        <time>2017-04-04T15:01:35Z</time>
      </trkpt>
      <trkpt lat="49.2829" lon="1.2598">
        <ele>10</ele>
        <time>2017-04-04T15:01:35Z</time>
      </trkpt>
      <trkpt lat="49.28284" lon="1.25981">
        <ele>10</ele>
        <time>2017-04-04T15:01:51Z</time>
      </trkpt>
      <trkpt lat="49.28277" lon="1.25981">
        <ele>10</ele>
        <time>2017-04-04T15:01:51Z</time>
      </trkpt>
      <trkpt lat="49.28271" lon="1.25982">
        <ele>10</ele>
        <time>2017-04-04T15:01:51Z</time>
      </trkpt>
      <trkpt lat="49.28266" lon="1.25984">
        <ele>10</ele>
        <time>2017-04-04T15:01:51Z</time>
      </trkpt>
      <trkpt lat="49.28259" lon="1.25986">
        <ele>10</ele>
        <time>2017-04-04T15:02:11Z</time>
      </trkpt>
      <trkpt lat="49.28256" lon="1.25987">
        <ele>10</ele>
        <time>2017-04-04T15:02:11Z</time>
      </trkpt>
      <trkpt lat="49.28257" lon="1.25992">
        <ele>10</ele>
        <time>2017-04-04T15:02:11Z</time>
      </trkpt>
      <trkpt lat="49.28251" lon="1.25991">
        <ele>10</ele>
        <time>2017-04-04T15:02:11Z</time>
      </trkpt>
      <trkpt lat="49.28248" lon="1.25989">
        <ele>10</ele>
        <time>2017-04-04T15:02:11Z</time>
      </trkpt>
      <trkpt lat="49.28244" lon="1.25989">
        <ele>10</ele>
        <time>2017-04-04T15:02:27Z</time>
      </trkpt>
      <trkpt lat="49.28239" lon="1.2599">
        <ele>10</ele>
        <time>2017-04-04T15:02:27Z</time>
      </trkpt>
      <trkpt lat="49.28235" lon="1.25991">
        <ele>10</ele>
        <time>2017-04-04T15:02:27Z</time>
      </trkpt>
      <trkpt lat="49.2823" lon="1.25991">
        <ele>10</ele>
        <time>2017-04-04T15:02:27Z</time>
      </trkpt>
      <trkpt lat="49.28226" lon="1.25991">
        <ele>10</ele>
        <time>2017-04-04T15:02:43Z</time>
      </trkpt>
      <trkpt lat="49.28221" lon="1.25992">
        <ele>10</ele>
        <time>2017-04-04T15:02:43Z</time>
      </trkpt>
      <trkpt lat="49.28216" lon="1.25993">
        <ele>10</ele>
        <time>2017-04-04T15:02:43Z</time>
      </trkpt>
      <trkpt lat="49.2821" lon="1.25993">
        <ele>10</ele>
        <time>2017-04-04T15:02:43Z</time>
      </trkpt>
      <trkpt lat="49.28205" lon="1.25993">
        <ele>10</ele>
        <time>2017-04-04T15:02:59Z</time>
      </trkpt>
      <trkpt lat="49.28201" lon="1.25994">
        <ele>10</ele>
        <time>2017-04-04T15:02:59Z</time>
      </trkpt>
      <trkpt lat="49.28196" lon="1.25993">
        <ele>10</ele>
        <time>2017-04-04T15:02:59Z</time>
      </trkpt>
      <trkpt lat="49.28192" lon="1.25992">
        <ele>10</ele>
        <time>2017-04-04T15:02:59Z</time>
      </trkpt>
      <trkpt lat="49.28188" lon="1.2599">
        <ele>10</ele>
        <time>2017-04-04T15:03:15Z</time>
      </trkpt>
      <trkpt lat="49.28184" lon="1.25988">
        <ele>10</ele>
        <time>2017-04-04T15:03:15Z</time>
      </trkpt>
      <trkpt lat="49.28178" lon="1.25986">
        <ele>10</ele>
        <time>2017-04-04T15:03:15Z</time>
      </trkpt>
      <trkpt lat="49.28174" lon="1.25983">
        <ele>10</ele>
        <time>2017-04-04T15:03:15Z</time>
      </trkpt>
      <trkpt lat="49.2817" lon="1.25981">
        <ele>10</ele>
        <time>2017-04-04T15:03:31Z</time>
      </trkpt>
      <trkpt lat="49.28165" lon="1.25977">
        <ele>10</ele>
        <time>2017-04-04T15:03:31Z</time>
      </trkpt>
      <trkpt lat="49.28159" lon="1.25974">
        <ele>10</ele>
        <time>2017-04-04T15:03:31Z</time>
      </trkpt>
      <trkpt lat="49.28155" lon="1.25972">
        <ele>10</ele>
        <time>2017-04-04T15:03:31Z</time>
      </trkpt>
      <trkpt lat="49.28151" lon="1.2597">
        <ele>10</ele>
        <time>2017-04-04T15:03:47Z</time>
      </trkpt>
      <trkpt lat="49.28149" lon="1.2597">
        <ele>10</ele>
        <time>2017-04-04T15:03:47Z</time>
      </trkpt>
      <trkpt lat="49.28144" lon="1.25967">
        <ele>10</ele>
        <time>2017-04-04T15:03:47Z</time>
      </trkpt>
      <trkpt lat="49.28139" lon="1.25964">
        <ele>10</ele>
        <time>2017-04-04T15:03:47Z</time>
      </trkpt>
      <trkpt lat="49.28134" lon="1.25965">
        <ele>10</ele>
        <time>2017-04-04T15:04:04Z</time>
      </trkpt>
      <trkpt lat="49.28132" lon="1.25971">
        <ele>10</ele>
        <time>2017-04-04T15:04:04Z</time>
      </trkpt>
      <trkpt lat="49.28133" lon="1.25976">
        <ele>10</ele>
        <time>2017-04-04T15:04:04Z</time>
      </trkpt>
      <trkpt lat="49.28134" lon="1.25984">
        <ele>10</ele>
        <time>2017-04-04T15:04:04Z</time>
      </trkpt>
      <trkpt lat="49.28135" lon="1.25987">
        <ele>10</ele>
        <time>2017-04-04T15:04:20Z</time>
      </trkpt>
      <trkpt lat="49.28137" lon="1.25995">
        <ele>10</ele>
        <time>2017-04-04T15:04:20Z</time>
      </trkpt>
      <trkpt lat="49.28138" lon="1.25997">
        <ele>10</ele>
        <time>2017-04-04T15:04:20Z</time>
      </trkpt>
      <trkpt lat="49.2814" lon="1.26005">
        <ele>10</ele>
        <time>2017-04-04T15:04:20Z</time>
      </trkpt>
      <trkpt lat="49.28141" lon="1.26009">
        <ele>10</ele>
        <time>2017-04-04T15:04:35Z</time>
      </trkpt>
      <trkpt lat="49.28141" lon="1.26018">
        <ele>10</ele>
        <time>2017-04-04T15:04:35Z</time>
      </trkpt>
      <trkpt lat="49.28142" lon="1.26021">
        <ele>10</ele>
        <time>2017-04-04T15:04:35Z</time>
      </trkpt>
      <trkpt lat="49.28144" lon="1.26026">
        <ele>10</ele>
        <time>2017-04-04T15:04:35Z</time>
      </trkpt>
      <trkpt lat="49.28145" lon="1.26031">
        <ele>10</ele>
        <time>2017-04-04T15:04:52Z</time>
      </trkpt>
      <trkpt lat="49.28136" lon="1.26037">
        <ele>10</ele>
        <time>2017-04-04T15:04:52Z</time>
      </trkpt>
      <trkpt lat="49.28132" lon="1.26038">
        <ele>10</ele>
        <time>2017-04-04T15:04:52Z</time>
      </trkpt>
      <trkpt lat="49.28124" lon="1.26041">
        <ele>11</ele>
        <time>2017-04-04T15:04:52Z</time>
      </trkpt>
      <trkpt lat="49.2812" lon="1.26039">
        <ele>11</ele>
        <time>2017-04-04T15:09:20Z</time>
      </trkpt>
      <trkpt lat="49.2812" lon="1.26039">
        <ele>11</ele>
        <time>2017-04-04T15:09:20Z</time>
      </trkpt>
      <trkpt lat="49.28119" lon="1.26037">
        <ele>11</ele>
        <time>2017-04-04T15:09:20Z</time>
      </trkpt>
      <trkpt lat="49.28111" lon="1.26033">
        <ele>11</ele>
        <time>2017-04-04T15:09:20Z</time>
      </trkpt>
      <trkpt lat="49.28108" lon="1.2603">
        <ele>11</ele>
        <time>2017-04-04T15:09:20Z</time>
      </trkpt>
      <trkpt lat="49.2811" lon="1.26031">
        <ele>11</ele>
        <time>2017-04-04T15:09:39Z</time>
      </trkpt>
      <trkpt lat="49.28109" lon="1.26031">
        <ele>11</ele>
        <time>2017-04-04T15:09:39Z</time>
      </trkpt>
      <trkpt lat="49.28106" lon="1.26028">
        <ele>11</ele>
        <time>2017-04-04T15:09:39Z</time>
      </trkpt>
      <trkpt lat="49.28103" lon="1.26027">
        <ele>11</ele>
        <time>2017-04-04T15:09:39Z</time>
      </trkpt>
      <trkpt lat="49.281" lon="1.26027">
        <ele>11</ele>
        <time>2017-04-04T15:09:39Z</time>
      </trkpt>
      <trkpt lat="49.28096" lon="1.26029">
        <ele>11</ele>
        <time>2017-04-04T15:09:56Z</time>
      </trkpt>
      <trkpt lat="49.28093" lon="1.26028">
        <ele>11</ele>
        <time>2017-04-04T15:09:56Z</time>
      </trkpt>
      <trkpt lat="49.28088" lon="1.26026">
        <ele>11</ele>
        <time>2017-04-04T15:09:56Z</time>
      </trkpt>
      <trkpt lat="49.28082" lon="1.26026">
        <ele>11</ele>
        <time>2017-04-04T15:09:56Z</time>
      </trkpt>
      <trkpt lat="49.28079" lon="1.26027">
        <ele>11</ele>
        <time>2017-04-04T15:10:11Z</time>
      </trkpt>
      <trkpt lat="49.28076" lon="1.26025">
        <ele>11</ele>
        <time>2017-04-04T15:10:11Z</time>
      </trkpt>
      <trkpt lat="49.28071" lon="1.26028">
        <ele>11</ele>
        <time>2017-04-04T15:10:11Z</time>
      </trkpt>
      <trkpt lat="49.28068" lon="1.26029">
        <ele>11</ele>
        <time>2017-04-04T15:10:11Z</time>
      </trkpt>
      <trkpt lat="49.28062" lon="1.26029">
        <ele>11</ele>
        <time>2017-04-04T15:10:27Z</time>
      </trkpt>
      <trkpt lat="49.2806" lon="1.26028">
        <ele>11</ele>
        <time>2017-04-04T15:10:27Z</time>
      </trkpt>
      <trkpt lat="49.28055" lon="1.26026">
        <ele>11</ele>
        <time>2017-04-04T15:10:27Z</time>
      </trkpt>
      <trkpt lat="49.28052" lon="1.26026">
        <ele>11</ele>
        <time>2017-04-04T15:10:27Z</time>
      </trkpt>
      <trkpt lat="49.28047" lon="1.26026">
        <ele>11</ele>
        <time>2017-04-04T15:10:48Z</time>
      </trkpt>
      <trkpt lat="49.28044" lon="1.26027">
        <ele>11</ele>
        <time>2017-04-04T15:10:48Z</time>
      </trkpt>
      <trkpt lat="49.28039" lon="1.26024">
        <ele>12</ele>
        <time>2017-04-04T15:10:48Z</time>
      </trkpt>
      <trkpt lat="49.28039" lon="1.26023">
        <ele>12</ele>
        <time>2017-04-04T15:10:48Z</time>
      </trkpt>
      <trkpt lat="49.28031" lon="1.26023">
        <ele>12</ele>
        <time>2017-04-04T15:10:48Z</time>
      </trkpt>
      <trkpt lat="49.28027" lon="1.26021">
        <ele>12</ele>
        <time>2017-04-04T15:11:04Z</time>
      </trkpt>
      <trkpt lat="49.28023" lon="1.26019">
        <ele>12</ele>
        <time>2017-04-04T15:11:04Z</time>
      </trkpt>
      <trkpt lat="49.28018" lon="1.26019">
        <ele>12</ele>
        <time>2017-04-04T15:11:04Z</time>
      </trkpt>
      <trkpt lat="49.28011" lon="1.26021">
        <ele>12</ele>
        <time>2017-04-04T15:11:04Z</time>
      </trkpt>
      <trkpt lat="49.28005" lon="1.26021">
        <ele>12</ele>
        <time>2017-04-04T15:11:19Z</time>
      </trkpt>
      <trkpt lat="49.27999" lon="1.26021">
        <ele>12</ele>
        <time>2017-04-04T15:11:19Z</time>
      </trkpt>
      <trkpt lat="49.27993" lon="1.26022">
        <ele>12</ele>
        <time>2017-04-04T15:11:19Z</time>
      </trkpt>
      <trkpt lat="49.27988" lon="1.26022">
        <ele>12</ele>
        <time>2017-04-04T15:11:19Z</time>
      </trkpt>
      <trkpt lat="49.27984" lon="1.26022">
        <ele>12</ele>
        <time>2017-04-04T15:11:35Z</time>
      </trkpt>
      <trkpt lat="49.2798" lon="1.26023">
        <ele>12</ele>
        <time>2017-04-04T15:11:35Z</time>
      </trkpt>
      <trkpt lat="49.27977" lon="1.26022">
        <ele>12</ele>
        <time>2017-04-04T15:11:35Z</time>
      </trkpt>
      <trkpt lat="49.27973" lon="1.26022">
        <ele>12</ele>
        <time>2017-04-04T15:11:35Z</time>
      </trkpt>
      <trkpt lat="49.27968" lon="1.26024">
        <ele>12</ele>
        <time>2017-04-04T15:11:51Z</time>
      </trkpt>
      <trkpt lat="49.27964" lon="1.26023">
        <ele>12</ele>
        <time>2017-04-04T15:11:51Z</time>
      </trkpt>
      <trkpt lat="49.27957" lon="1.26023">
        <ele>11</ele>
        <time>2017-04-04T15:11:51Z</time>
      </trkpt>
      <trkpt lat="49.27953" lon="1.26024">
        <ele>11</ele>
        <time>2017-04-04T15:11:51Z</time>
      </trkpt>
      <trkpt lat="49.27947" lon="1.26023">
        <ele>11</ele>
        <time>2017-04-04T15:12:08Z</time>
      </trkpt>
      <trkpt lat="49.27943" lon="1.26022">
        <ele>11</ele>
        <time>2017-04-04T15:12:08Z</time>
      </trkpt>
      <trkpt lat="49.2794" lon="1.26022">
        <ele>11</ele>
        <time>2017-04-04T15:12:08Z</time>
      </trkpt>
      <trkpt lat="49.27934" lon="1.26022">
        <ele>11</ele>
        <time>2017-04-04T15:12:08Z</time>
      </trkpt>
      <trkpt lat="49.2793" lon="1.26021">
        <ele>11</ele>
        <time>2017-04-04T15:12:23Z</time>
      </trkpt>
      <trkpt lat="49.27925" lon="1.26021">
        <ele>11</ele>
        <time>2017-04-04T15:12:23Z</time>
      </trkpt>
      <trkpt lat="49.27919" lon="1.26023">
        <ele>11</ele>
        <time>2017-04-04T15:12:23Z</time>
      </trkpt>
      <trkpt lat="49.27915" lon="1.26023">
        <ele>11</ele>
        <time>2017-04-04T15:12:23Z</time>
      </trkpt>
      <trkpt lat="49.27909" lon="1.26023">
        <ele>11</ele>
        <time>2017-04-04T15:12:39Z</time>
      </trkpt>
      <trkpt lat="49.27905" lon="1.26023">
        <ele>11</ele>
        <time>2017-04-04T15:12:39Z</time>
      </trkpt>
      <trkpt lat="49.27899" lon="1.26025">
        <ele>11</ele>
        <time>2017-04-04T15:12:39Z</time>
      </trkpt>
      <trkpt lat="49.27893" lon="1.26027">
        <ele>11</ele>
        <time>2017-04-04T15:12:39Z</time>
      </trkpt>
      <trkpt lat="49.2789" lon="1.26026">
        <ele>11</ele>
        <time>2017-04-04T15:12:55Z</time>
      </trkpt>
      <trkpt lat="49.27884" lon="1.26025">
        <ele>11</ele>
        <time>2017-04-04T15:12:55Z</time>
      </trkpt>
      <trkpt lat="49.27879" lon="1.26025">
        <ele>11</ele>
        <time>2017-04-04T15:12:55Z</time>
      </trkpt>
      <trkpt lat="49.27874" lon="1.26024">
        <ele>11</ele>
        <time>2017-04-04T15:12:55Z</time>
      </trkpt>
      <trkpt lat="49.27868" lon="1.26022">
        <ele>11</ele>
        <time>2017-04-04T15:13:11Z</time>
      </trkpt>
      <trkpt lat="49.27862" lon="1.26024">
        <ele>11</ele>
        <time>2017-04-04T15:13:11Z</time>
      </trkpt>
      <trkpt lat="49.27858" lon="1.26024">
        <ele>11</ele>
        <time>2017-04-04T15:13:12Z</time>
      </trkpt>
      <trkpt lat="49.27852" lon="1.26022">
        <ele>11</ele>
        <time>2017-04-04T15:13:12Z</time>
      </trkpt>
      <trkpt lat="49.27848" lon="1.26022">
        <ele>11</ele>
        <time>2017-04-04T15:13:27Z</time>
      </trkpt>
      <trkpt lat="49.27843" lon="1.26021">
        <ele>11</ele>
        <time>2017-04-04T15:13:27Z</time>
      </trkpt>
      <trkpt lat="49.2784" lon="1.2602">
        <ele>11</ele>
        <time>2017-04-04T15:13:27Z</time>
      </trkpt>
      <trkpt lat="49.27834" lon="1.26019">
        <ele>11</ele>
        <time>2017-04-04T15:13:27Z</time>
      </trkpt>
      <trkpt lat="49.2783" lon="1.26019">
        <ele>11</ele>
        <time>2017-04-04T15:13:43Z</time>
      </trkpt>
      <trkpt lat="49.27825" lon="1.26019">
        <ele>11</ele>
        <time>2017-04-04T15:13:43Z</time>
      </trkpt>
      <trkpt lat="49.27818" lon="1.26021">
        <ele>11</ele>
        <time>2017-04-04T15:13:43Z</time>
      </trkpt>
      <trkpt lat="49.27815" lon="1.2602">
        <ele>11</ele>
        <time>2017-04-04T15:13:43Z</time>
      </trkpt>
      <trkpt lat="49.27807" lon="1.26018">
        <ele>11</ele>
        <time>2017-04-04T15:14:00Z</time>
      </trkpt>
      <trkpt lat="49.27802" lon="1.26018">
        <ele>11</ele>
        <time>2017-04-04T15:14:00Z</time>
      </trkpt>
      <trkpt lat="49.27799" lon="1.26018">
        <ele>11</ele>
        <time>2017-04-04T15:14:00Z</time>
      </trkpt>
      <trkpt lat="49.27794" lon="1.2602">
        <ele>11</ele>
        <time>2017-04-04T15:14:00Z</time>
      </trkpt>
      <trkpt lat="49.27792" lon="1.26014">
        <ele>12</ele>
        <time>2017-04-04T15:15:04Z</time>
      </trkpt>
      <trkpt lat="49.27791" lon="1.26013">
        <ele>12</ele>
        <time>2017-04-04T15:15:04Z</time>
      </trkpt>
      <trkpt lat="49.27791" lon="1.26012">
        <ele>12</ele>
        <time>2017-04-04T15:15:04Z</time>
      </trkpt>
      <trkpt lat="49.2779" lon="1.26005">
        <ele>12</ele>
        <time>2017-04-04T15:15:04Z</time>
      </trkpt>
      <trkpt lat="49.27787" lon="1.25998">
        <ele>12</ele>
        <time>2017-04-04T15:15:04Z</time>
      </trkpt>
      <trkpt lat="49.27785" lon="1.25991">
        <ele>12</ele>
        <time>2017-04-04T15:15:19Z</time>
      </trkpt>
      <trkpt lat="49.27785" lon="1.25986">
        <ele>12</ele>
        <time>2017-04-04T15:15:19Z</time>
      </trkpt>
      <trkpt lat="49.27784" lon="1.25977">
        <ele>12</ele>
        <time>2017-04-04T15:15:19Z</time>
      </trkpt>
      <trkpt lat="49.27782" lon="1.25972">
        <ele>12</ele>
        <time>2017-04-04T15:15:19Z</time>
      </trkpt>
      <trkpt lat="49.2778" lon="1.25965">
        <ele>12</ele>
        <time>2017-04-04T15:15:35Z</time>
      </trkpt>
      <trkpt lat="49.27778" lon="1.25957">
        <ele>12</ele>
        <time>2017-04-04T15:15:35Z</time>
      </trkpt>
      <trkpt lat="49.27776" lon="1.2595">
        <ele>12</ele>
        <time>2017-04-04T15:15:35Z</time>
      </trkpt>
      <trkpt lat="49.27775" lon="1.25942">
        <ele>12</ele>
        <time>2017-04-04T15:15:35Z</time>
      </trkpt>
      <trkpt lat="49.27773" lon="1.25934">
        <ele>12</ele>
        <time>2017-04-04T15:15:51Z</time>
      </trkpt>
      <trkpt lat="49.27773" lon="1.25927">
        <ele>12</ele>
        <time>2017-04-04T15:15:51Z</time>
      </trkpt>
      <trkpt lat="49.27771" lon="1.25923">
        <ele>12</ele>
        <time>2017-04-04T15:15:51Z</time>
      </trkpt>
      <trkpt lat="49.27768" lon="1.25918">
        <ele>12</ele>
        <time>2017-04-04T15:15:51Z</time>
      </trkpt>
      <trkpt lat="49.27766" lon="1.25913">
        <ele>12</ele>
        <time>2017-04-04T15:16:07Z</time>
      </trkpt>
      <trkpt lat="49.27764" lon="1.25907">
        <ele>12</ele>
        <time>2017-04-04T15:16:07Z</time>
      </trkpt>
      <trkpt lat="49.27763" lon="1.25899">
        <ele>12</ele>
        <time>2017-04-04T15:16:07Z</time>
      </trkpt>
      <trkpt lat="49.27764" lon="1.25893">
        <ele>12</ele>
        <time>2017-04-04T15:16:07Z</time>
      </trkpt>
      <trkpt lat="49.27764" lon="1.25886">
        <ele>12</ele>
        <time>2017-04-04T15:16:23Z</time>
      </trkpt>
      <trkpt lat="49.27767" lon="1.2588">
        <ele>12</ele>
        <time>2017-04-04T15:16:23Z</time>
      </trkpt>
      <trkpt lat="49.27771" lon="1.25874">
        <ele>9</ele>
        <time>2017-04-04T15:16:23Z</time>
      </trkpt>
      <trkpt lat="49.27775" lon="1.2587">
        <ele>9</ele>
        <time>2017-04-04T15:16:23Z</time>
      </trkpt>
      <trkpt lat="49.27778" lon="1.25867">
        <ele>9</ele>
        <time>2017-04-04T15:16:40Z</time>
      </trkpt>
      <trkpt lat="49.2778" lon="1.25861">
        <ele>9</ele>
        <time>2017-04-04T15:16:40Z</time>
      </trkpt>
      <trkpt lat="49.27783" lon="1.25855">
        <ele>9</ele>
        <time>2017-04-04T15:16:40Z</time>
      </trkpt>
      <trkpt lat="49.27788" lon="1.25847">
        <ele>9</ele>
        <time>2017-04-04T15:16:40Z</time>
      </trkpt>
      <trkpt lat="49.27792" lon="1.25841">
        <ele>9</ele>
        <time>2017-04-04T15:16:55Z</time>
      </trkpt>
      <trkpt lat="49.27795" lon="1.25835">
        <ele>9</ele>
        <time>2017-04-04T15:16:55Z</time>
      </trkpt>
      <trkpt lat="49.27797" lon="1.25832">
        <ele>9</ele>
        <time>2017-04-04T15:16:55Z</time>
      </trkpt>
      <trkpt lat="49.27799" lon="1.25825">
        <ele>9</ele>
        <time>2017-04-04T15:16:55Z</time>
      </trkpt>
      <trkpt lat="49.27802" lon="1.25817">
        <ele>9</ele>
        <time>2017-04-04T15:17:11Z</time>
      </trkpt>
      <trkpt lat="49.27804" lon="1.25811">
        <ele>9</ele>
        <time>2017-04-04T15:17:11Z</time>
      </trkpt>
      <trkpt lat="49.27807" lon="1.25804">
        <ele>9</ele>
        <time>2017-04-04T15:17:11Z</time>
      </trkpt>
      <trkpt lat="49.2781" lon="1.25798">
        <ele>9</ele>
        <time>2017-04-04T15:17:11Z</time>
      </trkpt>
      <trkpt lat="49.27813" lon="1.25792">
        <ele>9</ele>
        <time>2017-04-04T15:17:27Z</time>
      </trkpt>
      <trkpt lat="49.27815" lon="1.25787">
        <ele>7</ele>
        <time>2017-04-04T15:17:27Z</time>
      </trkpt>
      <trkpt lat="49.27818" lon="1.2578">
        <ele>7</ele>
        <time>2017-04-04T15:17:27Z</time>
      </trkpt>
      <trkpt lat="49.27823" lon="1.25772">
        <ele>7</ele>
        <time>2017-04-04T15:17:27Z</time>
      </trkpt>
      <trkpt lat="49.27825" lon="1.25767">
        <ele>7</ele>
        <time>2017-04-04T15:17:43Z</time>
      </trkpt>
      <trkpt lat="49.27829" lon="1.25763">
        <ele>7</ele>
        <time>2017-04-04T15:17:43Z</time>
      </trkpt>
      <trkpt lat="49.27835" lon="1.25757">
        <ele>7</ele>
        <time>2017-04-04T15:17:43Z</time>
      </trkpt>
      <trkpt lat="49.27839" lon="1.2575">
        <ele>7</ele>
        <time>2017-04-04T15:17:43Z</time>
      </trkpt>
      <trkpt lat="49.27841" lon="1.25745">
        <ele>7</ele>
        <time>2017-04-04T15:18:00Z</time>
      </trkpt>
      <trkpt lat="49.27845" lon="1.25736">
        <ele>7</ele>
        <time>2017-04-04T15:18:00Z</time>
      </trkpt>
      <trkpt lat="49.27847" lon="1.2573">
        <ele>7</ele>
        <time>2017-04-04T15:18:00Z</time>
      </trkpt>
      <trkpt lat="49.27852" lon="1.2572">
        <ele>7</ele>
        <time>2017-04-04T15:18:00Z</time>
      </trkpt>
      <trkpt lat="49.27853" lon="1.25715">
        <ele>7</ele>
        <time>2017-04-04T15:18:15Z</time>
      </trkpt>
      <trkpt lat="49.27856" lon="1.2571">
        <ele>7</ele>
        <time>2017-04-04T15:18:15Z</time>
      </trkpt>
      <trkpt lat="49.27859" lon="1.25701">
        <ele>7</ele>
        <time>2017-04-04T15:18:15Z</time>
      </trkpt>
      <trkpt lat="49.27861" lon="1.25697">
        <ele>7</ele>
        <time>2017-04-04T15:18:15Z</time>
      </trkpt>
      <trkpt lat="49.27863" lon="1.25691">
        <ele>7</ele>
        <time>2017-04-04T15:18:31Z</time>
      </trkpt>
      <trkpt lat="49.27865" lon="1.25684">
        <ele>7</ele>
        <time>2017-04-04T15:18:31Z</time>
      </trkpt>
      <trkpt lat="49.27868" lon="1.25676">
        <ele>7</ele>
        <time>2017-04-04T15:18:31Z</time>
      </trkpt>
      <trkpt lat="49.27871" lon="1.2567">
        <ele>7</ele>
        <time>2017-04-04T15:18:31Z</time>
      </trkpt>
      <trkpt lat="49.27875" lon="1.25664">
        <ele>7</ele>
        <time>2017-04-04T15:18:48Z</time>
      </trkpt>
      <trkpt lat="49.27879" lon="1.25655">
        <ele>8</ele>
        <time>2017-04-04T15:18:48Z</time>
      </trkpt>
      <trkpt lat="49.27881" lon="1.2565">
        <ele>8</ele>
        <time>2017-04-04T15:18:48Z</time>
      </trkpt>
      <trkpt lat="49.27884" lon="1.25643">
        <ele>8</ele>
        <time>2017-04-04T15:18:48Z</time>
      </trkpt>
      <trkpt lat="49.27886" lon="1.25637">
        <ele>8</ele>
        <time>2017-04-04T15:19:04Z</time>
      </trkpt>
      <trkpt lat="49.27889" lon="1.2563">
        <ele>8</ele>
        <time>2017-04-04T15:19:04Z</time>
      </trkpt>
      <trkpt lat="49.27891" lon="1.25625">
        <ele>8</ele>
        <time>2017-04-04T15:19:04Z</time>
      </trkpt>
      <trkpt lat="49.27895" lon="1.25618">
        <ele>7</ele>
        <time>2017-04-04T15:19:04Z</time>
      </trkpt>
      <trkpt lat="49.27898" lon="1.25614">
        <ele>7</ele>
        <time>2017-04-04T15:19:19Z</time>
      </trkpt>
      <trkpt lat="49.27901" lon="1.25605">
        <ele>7</ele>
        <time>2017-04-04T15:19:19Z</time>
      </trkpt>
      <trkpt lat="49.27903" lon="1.25599">
        <ele>7</ele>
        <time>2017-04-04T15:19:19Z</time>
      </trkpt>
      <trkpt lat="49.27907" lon="1.25591">
        <ele>7</ele>
        <time>2017-04-04T15:19:20Z</time>
      </trkpt>
      <trkpt lat="49.27908" lon="1.25585">
        <ele>7</ele>
        <time>2017-04-04T15:19:35Z</time>
      </trkpt>
      <trkpt lat="49.2791" lon="1.2558">
        <ele>7</ele>
        <time>2017-04-04T15:19:35Z</time>
      </trkpt>
      <trkpt lat="49.27911" lon="1.25573">
        <ele>7</ele>
        <time>2017-04-04T15:19:35Z</time>
      </trkpt>
      <trkpt lat="49.27914" lon="1.25568">
        <ele>7</ele>
        <time>2017-04-04T15:19:35Z</time>
      </trkpt>
      <trkpt lat="49.27916" lon="1.25561">
        <ele>7</ele>
        <time>2017-04-04T15:19:51Z</time>
      </trkpt>
      <trkpt lat="49.27918" lon="1.25555">
        <ele>7</ele>
        <time>2017-04-04T15:19:51Z</time>
      </trkpt>
      <trkpt lat="49.27921" lon="1.25547">
        <ele>7</ele>
        <time>2017-04-04T15:19:51Z</time>
      </trkpt>
      <trkpt lat="49.27925" lon="1.25541">
        <ele>6</ele>
        <time>2017-04-04T15:19:51Z</time>
      </trkpt>
      <trkpt lat="49.27927" lon="1.25535">
        <ele>6</ele>
        <time>2017-04-04T15:20:07Z</time>
      </trkpt>
      <trkpt lat="49.27931" lon="1.25526">
        <ele>6</ele>
        <time>2017-04-04T15:20:07Z</time>
      </trkpt>
      <trkpt lat="49.27932" lon="1.2552">
        <ele>6</ele>
        <time>2017-04-04T15:20:07Z</time>
      </trkpt>
      <trkpt lat="49.27935" lon="1.25513">
        <ele>6</ele>
        <time>2017-04-04T15:20:07Z</time>
      </trkpt>
      <trkpt lat="49.27938" lon="1.25502">
        <ele>6</ele>
        <time>2017-04-04T15:20:23Z</time>
      </trkpt>
      <trkpt lat="49.27939" lon="1.25496">
        <ele>6</ele>
        <time>2017-04-04T15:20:23Z</time>
      </trkpt>
      <trkpt lat="49.27941" lon="1.2549">
        <ele>6</ele>
        <time>2017-04-04T15:20:23Z</time>
      </trkpt>
      <trkpt lat="49.27943" lon="1.25482">
        <ele>6</ele>
        <time>2017-04-04T15:20:23Z</time>
      </trkpt>
      <trkpt lat="49.27944" lon="1.25475">
        <ele>6</ele>
        <time>2017-04-04T15:20:40Z</time>
      </trkpt>
      <trkpt lat="49.27946" lon="1.25469">
        <ele>6</ele>
        <time>2017-04-04T15:20:40Z</time>
      </trkpt>
      <trkpt lat="49.27949" lon="1.25462">
        <ele>6</ele>
        <time>2017-04-04T15:20:40Z</time>
      </trkpt>
      <trkpt lat="49.27951" lon="1.25454">
        <ele>9</ele>
        <time>2017-04-04T15:20:40Z</time>
      </trkpt>
      <trkpt lat="49.27953" lon="1.25449">
        <ele>9</ele>
        <time>2017-04-04T15:20:55Z</time>
      </trkpt>
      <trkpt lat="49.27955" lon="1.25441">
        <ele>9</ele>
        <time>2017-04-04T15:20:55Z</time>
      </trkpt>
      <trkpt lat="49.27956" lon="1.25437">
        <ele>9</ele>
        <time>2017-04-04T15:20:55Z</time>
      </trkpt>
      <trkpt lat="49.27958" lon="1.2543">
        <ele>9</ele>
        <time>2017-04-04T15:20:55Z</time>
      </trkpt>
      <trkpt lat="49.2796" lon="1.25425">
        <ele>7</ele>
        <time>2017-04-04T15:21:11Z</time>
      </trkpt>
      <trkpt lat="49.27962" lon="1.25417">
        <ele>7</ele>
        <time>2017-04-04T15:21:11Z</time>
      </trkpt>
      <trkpt lat="49.27965" lon="1.25411">
        <ele>7</ele>
        <time>2017-04-04T15:21:11Z</time>
      </trkpt>
      <trkpt lat="49.27967" lon="1.25406">
        <ele>7</ele>
        <time>2017-04-04T15:21:11Z</time>
      </trkpt>
      <trkpt lat="49.27969" lon="1.25398">
        <ele>7</ele>
        <time>2017-04-04T15:21:27Z</time>
      </trkpt>
      <trkpt lat="49.27973" lon="1.2539">
        <ele>7</ele>
        <time>2017-04-04T15:21:27Z</time>
      </trkpt>
      <trkpt lat="49.27975" lon="1.25385">
        <ele>7</ele>
        <time>2017-04-04T15:21:27Z</time>
      </trkpt>
      <trkpt lat="49.27978" lon="1.2538">
        <ele>7</ele>
        <time>2017-04-04T15:21:27Z</time>
      </trkpt>
      <trkpt lat="49.27981" lon="1.25373">
        <ele>8</ele>
        <time>2017-04-04T15:21:43Z</time>
      </trkpt>
      <trkpt lat="49.27982" lon="1.25368">
        <ele>8</ele>
        <time>2017-04-04T15:21:43Z</time>
      </trkpt>
      <trkpt lat="49.27984" lon="1.25362">
        <ele>8</ele>
        <time>2017-04-04T15:21:43Z</time>
      </trkpt>
      <trkpt lat="49.27986" lon="1.25352">
        <ele>8</ele>
        <time>2017-04-04T15:21:43Z</time>
      </trkpt>
      <trkpt lat="49.2799" lon="1.25345">
        <ele>8</ele>
        <time>2017-04-04T15:21:59Z</time>
      </trkpt>
      <trkpt lat="49.27993" lon="1.25338">
        <ele>8</ele>
        <time>2017-04-04T15:21:59Z</time>
      </trkpt>
      <trkpt lat="49.27995" lon="1.25333">
        <ele>8</ele>
        <time>2017-04-04T15:21:59Z</time>
      </trkpt>
      <trkpt lat="49.27998" lon="1.25326">
        <ele>8</ele>
        <time>2017-04-04T15:21:59Z</time>
      </trkpt>
      <trkpt lat="49.28" lon="1.25319">
        <ele>8</ele>
        <time>2017-04-04T15:22:16Z</time>
      </trkpt>
      <trkpt lat="49.28003" lon="1.25313">
        <ele>8</ele>
        <time>2017-04-04T15:22:16Z</time>
      </trkpt>
      <trkpt lat="49.28007" lon="1.25307">
        <ele>8</ele>
        <time>2017-04-04T15:22:16Z</time>
      </trkpt>
      <trkpt lat="49.28011" lon="1.253">
        <ele>8</ele>
        <time>2017-04-04T15:22:16Z</time>
      </trkpt>
      <trkpt lat="49.28013" lon="1.25295">
        <ele>8</ele>
        <time>2017-04-04T15:22:31Z</time>
      </trkpt>
      <trkpt lat="49.28016" lon="1.2529">
        <ele>7</ele>
        <time>2017-04-04T15:22:31Z</time>
      </trkpt>
      <trkpt lat="49.2802" lon="1.25283">
        <ele>7</ele>
        <time>2017-04-04T15:22:31Z</time>
      </trkpt>
      <trkpt lat="49.28022" lon="1.25278">
        <ele>7</ele>
        <time>2017-04-04T15:22:31Z</time>
      </trkpt>
      <trkpt lat="49.28025" lon="1.25273">
        <ele>7</ele>
        <time>2017-04-04T15:22:48Z</time>
      </trkpt>
      <trkpt lat="49.28029" lon="1.25268">
        <ele>7</ele>
        <time>2017-04-04T15:22:48Z</time>
      </trkpt>
      <trkpt lat="49.28034" lon="1.25261">
        <ele>7</ele>
        <time>2017-04-04T15:22:48Z</time>
      </trkpt>
      <trkpt lat="49.28038" lon="1.25256">
        <ele>7</ele>
        <time>2017-04-04T15:22:48Z</time>
      </trkpt>
      <trkpt lat="49.2804" lon="1.25252">
        <ele>7</ele>
        <time>2017-04-04T15:23:03Z</time>
      </trkpt>
      <trkpt lat="49.28042" lon="1.25245">
        <ele>9</ele>
        <time>2017-04-04T15:23:03Z</time>
      </trkpt>
      <trkpt lat="49.28044" lon="1.25239">
        <ele>9</ele>
        <time>2017-04-04T15:23:03Z</time>
      </trkpt>
      <trkpt lat="49.28048" lon="1.25233">
        <ele>9</ele>
        <time>2017-04-04T15:23:03Z</time>
      </trkpt>
      <trkpt lat="49.28051" lon="1.25226">
        <ele>9</ele>
        <time>2017-04-04T15:23:19Z</time>
      </trkpt>
      <trkpt lat="49.28056" lon="1.2522">
        <ele>9</ele>
        <time>2017-04-04T15:23:19Z</time>
      </trkpt>
      <trkpt lat="49.2806" lon="1.25215">
        <ele>9</ele>
        <time>2017-04-04T15:23:19Z</time>
      </trkpt>
      <trkpt lat="49.28062" lon="1.25208">
        <ele>7</ele>
        <time>2017-04-04T15:23:19Z</time>
      </trkpt>
      <trkpt lat="49.28064" lon="1.252">
        <ele>7</ele>
        <time>2017-04-04T15:23:35Z</time>
      </trkpt>
      <trkpt lat="49.28066" lon="1.25194">
        <ele>7</ele>
        <time>2017-04-04T15:23:35Z</time>
      </trkpt>
      <trkpt lat="49.28071" lon="1.25187">
        <ele>7</ele>
        <time>2017-04-04T15:23:35Z</time>
      </trkpt>
      <trkpt lat="49.28074" lon="1.25183">
        <ele>7</ele>
        <time>2017-04-04T15:23:35Z</time>
      </trkpt>
      <trkpt lat="49.28076" lon="1.25177">
        <ele>7</ele>
        <time>2017-04-04T15:23:52Z</time>
      </trkpt>
      <trkpt lat="49.28079" lon="1.2517">
        <ele>7</ele>
        <time>2017-04-04T15:23:52Z</time>
      </trkpt>
      <trkpt lat="49.28081" lon="1.25166">
        <ele>7</ele>
        <time>2017-04-04T15:23:52Z</time>
      </trkpt>
      <trkpt lat="49.28085" lon="1.25158">
        <ele>7</ele>
        <time>2017-04-04T15:23:52Z</time>
      </trkpt>
      <trkpt lat="49.28087" lon="1.25153">
        <ele>7</ele>
        <time>2017-04-04T15:24:07Z</time>
      </trkpt>
      <trkpt lat="49.28089" lon="1.25147">
        <ele>7</ele>
        <time>2017-04-04T15:24:07Z</time>
      </trkpt>
      <trkpt lat="49.28092" lon="1.2514">
        <ele>7</ele>
        <time>2017-04-04T15:24:07Z</time>
      </trkpt>
      <trkpt lat="49.28094" lon="1.25135">
        <ele>7</ele>
        <time>2017-04-04T15:24:07Z</time>
      </trkpt>
      <trkpt lat="49.28097" lon="1.25128">
        <ele>7</ele>
        <time>2017-04-04T15:24:24Z</time>
      </trkpt>
      <trkpt lat="49.281" lon="1.25118">
        <ele>7</ele>
        <time>2017-04-04T15:24:24Z</time>
      </trkpt>
      <trkpt lat="49.28102" lon="1.25108">
        <ele>7</ele>
        <time>2017-04-04T15:24:24Z</time>
      </trkpt>
      <trkpt lat="49.28105" lon="1.251">
        <ele>7</ele>
        <time>2017-04-04T15:24:24Z</time>
      </trkpt>
      <trkpt lat="49.28108" lon="1.25094">
        <ele>7</ele>
        <time>2017-04-04T15:24:39Z</time>
      </trkpt>
      <trkpt lat="49.28112" lon="1.25088">
        <ele>7</ele>
        <time>2017-04-04T15:24:39Z</time>
      </trkpt>
      <trkpt lat="49.28114" lon="1.25082">
        <ele>7</ele>
        <time>2017-04-04T15:24:39Z</time>
      </trkpt>
      <trkpt lat="49.28115" lon="1.25074">
        <ele>7</ele>
        <time>2017-04-04T15:24:39Z</time>
      </trkpt>
      <trkpt lat="49.28119" lon="1.25068">
        <ele>7</ele>
        <time>2017-04-04T15:24:55Z</time>
      </trkpt>
      <trkpt lat="49.28122" lon="1.2506">
        <ele>7</ele>
        <time>2017-04-04T15:24:55Z</time>
      </trkpt>
      <trkpt lat="49.28126" lon="1.25054">
        <ele>7</ele>
        <time>2017-04-04T15:24:55Z</time>
      </trkpt>
      <trkpt lat="49.28128" lon="1.25049">
        <ele>7</ele>
        <time>2017-04-04T15:24:55Z</time>
      </trkpt>
      <trkpt lat="49.28132" lon="1.25041">
        <ele>8</ele>
        <time>2017-04-04T15:25:12Z</time>
      </trkpt>
      <trkpt lat="49.28134" lon="1.25036">
        <ele>8</ele>
        <time>2017-04-04T15:25:12Z</time>
      </trkpt>
      <trkpt lat="49.28137" lon="1.25028">
        <ele>8</ele>
        <time>2017-04-04T15:25:12Z</time>
      </trkpt>
      <trkpt lat="49.2814" lon="1.25018">
        <ele>8</ele>
        <time>2017-04-04T15:25:12Z</time>
      </trkpt>
      <trkpt lat="49.28141" lon="1.25014">
        <ele>8</ele>
        <time>2017-04-04T15:25:27Z</time>
      </trkpt>
      <trkpt lat="49.28144" lon="1.25008">
        <ele>8</ele>
        <time>2017-04-04T15:25:27Z</time>
      </trkpt>
      <trkpt lat="49.28145" lon="1.25001">
        <ele>8</ele>
        <time>2017-04-04T15:25:27Z</time>
      </trkpt>
      <trkpt lat="49.28147" lon="1.24996">
        <ele>8</ele>
        <time>2017-04-04T15:25:27Z</time>
      </trkpt>
      <trkpt lat="49.28152" lon="1.24988">
        <ele>8</ele>
        <time>2017-04-04T15:25:43Z</time>
      </trkpt>
      <trkpt lat="49.28156" lon="1.24983">
        <ele>8</ele>
        <time>2017-04-04T15:25:43Z</time>
      </trkpt>
      <trkpt lat="49.28158" lon="1.24977">
        <ele>8</ele>
        <time>2017-04-04T15:25:43Z</time>
      </trkpt>
      <trkpt lat="49.28159" lon="1.2497">
        <ele>8</ele>
        <time>2017-04-04T15:25:43Z</time>
      </trkpt>
      <trkpt lat="49.28161" lon="1.24962">
        <ele>8</ele>
        <time>2017-04-04T15:26:00Z</time>
      </trkpt>
      <trkpt lat="49.28164" lon="1.24954">
        <ele>12</ele>
        <time>2017-04-04T15:26:00Z</time>
      </trkpt>
      <trkpt lat="49.28166" lon="1.24946">
        <ele>12</ele>
        <time>2017-04-04T15:26:00Z</time>
      </trkpt>
      <trkpt lat="49.28167" lon="1.24939">
        <ele>12</ele>
        <time>2017-04-04T15:26:00Z</time>
      </trkpt>
      <trkpt lat="49.28169" lon="1.24934">
        <ele>12</ele>
        <time>2017-04-04T15:26:16Z</time>
      </trkpt>
      <trkpt lat="49.2817" lon="1.24925">
        <ele>12</ele>
        <time>2017-04-04T15:26:16Z</time>
      </trkpt>
      <trkpt lat="49.2817" lon="1.2492">
        <ele>12</ele>
        <time>2017-04-04T15:26:16Z</time>
      </trkpt>
      <trkpt lat="49.28169" lon="1.24912">
        <ele>12</ele>
        <time>2017-04-04T15:26:16Z</time>
      </trkpt>
      <trkpt lat="49.2817" lon="1.24908">
        <ele>12</ele>
        <time>2017-04-04T15:26:31Z</time>
      </trkpt>
      <trkpt lat="49.28173" lon="1.24901">
        <ele>12</ele>
        <time>2017-04-04T15:26:31Z</time>
      </trkpt>
      <trkpt lat="49.28175" lon="1.24896">
        <ele>12</ele>
        <time>2017-04-04T15:26:31Z</time>
      </trkpt>
      <trkpt lat="49.28178" lon="1.24888">
        <ele>12</ele>
        <time>2017-04-04T15:26:31Z</time>
      </trkpt>
      <trkpt lat="49.2818" lon="1.24878">
        <ele>12</ele>
        <time>2017-04-04T15:26:47Z</time>
      </trkpt>
      <trkpt lat="49.28182" lon="1.2487">
        <ele>12</ele>
        <time>2017-04-04T15:26:47Z</time>
      </trkpt>
      <trkpt lat="49.28184" lon="1.24861">
        <ele>12</ele>
        <time>2017-04-04T15:26:47Z</time>
      </trkpt>
      <trkpt lat="49.28187" lon="1.24851">
        <ele>12</ele>
        <time>2017-04-04T15:26:47Z</time>
      </trkpt>
      <trkpt lat="49.2819" lon="1.24842">
        <ele>12</ele>
        <time>2017-04-04T15:27:03Z</time>
      </trkpt>
      <trkpt lat="49.28194" lon="1.24835">
        <ele>12</ele>
        <time>2017-04-04T15:27:03Z</time>
      </trkpt>
      <trkpt lat="49.28195" lon="1.24828">
        <ele>12</ele>
        <time>2017-04-04T15:27:03Z</time>
      </trkpt>
      <trkpt lat="49.28197" lon="1.24822">
        <ele>12</ele>
        <time>2017-04-04T15:27:03Z</time>
      </trkpt>
      <trkpt lat="49.28198" lon="1.24813">
        <ele>12</ele>
        <time>2017-04-04T15:27:20Z</time>
      </trkpt>
      <trkpt lat="49.282" lon="1.24805">
        <ele>12</ele>
        <time>2017-04-04T15:27:20Z</time>
      </trkpt>
      <trkpt lat="49.28201" lon="1.248">
        <ele>12</ele>
        <time>2017-04-04T15:27:20Z</time>
      </trkpt>
      <trkpt lat="49.28204" lon="1.2479">
        <ele>11</ele>
        <time>2017-04-04T15:27:20Z</time>
      </trkpt>
      <trkpt lat="49.28205" lon="1.24785">
        <ele>11</ele>
        <time>2017-04-04T15:27:35Z</time>
      </trkpt>
      <trkpt lat="49.28207" lon="1.24777">
        <ele>11</ele>
        <time>2017-04-04T15:27:35Z</time>
      </trkpt>
      <trkpt lat="49.28208" lon="1.24769">
        <ele>10</ele>
        <time>2017-04-04T15:27:35Z</time>
      </trkpt>
      <trkpt lat="49.28211" lon="1.24763">
        <ele>10</ele>
        <time>2017-04-04T15:27:35Z</time>
      </trkpt>
      <trkpt lat="49.28212" lon="1.24755">
        <ele>10</ele>
        <time>2017-04-04T15:27:51Z</time>
      </trkpt>
      <trkpt lat="49.28213" lon="1.24748">
        <ele>10</ele>
        <time>2017-04-04T15:27:51Z</time>
      </trkpt>
      <trkpt lat="49.28215" lon="1.2474">
        <ele>10</ele>
        <time>2017-04-04T15:27:51Z</time>
      </trkpt>
      <trkpt lat="49.28217" lon="1.24733">
        <ele>10</ele>
        <time>2017-04-04T15:27:51Z</time>
      </trkpt>
      <trkpt lat="49.28219" lon="1.24727">
        <ele>10</ele>
        <time>2017-04-04T15:28:07Z</time>
      </trkpt>
      <trkpt lat="49.2822" lon="1.2472">
        <ele>10</ele>
        <time>2017-04-04T15:28:07Z</time>
      </trkpt>
      <trkpt lat="49.28221" lon="1.24714">
        <ele>10</ele>
        <time>2017-04-04T15:28:07Z</time>
      </trkpt>
      <trkpt lat="49.28223" lon="1.24706">
        <ele>9</ele>
        <time>2017-04-04T15:28:07Z</time>
      </trkpt>
      <trkpt lat="49.28224" lon="1.24699">
        <ele>9</ele>
        <time>2017-04-04T15:28:23Z</time>
      </trkpt>
      <trkpt lat="49.28225" lon="1.24691">
        <ele>9</ele>
        <time>2017-04-04T15:28:23Z</time>
      </trkpt>
      <trkpt lat="49.28227" lon="1.24683">
        <ele>9</ele>
        <time>2017-04-04T15:28:23Z</time>
      </trkpt>
      <trkpt lat="49.28228" lon="1.24675">
        <ele>9</ele>
        <time>2017-04-04T15:28:23Z</time>
      </trkpt>
      <trkpt lat="49.28229" lon="1.2467">
        <ele>9</ele>
        <time>2017-04-04T15:28:39Z</time>
      </trkpt>
      <trkpt lat="49.28231" lon="1.24661">
        <ele>9</ele>
        <time>2017-04-04T15:28:39Z</time>
      </trkpt>
      <trkpt lat="49.28231" lon="1.24655">
        <ele>9</ele>
        <time>2017-04-04T15:28:39Z</time>
      </trkpt>
      <trkpt lat="49.28232" lon="1.24648">
        <ele>9</ele>
        <time>2017-04-04T15:28:39Z</time>
      </trkpt>
      <trkpt lat="49.28236" lon="1.24624">
        <ele>8</ele>
        <time>2017-04-04T15:29:36Z</time>
      </trkpt>
      <trkpt lat="49.28236" lon="1.24624">
        <ele>8</ele>
        <time>2017-04-04T15:29:36Z</time>
      </trkpt>
      <trkpt lat="49.28236" lon="1.24624">
        <ele>8</ele>
        <time>2017-04-04T15:29:36Z</time>
      </trkpt>
      <trkpt lat="49.28236" lon="1.24624">
        <ele>8</ele>
        <time>2017-04-04T15:29:36Z</time>
      </trkpt>
      <trkpt lat="49.28236" lon="1.24624">
        <ele>8</ele>
        <time>2017-04-04T15:29:36Z</time>
      </trkpt>
      <trkpt lat="49.28234" lon="1.24612">
        <ele>8</ele>
        <time>2017-04-04T15:31:20Z</time>
      </trkpt>
      <trkpt lat="49.28234" lon="1.24612">
        <ele>8</ele>
        <time>2017-04-04T15:31:20Z</time>
      </trkpt>
      <trkpt lat="49.28234" lon="1.24612">
        <ele>8</ele>
        <time>2017-04-04T15:31:20Z</time>
      </trkpt>
      <trkpt lat="49.28236" lon="1.24608">
        <ele>8</ele>
        <time>2017-04-04T15:31:20Z</time>
      </trkpt>
      <trkpt lat="49.28237" lon="1.24601">
        <ele>8</ele>
        <time>2017-04-04T15:31:20Z</time>
      </trkpt>
      <trkpt lat="49.28238" lon="1.24594">
        <ele>8</ele>
        <time>2017-04-04T15:31:35Z</time>
      </trkpt>
      <trkpt lat="49.2824" lon="1.24587">
        <ele>8</ele>
        <time>2017-04-04T15:31:35Z</time>
      </trkpt>
      <trkpt lat="49.2824" lon="1.24582">
        <ele>8</ele>
        <time>2017-04-04T15:31:35Z</time>
      </trkpt>
      <trkpt lat="49.28241" lon="1.24575">
        <ele>8</ele>
        <time>2017-04-04T15:31:35Z</time>
      </trkpt>
      <trkpt lat="49.28241" lon="1.24563">
        <ele>8</ele>
        <time>2017-04-04T15:31:51Z</time>
      </trkpt>
      <trkpt lat="49.28242" lon="1.24558">
        <ele>8</ele>
        <time>2017-04-04T15:31:51Z</time>
      </trkpt>
      <trkpt lat="49.28243" lon="1.2455">
        <ele>8</ele>
        <time>2017-04-04T15:31:51Z</time>
      </trkpt>
      <trkpt lat="49.28244" lon="1.24543">
        <ele>8</ele>
        <time>2017-04-04T15:31:51Z</time>
      </trkpt>
      <trkpt lat="49.28247" lon="1.24535">
        <ele>9</ele>
        <time>2017-04-04T15:32:07Z</time>
      </trkpt>
      <trkpt lat="49.28247" lon="1.24526">
        <ele>9</ele>
        <time>2017-04-04T15:32:07Z</time>
      </trkpt>
      <trkpt lat="49.28245" lon="1.24514">
        <ele>9</ele>
        <time>2017-04-04T15:32:07Z</time>
      </trkpt>
      <trkpt lat="49.28247" lon="1.24508">
        <ele>9</ele>
        <time>2017-04-04T15:32:07Z</time>
      </trkpt>
      <trkpt lat="49.28249" lon="1.24502">
        <ele>9</ele>
        <time>2017-04-04T15:32:24Z</time>
      </trkpt>
      <trkpt lat="49.2825" lon="1.24498">
        <ele>9</ele>
        <time>2017-04-04T15:32:24Z</time>
      </trkpt>
      <trkpt lat="49.28252" lon="1.24491">
        <ele>9</ele>
        <time>2017-04-04T15:32:24Z</time>
      </trkpt>
      <trkpt lat="49.28254" lon="1.24483">
        <ele>9</ele>
        <time>2017-04-04T15:32:24Z</time>
      </trkpt>
      <trkpt lat="49.28256" lon="1.24477">
        <ele>9</ele>
        <time>2017-04-04T15:32:39Z</time>
      </trkpt>
      <trkpt lat="49.28259" lon="1.24469">
        <ele>9</ele>
        <time>2017-04-04T15:32:39Z</time>
      </trkpt>
      <trkpt lat="49.28261" lon="1.24463">
        <ele>9</ele>
        <time>2017-04-04T15:32:39Z</time>
      </trkpt>
      <trkpt lat="49.28264" lon="1.24456">
        <ele>10</ele>
        <time>2017-04-04T15:32:39Z</time>
      </trkpt>
      <trkpt lat="49.28266" lon="1.24448">
        <ele>10</ele>
        <time>2017-04-04T15:32:56Z</time>
      </trkpt>
      <trkpt lat="49.28267" lon="1.24438">
        <ele>10</ele>
        <time>2017-04-04T15:32:56Z</time>
      </trkpt>
      <trkpt lat="49.28268" lon="1.24432">
        <ele>10</ele>
        <time>2017-04-04T15:32:56Z</time>
      </trkpt>
      <trkpt lat="49.2827" lon="1.24425">
        <ele>10</ele>
        <time>2017-04-04T15:32:56Z</time>
      </trkpt>
      <trkpt lat="49.28272" lon="1.2442">
        <ele>10</ele>
        <time>2017-04-04T15:33:11Z</time>
      </trkpt>
      <trkpt lat="49.28273" lon="1.24413">
        <ele>10</ele>
        <time>2017-04-04T15:33:11Z</time>
      </trkpt>
      <trkpt lat="49.28275" lon="1.24406">
        <ele>10</ele>
        <time>2017-04-04T15:33:11Z</time>
      </trkpt>
      <trkpt lat="49.28276" lon="1.24399">
        <ele>10</ele>
        <time>2017-04-04T15:33:11Z</time>
      </trkpt>
      <trkpt lat="49.28279" lon="1.24388">
        <ele>10</ele>
        <time>2017-04-04T15:33:27Z</time>
      </trkpt>
      <trkpt lat="49.28281" lon="1.24381">
        <ele>10</ele>
        <time>2017-04-04T15:33:27Z</time>
      </trkpt>
      <trkpt lat="49.28282" lon="1.24376">
        <ele>10</ele>
        <time>2017-04-04T15:33:27Z</time>
      </trkpt>
      <trkpt lat="49.28284" lon="1.24369">
        <ele>11</ele>
        <time>2017-04-04T15:33:27Z</time>
      </trkpt>
      <trkpt lat="49.28286" lon="1.24363">
        <ele>11</ele>
        <time>2017-04-04T15:33:44Z</time>
      </trkpt>
      <trkpt lat="49.2829" lon="1.24359">
        <ele>11</ele>
        <time>2017-04-04T15:33:44Z</time>
      </trkpt>
      <trkpt lat="49.28293" lon="1.24353">
        <ele>9</ele>
        <time>2017-04-04T15:33:44Z</time>
      </trkpt>
      <trkpt lat="49.28294" lon="1.24347">
        <ele>9</ele>
        <time>2017-04-04T15:33:44Z</time>
      </trkpt>
      <trkpt lat="49.28296" lon="1.24343">
        <ele>9</ele>
        <time>2017-04-04T15:33:59Z</time>
      </trkpt>
      <trkpt lat="49.28299" lon="1.24336">
        <ele>9</ele>
        <time>2017-04-04T15:33:59Z</time>
      </trkpt>
      <trkpt lat="49.28302" lon="1.24329">
        <ele>9</ele>
        <time>2017-04-04T15:33:59Z</time>
      </trkpt>
      <trkpt lat="49.28304" lon="1.24322">
        <ele>9</ele>
        <time>2017-04-04T15:33:59Z</time>
      </trkpt>
      <trkpt lat="49.2831" lon="1.24311">
        <ele>9</ele>
        <time>2017-04-04T15:34:39Z</time>
      </trkpt>
      <trkpt lat="49.2831" lon="1.2431">
        <ele>9</ele>
        <time>2017-04-04T15:34:39Z</time>
      </trkpt>
      <trkpt lat="49.2831" lon="1.2431">
        <ele>9</ele>
        <time>2017-04-04T15:34:39Z</time>
      </trkpt>
      <trkpt lat="49.2831" lon="1.2431">
        <ele>9</ele>
        <time>2017-04-04T15:34:39Z</time>
      </trkpt>
      <trkpt lat="49.28309" lon="1.24304">
        <ele>9</ele>
        <time>2017-04-04T15:34:39Z</time>
      </trkpt>
      <trkpt lat="49.28306" lon="1.24296">
        <ele>9</ele>
        <time>2017-04-04T15:35:23Z</time>
      </trkpt>
      <trkpt lat="49.28308" lon="1.24294">
        <ele>9</ele>
        <time>2017-04-04T15:35:23Z</time>
      </trkpt>
      <trkpt lat="49.28311" lon="1.24289">
        <ele>11</ele>
        <time>2017-04-04T15:35:23Z</time>
      </trkpt>
      <trkpt lat="49.28312" lon="1.24284">
        <ele>11</ele>
        <time>2017-04-04T15:35:23Z</time>
      </trkpt>
      <trkpt lat="49.28312" lon="1.2428">
        <ele>11</ele>
        <time>2017-04-04T15:35:23Z</time>
      </trkpt>
      <trkpt lat="49.28314" lon="1.24275">
        <ele>11</ele>
        <time>2017-04-04T15:35:40Z</time>
      </trkpt>
      <trkpt lat="49.28314" lon="1.24271">
        <ele>11</ele>
        <time>2017-04-04T15:35:40Z</time>
      </trkpt>
      <trkpt lat="49.28316" lon="1.24269">
        <ele>11</ele>
        <time>2017-04-04T15:35:40Z</time>
      </trkpt>
      <trkpt lat="49.2832" lon="1.24262">
        <ele>11</ele>
        <time>2017-04-04T15:35:40Z</time>
      </trkpt>
      <trkpt lat="49.28322" lon="1.24258">
        <ele>11</ele>
        <time>2017-04-04T15:35:55Z</time>
      </trkpt>
      <trkpt lat="49.28327" lon="1.2425">
        <ele>11</ele>
        <time>2017-04-04T15:35:55Z</time>
      </trkpt>
      <trkpt lat="49.2833" lon="1.24242">
        <ele>11</ele>
        <time>2017-04-04T15:35:55Z</time>
      </trkpt>
      <trkpt lat="49.28332" lon="1.24237">
        <ele>11</ele>
        <time>2017-04-04T15:35:55Z</time>
      </trkpt>
      <trkpt lat="49.28332" lon="1.24228">
        <ele>11</ele>
        <time>2017-04-04T15:36:12Z</time>
      </trkpt>
      <trkpt lat="49.28334" lon="1.24223">
        <ele>11</ele>
        <time>2017-04-04T15:36:12Z</time>
      </trkpt>
      <trkpt lat="49.28336" lon="1.24216">
        <ele>11</ele>
        <time>2017-04-04T15:36:12Z</time>
      </trkpt>
      <trkpt lat="49.28339" lon="1.24206">
        <ele>14</ele>
        <time>2017-04-04T15:36:12Z</time>
      </trkpt>
      <trkpt lat="49.28342" lon="1.24199">
        <ele>14</ele>
        <time>2017-04-04T15:36:27Z</time>
      </trkpt>
      <trkpt lat="49.28346" lon="1.24193">
        <ele>14</ele>
        <time>2017-04-04T15:36:27Z</time>
      </trkpt>
      <trkpt lat="49.28349" lon="1.24186">
        <ele>14</ele>
        <time>2017-04-04T15:36:27Z</time>
      </trkpt>
      <trkpt lat="49.28351" lon="1.24179">
        <ele>14</ele>
        <time>2017-04-04T15:36:27Z</time>
      </trkpt>
      <trkpt lat="49.28354" lon="1.24172">
        <ele>14</ele>
        <time>2017-04-04T15:36:43Z</time>
      </trkpt>
      <trkpt lat="49.28355" lon="1.24168">
        <ele>14</ele>
        <time>2017-04-04T15:36:43Z</time>
      </trkpt>
      <trkpt lat="49.28358" lon="1.2416">
        <ele>14</ele>
        <time>2017-04-04T15:36:43Z</time>
      </trkpt>
      <trkpt lat="49.2836" lon="1.24156">
        <ele>14</ele>
        <time>2017-04-04T15:36:43Z</time>
      </trkpt>
      <trkpt lat="49.2836" lon="1.24145">
        <ele>14</ele>
        <time>2017-04-04T15:36:59Z</time>
      </trkpt>
      <trkpt lat="49.28362" lon="1.24141">
        <ele>14</ele>
        <time>2017-04-04T15:36:59Z</time>
      </trkpt>
      <trkpt lat="49.28365" lon="1.24134">
        <ele>14</ele>
        <time>2017-04-04T15:36:59Z</time>
      </trkpt>
      <trkpt lat="49.28368" lon="1.24125">
        <ele>14</ele>
        <time>2017-04-04T15:36:59Z</time>
      </trkpt>
      <trkpt lat="49.2837" lon="1.2412">
        <ele>11</ele>
        <time>2017-04-04T15:37:15Z</time>
      </trkpt>
      <trkpt lat="49.28372" lon="1.24113">
        <ele>11</ele>
        <time>2017-04-04T15:37:15Z</time>
      </trkpt>
      <trkpt lat="49.28373" lon="1.24105">
        <ele>11</ele>
        <time>2017-04-04T15:37:15Z</time>
      </trkpt>
      <trkpt lat="49.28376" lon="1.24099">
        <ele>10</ele>
        <time>2017-04-04T15:37:15Z</time>
      </trkpt>
      <trkpt lat="49.28378" lon="1.24094">
        <ele>10</ele>
        <time>2017-04-04T15:37:31Z</time>
      </trkpt>
      <trkpt lat="49.28376" lon="1.24087">
        <ele>10</ele>
        <time>2017-04-04T15:37:31Z</time>
      </trkpt>
      <trkpt lat="49.28376" lon="1.24079">
        <ele>10</ele>
        <time>2017-04-04T15:37:31Z</time>
      </trkpt>
      <trkpt lat="49.28379" lon="1.24074">
        <ele>10</ele>
        <time>2017-04-04T15:37:31Z</time>
      </trkpt>
      <trkpt lat="49.28384" lon="1.24066">
        <ele>10</ele>
        <time>2017-04-04T15:37:47Z</time>
      </trkpt>
      <trkpt lat="49.28385" lon="1.24059">
        <ele>10</ele>
        <time>2017-04-04T15:37:47Z</time>
      </trkpt>
      <trkpt lat="49.28386" lon="1.24051">
        <ele>10</ele>
        <time>2017-04-04T15:37:47Z</time>
      </trkpt>
      <trkpt lat="49.28386" lon="1.2405">
        <ele>10</ele>
        <time>2017-04-04T15:37:47Z</time>
      </trkpt>
      <trkpt lat="49.2839" lon="1.2404">
        <ele>8</ele>
        <time>2017-04-04T15:39:16Z</time>
      </trkpt>
      <trkpt lat="49.28389" lon="1.24029">
        <ele>8</ele>
        <time>2017-04-04T15:39:16Z</time>
      </trkpt>
      <trkpt lat="49.28391" lon="1.2402">
        <ele>8</ele>
        <time>2017-04-04T15:39:16Z</time>
      </trkpt>
      <trkpt lat="49.28393" lon="1.24009">
        <ele>8</ele>
        <time>2017-04-04T15:39:16Z</time>
      </trkpt>
      <trkpt lat="49.28393" lon="1.24003">
        <ele>8</ele>
        <time>2017-04-04T15:39:16Z</time>
      </trkpt>
      <trkpt lat="49.28395" lon="1.23997">
        <ele>8</ele>
        <time>2017-04-04T15:39:31Z</time>
      </trkpt>
      <trkpt lat="49.28396" lon="1.2399">
        <ele>8</ele>
        <time>2017-04-04T15:39:31Z</time>
      </trkpt>
      <trkpt lat="49.28397" lon="1.23985">
        <ele>8</ele>
        <time>2017-04-04T15:39:31Z</time>
      </trkpt>
      <trkpt lat="49.284" lon="1.23979">
        <ele>8</ele>
        <time>2017-04-04T15:39:31Z</time>
      </trkpt>
      <trkpt lat="49.28403" lon="1.23968">
        <ele>8</ele>
        <time>2017-04-04T15:39:47Z</time>
      </trkpt>
      <trkpt lat="49.28406" lon="1.2396">
        <ele>8</ele>
        <time>2017-04-04T15:39:47Z</time>
      </trkpt>
      <trkpt lat="49.28408" lon="1.2395">
        <ele>9</ele>
        <time>2017-04-04T15:39:47Z</time>
      </trkpt>
      <trkpt lat="49.2841" lon="1.23939">
        <ele>9</ele>
        <time>2017-04-04T15:39:47Z</time>
      </trkpt>
      <trkpt lat="49.2841" lon="1.2393">
        <ele>9</ele>
        <time>2017-04-04T15:40:03Z</time>
      </trkpt>
      <trkpt lat="49.28411" lon="1.23923">
        <ele>9</ele>
        <time>2017-04-04T15:40:03Z</time>
      </trkpt>
      <trkpt lat="49.28414" lon="1.23918">
        <ele>9</ele>
        <time>2017-04-04T15:40:03Z</time>
      </trkpt>
      <trkpt lat="49.28416" lon="1.23912">
        <ele>9</ele>
        <time>2017-04-04T15:40:03Z</time>
      </trkpt>
      <trkpt lat="49.28418" lon="1.23903">
        <ele>9</ele>
        <time>2017-04-04T15:40:20Z</time>
      </trkpt>
      <trkpt lat="49.28421" lon="1.23894">
        <ele>9</ele>
        <time>2017-04-04T15:40:20Z</time>
      </trkpt>
      <trkpt lat="49.28423" lon="1.23888">
        <ele>9</ele>
        <time>2017-04-04T15:40:20Z</time>
      </trkpt>
      <trkpt lat="49.28426" lon="1.2388">
        <ele>9</ele>
        <time>2017-04-04T15:40:20Z</time>
      </trkpt>
      <trkpt lat="49.28428" lon="1.23874">
        <ele>9</ele>
        <time>2017-04-04T15:40:35Z</time>
      </trkpt>
      <trkpt lat="49.2843" lon="1.23866">
        <ele>9</ele>
        <time>2017-04-04T15:40:35Z</time>
      </trkpt>
      <trkpt lat="49.28435" lon="1.23857">
        <ele>9</ele>
        <time>2017-04-04T15:40:35Z</time>
      </trkpt>
      <trkpt lat="49.28437" lon="1.23853">
        <ele>9</ele>
        <time>2017-04-04T15:40:35Z</time>
      </trkpt>
      <trkpt lat="49.28441" lon="1.23843">
        <ele>9</ele>
        <time>2017-04-04T15:40:51Z</time>
      </trkpt>
      <trkpt lat="49.28443" lon="1.23838">
        <ele>9</ele>
        <time>2017-04-04T15:40:51Z</time>
      </trkpt>
      <trkpt lat="49.28446" lon="1.2383">
        <ele>9</ele>
        <time>2017-04-04T15:40:51Z</time>
      </trkpt>
      <trkpt lat="49.2845" lon="1.23824">
        <ele>9</ele>
        <time>2017-04-04T15:40:51Z</time>
      </trkpt>
      <trkpt lat="49.28451" lon="1.23814">
        <ele>9</ele>
        <time>2017-04-04T15:41:07Z</time>
      </trkpt>
      <trkpt lat="49.28452" lon="1.23809">
        <ele>9</ele>
        <time>2017-04-04T15:41:07Z</time>
      </trkpt>
      <trkpt lat="49.28455" lon="1.23799">
        <ele>9</ele>
        <time>2017-04-04T15:41:07Z</time>
      </trkpt>
      <trkpt lat="49.28458" lon="1.2379">
        <ele>8</ele>
        <time>2017-04-04T15:41:07Z</time>
      </trkpt>
      <trkpt lat="49.2846" lon="1.23784">
        <ele>9</ele>
        <time>2017-04-04T15:41:23Z</time>
      </trkpt>
      <trkpt lat="49.28464" lon="1.23774">
        <ele>9</ele>
        <time>2017-04-04T15:41:24Z</time>
      </trkpt>
      <trkpt lat="49.28465" lon="1.23767">
        <ele>9</ele>
        <time>2017-04-04T15:41:24Z</time>
      </trkpt>
      <trkpt lat="49.28468" lon="1.23757">
        <ele>9</ele>
        <time>2017-04-04T15:41:24Z</time>
      </trkpt>
      <trkpt lat="49.28471" lon="1.23751">
        <ele>9</ele>
        <time>2017-04-04T15:41:39Z</time>
      </trkpt>
      <trkpt lat="49.28473" lon="1.23743">
        <ele>9</ele>
        <time>2017-04-04T15:41:39Z</time>
      </trkpt>
      <trkpt lat="49.28477" lon="1.23732">
        <ele>9</ele>
        <time>2017-04-04T15:41:39Z</time>
      </trkpt>
      <trkpt lat="49.2848" lon="1.23727">
        <ele>9</ele>
        <time>2017-04-04T15:41:39Z</time>
      </trkpt>
      <trkpt lat="49.28483" lon="1.2372">
        <ele>9</ele>
        <time>2017-04-04T15:41:55Z</time>
      </trkpt>
      <trkpt lat="49.28484" lon="1.23708">
        <ele>8</ele>
        <time>2017-04-04T15:41:55Z</time>
      </trkpt>
      <trkpt lat="49.28486" lon="1.23698">
        <ele>8</ele>
        <time>2017-04-04T15:41:55Z</time>
      </trkpt>
      <trkpt lat="49.28488" lon="1.23691">
        <ele>8</ele>
        <time>2017-04-04T15:41:55Z</time>
      </trkpt>
      <trkpt lat="49.2849" lon="1.23678">
        <ele>8</ele>
        <time>2017-04-04T15:42:11Z</time>
      </trkpt>
      <trkpt lat="49.28494" lon="1.2367">
        <ele>8</ele>
        <time>2017-04-04T15:42:11Z</time>
      </trkpt>
      <trkpt lat="49.28497" lon="1.23665">
        <ele>8</ele>
        <time>2017-04-04T15:42:11Z</time>
      </trkpt>
      <trkpt lat="49.28498" lon="1.23657">
        <ele>8</ele>
        <time>2017-04-04T15:42:11Z</time>
      </trkpt>
      <trkpt lat="49.285" lon="1.23647">
        <ele>8</ele>
        <time>2017-04-04T15:42:27Z</time>
      </trkpt>
      <trkpt lat="49.28502" lon="1.2364">
        <ele>8</ele>
        <time>2017-04-04T15:42:27Z</time>
      </trkpt>
      <trkpt lat="49.28506" lon="1.23632">
        <ele>8</ele>
        <time>2017-04-04T15:42:27Z</time>
      </trkpt>
      <trkpt lat="49.28509" lon="1.23628">
        <ele>8</ele>
        <time>2017-04-04T15:42:27Z</time>
      </trkpt>
      <trkpt lat="49.28512" lon="1.23623">
        <ele>10</ele>
        <time>2017-04-04T15:42:43Z</time>
      </trkpt>
      <trkpt lat="49.28515" lon="1.23615">
        <ele>10</ele>
        <time>2017-04-04T15:42:43Z</time>
      </trkpt>
      <trkpt lat="49.28516" lon="1.23609">
        <ele>10</ele>
        <time>2017-04-04T15:42:43Z</time>
      </trkpt>
      <trkpt lat="49.28518" lon="1.23603">
        <ele>10</ele>
        <time>2017-04-04T15:42:43Z</time>
      </trkpt>
      <trkpt lat="49.2852" lon="1.23597">
        <ele>10</ele>
        <time>2017-04-04T15:42:59Z</time>
      </trkpt>
      <trkpt lat="49.2852" lon="1.23588">
        <ele>10</ele>
        <time>2017-04-04T15:42:59Z</time>
      </trkpt>
      <trkpt lat="49.28523" lon="1.23581">
        <ele>10</ele>
        <time>2017-04-04T15:42:59Z</time>
      </trkpt>
      <trkpt lat="49.28524" lon="1.23575">
        <ele>10</ele>
        <time>2017-04-04T15:42:59Z</time>
      </trkpt>
      <trkpt lat="49.28525" lon="1.23565">
        <ele>10</ele>
        <time>2017-04-04T15:43:16Z</time>
      </trkpt>
      <trkpt lat="49.28527" lon="1.2356">
        <ele>10</ele>
        <time>2017-04-04T15:43:16Z</time>
      </trkpt>
      <trkpt lat="49.28527" lon="1.23556">
        <ele>10</ele>
        <time>2017-04-04T15:43:16Z</time>
      </trkpt>
      <trkpt lat="49.28531" lon="1.23548">
        <ele>10</ele>
        <time>2017-04-04T15:43:16Z</time>
      </trkpt>
      <trkpt lat="49.28532" lon="1.23543">
        <ele>10</ele>
        <time>2017-04-04T15:43:31Z</time>
      </trkpt>
      <trkpt lat="49.28535" lon="1.23533">
        <ele>10</ele>
        <time>2017-04-04T15:43:31Z</time>
      </trkpt>
      <trkpt lat="49.28535" lon="1.23527">
        <ele>10</ele>
        <time>2017-04-04T15:43:31Z</time>
      </trkpt>
      <trkpt lat="49.28537" lon="1.2352">
        <ele>10</ele>
        <time>2017-04-04T15:43:31Z</time>
      </trkpt>
      <trkpt lat="49.28538" lon="1.23514">
        <ele>10</ele>
        <time>2017-04-04T15:43:47Z</time>
      </trkpt>
      <trkpt lat="49.28539" lon="1.23506">
        <ele>10</ele>
        <time>2017-04-04T15:43:47Z</time>
      </trkpt>
      <trkpt lat="49.2854" lon="1.23497">
        <ele>10</ele>
        <time>2017-04-04T15:43:47Z</time>
      </trkpt>
      <trkpt lat="49.28542" lon="1.23489">
        <ele>6</ele>
        <time>2017-04-04T15:43:47Z</time>
      </trkpt>
      <trkpt lat="49.28543" lon="1.2348">
        <ele>6</ele>
        <time>2017-04-04T15:44:03Z</time>
      </trkpt>
      <trkpt lat="49.28544" lon="1.23475">
        <ele>6</ele>
        <time>2017-04-04T15:44:03Z</time>
      </trkpt>
      <trkpt lat="49.28547" lon="1.23469">
        <ele>6</ele>
        <time>2017-04-04T15:44:03Z</time>
      </trkpt>
      <trkpt lat="49.28548" lon="1.23463">
        <ele>6</ele>
        <time>2017-04-04T15:44:03Z</time>
      </trkpt>
      <trkpt lat="49.28551" lon="1.23453">
        <ele>8</ele>
        <time>2017-04-04T15:44:19Z</time>
      </trkpt>
      <trkpt lat="49.28552" lon="1.23445">
        <ele>8</ele>
        <time>2017-04-04T15:44:19Z</time>
      </trkpt>
      <trkpt lat="49.28553" lon="1.23437">
        <ele>8</ele>
        <time>2017-04-04T15:44:19Z</time>
      </trkpt>
      <trkpt lat="49.28554" lon="1.23432">
        <ele>8</ele>
        <time>2017-04-04T15:44:19Z</time>
      </trkpt>
      <trkpt lat="49.28555" lon="1.23424">
        <ele>8</ele>
        <time>2017-04-04T15:44:35Z</time>
      </trkpt>
      <trkpt lat="49.28557" lon="1.23418">
        <ele>8</ele>
        <time>2017-04-04T15:44:35Z</time>
      </trkpt>
      <trkpt lat="49.28559" lon="1.23409">
        <ele>8</ele>
        <time>2017-04-04T15:44:35Z</time>
      </trkpt>
      <trkpt lat="49.28561" lon="1.23403">
        <ele>8</ele>
        <time>2017-04-04T15:44:35Z</time>
      </trkpt>
      <trkpt lat="49.28563" lon="1.23395">
        <ele>8</ele>
        <time>2017-04-04T15:44:52Z</time>
      </trkpt>
      <trkpt lat="49.28564" lon="1.2339">
        <ele>8</ele>
        <time>2017-04-04T15:44:52Z</time>
      </trkpt>
      <trkpt lat="49.28568" lon="1.23386">
        <ele>8</ele>
        <time>2017-04-04T15:44:52Z</time>
      </trkpt>
      <trkpt lat="49.28569" lon="1.2338">
        <ele>8</ele>
        <time>2017-04-04T15:44:52Z</time>
      </trkpt>
      <trkpt lat="49.28567" lon="1.23375">
        <ele>8</ele>
        <time>2017-04-04T15:45:07Z</time>
      </trkpt>
      <trkpt lat="49.28569" lon="1.23368">
        <ele>10</ele>
        <time>2017-04-04T15:45:07Z</time>
      </trkpt>
      <trkpt lat="49.2857" lon="1.23364">
        <ele>10</ele>
        <time>2017-04-04T15:45:07Z</time>
      </trkpt>
      <trkpt lat="49.28572" lon="1.23361">
        <ele>10</ele>
        <time>2017-04-04T15:45:07Z</time>
      </trkpt>
      <trkpt lat="49.28574" lon="1.23354">
        <ele>10</ele>
        <time>2017-04-04T15:45:23Z</time>
      </trkpt>
      <trkpt lat="49.28576" lon="1.23344">
        <ele>10</ele>
        <time>2017-04-04T15:45:23Z</time>
      </trkpt>
      <trkpt lat="49.28576" lon="1.23333">
        <ele>10</ele>
        <time>2017-04-04T15:45:23Z</time>
      </trkpt>
      <trkpt lat="49.28575" lon="1.23325">
        <ele>10</ele>
        <time>2017-04-04T15:45:23Z</time>
      </trkpt>
      <trkpt lat="49.28576" lon="1.23321">
        <ele>10</ele>
        <time>2017-04-04T15:46:03Z</time>
      </trkpt>
      <trkpt lat="49.28581" lon="1.23315">
        <ele>10</ele>
        <time>2017-04-04T15:46:03Z</time>
      </trkpt>
      <trkpt lat="49.2858" lon="1.23307">
        <ele>10</ele>
        <time>2017-04-04T15:46:03Z</time>
      </trkpt>
      <trkpt lat="49.28577" lon="1.23297">
        <ele>10</ele>
        <time>2017-04-04T15:46:03Z</time>
      </trkpt>
      <trkpt lat="49.28578" lon="1.2329">
        <ele>8</ele>
        <time>2017-04-04T15:46:03Z</time>
      </trkpt>
      <trkpt lat="49.28579" lon="1.23286">
        <ele>8</ele>
        <time>2017-04-04T15:46:19Z</time>
      </trkpt>
      <trkpt lat="49.2858" lon="1.2328">
        <ele>8</ele>
        <time>2017-04-04T15:46:19Z</time>
      </trkpt>
      <trkpt lat="49.2858" lon="1.23274">
        <ele>8</ele>
        <time>2017-04-04T15:46:19Z</time>
      </trkpt>
      <trkpt lat="49.2858" lon="1.23268">
        <ele>8</ele>
        <time>2017-04-04T15:46:19Z</time>
      </trkpt>
      <trkpt lat="49.28581" lon="1.2326">
        <ele>8</ele>
        <time>2017-04-04T15:46:35Z</time>
      </trkpt>
      <trkpt lat="49.28582" lon="1.23252">
        <ele>8</ele>
        <time>2017-04-04T15:46:35Z</time>
      </trkpt>
      <trkpt lat="49.28581" lon="1.23247">
        <ele>8</ele>
        <time>2017-04-04T15:46:35Z</time>
      </trkpt>
      <trkpt lat="49.28581" lon="1.2324">
        <ele>8</ele>
        <time>2017-04-04T15:46:35Z</time>
      </trkpt>
      <trkpt lat="49.28572" lon="1.23224">
        <ele>8</ele>
        <time>2017-04-04T15:47:19Z</time>
      </trkpt>
      <trkpt lat="49.28572" lon="1.23224">
        <ele>8</ele>
        <time>2017-04-04T15:47:19Z</time>
      </trkpt>
      <trkpt lat="49.28571" lon="1.23221">
        <ele>8</ele>
        <time>2017-04-04T15:47:19Z</time>
      </trkpt>
      <trkpt lat="49.28566" lon="1.23218">
        <ele>8</ele>
        <time>2017-04-04T15:47:19Z</time>
      </trkpt>
      <trkpt lat="49.28563" lon="1.23218">
        <ele>8</ele>
        <time>2017-04-04T15:47:19Z</time>
      </trkpt>
      <trkpt lat="49.28558" lon="1.23214">
        <ele>8</ele>
        <time>2017-04-04T15:47:39Z</time>
      </trkpt>
      <trkpt lat="49.28556" lon="1.23211">
        <ele>8</ele>
        <time>2017-04-04T15:47:39Z</time>
      </trkpt>
      <trkpt lat="49.28556" lon="1.23205">
        <ele>8</ele>
        <time>2017-04-04T15:47:39Z</time>
      </trkpt>
      <trkpt lat="49.28557" lon="1.232">
        <ele>8</ele>
        <time>2017-04-04T15:47:39Z</time>
      </trkpt>
      <trkpt lat="49.28561" lon="1.23198">
        <ele>8</ele>
        <time>2017-04-04T15:47:39Z</time>
      </trkpt>
      <trkpt lat="49.28563" lon="1.23195">
        <ele>8</ele>
        <time>2017-04-04T15:47:56Z</time>
      </trkpt>
      <trkpt lat="49.28569" lon="1.23193">
        <ele>8</ele>
        <time>2017-04-04T15:47:56Z</time>
      </trkpt>
      <trkpt lat="49.28576" lon="1.23194">
        <ele>8</ele>
        <time>2017-04-04T15:47:56Z</time>
      </trkpt>
      <trkpt lat="49.2858" lon="1.23194">
        <ele>8</ele>
        <time>2017-04-04T15:47:56Z</time>
      </trkpt>
      <trkpt lat="49.28583" lon="1.23196">
        <ele>8</ele>
        <time>2017-04-04T15:48:11Z</time>
      </trkpt>
      <trkpt lat="49.28588" lon="1.23198">
        <ele>8</ele>
        <time>2017-04-04T15:48:11Z</time>
      </trkpt>
      <trkpt lat="49.28594" lon="1.23199">
        <ele>8</ele>
        <time>2017-04-04T15:48:11Z</time>
      </trkpt>
      <trkpt lat="49.28597" lon="1.232">
        <ele>8</ele>
        <time>2017-04-04T15:48:11Z</time>
      </trkpt>
      <trkpt lat="49.28597" lon="1.23201">
        <ele>8</ele>
        <time>2017-04-04T15:48:28Z</time>
      </trkpt>
      <trkpt lat="49.286" lon="1.23195">
        <ele>8</ele>
        <time>2017-04-04T15:48:28Z</time>
      </trkpt>
      <trkpt lat="49.28601" lon="1.23189">
        <ele>8</ele>
        <time>2017-04-04T15:48:28Z</time>
      </trkpt>
      <trkpt lat="49.286" lon="1.2318">
        <ele>8</ele>
        <time>2017-04-04T15:48:28Z</time>
      </trkpt>
      <trkpt lat="49.286" lon="1.23173">
        <ele>8</ele>
        <time>2017-04-04T15:48:43Z</time>
      </trkpt>
      <trkpt lat="49.28599" lon="1.23167">
        <ele>8</ele>
        <time>2017-04-04T15:48:43Z</time>
      </trkpt>
      <trkpt lat="49.286" lon="1.23156">
        <ele>8</ele>
        <time>2017-04-04T15:48:43Z</time>
      </trkpt>
      <trkpt lat="49.28601" lon="1.23148">
        <ele>8</ele>
        <time>2017-04-04T15:48:43Z</time>
      </trkpt>
      <trkpt lat="49.28602" lon="1.23141">
        <ele>8</ele>
        <time>2017-04-04T15:48:59Z</time>
      </trkpt>
      <trkpt lat="49.28602" lon="1.23137">
        <ele>8</ele>
        <time>2017-04-04T15:48:59Z</time>
      </trkpt>
      <trkpt lat="49.28601" lon="1.23128">
        <ele>8</ele>
        <time>2017-04-04T15:48:59Z</time>
      </trkpt>
      <trkpt lat="49.28601" lon="1.23123">
        <ele>9</ele>
        <time>2017-04-04T15:48:59Z</time>
      </trkpt>
      <trkpt lat="49.286" lon="1.23116">
        <ele>9</ele>
        <time>2017-04-04T15:49:16Z</time>
      </trkpt>
      <trkpt lat="49.286" lon="1.23111">
        <ele>9</ele>
        <time>2017-04-04T15:49:16Z</time>
      </trkpt>
      <trkpt lat="49.28602" lon="1.23102">
        <ele>9</ele>
        <time>2017-04-04T15:49:16Z</time>
      </trkpt>
      <trkpt lat="49.28603" lon="1.23095">
        <ele>9</ele>
        <time>2017-04-04T15:49:16Z</time>
      </trkpt>
      <trkpt lat="49.28606" lon="1.23091">
        <ele>9</ele>
        <time>2017-04-04T15:49:31Z</time>
      </trkpt>
      <trkpt lat="49.28607" lon="1.23085">
        <ele>9</ele>
        <time>2017-04-04T15:49:31Z</time>
      </trkpt>
      <trkpt lat="49.28609" lon="1.23077">
        <ele>9</ele>
        <time>2017-04-04T15:49:31Z</time>
      </trkpt>
      <trkpt lat="49.2861" lon="1.23072">
        <ele>9</ele>
        <time>2017-04-04T15:49:31Z</time>
      </trkpt>
      <trkpt lat="49.28612" lon="1.23062">
        <ele>9</ele>
        <time>2017-04-04T15:49:47Z</time>
      </trkpt>
      <trkpt lat="49.28613" lon="1.23056">
        <ele>9</ele>
        <time>2017-04-04T15:49:47Z</time>
      </trkpt>
      <trkpt lat="49.28615" lon="1.23046">
        <ele>9</ele>
        <time>2017-04-04T15:49:47Z</time>
      </trkpt>
      <trkpt lat="49.28615" lon="1.23041">
        <ele>4</ele>
        <time>2017-04-04T15:49:47Z</time>
      </trkpt>
      <trkpt lat="49.28615" lon="1.23033">
        <ele>4</ele>
        <time>2017-04-04T15:50:04Z</time>
      </trkpt>
      <trkpt lat="49.28617" lon="1.23029">
        <ele>4</ele>
        <time>2017-04-04T15:50:04Z</time>
      </trkpt>
      <trkpt lat="49.28617" lon="1.2302">
        <ele>4</ele>
        <time>2017-04-04T15:50:04Z</time>
      </trkpt>
      <trkpt lat="49.28617" lon="1.23008">
        <ele>4</ele>
        <time>2017-04-04T15:50:04Z</time>
      </trkpt>
      <trkpt lat="49.28618" lon="1.23004">
        <ele>4</ele>
        <time>2017-04-04T15:50:19Z</time>
      </trkpt>
      <trkpt lat="49.28618" lon="1.22998">
        <ele>4</ele>
        <time>2017-04-04T15:50:19Z</time>
      </trkpt>
      <trkpt lat="49.28619" lon="1.2299">
        <ele>4</ele>
        <time>2017-04-04T15:50:19Z</time>
      </trkpt>
      <trkpt lat="49.28621" lon="1.22982">
        <ele>4</ele>
        <time>2017-04-04T15:50:19Z</time>
      </trkpt>
      <trkpt lat="49.28622" lon="1.22976">
        <ele>4</ele>
        <time>2017-04-04T15:50:35Z</time>
      </trkpt>
      <trkpt lat="49.28625" lon="1.22968">
        <ele>4</ele>
        <time>2017-04-04T15:50:35Z</time>
      </trkpt>
      <trkpt lat="49.28623" lon="1.22964">
        <ele>4</ele>
        <time>2017-04-04T15:50:35Z</time>
      </trkpt>
      <trkpt lat="49.28624" lon="1.22956">
        <ele>7</ele>
        <time>2017-04-04T15:50:35Z</time>
      </trkpt>
      <trkpt lat="49.28624" lon="1.22949">
        <ele>7</ele>
        <time>2017-04-04T15:50:51Z</time>
      </trkpt>
      <trkpt lat="49.28624" lon="1.22944">
        <ele>7</ele>
        <time>2017-04-04T15:50:51Z</time>
      </trkpt>
      <trkpt lat="49.28624" lon="1.22941">
        <ele>7</ele>
        <time>2017-04-04T15:50:51Z</time>
      </trkpt>
      <trkpt lat="49.28624" lon="1.22935">
        <ele>7</ele>
        <time>2017-04-04T15:50:51Z</time>
      </trkpt>
      <trkpt lat="49.28623" lon="1.22926">
        <ele>7</ele>
        <time>2017-04-04T15:51:07Z</time>
      </trkpt>
      <trkpt lat="49.28624" lon="1.22922">
        <ele>7</ele>
        <time>2017-04-04T15:51:07Z</time>
      </trkpt>
      <trkpt lat="49.28625" lon="1.22912">
        <ele>7</ele>
        <time>2017-04-04T15:51:07Z</time>
      </trkpt>
      <trkpt lat="49.28625" lon="1.22907">
        <ele>4</ele>
        <time>2017-04-04T15:51:07Z</time>
      </trkpt>
      <trkpt lat="49.28627" lon="1.22893">
        <ele>4</ele>
        <time>2017-04-04T15:51:23Z</time>
      </trkpt>
      <trkpt lat="49.28627" lon="1.22889">
        <ele>4</ele>
        <time>2017-04-04T15:51:23Z</time>
      </trkpt>
      <trkpt lat="49.28628" lon="1.22881">
        <ele>4</ele>
        <time>2017-04-04T15:51:23Z</time>
      </trkpt>
      <trkpt lat="49.28628" lon="1.22872">
        <ele>4</ele>
        <time>2017-04-04T15:51:23Z</time>
      </trkpt>
      <trkpt lat="49.28629" lon="1.2286">
        <ele>4</ele>
        <time>2017-04-04T15:51:39Z</time>
      </trkpt>
      <trkpt lat="49.2863" lon="1.22851">
        <ele>4</ele>
        <time>2017-04-04T15:51:39Z</time>
      </trkpt>
      <trkpt lat="49.28631" lon="1.22844">
        <ele>4</ele>
        <time>2017-04-04T15:51:39Z</time>
      </trkpt>
      <trkpt lat="49.28631" lon="1.22836">
        <ele>4</ele>
        <time>2017-04-04T15:51:39Z</time>
      </trkpt>
      <trkpt lat="49.28633" lon="1.22828">
        <ele>4</ele>
        <time>2017-04-04T15:51:55Z</time>
      </trkpt>
      <trkpt lat="49.28634" lon="1.2282">
        <ele>4</ele>
        <time>2017-04-04T15:51:55Z</time>
      </trkpt>
      <trkpt lat="49.28634" lon="1.22811">
        <ele>4</ele>
        <time>2017-04-04T15:51:55Z</time>
      </trkpt>
      <trkpt lat="49.28634" lon="1.22807">
        <ele>4</ele>
        <time>2017-04-04T15:51:55Z</time>
      </trkpt>
      <trkpt lat="49.28636" lon="1.22799">
        <ele>4</ele>
        <time>2017-04-04T15:52:11Z</time>
      </trkpt>
      <trkpt lat="49.28637" lon="1.22793">
        <ele>4</ele>
        <time>2017-04-04T15:52:11Z</time>
      </trkpt>
      <trkpt lat="49.28635" lon="1.22786">
        <ele>4</ele>
        <time>2017-04-04T15:52:11Z</time>
      </trkpt>
      <trkpt lat="49.28635" lon="1.22782">
        <ele>4</ele>
        <time>2017-04-04T15:52:11Z</time>
      </trkpt>
      <trkpt lat="49.28636" lon="1.22774">
        <ele>4</ele>
        <time>2017-04-04T15:52:27Z</time>
      </trkpt>
      <trkpt lat="49.28637" lon="1.22766">
        <ele>4</ele>
        <time>2017-04-04T15:52:27Z</time>
      </trkpt>
      <trkpt lat="49.28637" lon="1.2276">
        <ele>4</ele>
        <time>2017-04-04T15:52:27Z</time>
      </trkpt>
      <trkpt lat="49.28638" lon="1.22752">
        <ele>4</ele>
        <time>2017-04-04T15:52:27Z</time>
      </trkpt>
      <trkpt lat="49.28639" lon="1.22742">
        <ele>4</ele>
        <time>2017-04-04T15:52:43Z</time>
      </trkpt>
      <trkpt lat="49.2864" lon="1.22729">
        <ele>4</ele>
        <time>2017-04-04T15:52:43Z</time>
      </trkpt>
      <trkpt lat="49.2864" lon="1.22721">
        <ele>4</ele>
        <time>2017-04-04T15:52:43Z</time>
      </trkpt>
      <trkpt lat="49.28641" lon="1.22716">
        <ele>4</ele>
        <time>2017-04-04T15:52:43Z</time>
      </trkpt>
      <trkpt lat="49.28641" lon="1.22711">
        <ele>4</ele>
        <time>2017-04-04T15:52:59Z</time>
      </trkpt>
      <trkpt lat="49.28642" lon="1.22702">
        <ele>9</ele>
        <time>2017-04-04T15:52:59Z</time>
      </trkpt>
      <trkpt lat="49.28641" lon="1.22696">
        <ele>9</ele>
        <time>2017-04-04T15:52:59Z</time>
      </trkpt>
      <trkpt lat="49.28642" lon="1.22688">
        <ele>9</ele>
        <time>2017-04-04T15:52:59Z</time>
      </trkpt>
      <trkpt lat="49.28642" lon="1.22678">
        <ele>9</ele>
        <time>2017-04-04T15:53:15Z</time>
      </trkpt>
      <trkpt lat="49.28644" lon="1.2267">
        <ele>9</ele>
        <time>2017-04-04T15:53:15Z</time>
      </trkpt>
      <trkpt lat="49.28645" lon="1.22665">
        <ele>9</ele>
        <time>2017-04-04T15:53:15Z</time>
      </trkpt>
      <trkpt lat="49.28645" lon="1.22659">
        <ele>9</ele>
        <time>2017-04-04T15:53:15Z</time>
      </trkpt>
      <trkpt lat="49.28645" lon="1.22651">
        <ele>9</ele>
        <time>2017-04-04T15:53:31Z</time>
      </trkpt>
      <trkpt lat="49.28646" lon="1.22647">
        <ele>9</ele>
        <time>2017-04-04T15:53:31Z</time>
      </trkpt>
      <trkpt lat="49.28646" lon="1.22639">
        <ele>9</ele>
        <time>2017-04-04T15:53:31Z</time>
      </trkpt>
      <trkpt lat="49.28647" lon="1.22631">
        <ele>9</ele>
        <time>2017-04-04T15:53:31Z</time>
      </trkpt>
      <trkpt lat="49.28647" lon="1.22625">
        <ele>8</ele>
        <time>2017-04-04T15:53:47Z</time>
      </trkpt>
      <trkpt lat="49.28647" lon="1.22619">
        <ele>8</ele>
        <time>2017-04-04T15:53:47Z</time>
      </trkpt>
      <trkpt lat="49.28646" lon="1.22608">
        <ele>8</ele>
        <time>2017-04-04T15:53:47Z</time>
      </trkpt>
      <trkpt lat="49.28645" lon="1.22601">
        <ele>8</ele>
        <time>2017-04-04T15:53:47Z</time>
      </trkpt>
      <trkpt lat="49.28646" lon="1.22589">
        <ele>8</ele>
        <time>2017-04-04T15:54:03Z</time>
      </trkpt>
      <trkpt lat="49.28647" lon="1.22583">
        <ele>8</ele>
        <time>2017-04-04T15:54:03Z</time>
      </trkpt>
      <trkpt lat="49.28647" lon="1.22578">
        <ele>8</ele>
        <time>2017-04-04T15:54:03Z</time>
      </trkpt>
      <trkpt lat="49.28649" lon="1.22569">
        <ele>8</ele>
        <time>2017-04-04T15:54:03Z</time>
      </trkpt>
      <trkpt lat="49.28648" lon="1.2256">
        <ele>8</ele>
        <time>2017-04-04T15:54:20Z</time>
      </trkpt>
      <trkpt lat="49.28648" lon="1.22552">
        <ele>8</ele>
        <time>2017-04-04T15:54:20Z</time>
      </trkpt>
      <trkpt lat="49.28647" lon="1.22544">
        <ele>8</ele>
        <time>2017-04-04T15:54:20Z</time>
      </trkpt>
      <trkpt lat="49.28648" lon="1.2254">
        <ele>9</ele>
        <time>2017-04-04T15:54:20Z</time>
      </trkpt>
      <trkpt lat="49.28647" lon="1.22526">
        <ele>9</ele>
        <time>2017-04-04T15:54:39Z</time>
      </trkpt>
      <trkpt lat="49.28648" lon="1.2252">
        <ele>9</ele>
        <time>2017-04-04T15:54:39Z</time>
      </trkpt>
      <trkpt lat="49.28648" lon="1.22511">
        <ele>9</ele>
        <time>2017-04-04T15:54:39Z</time>
      </trkpt>
      <trkpt lat="49.28647" lon="1.22503">
        <ele>9</ele>
        <time>2017-04-04T15:54:39Z</time>
      </trkpt>
      <trkpt lat="49.28645" lon="1.22497">
        <ele>9</ele>
        <time>2017-04-04T15:54:55Z</time>
      </trkpt>
      <trkpt lat="49.28645" lon="1.22491">
        <ele>9</ele>
        <time>2017-04-04T15:54:55Z</time>
      </trkpt>
      <trkpt lat="49.28645" lon="1.22483">
        <ele>9</ele>
        <time>2017-04-04T15:54:55Z</time>
      </trkpt>
      <trkpt lat="49.28646" lon="1.22479">
        <ele>9</ele>
        <time>2017-04-04T15:54:55Z</time>
      </trkpt>
      <trkpt lat="49.28645" lon="1.22472">
        <ele>9</ele>
        <time>2017-04-04T15:55:12Z</time>
      </trkpt>
      <trkpt lat="49.28645" lon="1.22467">
        <ele>9</ele>
        <time>2017-04-04T15:55:12Z</time>
      </trkpt>
      <trkpt lat="49.28645" lon="1.22458">
        <ele>10</ele>
        <time>2017-04-04T15:55:12Z</time>
      </trkpt>
      <trkpt lat="49.28643" lon="1.22448">
        <ele>10</ele>
        <time>2017-04-04T15:55:12Z</time>
      </trkpt>
      <trkpt lat="49.28644" lon="1.22444">
        <ele>10</ele>
        <time>2017-04-04T15:55:27Z</time>
      </trkpt>
      <trkpt lat="49.28643" lon="1.22434">
        <ele>10</ele>
        <time>2017-04-04T15:55:27Z</time>
      </trkpt>
      <trkpt lat="49.28643" lon="1.22428">
        <ele>10</ele>
        <time>2017-04-04T15:55:27Z</time>
      </trkpt>
      <trkpt lat="49.28644" lon="1.22419">
        <ele>10</ele>
        <time>2017-04-04T15:55:27Z</time>
      </trkpt>
      <trkpt lat="49.28643" lon="1.22411">
        <ele>10</ele>
        <time>2017-04-04T15:55:43Z</time>
      </trkpt>
      <trkpt lat="49.28644" lon="1.22404">
        <ele>10</ele>
        <time>2017-04-04T15:55:43Z</time>
      </trkpt>
      <trkpt lat="49.28644" lon="1.22393">
        <ele>10</ele>
        <time>2017-04-04T15:55:43Z</time>
      </trkpt>
      <trkpt lat="49.28645" lon="1.22388">
        <ele>10</ele>
        <time>2017-04-04T15:55:43Z</time>
      </trkpt>
      <trkpt lat="49.28646" lon="1.22384">
        <ele>10</ele>
        <time>2017-04-04T15:55:59Z</time>
      </trkpt>
      <trkpt lat="49.28646" lon="1.22378">
        <ele>10</ele>
        <time>2017-04-04T15:55:59Z</time>
      </trkpt>
      <trkpt lat="49.28645" lon="1.22369">
        <ele>10</ele>
        <time>2017-04-04T15:55:59Z</time>
      </trkpt>
      <trkpt lat="49.28645" lon="1.22364">
        <ele>10</ele>
        <time>2017-04-04T15:55:59Z</time>
      </trkpt>
      <trkpt lat="49.28646" lon="1.22357">
        <ele>10</ele>
        <time>2017-04-04T15:56:15Z</time>
      </trkpt>
      <trkpt lat="49.28646" lon="1.22349">
        <ele>10</ele>
        <time>2017-04-04T15:56:15Z</time>
      </trkpt>
      <trkpt lat="49.28645" lon="1.22342">
        <ele>10</ele>
        <time>2017-04-04T15:56:15Z</time>
      </trkpt>
      <trkpt lat="49.28645" lon="1.22336">
        <ele>10</ele>
        <time>2017-04-04T15:56:15Z</time>
      </trkpt>
      <trkpt lat="49.28645" lon="1.22328">
        <ele>10</ele>
        <time>2017-04-04T15:56:31Z</time>
      </trkpt>
      <trkpt lat="49.28646" lon="1.22321">
        <ele>10</ele>
        <time>2017-04-04T15:56:31Z</time>
      </trkpt>
      <trkpt lat="49.28647" lon="1.22312">
        <ele>10</ele>
        <time>2017-04-04T15:56:31Z</time>
      </trkpt>
      <trkpt lat="49.28649" lon="1.22305">
        <ele>10</ele>
        <time>2017-04-04T15:56:31Z</time>
      </trkpt>
      <trkpt lat="49.2865" lon="1.22294">
        <ele>10</ele>
        <time>2017-04-04T15:56:47Z</time>
      </trkpt>
      <trkpt lat="49.2865" lon="1.22287">
        <ele>6</ele>
        <time>2017-04-04T15:56:47Z</time>
      </trkpt>
      <trkpt lat="49.28651" lon="1.22281">
        <ele>6</ele>
        <time>2017-04-04T15:56:47Z</time>
      </trkpt>
      <trkpt lat="49.28651" lon="1.22273">
        <ele>6</ele>
        <time>2017-04-04T15:56:47Z</time>
      </trkpt>
      <trkpt lat="49.28653" lon="1.22267">
        <ele>6</ele>
        <time>2017-04-04T15:57:03Z</time>
      </trkpt>
      <trkpt lat="49.28652" lon="1.22263">
        <ele>6</ele>
        <time>2017-04-04T15:57:03Z</time>
      </trkpt>
      <trkpt lat="49.28653" lon="1.22253">
        <ele>6</ele>
        <time>2017-04-04T15:57:03Z</time>
      </trkpt>
      <trkpt lat="49.28654" lon="1.22244">
        <ele>6</ele>
        <time>2017-04-04T15:57:03Z</time>
      </trkpt>
      <trkpt lat="49.28655" lon="1.22238">
        <ele>6</ele>
        <time>2017-04-04T15:57:19Z</time>
      </trkpt>
      <trkpt lat="49.28657" lon="1.22231">
        <ele>6</ele>
        <time>2017-04-04T15:57:19Z</time>
      </trkpt>
      <trkpt lat="49.28658" lon="1.22224">
        <ele>6</ele>
        <time>2017-04-04T15:57:19Z</time>
      </trkpt>
      <trkpt lat="49.28658" lon="1.22218">
        <ele>6</ele>
        <time>2017-04-04T15:57:19Z</time>
      </trkpt>
      <trkpt lat="49.2866" lon="1.22199">
        <ele>8</ele>
        <time>2017-04-04T16:01:07Z</time>
      </trkpt>
      <trkpt lat="49.28662" lon="1.22199">
        <ele>8</ele>
        <time>2017-04-04T16:01:07Z</time>
      </trkpt>
      <trkpt lat="49.28666" lon="1.22195">
        <ele>8</ele>
        <time>2017-04-04T16:01:07Z</time>
      </trkpt>
      <trkpt lat="49.2867" lon="1.2219">
        <ele>8</ele>
        <time>2017-04-04T16:01:07Z</time>
      </trkpt>
      <trkpt lat="49.28672" lon="1.22183">
        <ele>8</ele>
        <time>2017-04-04T16:01:07Z</time>
      </trkpt>
      <trkpt lat="49.28676" lon="1.22179">
        <ele>8</ele>
        <time>2017-04-04T16:01:23Z</time>
      </trkpt>
      <trkpt lat="49.2868" lon="1.22173">
        <ele>8</ele>
        <time>2017-04-04T16:01:23Z</time>
      </trkpt>
      <trkpt lat="49.28687" lon="1.22167">
        <ele>8</ele>
        <time>2017-04-04T16:01:23Z</time>
      </trkpt>
      <trkpt lat="49.2869" lon="1.22164">
        <ele>8</ele>
        <time>2017-04-04T16:01:23Z</time>
      </trkpt>
      <trkpt lat="49.28696" lon="1.22159">
        <ele>8</ele>
        <time>2017-04-04T16:01:40Z</time>
      </trkpt>
      <trkpt lat="49.28699" lon="1.22153">
        <ele>8</ele>
        <time>2017-04-04T16:01:40Z</time>
      </trkpt>
      <trkpt lat="49.28702" lon="1.22146">
        <ele>8</ele>
        <time>2017-04-04T16:01:40Z</time>
      </trkpt>
      <trkpt lat="49.28706" lon="1.22142">
        <ele>8</ele>
        <time>2017-04-04T16:01:40Z</time>
      </trkpt>
      <trkpt lat="49.2871" lon="1.22136">
        <ele>4</ele>
        <time>2017-04-04T16:01:56Z</time>
      </trkpt>
      <trkpt lat="49.28713" lon="1.22133">
        <ele>4</ele>
        <time>2017-04-04T16:01:56Z</time>
      </trkpt>
      <trkpt lat="49.28716" lon="1.22128">
        <ele>4</ele>
        <time>2017-04-04T16:01:56Z</time>
      </trkpt>
      <trkpt lat="49.28721" lon="1.22122">
        <ele>8</ele>
        <time>2017-04-04T16:01:56Z</time>
      </trkpt>
      <trkpt lat="49.28725" lon="1.22119">
        <ele>8</ele>
        <time>2017-04-04T16:02:11Z</time>
      </trkpt>
      <trkpt lat="49.28729" lon="1.22114">
        <ele>8</ele>
        <time>2017-04-04T16:02:11Z</time>
      </trkpt>
      <trkpt lat="49.28734" lon="1.22107">
        <ele>8</ele>
        <time>2017-04-04T16:02:11Z</time>
      </trkpt>
      <trkpt lat="49.28736" lon="1.22104">
        <ele>8</ele>
        <time>2017-04-04T16:02:11Z</time>
      </trkpt>
      <trkpt lat="49.28742" lon="1.22099">
        <ele>8</ele>
        <time>2017-04-04T16:02:28Z</time>
      </trkpt>
      <trkpt lat="49.28746" lon="1.22093">
        <ele>8</ele>
        <time>2017-04-04T16:02:28Z</time>
      </trkpt>
      <trkpt lat="49.28749" lon="1.2209">
        <ele>8</ele>
        <time>2017-04-04T16:02:28Z</time>
      </trkpt>
      <trkpt lat="49.28755" lon="1.22088">
        <ele>8</ele>
        <time>2017-04-04T16:02:28Z</time>
      </trkpt>
      <trkpt lat="49.28758" lon="1.22085">
        <ele>8</ele>
        <time>2017-04-04T16:02:43Z</time>
      </trkpt>
      <trkpt lat="49.28762" lon="1.22078">
        <ele>8</ele>
        <time>2017-04-04T16:02:43Z</time>
      </trkpt>
      <trkpt lat="49.28768" lon="1.22074">
        <ele>8</ele>
        <time>2017-04-04T16:02:43Z</time>
      </trkpt>
      <trkpt lat="49.28771" lon="1.22071">
        <ele>8</ele>
        <time>2017-04-04T16:02:43Z</time>
      </trkpt>
      <trkpt lat="49.28776" lon="1.22068">
        <ele>8</ele>
        <time>2017-04-04T16:03:00Z</time>
      </trkpt>
      <trkpt lat="49.28782" lon="1.22061">
        <ele>8</ele>
        <time>2017-04-04T16:03:00Z</time>
      </trkpt>
      <trkpt lat="49.28785" lon="1.22056">
        <ele>8</ele>
        <time>2017-04-04T16:03:00Z</time>
      </trkpt>
      <trkpt lat="49.2879" lon="1.2205">
        <ele>8</ele>
        <time>2017-04-04T16:03:00Z</time>
      </trkpt>
      <trkpt lat="49.28793" lon="1.22047">
        <ele>9</ele>
        <time>2017-04-04T16:03:15Z</time>
      </trkpt>
      <trkpt lat="49.28796" lon="1.22045">
        <ele>9</ele>
        <time>2017-04-04T16:03:15Z</time>
      </trkpt>
      <trkpt lat="49.28798" lon="1.22041">
        <ele>8</ele>
        <time>2017-04-04T16:03:15Z</time>
      </trkpt>
      <trkpt lat="49.28802" lon="1.22036">
        <ele>8</ele>
        <time>2017-04-04T16:03:15Z</time>
      </trkpt>
      <trkpt lat="49.28806" lon="1.22029">
        <ele>8</ele>
        <time>2017-04-04T16:03:32Z</time>
      </trkpt>
      <trkpt lat="49.28811" lon="1.22022">
        <ele>8</ele>
        <time>2017-04-04T16:03:32Z</time>
      </trkpt>
      <trkpt lat="49.28814" lon="1.22018">
        <ele>8</ele>
        <time>2017-04-04T16:03:32Z</time>
      </trkpt>
      <trkpt lat="49.28817" lon="1.22011">
        <ele>8</ele>
        <time>2017-04-04T16:03:32Z</time>
      </trkpt>
      <trkpt lat="49.2882" lon="1.22005">
        <ele>8</ele>
        <time>2017-04-04T16:03:47Z</time>
      </trkpt>
      <trkpt lat="49.28825" lon="1.22002">
        <ele>8</ele>
        <time>2017-04-04T16:03:47Z</time>
      </trkpt>
      <trkpt lat="49.28831" lon="1.22002">
        <ele>8</ele>
        <time>2017-04-04T16:03:47Z</time>
      </trkpt>
      <trkpt lat="49.28837" lon="1.22">
        <ele>8</ele>
        <time>2017-04-04T16:03:47Z</time>
      </trkpt>
      <trkpt lat="49.28841" lon="1.21996">
        <ele>8</ele>
        <time>2017-04-04T16:04:03Z</time>
      </trkpt>
      <trkpt lat="49.28844" lon="1.21992">
        <ele>8</ele>
        <time>2017-04-04T16:04:03Z</time>
      </trkpt>
      <trkpt lat="49.28849" lon="1.21989">
        <ele>8</ele>
        <time>2017-04-04T16:04:03Z</time>
      </trkpt>
      <trkpt lat="49.28855" lon="1.21984">
        <ele>8</ele>
        <time>2017-04-04T16:04:03Z</time>
      </trkpt>
      <trkpt lat="49.28859" lon="1.2198">
        <ele>8</ele>
        <time>2017-04-04T16:04:19Z</time>
      </trkpt>
      <trkpt lat="49.28862" lon="1.21975">
        <ele>8</ele>
        <time>2017-04-04T16:04:19Z</time>
      </trkpt>
      <trkpt lat="49.28864" lon="1.21971">
        <ele>8</ele>
        <time>2017-04-04T16:04:19Z</time>
      </trkpt>
      <trkpt lat="49.28866" lon="1.21962">
        <ele>8</ele>
        <time>2017-04-04T16:04:19Z</time>
      </trkpt>
      <trkpt lat="49.28868" lon="1.21956">
        <ele>8</ele>
        <time>2017-04-04T16:04:36Z</time>
      </trkpt>
      <trkpt lat="49.28871" lon="1.2195">
        <ele>8</ele>
        <time>2017-04-04T16:04:36Z</time>
      </trkpt>
      <trkpt lat="49.28875" lon="1.21946">
        <ele>8</ele>
        <time>2017-04-04T16:04:36Z</time>
      </trkpt>
      <trkpt lat="49.28881" lon="1.21941">
        <ele>5</ele>
        <time>2017-04-04T16:04:36Z</time>
      </trkpt>
      <trkpt lat="49.28888" lon="1.2194">
        <ele>5</ele>
        <time>2017-04-04T16:04:51Z</time>
      </trkpt>
      <trkpt lat="49.28894" lon="1.21938">
        <ele>5</ele>
        <time>2017-04-04T16:04:51Z</time>
      </trkpt>
      <trkpt lat="49.28898" lon="1.21932">
        <ele>5</ele>
        <time>2017-04-04T16:04:51Z</time>
      </trkpt>
      <trkpt lat="49.28902" lon="1.21926">
        <ele>5</ele>
        <time>2017-04-04T16:04:51Z</time>
      </trkpt>
      <trkpt lat="49.28905" lon="1.21919">
        <ele>5</ele>
        <time>2017-04-04T16:05:07Z</time>
      </trkpt>
      <trkpt lat="49.28907" lon="1.21911">
        <ele>5</ele>
        <time>2017-04-04T16:05:08Z</time>
      </trkpt>
      <trkpt lat="49.2891" lon="1.21902">
        <ele>5</ele>
        <time>2017-04-04T16:05:08Z</time>
      </trkpt>
      <trkpt lat="49.28912" lon="1.21895">
        <ele>5</ele>
        <time>2017-04-04T16:05:08Z</time>
      </trkpt>
      <trkpt lat="49.28914" lon="1.21889">
        <ele>5</ele>
        <time>2017-04-04T16:05:23Z</time>
      </trkpt>
      <trkpt lat="49.28916" lon="1.21882">
        <ele>5</ele>
        <time>2017-04-04T16:05:23Z</time>
      </trkpt>
      <trkpt lat="49.28919" lon="1.21878">
        <ele>5</ele>
        <time>2017-04-04T16:05:23Z</time>
      </trkpt>
      <trkpt lat="49.28922" lon="1.21875">
        <ele>7</ele>
        <time>2017-04-04T16:05:23Z</time>
      </trkpt>
      <trkpt lat="49.28925" lon="1.21867">
        <ele>7</ele>
        <time>2017-04-04T16:05:40Z</time>
      </trkpt>
      <trkpt lat="49.28927" lon="1.21862">
        <ele>7</ele>
        <time>2017-04-04T16:05:40Z</time>
      </trkpt>
      <trkpt lat="49.28929" lon="1.21851">
        <ele>7</ele>
        <time>2017-04-04T16:05:40Z</time>
      </trkpt>
      <trkpt lat="49.28932" lon="1.21844">
        <ele>7</ele>
        <time>2017-04-04T16:05:40Z</time>
      </trkpt>
      <trkpt lat="49.28934" lon="1.21838">
        <ele>7</ele>
        <time>2017-04-04T16:05:55Z</time>
      </trkpt>
      <trkpt lat="49.28937" lon="1.21833">
        <ele>7</ele>
        <time>2017-04-04T16:05:55Z</time>
      </trkpt>
      <trkpt lat="49.2894" lon="1.21829">
        <ele>7</ele>
        <time>2017-04-04T16:05:55Z</time>
      </trkpt>
      <trkpt lat="49.28944" lon="1.21821">
        <ele>7</ele>
        <time>2017-04-04T16:05:55Z</time>
      </trkpt>
      <trkpt lat="49.28947" lon="1.21813">
        <ele>7</ele>
        <time>2017-04-04T16:06:12Z</time>
      </trkpt>
      <trkpt lat="49.28949" lon="1.21806">
        <ele>7</ele>
        <time>2017-04-04T16:06:12Z</time>
      </trkpt>
      <trkpt lat="49.28949" lon="1.218">
        <ele>7</ele>
        <time>2017-04-04T16:06:12Z</time>
      </trkpt>
      <trkpt lat="49.28951" lon="1.21792">
        <ele>7</ele>
        <time>2017-04-04T16:06:12Z</time>
      </trkpt>
      <trkpt lat="49.28959" lon="1.2179">
        <ele>10</ele>
        <time>2017-04-04T16:06:27Z</time>
      </trkpt>
      <trkpt lat="49.28964" lon="1.21787">
        <ele>10</ele>
        <time>2017-04-04T16:06:27Z</time>
      </trkpt>
      <trkpt lat="49.28968" lon="1.21785">
        <ele>10</ele>
        <time>2017-04-04T16:06:27Z</time>
      </trkpt>
      <trkpt lat="49.28974" lon="1.21779">
        <ele>10</ele>
        <time>2017-04-04T16:06:27Z</time>
      </trkpt>
      <trkpt lat="49.28978" lon="1.21773">
        <ele>10</ele>
        <time>2017-04-04T16:06:43Z</time>
      </trkpt>
      <trkpt lat="49.28982" lon="1.21765">
        <ele>10</ele>
        <time>2017-04-04T16:06:43Z</time>
      </trkpt>
      <trkpt lat="49.28986" lon="1.21759">
        <ele>10</ele>
        <time>2017-04-04T16:06:43Z</time>
      </trkpt>
      <trkpt lat="49.28988" lon="1.21754">
        <ele>10</ele>
        <time>2017-04-04T16:06:43Z</time>
      </trkpt>
      <trkpt lat="49.28992" lon="1.21746">
        <ele>10</ele>
        <time>2017-04-04T16:06:59Z</time>
      </trkpt>
      <trkpt lat="49.28995" lon="1.2174">
        <ele>10</ele>
        <time>2017-04-04T16:06:59Z</time>
      </trkpt>
      <trkpt lat="49.28998" lon="1.21735">
        <ele>10</ele>
        <time>2017-04-04T16:06:59Z</time>
      </trkpt>
      <trkpt lat="49.29" lon="1.21727">
        <ele>10</ele>
        <time>2017-04-04T16:06:59Z</time>
      </trkpt>
      <trkpt lat="49.29005" lon="1.21723">
        <ele>10</ele>
        <time>2017-04-04T16:07:15Z</time>
      </trkpt>
      <trkpt lat="49.29009" lon="1.21723">
        <ele>10</ele>
        <time>2017-04-04T16:07:16Z</time>
      </trkpt>
      <trkpt lat="49.29011" lon="1.21718">
        <ele>10</ele>
        <time>2017-04-04T16:07:16Z</time>
      </trkpt>
      <trkpt lat="49.29013" lon="1.21711">
        <ele>10</ele>
        <time>2017-04-04T16:07:16Z</time>
      </trkpt>
      <trkpt lat="49.29015" lon="1.21707">
        <ele>8</ele>
        <time>2017-04-04T16:07:31Z</time>
      </trkpt>
      <trkpt lat="49.29018" lon="1.21702">
        <ele>8</ele>
        <time>2017-04-04T16:07:31Z</time>
      </trkpt>
      <trkpt lat="49.29023" lon="1.21696">
        <ele>8</ele>
        <time>2017-04-04T16:07:31Z</time>
      </trkpt>
      <trkpt lat="49.29025" lon="1.21693">
        <ele>8</ele>
        <time>2017-04-04T16:07:31Z</time>
      </trkpt>
      <trkpt lat="49.29029" lon="1.21673">
        <ele>8</ele>
        <time>2017-04-04T16:08:11Z</time>
      </trkpt>
      <trkpt lat="49.2903" lon="1.2167">
        <ele>8</ele>
        <time>2017-04-04T16:08:11Z</time>
      </trkpt>
      <trkpt lat="49.29031" lon="1.21662">
        <ele>8</ele>
        <time>2017-04-04T16:08:11Z</time>
      </trkpt>
      <trkpt lat="49.29036" lon="1.21658">
        <ele>8</ele>
        <time>2017-04-04T16:08:11Z</time>
      </trkpt>
      <trkpt lat="49.29039" lon="1.21655">
        <ele>8</ele>
        <time>2017-04-04T16:08:11Z</time>
      </trkpt>
      <trkpt lat="49.29044" lon="1.21651">
        <ele>8</ele>
        <time>2017-04-04T16:08:27Z</time>
      </trkpt>
      <trkpt lat="49.29047" lon="1.21648">
        <ele>8</ele>
        <time>2017-04-04T16:08:27Z</time>
      </trkpt>
      <trkpt lat="49.29049" lon="1.21642">
        <ele>8</ele>
        <time>2017-04-04T16:08:27Z</time>
      </trkpt>
      <trkpt lat="49.29048" lon="1.21632">
        <ele>8</ele>
        <time>2017-04-04T16:08:28Z</time>
      </trkpt>
      <trkpt lat="49.29049" lon="1.21625">
        <ele>8</ele>
        <time>2017-04-04T16:08:43Z</time>
      </trkpt>
      <trkpt lat="49.2905" lon="1.21621">
        <ele>10</ele>
        <time>2017-04-04T16:08:43Z</time>
      </trkpt>
      <trkpt lat="49.29052" lon="1.21615">
        <ele>10</ele>
        <time>2017-04-04T16:08:43Z</time>
      </trkpt>
      <trkpt lat="49.29053" lon="1.21609">
        <ele>10</ele>
        <time>2017-04-04T16:08:43Z</time>
      </trkpt>
      <trkpt lat="49.29055" lon="1.216">
        <ele>10</ele>
        <time>2017-04-04T16:08:59Z</time>
      </trkpt>
      <trkpt lat="49.29058" lon="1.21593">
        <ele>10</ele>
        <time>2017-04-04T16:08:59Z</time>
      </trkpt>
      <trkpt lat="49.29061" lon="1.21588">
        <ele>10</ele>
        <time>2017-04-04T16:08:59Z</time>
      </trkpt>
      <trkpt lat="49.29064" lon="1.21582">
        <ele>10</ele>
        <time>2017-04-04T16:09:00Z</time>
      </trkpt>
      <trkpt lat="49.29068" lon="1.21575">
        <ele>10</ele>
        <time>2017-04-04T16:09:15Z</time>
      </trkpt>
      <trkpt lat="49.29072" lon="1.21569">
        <ele>10</ele>
        <time>2017-04-04T16:09:15Z</time>
      </trkpt>
      <trkpt lat="49.29075" lon="1.21565">
        <ele>10</ele>
        <time>2017-04-04T16:09:15Z</time>
      </trkpt>
      <trkpt lat="49.29079" lon="1.21559">
        <ele>10</ele>
        <time>2017-04-04T16:09:15Z</time>
      </trkpt>
      <trkpt lat="49.29083" lon="1.21554">
        <ele>10</ele>
        <time>2017-04-04T16:09:31Z</time>
      </trkpt>
      <trkpt lat="49.29087" lon="1.21549">
        <ele>10</ele>
        <time>2017-04-04T16:09:31Z</time>
      </trkpt>
      <trkpt lat="49.2909" lon="1.21544">
        <ele>10</ele>
        <time>2017-04-04T16:09:31Z</time>
      </trkpt>
      <trkpt lat="49.29092" lon="1.21539">
        <ele>9</ele>
        <time>2017-04-04T16:09:31Z</time>
      </trkpt>
      <trkpt lat="49.29096" lon="1.21532">
        <ele>9</ele>
        <time>2017-04-04T16:09:48Z</time>
      </trkpt>
      <trkpt lat="49.29101" lon="1.21526">
        <ele>9</ele>
        <time>2017-04-04T16:09:48Z</time>
      </trkpt>
      <trkpt lat="49.29104" lon="1.21521">
        <ele>9</ele>
        <time>2017-04-04T16:09:48Z</time>
      </trkpt>
      <trkpt lat="49.29108" lon="1.21512">
        <ele>9</ele>
        <time>2017-04-04T16:09:48Z</time>
      </trkpt>
      <trkpt lat="49.29112" lon="1.21506">
        <ele>9</ele>
        <time>2017-04-04T16:10:03Z</time>
      </trkpt>
      <trkpt lat="49.29114" lon="1.21498">
        <ele>9</ele>
        <time>2017-04-04T16:10:03Z</time>
      </trkpt>
      <trkpt lat="49.29117" lon="1.21492">
        <ele>9</ele>
        <time>2017-04-04T16:10:03Z</time>
      </trkpt>
      <trkpt lat="49.2912" lon="1.2149">
        <ele>9</ele>
        <time>2017-04-04T16:10:03Z</time>
      </trkpt>
      <trkpt lat="49.29124" lon="1.21487">
        <ele>9</ele>
        <time>2017-04-04T16:10:20Z</time>
      </trkpt>
      <trkpt lat="49.29129" lon="1.2148">
        <ele>8</ele>
        <time>2017-04-04T16:10:20Z</time>
      </trkpt>
      <trkpt lat="49.29133" lon="1.21478">
        <ele>8</ele>
        <time>2017-04-04T16:10:20Z</time>
      </trkpt>
      <trkpt lat="49.29139" lon="1.21477">
        <ele>8</ele>
        <time>2017-04-04T16:10:20Z</time>
      </trkpt>
      <trkpt lat="49.29143" lon="1.21471">
        <ele>8</ele>
        <time>2017-04-04T16:10:35Z</time>
      </trkpt>
      <trkpt lat="49.29148" lon="1.21467">
        <ele>8</ele>
        <time>2017-04-04T16:10:35Z</time>
      </trkpt>
      <trkpt lat="49.29154" lon="1.21466">
        <ele>8</ele>
        <time>2017-04-04T16:10:35Z</time>
      </trkpt>
      <trkpt lat="49.29157" lon="1.21464">
        <ele>8</ele>
        <time>2017-04-04T16:10:35Z</time>
      </trkpt>
      <trkpt lat="49.29163" lon="1.2146">
        <ele>8</ele>
        <time>2017-04-04T16:10:52Z</time>
      </trkpt>
      <trkpt lat="49.29167" lon="1.21454">
        <ele>9</ele>
        <time>2017-04-04T16:10:52Z</time>
      </trkpt>
      <trkpt lat="49.29171" lon="1.2145">
        <ele>9</ele>
        <time>2017-04-04T16:10:52Z</time>
      </trkpt>
      <trkpt lat="49.29176" lon="1.21443">
        <ele>9</ele>
        <time>2017-04-04T16:10:52Z</time>
      </trkpt>
      <trkpt lat="49.2918" lon="1.21439">
        <ele>9</ele>
        <time>2017-04-04T16:11:08Z</time>
      </trkpt>
      <trkpt lat="49.29184" lon="1.21434">
        <ele>9</ele>
        <time>2017-04-04T16:11:08Z</time>
      </trkpt>
      <trkpt lat="49.29188" lon="1.21429">
        <ele>9</ele>
        <time>2017-04-04T16:11:08Z</time>
      </trkpt>
      <trkpt lat="49.29191" lon="1.21423">
        <ele>9</ele>
        <time>2017-04-04T16:11:08Z</time>
      </trkpt>
      <trkpt lat="49.29193" lon="1.21419">
        <ele>9</ele>
        <time>2017-04-04T16:11:24Z</time>
      </trkpt>
      <trkpt lat="49.29199" lon="1.21412">
        <ele>9</ele>
        <time>2017-04-04T16:11:24Z</time>
      </trkpt>
      <trkpt lat="49.29203" lon="1.21408">
        <ele>9</ele>
        <time>2017-04-04T16:11:24Z</time>
      </trkpt>
      <trkpt lat="49.29208" lon="1.21405">
        <ele>9</ele>
        <time>2017-04-04T16:11:24Z</time>
      </trkpt>
      <trkpt lat="49.29212" lon="1.21405">
        <ele>5</ele>
        <time>2017-04-04T16:11:40Z</time>
      </trkpt>
      <trkpt lat="49.29216" lon="1.21401">
        <ele>5</ele>
        <time>2017-04-04T16:11:40Z</time>
      </trkpt>
      <trkpt lat="49.2922" lon="1.21396">
        <ele>5</ele>
        <time>2017-04-04T16:11:40Z</time>
      </trkpt>
      <trkpt lat="49.29225" lon="1.21391">
        <ele>5</ele>
        <time>2017-04-04T16:11:40Z</time>
      </trkpt>
      <trkpt lat="49.29227" lon="1.21388">
        <ele>5</ele>
        <time>2017-04-04T16:11:55Z</time>
      </trkpt>
      <trkpt lat="49.29231" lon="1.21381">
        <ele>5</ele>
        <time>2017-04-04T16:11:55Z</time>
      </trkpt>
      <trkpt lat="49.29234" lon="1.21375">
        <ele>5</ele>
        <time>2017-04-04T16:11:56Z</time>
      </trkpt>
      <trkpt lat="49.29239" lon="1.21371">
        <ele>7</ele>
        <time>2017-04-04T16:11:56Z</time>
      </trkpt>
      <trkpt lat="49.29243" lon="1.2137">
        <ele>7</ele>
        <time>2017-04-04T16:12:12Z</time>
      </trkpt>
      <trkpt lat="49.29248" lon="1.21366">
        <ele>7</ele>
        <time>2017-04-04T16:12:12Z</time>
      </trkpt>
      <trkpt lat="49.29251" lon="1.21363">
        <ele>7</ele>
        <time>2017-04-04T16:12:12Z</time>
      </trkpt>
      <trkpt lat="49.29256" lon="1.21355">
        <ele>7</ele>
        <time>2017-04-04T16:12:12Z</time>
      </trkpt>
      <trkpt lat="49.29259" lon="1.2135">
        <ele>7</ele>
        <time>2017-04-04T16:12:27Z</time>
      </trkpt>
      <trkpt lat="49.2926" lon="1.21346">
        <ele>7</ele>
        <time>2017-04-04T16:12:27Z</time>
      </trkpt>
      <trkpt lat="49.29267" lon="1.21345">
        <ele>7</ele>
        <time>2017-04-04T16:12:27Z</time>
      </trkpt>
      <trkpt lat="49.2927" lon="1.21344">
        <ele>7</ele>
        <time>2017-04-04T16:12:27Z</time>
      </trkpt>
      <trkpt lat="49.29274" lon="1.2134">
        <ele>7</ele>
        <time>2017-04-04T16:12:43Z</time>
      </trkpt>
      <trkpt lat="49.29277" lon="1.21337">
        <ele>7</ele>
        <time>2017-04-04T16:12:43Z</time>
      </trkpt>
      <trkpt lat="49.29279" lon="1.21335">
        <ele>7</ele>
        <time>2017-04-04T16:12:43Z</time>
      </trkpt>
      <trkpt lat="49.29284" lon="1.21332">
        <ele>7</ele>
        <time>2017-04-04T16:12:43Z</time>
      </trkpt>
      <trkpt lat="49.29289" lon="1.2133">
        <ele>7</ele>
        <time>2017-04-04T16:12:59Z</time>
      </trkpt>
      <trkpt lat="49.29292" lon="1.21324">
        <ele>4</ele>
        <time>2017-04-04T16:12:59Z</time>
      </trkpt>
      <trkpt lat="49.29295" lon="1.21322">
        <ele>4</ele>
        <time>2017-04-04T16:12:59Z</time>
      </trkpt>
      <trkpt lat="49.293" lon="1.21319">
        <ele>4</ele>
        <time>2017-04-04T16:13:00Z</time>
      </trkpt>
      <trkpt lat="49.29303" lon="1.21314">
        <ele>4</ele>
        <time>2017-04-04T16:13:16Z</time>
      </trkpt>
      <trkpt lat="49.29306" lon="1.2131">
        <ele>4</ele>
        <time>2017-04-04T16:13:16Z</time>
      </trkpt>
      <trkpt lat="49.29311" lon="1.21308">
        <ele>4</ele>
        <time>2017-04-04T16:13:16Z</time>
      </trkpt>
      <trkpt lat="49.29315" lon="1.21305">
        <ele>4</ele>
        <time>2017-04-04T16:13:16Z</time>
      </trkpt>
      <trkpt lat="49.29319" lon="1.21302">
        <ele>4</ele>
        <time>2017-04-04T16:13:31Z</time>
      </trkpt>
      <trkpt lat="49.29324" lon="1.21302">
        <ele>4</ele>
        <time>2017-04-04T16:13:31Z</time>
      </trkpt>
      <trkpt lat="49.29328" lon="1.21301">
        <ele>4</ele>
        <time>2017-04-04T16:13:31Z</time>
      </trkpt>
      <trkpt lat="49.29331" lon="1.21303">
        <ele>4</ele>
        <time>2017-04-04T16:13:31Z</time>
      </trkpt>
      <trkpt lat="49.29334" lon="1.21302">
        <ele>4</ele>
        <time>2017-04-04T16:13:47Z</time>
      </trkpt>
      <trkpt lat="49.29336" lon="1.21298">
        <ele>4</ele>
        <time>2017-04-04T16:13:47Z</time>
      </trkpt>
      <trkpt lat="49.2934" lon="1.21294">
        <ele>4</ele>
        <time>2017-04-04T16:13:47Z</time>
      </trkpt>
      <trkpt lat="49.29343" lon="1.21289">
        <ele>6</ele>
        <time>2017-04-04T16:13:47Z</time>
      </trkpt>
      <trkpt lat="49.29348" lon="1.21285">
        <ele>6</ele>
        <time>2017-04-04T16:14:04Z</time>
      </trkpt>
      <trkpt lat="49.29349" lon="1.21284">
        <ele>6</ele>
        <time>2017-04-04T16:14:04Z</time>
      </trkpt>
      <trkpt lat="49.29353" lon="1.21281">
        <ele>6</ele>
        <time>2017-04-04T16:14:04Z</time>
      </trkpt>
      <trkpt lat="49.29357" lon="1.21277">
        <ele>6</ele>
        <time>2017-04-04T16:14:04Z</time>
      </trkpt>
      <trkpt lat="49.29361" lon="1.21275">
        <ele>6</ele>
        <time>2017-04-04T16:14:19Z</time>
      </trkpt>
      <trkpt lat="49.29364" lon="1.21272">
        <ele>6</ele>
        <time>2017-04-04T16:14:19Z</time>
      </trkpt>
      <trkpt lat="49.29368" lon="1.21267">
        <ele>6</ele>
        <time>2017-04-04T16:14:19Z</time>
      </trkpt>
      <trkpt lat="49.29371" lon="1.21262">
        <ele>6</ele>
        <time>2017-04-04T16:14:19Z</time>
      </trkpt>
      <trkpt lat="49.29375" lon="1.21257">
        <ele>6</ele>
        <time>2017-04-04T16:14:36Z</time>
      </trkpt>
      <trkpt lat="49.29379" lon="1.21253">
        <ele>6</ele>
        <time>2017-04-04T16:14:36Z</time>
      </trkpt>
      <trkpt lat="49.29382" lon="1.21251">
        <ele>6</ele>
        <time>2017-04-04T16:14:36Z</time>
      </trkpt>
      <trkpt lat="49.29386" lon="1.21246">
        <ele>6</ele>
        <time>2017-04-04T16:14:36Z</time>
      </trkpt>
      <trkpt lat="49.29391" lon="1.21246">
        <ele>6</ele>
        <time>2017-04-04T16:14:51Z</time>
      </trkpt>
      <trkpt lat="49.29397" lon="1.21244">
        <ele>6</ele>
        <time>2017-04-04T16:14:51Z</time>
      </trkpt>
      <trkpt lat="49.29402" lon="1.21244">
        <ele>6</ele>
        <time>2017-04-04T16:14:51Z</time>
      </trkpt>
      <trkpt lat="49.29407" lon="1.21241">
        <ele>6</ele>
        <time>2017-04-04T16:14:51Z</time>
      </trkpt>
      <trkpt lat="49.29413" lon="1.21237">
        <ele>6</ele>
        <time>2017-04-04T16:15:07Z</time>
      </trkpt>
      <trkpt lat="49.29417" lon="1.21234">
        <ele>6</ele>
        <time>2017-04-04T16:15:07Z</time>
      </trkpt>
      <trkpt lat="49.2942" lon="1.21231">
        <ele>6</ele>
        <time>2017-04-04T16:15:07Z</time>
      </trkpt>
      <trkpt lat="49.29425" lon="1.21228">
        <ele>6</ele>
        <time>2017-04-04T16:15:07Z</time>
      </trkpt>
      <trkpt lat="49.29428" lon="1.21225">
        <ele>6</ele>
        <time>2017-04-04T16:15:23Z</time>
      </trkpt>
      <trkpt lat="49.2943" lon="1.21224">
        <ele>6</ele>
        <time>2017-04-04T16:15:23Z</time>
      </trkpt>
      <trkpt lat="49.29434" lon="1.2122">
        <ele>6</ele>
        <time>2017-04-04T16:15:23Z</time>
      </trkpt>
      <trkpt lat="49.29437" lon="1.21217">
        <ele>6</ele>
        <time>2017-04-04T16:15:23Z</time>
      </trkpt>
      <trkpt lat="49.29441" lon="1.21215">
        <ele>6</ele>
        <time>2017-04-04T16:15:40Z</time>
      </trkpt>
      <trkpt lat="49.29445" lon="1.21211">
        <ele>6</ele>
        <time>2017-04-04T16:15:40Z</time>
      </trkpt>
      <trkpt lat="49.29446" lon="1.2121">
        <ele>6</ele>
        <time>2017-04-04T16:15:40Z</time>
      </trkpt>
      <trkpt lat="49.29453" lon="1.21201">
        <ele>8</ele>
        <time>2017-04-04T16:15:40Z</time>
      </trkpt>
      <trkpt lat="49.29456" lon="1.21197">
        <ele>8</ele>
        <time>2017-04-04T16:15:55Z</time>
      </trkpt>
      <trkpt lat="49.29463" lon="1.21193">
        <ele>7</ele>
        <time>2017-04-04T16:15:55Z</time>
      </trkpt>
      <trkpt lat="49.29467" lon="1.21192">
        <ele>7</ele>
        <time>2017-04-04T16:15:55Z</time>
      </trkpt>
      <trkpt lat="49.2947" lon="1.21189">
        <ele>7</ele>
        <time>2017-04-04T16:15:55Z</time>
      </trkpt>
      <trkpt lat="49.29473" lon="1.21182">
        <ele>7</ele>
        <time>2017-04-04T16:16:11Z</time>
      </trkpt>
      <trkpt lat="49.29476" lon="1.21175">
        <ele>7</ele>
        <time>2017-04-04T16:16:11Z</time>
      </trkpt>
      <trkpt lat="49.2948" lon="1.21171">
        <ele>7</ele>
        <time>2017-04-04T16:16:11Z</time>
      </trkpt>
      <trkpt lat="49.29483" lon="1.21168">
        <ele>7</ele>
        <time>2017-04-04T16:16:11Z</time>
      </trkpt>
      <trkpt lat="49.29485" lon="1.21164">
        <ele>7</ele>
        <time>2017-04-04T16:16:27Z</time>
      </trkpt>
      <trkpt lat="49.29489" lon="1.21161">
        <ele>7</ele>
        <time>2017-04-04T16:16:27Z</time>
      </trkpt>
      <trkpt lat="49.29493" lon="1.21157">
        <ele>7</ele>
        <time>2017-04-04T16:16:27Z</time>
      </trkpt>
      <trkpt lat="49.29496" lon="1.21154">
        <ele>7</ele>
        <time>2017-04-04T16:16:27Z</time>
      </trkpt>
      <trkpt lat="49.29498" lon="1.21147">
        <ele>7</ele>
        <time>2017-04-04T16:16:44Z</time>
      </trkpt>
      <trkpt lat="49.29501" lon="1.2114">
        <ele>7</ele>
        <time>2017-04-04T16:16:44Z</time>
      </trkpt>
      <trkpt lat="49.29505" lon="1.21137">
        <ele>7</ele>
        <time>2017-04-04T16:16:44Z</time>
      </trkpt>
      <trkpt lat="49.29509" lon="1.21134">
        <ele>7</ele>
        <time>2017-04-04T16:16:44Z</time>
      </trkpt>
      <trkpt lat="49.29513" lon="1.21133">
        <ele>7</ele>
        <time>2017-04-04T16:16:59Z</time>
      </trkpt>
      <trkpt lat="49.29517" lon="1.21134">
        <ele>7</ele>
        <time>2017-04-04T16:16:59Z</time>
      </trkpt>
      <trkpt lat="49.29521" lon="1.21134">
        <ele>7</ele>
        <time>2017-04-04T16:16:59Z</time>
      </trkpt>
      <trkpt lat="49.29524" lon="1.21129">
        <ele>7</ele>
        <time>2017-04-04T16:16:59Z</time>
      </trkpt>
      <trkpt lat="49.29526" lon="1.2111">
        <ele>7</ele>
        <time>2017-04-04T16:29:00Z</time>
      </trkpt>
      <trkpt lat="49.29528" lon="1.21108">
        <ele>7</ele>
        <time>2017-04-04T16:29:00Z</time>
      </trkpt>
      <trkpt lat="49.29528" lon="1.21108">
        <ele>7</ele>
        <time>2017-04-04T16:29:00Z</time>
      </trkpt>
      <trkpt lat="49.29528" lon="1.21108">
        <ele>7</ele>
        <time>2017-04-04T16:29:00Z</time>
      </trkpt>
      <trkpt lat="49.29528" lon="1.21107">
        <ele>7</ele>
        <time>2017-04-04T16:29:00Z</time>
      </trkpt>
      <trkpt lat="49.29532" lon="1.2111">
        <ele>7</ele>
        <time>2017-04-04T16:30:23Z</time>
      </trkpt>
      <trkpt lat="49.29533" lon="1.2111">
        <ele>7</ele>
        <time>2017-04-04T16:30:23Z</time>
      </trkpt>
      <trkpt lat="49.29538" lon="1.21107">
        <ele>7</ele>
        <time>2017-04-04T16:30:23Z</time>
      </trkpt>
      <trkpt lat="49.29546" lon="1.21106">
        <ele>9</ele>
        <time>2017-04-04T16:30:23Z</time>
      </trkpt>
      <trkpt lat="49.29547" lon="1.21106">
        <ele>9</ele>
        <time>2017-04-04T16:30:23Z</time>
      </trkpt>
      <trkpt lat="49.29547" lon="1.21105">
        <ele>9</ele>
        <time>2017-04-04T16:30:55Z</time>
      </trkpt>
      <trkpt lat="49.29545" lon="1.21104">
        <ele>9</ele>
        <time>2017-04-04T16:30:55Z</time>
      </trkpt>
      <trkpt lat="49.29545" lon="1.21103">
        <ele>9</ele>
        <time>2017-04-04T16:30:55Z</time>
      </trkpt>
      <trkpt lat="49.29547" lon="1.21097">
        <ele>9</ele>
        <time>2017-04-04T16:30:55Z</time>
      </trkpt>
      <trkpt lat="49.29548" lon="1.21092">
        <ele>9</ele>
        <time>2017-04-04T16:30:55Z</time>
      </trkpt>
      <trkpt lat="49.29553" lon="1.2109">
        <ele>9</ele>
        <time>2017-04-04T16:31:12Z</time>
      </trkpt>
      <trkpt lat="49.29556" lon="1.21088">
        <ele>9</ele>
        <time>2017-04-04T16:31:12Z</time>
      </trkpt>
      <trkpt lat="49.29559" lon="1.21086">
        <ele>9</ele>
        <time>2017-04-04T16:31:12Z</time>
      </trkpt>
      <trkpt lat="49.29563" lon="1.21083">
        <ele>9</ele>
        <time>2017-04-04T16:31:12Z</time>
      </trkpt>
      <trkpt lat="49.29565" lon="1.21077">
        <ele>9</ele>
        <time>2017-04-04T16:31:28Z</time>
      </trkpt>
      <trkpt lat="49.29568" lon="1.21072">
        <ele>9</ele>
        <time>2017-04-04T16:31:28Z</time>
      </trkpt>
      <trkpt lat="49.2957" lon="1.2107">
        <ele>9</ele>
        <time>2017-04-04T16:31:28Z</time>
      </trkpt>
      <trkpt lat="49.29575" lon="1.2106">
        <ele>9</ele>
        <time>2017-04-04T16:31:28Z</time>
      </trkpt>
      <trkpt lat="49.29578" lon="1.21054">
        <ele>9</ele>
        <time>2017-04-04T16:31:43Z</time>
      </trkpt>
      <trkpt lat="49.29581" lon="1.2105">
        <ele>9</ele>
        <time>2017-04-04T16:31:43Z</time>
      </trkpt>
      <trkpt lat="49.29589" lon="1.21046">
        <ele>9</ele>
        <time>2017-04-04T16:31:43Z</time>
      </trkpt>
      <trkpt lat="49.29592" lon="1.2104">
        <ele>8</ele>
        <time>2017-04-04T16:31:43Z</time>
      </trkpt>
      <trkpt lat="49.29596" lon="1.21035">
        <ele>8</ele>
        <time>2017-04-04T16:31:59Z</time>
      </trkpt>
      <trkpt lat="49.296" lon="1.21033">
        <ele>8</ele>
        <time>2017-04-04T16:31:59Z</time>
      </trkpt>
      <trkpt lat="49.29606" lon="1.21026">
        <ele>8</ele>
        <time>2017-04-04T16:31:59Z</time>
      </trkpt>
      <trkpt lat="49.2961" lon="1.2102">
        <ele>8</ele>
        <time>2017-04-04T16:31:59Z</time>
      </trkpt>
      <trkpt lat="49.29613" lon="1.21016">
        <ele>8</ele>
        <time>2017-04-04T16:32:15Z</time>
      </trkpt>
      <trkpt lat="49.29617" lon="1.21012">
        <ele>8</ele>
        <time>2017-04-04T16:32:15Z</time>
      </trkpt>
      <trkpt lat="49.29621" lon="1.21009">
        <ele>8</ele>
        <time>2017-04-04T16:32:15Z</time>
      </trkpt>
      <trkpt lat="49.29626" lon="1.21008">
        <ele>7</ele>
        <time>2017-04-04T16:32:15Z</time>
      </trkpt>
      <trkpt lat="49.29631" lon="1.21005">
        <ele>7</ele>
        <time>2017-04-04T16:32:31Z</time>
      </trkpt>
      <trkpt lat="49.29637" lon="1.21002">
        <ele>7</ele>
        <time>2017-04-04T16:32:31Z</time>
      </trkpt>
      <trkpt lat="49.29642" lon="1.21002">
        <ele>7</ele>
        <time>2017-04-04T16:32:31Z</time>
      </trkpt>
      <trkpt lat="49.29645" lon="1.21003">
        <ele>7</ele>
        <time>2017-04-04T16:32:31Z</time>
      </trkpt>
      <trkpt lat="49.2965" lon="1.21005">
        <ele>7</ele>
        <time>2017-04-04T16:32:47Z</time>
      </trkpt>
      <trkpt lat="49.29654" lon="1.21008">
        <ele>7</ele>
        <time>2017-04-04T16:32:47Z</time>
      </trkpt>
      <trkpt lat="49.29658" lon="1.2101">
        <ele>7</ele>
        <time>2017-04-04T16:32:47Z</time>
      </trkpt>
      <trkpt lat="49.29661" lon="1.21011">
        <ele>7</ele>
        <time>2017-04-04T16:32:47Z</time>
      </trkpt>
      <trkpt lat="49.29664" lon="1.21013">
        <ele>7</ele>
        <time>2017-04-04T16:33:04Z</time>
      </trkpt>
      <trkpt lat="49.2967" lon="1.21018">
        <ele>7</ele>
        <time>2017-04-04T16:33:04Z</time>
      </trkpt>
      <trkpt lat="49.29672" lon="1.21024">
        <ele>7</ele>
        <time>2017-04-04T16:33:04Z</time>
      </trkpt>
      <trkpt lat="49.29676" lon="1.21031">
        <ele>7</ele>
        <time>2017-04-04T16:33:04Z</time>
      </trkpt>
      <trkpt lat="49.29681" lon="1.21031">
        <ele>7</ele>
        <time>2017-04-04T16:33:20Z</time>
      </trkpt>
      <trkpt lat="49.29685" lon="1.21033">
        <ele>7</ele>
        <time>2017-04-04T16:33:20Z</time>
      </trkpt>
      <trkpt lat="49.29689" lon="1.21035">
        <ele>7</ele>
        <time>2017-04-04T16:33:20Z</time>
      </trkpt>
      <trkpt lat="49.29694" lon="1.2104">
        <ele>7</ele>
        <time>2017-04-04T16:33:20Z</time>
      </trkpt>
      <trkpt lat="49.29698" lon="1.21044">
        <ele>7</ele>
        <time>2017-04-04T16:33:36Z</time>
      </trkpt>
      <trkpt lat="49.29701" lon="1.21046">
        <ele>7</ele>
        <time>2017-04-04T16:33:36Z</time>
      </trkpt>
      <trkpt lat="49.29703" lon="1.21048">
        <ele>7</ele>
        <time>2017-04-04T16:33:36Z</time>
      </trkpt>
      <trkpt lat="49.29708" lon="1.21051">
        <ele>7</ele>
        <time>2017-04-04T16:33:36Z</time>
      </trkpt>
      <trkpt lat="49.29712" lon="1.21053">
        <ele>6</ele>
        <time>2017-04-04T16:33:52Z</time>
      </trkpt>
      <trkpt lat="49.29718" lon="1.21055">
        <ele>6</ele>
        <time>2017-04-04T16:33:52Z</time>
      </trkpt>
      <trkpt lat="49.29722" lon="1.21054">
        <ele>6</ele>
        <time>2017-04-04T16:33:52Z</time>
      </trkpt>
      <trkpt lat="49.29728" lon="1.21055">
        <ele>6</ele>
        <time>2017-04-04T16:33:52Z</time>
      </trkpt>
      <trkpt lat="49.29732" lon="1.21056">
        <ele>6</ele>
        <time>2017-04-04T16:34:07Z</time>
      </trkpt>
      <trkpt lat="49.29736" lon="1.21055">
        <ele>6</ele>
        <time>2017-04-04T16:34:07Z</time>
      </trkpt>
      <trkpt lat="49.2974" lon="1.21052">
        <ele>6</ele>
        <time>2017-04-04T16:34:07Z</time>
      </trkpt>
      <trkpt lat="49.29745" lon="1.21051">
        <ele>6</ele>
        <time>2017-04-04T16:34:07Z</time>
      </trkpt>
      <trkpt lat="49.29751" lon="1.21049">
        <ele>6</ele>
        <time>2017-04-04T16:34:23Z</time>
      </trkpt>
      <trkpt lat="49.29755" lon="1.21049">
        <ele>6</ele>
        <time>2017-04-04T16:34:23Z</time>
      </trkpt>
      <trkpt lat="49.29759" lon="1.21048">
        <ele>6</ele>
        <time>2017-04-04T16:34:23Z</time>
      </trkpt>
      <trkpt lat="49.29762" lon="1.21047">
        <ele>6</ele>
        <time>2017-04-04T16:34:23Z</time>
      </trkpt>
      <trkpt lat="49.29767" lon="1.21045">
        <ele>6</ele>
        <time>2017-04-04T16:34:40Z</time>
      </trkpt>
      <trkpt lat="49.29771" lon="1.21043">
        <ele>6</ele>
        <time>2017-04-04T16:34:40Z</time>
      </trkpt>
      <trkpt lat="49.29776" lon="1.21039">
        <ele>6</ele>
        <time>2017-04-04T16:34:40Z</time>
      </trkpt>
      <trkpt lat="49.29781" lon="1.21036">
        <ele>6</ele>
        <time>2017-04-04T16:34:40Z</time>
      </trkpt>
      <trkpt lat="49.29785" lon="1.21035">
        <ele>6</ele>
        <time>2017-04-04T16:34:56Z</time>
      </trkpt>
      <trkpt lat="49.2979" lon="1.21033">
        <ele>6</ele>
        <time>2017-04-04T16:34:56Z</time>
      </trkpt>
      <trkpt lat="49.29795" lon="1.2103">
        <ele>6</ele>
        <time>2017-04-04T16:34:56Z</time>
      </trkpt>
      <trkpt lat="49.29801" lon="1.21026">
        <ele>6</ele>
        <time>2017-04-04T16:34:56Z</time>
      </trkpt>
      <trkpt lat="49.29805" lon="1.21023">
        <ele>6</ele>
        <time>2017-04-04T16:35:16Z</time>
      </trkpt>
      <trkpt lat="49.29806" lon="1.21022">
        <ele>6</ele>
        <time>2017-04-04T16:35:16Z</time>
      </trkpt>
      <trkpt lat="49.29819" lon="1.21012">
        <ele>6</ele>
        <time>2017-04-04T16:35:16Z</time>
      </trkpt>
      <trkpt lat="49.29823" lon="1.21007">
        <ele>6</ele>
        <time>2017-04-04T16:35:16Z</time>
      </trkpt>
      <trkpt lat="49.29825" lon="1.21001">
        <ele>6</ele>
        <time>2017-04-04T16:35:31Z</time>
      </trkpt>
      <trkpt lat="49.2983" lon="1.20997">
        <ele>6</ele>
        <time>2017-04-04T16:35:31Z</time>
      </trkpt>
      <trkpt lat="49.29833" lon="1.20995">
        <ele>6</ele>
        <time>2017-04-04T16:35:31Z</time>
      </trkpt>
      <trkpt lat="49.29836" lon="1.20993">
        <ele>6</ele>
        <time>2017-04-04T16:35:31Z</time>
      </trkpt>
      <trkpt lat="49.29842" lon="1.20991">
        <ele>6</ele>
        <time>2017-04-04T16:35:48Z</time>
      </trkpt>
      <trkpt lat="49.29848" lon="1.2099">
        <ele>6</ele>
        <time>2017-04-04T16:35:48Z</time>
      </trkpt>
      <trkpt lat="49.29851" lon="1.2099">
        <ele>6</ele>
        <time>2017-04-04T16:35:48Z</time>
      </trkpt>
      <trkpt lat="49.29857" lon="1.20988">
        <ele>6</ele>
        <time>2017-04-04T16:35:48Z</time>
      </trkpt>
      <trkpt lat="49.29862" lon="1.20984">
        <ele>6</ele>
        <time>2017-04-04T16:36:03Z</time>
      </trkpt>
      <trkpt lat="49.29868" lon="1.20982">
        <ele>6</ele>
        <time>2017-04-04T16:36:03Z</time>
      </trkpt>
      <trkpt lat="49.29872" lon="1.20977">
        <ele>6</ele>
        <time>2017-04-04T16:36:03Z</time>
      </trkpt>
      <trkpt lat="49.29877" lon="1.20974">
        <ele>4</ele>
        <time>2017-04-04T16:36:03Z</time>
      </trkpt>
      <trkpt lat="49.29879" lon="1.20971">
        <ele>4</ele>
        <time>2017-04-04T16:36:19Z</time>
      </trkpt>
      <trkpt lat="49.29883" lon="1.20968">
        <ele>4</ele>
        <time>2017-04-04T16:36:19Z</time>
      </trkpt>
      <trkpt lat="49.29888" lon="1.20964">
        <ele>4</ele>
        <time>2017-04-04T16:36:19Z</time>
      </trkpt>
      <trkpt lat="49.29892" lon="1.20961">
        <ele>4</ele>
        <time>2017-04-04T16:36:19Z</time>
      </trkpt>
      <trkpt lat="49.29896" lon="1.20956">
        <ele>7</ele>
        <time>2017-04-04T16:36:35Z</time>
      </trkpt>
      <trkpt lat="49.29902" lon="1.20953">
        <ele>7</ele>
        <time>2017-04-04T16:36:35Z</time>
      </trkpt>
      <trkpt lat="49.29908" lon="1.20951">
        <ele>7</ele>
        <time>2017-04-04T16:36:35Z</time>
      </trkpt>
      <trkpt lat="49.29912" lon="1.2095">
        <ele>7</ele>
        <time>2017-04-04T16:36:35Z</time>
      </trkpt>
      <trkpt lat="49.29917" lon="1.20945">
        <ele>7</ele>
        <time>2017-04-04T16:36:52Z</time>
      </trkpt>
      <trkpt lat="49.29921" lon="1.20943">
        <ele>7</ele>
        <time>2017-04-04T16:36:52Z</time>
      </trkpt>
      <trkpt lat="49.29926" lon="1.20939">
        <ele>7</ele>
        <time>2017-04-04T16:36:52Z</time>
      </trkpt>
      <trkpt lat="49.29931" lon="1.20934">
        <ele>7</ele>
        <time>2017-04-04T16:36:52Z</time>
      </trkpt>
      <trkpt lat="49.29935" lon="1.20929">
        <ele>7</ele>
        <time>2017-04-04T16:37:07Z</time>
      </trkpt>
      <trkpt lat="49.29939" lon="1.20928">
        <ele>7</ele>
        <time>2017-04-04T16:37:07Z</time>
      </trkpt>
      <trkpt lat="49.29945" lon="1.20925">
        <ele>7</ele>
        <time>2017-04-04T16:37:07Z</time>
      </trkpt>
      <trkpt lat="49.29948" lon="1.20923">
        <ele>7</ele>
        <time>2017-04-04T16:37:07Z</time>
      </trkpt>
      <trkpt lat="49.29955" lon="1.2092">
        <ele>7</ele>
        <time>2017-04-04T16:37:24Z</time>
      </trkpt>
      <trkpt lat="49.29959" lon="1.20919">
        <ele>8</ele>
        <time>2017-04-04T16:37:24Z</time>
      </trkpt>
      <trkpt lat="49.29964" lon="1.20918">
        <ele>8</ele>
        <time>2017-04-04T16:37:24Z</time>
      </trkpt>
      <trkpt lat="49.29968" lon="1.20914">
        <ele>8</ele>
        <time>2017-04-04T16:37:24Z</time>
      </trkpt>
      <trkpt lat="49.29972" lon="1.20911">
        <ele>8</ele>
        <time>2017-04-04T16:37:39Z</time>
      </trkpt>
      <trkpt lat="49.29977" lon="1.20909">
        <ele>8</ele>
        <time>2017-04-04T16:37:39Z</time>
      </trkpt>
      <trkpt lat="49.29982" lon="1.20909">
        <ele>8</ele>
        <time>2017-04-04T16:37:39Z</time>
      </trkpt>
      <trkpt lat="49.29987" lon="1.20907">
        <ele>8</ele>
        <time>2017-04-04T16:37:39Z</time>
      </trkpt>
      <trkpt lat="49.29994" lon="1.20906">
        <ele>8</ele>
        <time>2017-04-04T16:37:55Z</time>
      </trkpt>
      <trkpt lat="49.29998" lon="1.20904">
        <ele>8</ele>
        <time>2017-04-04T16:37:55Z</time>
      </trkpt>
      <trkpt lat="49.30001" lon="1.20901">
        <ele>8</ele>
        <time>2017-04-04T16:37:55Z</time>
      </trkpt>
      <trkpt lat="49.30006" lon="1.209">
        <ele>8</ele>
        <time>2017-04-04T16:37:55Z</time>
      </trkpt>
      <trkpt lat="49.30011" lon="1.20899">
        <ele>8</ele>
        <time>2017-04-04T16:38:11Z</time>
      </trkpt>
      <trkpt lat="49.30016" lon="1.20899">
        <ele>8</ele>
        <time>2017-04-04T16:38:11Z</time>
      </trkpt>
      <trkpt lat="49.30021" lon="1.20897">
        <ele>8</ele>
        <time>2017-04-04T16:38:11Z</time>
      </trkpt>
      <trkpt lat="49.30026" lon="1.20895">
        <ele>8</ele>
        <time>2017-04-04T16:38:11Z</time>
      </trkpt>
      <trkpt lat="49.30033" lon="1.20891">
        <ele>8</ele>
        <time>2017-04-04T16:38:28Z</time>
      </trkpt>
      <trkpt lat="49.30037" lon="1.20889">
        <ele>8</ele>
        <time>2017-04-04T16:38:28Z</time>
      </trkpt>
      <trkpt lat="49.30042" lon="1.20886">
        <ele>8</ele>
        <time>2017-04-04T16:38:28Z</time>
      </trkpt>
      <trkpt lat="49.30046" lon="1.20887">
        <ele>5</ele>
        <time>2017-04-04T16:38:28Z</time>
      </trkpt>
      <trkpt lat="49.30049" lon="1.20887">
        <ele>5</ele>
        <time>2017-04-04T16:38:44Z</time>
      </trkpt>
      <trkpt lat="49.30055" lon="1.20886">
        <ele>5</ele>
        <time>2017-04-04T16:38:44Z</time>
      </trkpt>
      <trkpt lat="49.30059" lon="1.20885">
        <ele>5</ele>
        <time>2017-04-04T16:38:44Z</time>
      </trkpt>
      <trkpt lat="49.30067" lon="1.20884">
        <ele>5</ele>
        <time>2017-04-04T16:38:44Z</time>
      </trkpt>
      <trkpt lat="49.30072" lon="1.20885">
        <ele>5</ele>
        <time>2017-04-04T16:38:59Z</time>
      </trkpt>
      <trkpt lat="49.30075" lon="1.20885">
        <ele>5</ele>
        <time>2017-04-04T16:38:59Z</time>
      </trkpt>
      <trkpt lat="49.30081" lon="1.20884">
        <ele>5</ele>
        <time>2017-04-04T16:38:59Z</time>
      </trkpt>
      <trkpt lat="49.30085" lon="1.20883">
        <ele>5</ele>
        <time>2017-04-04T16:38:59Z</time>
      </trkpt>
      <trkpt lat="49.30089" lon="1.20881">
        <ele>5</ele>
        <time>2017-04-04T16:39:15Z</time>
      </trkpt>
      <trkpt lat="49.30093" lon="1.20875">
        <ele>5</ele>
        <time>2017-04-04T16:39:15Z</time>
      </trkpt>
      <trkpt lat="49.30097" lon="1.20869">
        <ele>5</ele>
        <time>2017-04-04T16:39:15Z</time>
      </trkpt>
      <trkpt lat="49.301" lon="1.20864">
        <ele>5</ele>
        <time>2017-04-04T16:39:15Z</time>
      </trkpt>
      <trkpt lat="49.30104" lon="1.20859">
        <ele>5</ele>
        <time>2017-04-04T16:39:31Z</time>
      </trkpt>
      <trkpt lat="49.30106" lon="1.20852">
        <ele>5</ele>
        <time>2017-04-04T16:39:31Z</time>
      </trkpt>
      <trkpt lat="49.30108" lon="1.20847">
        <ele>5</ele>
        <time>2017-04-04T16:39:31Z</time>
      </trkpt>
      <trkpt lat="49.30111" lon="1.20843">
        <ele>5</ele>
        <time>2017-04-04T16:39:31Z</time>
      </trkpt>
      <trkpt lat="49.30114" lon="1.20838">
        <ele>5</ele>
        <time>2017-04-04T16:39:47Z</time>
      </trkpt>
      <trkpt lat="49.30117" lon="1.20832">
        <ele>5</ele>
        <time>2017-04-04T16:39:47Z</time>
      </trkpt>
      <trkpt lat="49.3012" lon="1.20827">
        <ele>5</ele>
        <time>2017-04-04T16:39:47Z</time>
      </trkpt>
      <trkpt lat="49.30124" lon="1.2082">
        <ele>5</ele>
        <time>2017-04-04T16:39:47Z</time>
      </trkpt>
      <trkpt lat="49.30127" lon="1.20816">
        <ele>6</ele>
        <time>2017-04-04T16:40:03Z</time>
      </trkpt>
      <trkpt lat="49.3013" lon="1.2081">
        <ele>6</ele>
        <time>2017-04-04T16:40:03Z</time>
      </trkpt>
      <trkpt lat="49.30133" lon="1.20803">
        <ele>6</ele>
        <time>2017-04-04T16:40:03Z</time>
      </trkpt>
      <trkpt lat="49.30135" lon="1.20801">
        <ele>6</ele>
        <time>2017-04-04T16:40:03Z</time>
      </trkpt>
      <trkpt lat="49.30139" lon="1.20799">
        <ele>6</ele>
        <time>2017-04-04T16:40:19Z</time>
      </trkpt>
      <trkpt lat="49.30142" lon="1.20796">
        <ele>6</ele>
        <time>2017-04-04T16:40:19Z</time>
      </trkpt>
      <trkpt lat="49.30148" lon="1.20794">
        <ele>6</ele>
        <time>2017-04-04T16:40:19Z</time>
      </trkpt>
      <trkpt lat="49.30151" lon="1.20793">
        <ele>6</ele>
        <time>2017-04-04T16:40:19Z</time>
      </trkpt>
      <trkpt lat="49.30156" lon="1.2079">
        <ele>6</ele>
        <time>2017-04-04T16:40:35Z</time>
      </trkpt>
      <trkpt lat="49.30161" lon="1.20792">
        <ele>6</ele>
        <time>2017-04-04T16:40:35Z</time>
      </trkpt>
      <trkpt lat="49.30166" lon="1.20794">
        <ele>6</ele>
        <time>2017-04-04T16:40:35Z</time>
      </trkpt>
      <trkpt lat="49.30169" lon="1.20794">
        <ele>6</ele>
        <time>2017-04-04T16:40:35Z</time>
      </trkpt>
      <trkpt lat="49.30173" lon="1.20794">
        <ele>6</ele>
        <time>2017-04-04T16:40:52Z</time>
      </trkpt>
      <trkpt lat="49.30178" lon="1.20797">
        <ele>6</ele>
        <time>2017-04-04T16:40:52Z</time>
      </trkpt>
      <trkpt lat="49.3018" lon="1.20802">
        <ele>6</ele>
        <time>2017-04-04T16:40:52Z</time>
      </trkpt>
      <trkpt lat="49.3018" lon="1.20808">
        <ele>6</ele>
        <time>2017-04-04T16:40:52Z</time>
      </trkpt>
      <trkpt lat="49.30182" lon="1.20814">
        <ele>6</ele>
        <time>2017-04-04T16:41:07Z</time>
      </trkpt>
      <trkpt lat="49.30183" lon="1.20819">
        <ele>6</ele>
        <time>2017-04-04T16:41:07Z</time>
      </trkpt>
      <trkpt lat="49.30187" lon="1.20828">
        <ele>6</ele>
        <time>2017-04-04T16:41:07Z</time>
      </trkpt>
      <trkpt lat="49.30191" lon="1.20833">
        <ele>6</ele>
        <time>2017-04-04T16:41:07Z</time>
      </trkpt>
      <trkpt lat="49.30195" lon="1.20836">
        <ele>6</ele>
        <time>2017-04-04T16:41:24Z</time>
      </trkpt>
      <trkpt lat="49.302" lon="1.20841">
        <ele>6</ele>
        <time>2017-04-04T16:41:24Z</time>
      </trkpt>
      <trkpt lat="49.30206" lon="1.20845">
        <ele>6</ele>
        <time>2017-04-04T16:41:24Z</time>
      </trkpt>
      <trkpt lat="49.30212" lon="1.2085">
        <ele>7</ele>
        <time>2017-04-04T16:41:24Z</time>
      </trkpt>
      <trkpt lat="49.30216" lon="1.20854">
        <ele>7</ele>
        <time>2017-04-04T16:41:40Z</time>
      </trkpt>
      <trkpt lat="49.30219" lon="1.20862">
        <ele>7</ele>
        <time>2017-04-04T16:41:40Z</time>
      </trkpt>
      <trkpt lat="49.30218" lon="1.20869">
        <ele>7</ele>
        <time>2017-04-04T16:41:40Z</time>
      </trkpt>
      <trkpt lat="49.30215" lon="1.20874">
        <ele>7</ele>
        <time>2017-04-04T16:41:40Z</time>
      </trkpt>
      <trkpt lat="49.30214" lon="1.20881">
        <ele>4</ele>
        <time>2017-04-04T16:41:55Z</time>
      </trkpt>
      <trkpt lat="49.30216" lon="1.20889">
        <ele>4</ele>
        <time>2017-04-04T16:41:55Z</time>
      </trkpt>
      <trkpt lat="49.30218" lon="1.20894">
        <ele>4</ele>
        <time>2017-04-04T16:41:55Z</time>
      </trkpt>
      <trkpt lat="49.30221" lon="1.20899">
        <ele>4</ele>
        <time>2017-04-04T16:41:55Z</time>
      </trkpt>
      <trkpt lat="49.30228" lon="1.20898">
        <ele>4</ele>
        <time>2017-04-04T16:42:12Z</time>
      </trkpt>
      <trkpt lat="49.30232" lon="1.20898">
        <ele>4</ele>
        <time>2017-04-04T16:42:12Z</time>
      </trkpt>
      <trkpt lat="49.30238" lon="1.20902">
        <ele>4</ele>
        <time>2017-04-04T16:42:12Z</time>
      </trkpt>
      <trkpt lat="49.30241" lon="1.20908">
        <ele>4</ele>
        <time>2017-04-04T16:42:12Z</time>
      </trkpt>
      <trkpt lat="49.30244" lon="1.20912">
        <ele>4</ele>
        <time>2017-04-04T16:42:27Z</time>
      </trkpt>
      <trkpt lat="49.30247" lon="1.2092">
        <ele>4</ele>
        <time>2017-04-04T16:42:27Z</time>
      </trkpt>
      <trkpt lat="49.30249" lon="1.20926">
        <ele>4</ele>
        <time>2017-04-04T16:42:27Z</time>
      </trkpt>
      <trkpt lat="49.30251" lon="1.20933">
        <ele>4</ele>
        <time>2017-04-04T16:42:27Z</time>
      </trkpt>
      <trkpt lat="49.30252" lon="1.20941">
        <ele>4</ele>
        <time>2017-04-04T16:42:43Z</time>
      </trkpt>
      <trkpt lat="49.30254" lon="1.20952">
        <ele>4</ele>
        <time>2017-04-04T16:42:43Z</time>
      </trkpt>
      <trkpt lat="49.30257" lon="1.20962">
        <ele>4</ele>
        <time>2017-04-04T16:42:44Z</time>
      </trkpt>
      <trkpt lat="49.3026" lon="1.20969">
        <ele>4</ele>
        <time>2017-04-04T16:42:44Z</time>
      </trkpt>
      <trkpt lat="49.30261" lon="1.20974">
        <ele>4</ele>
        <time>2017-04-04T16:43:00Z</time>
      </trkpt>
      <trkpt lat="49.30263" lon="1.20978">
        <ele>4</ele>
        <time>2017-04-04T16:43:00Z</time>
      </trkpt>
      <trkpt lat="49.30262" lon="1.20984">
        <ele>4</ele>
        <time>2017-04-04T16:43:00Z</time>
      </trkpt>
      <trkpt lat="49.30262" lon="1.20992">
        <ele>4</ele>
        <time>2017-04-04T16:43:00Z</time>
      </trkpt>
      <trkpt lat="49.30261" lon="1.20997">
        <ele>4</ele>
        <time>2017-04-04T16:43:15Z</time>
      </trkpt>
      <trkpt lat="49.30261" lon="1.21005">
        <ele>4</ele>
        <time>2017-04-04T16:43:15Z</time>
      </trkpt>
      <trkpt lat="49.30261" lon="1.21012">
        <ele>4</ele>
        <time>2017-04-04T16:43:15Z</time>
      </trkpt>
      <trkpt lat="49.30262" lon="1.21022">
        <ele>4</ele>
        <time>2017-04-04T16:43:15Z</time>
      </trkpt>
      <trkpt lat="49.30261" lon="1.2103">
        <ele>4</ele>
        <time>2017-04-04T16:43:31Z</time>
      </trkpt>
      <trkpt lat="49.3026" lon="1.21033">
        <ele>4</ele>
        <time>2017-04-04T16:43:31Z</time>
      </trkpt>
      <trkpt lat="49.30257" lon="1.21044">
        <ele>6</ele>
        <time>2017-04-04T16:43:31Z</time>
      </trkpt>
      <trkpt lat="49.30254" lon="1.21053">
        <ele>6</ele>
        <time>2017-04-04T16:43:31Z</time>
      </trkpt>
      <trkpt lat="49.30253" lon="1.2106">
        <ele>6</ele>
        <time>2017-04-04T16:43:48Z</time>
      </trkpt>
      <trkpt lat="49.30251" lon="1.21065">
        <ele>6</ele>
        <time>2017-04-04T16:43:48Z</time>
      </trkpt>
      <trkpt lat="49.30246" lon="1.21074">
        <ele>6</ele>
        <time>2017-04-04T16:43:48Z</time>
      </trkpt>
      <trkpt lat="49.30244" lon="1.2108">
        <ele>6</ele>
        <time>2017-04-04T16:43:48Z</time>
      </trkpt>
      <trkpt lat="49.30241" lon="1.21085">
        <ele>6</ele>
        <time>2017-04-04T16:44:03Z</time>
      </trkpt>
      <trkpt lat="49.30238" lon="1.21091">
        <ele>6</ele>
        <time>2017-04-04T16:44:03Z</time>
      </trkpt>
      <trkpt lat="49.30235" lon="1.21096">
        <ele>6</ele>
        <time>2017-04-04T16:44:03Z</time>
      </trkpt>
      <trkpt lat="49.30232" lon="1.21101">
        <ele>6</ele>
        <time>2017-04-04T16:44:03Z</time>
      </trkpt>
      <trkpt lat="49.30227" lon="1.21109">
        <ele>6</ele>
        <time>2017-04-04T16:44:20Z</time>
      </trkpt>
      <trkpt lat="49.30224" lon="1.21113">
        <ele>6</ele>
        <time>2017-04-04T16:44:20Z</time>
      </trkpt>
      <trkpt lat="49.3022" lon="1.21119">
        <ele>6</ele>
        <time>2017-04-04T16:44:20Z</time>
      </trkpt>
      <trkpt lat="49.30217" lon="1.21124">
        <ele>6</ele>
        <time>2017-04-04T16:44:20Z</time>
      </trkpt>
      <trkpt lat="49.30212" lon="1.21127">
        <ele>8</ele>
        <time>2017-04-04T16:44:35Z</time>
      </trkpt>
      <trkpt lat="49.30208" lon="1.21124">
        <ele>4</ele>
        <time>2017-04-04T16:44:35Z</time>
      </trkpt>
      <trkpt lat="49.30204" lon="1.21121">
        <ele>4</ele>
        <time>2017-04-04T16:44:35Z</time>
      </trkpt>
      <trkpt lat="49.30198" lon="1.21123">
        <ele>4</ele>
        <time>2017-04-04T16:44:35Z</time>
      </trkpt>
      <trkpt lat="49.30195" lon="1.21125">
        <ele>4</ele>
        <time>2017-04-04T16:44:51Z</time>
      </trkpt>
      <trkpt lat="49.3019" lon="1.21131">
        <ele>5</ele>
        <time>2017-04-04T16:44:51Z</time>
      </trkpt>
      <trkpt lat="49.30188" lon="1.21135">
        <ele>5</ele>
        <time>2017-04-04T16:44:51Z</time>
      </trkpt>
      <trkpt lat="49.30187" lon="1.21139">
        <ele>5</ele>
        <time>2017-04-04T16:44:51Z</time>
      </trkpt>
      <trkpt lat="49.30183" lon="1.21148">
        <ele>5</ele>
        <time>2017-04-04T16:45:07Z</time>
      </trkpt>
      <trkpt lat="49.30181" lon="1.21155">
        <ele>5</ele>
        <time>2017-04-04T16:45:07Z</time>
      </trkpt>
      <trkpt lat="49.3018" lon="1.2116">
        <ele>5</ele>
        <time>2017-04-04T16:45:07Z</time>
      </trkpt>
      <trkpt lat="49.30179" lon="1.21168">
        <ele>5</ele>
        <time>2017-04-04T16:45:07Z</time>
      </trkpt>
      <trkpt lat="49.30177" lon="1.21178">
        <ele>5</ele>
        <time>2017-04-04T16:45:23Z</time>
      </trkpt>
      <trkpt lat="49.30176" lon="1.21179">
        <ele>5</ele>
        <time>2017-04-04T16:45:23Z</time>
      </trkpt>
      <trkpt lat="49.30172" lon="1.21186">
        <ele>5</ele>
        <time>2017-04-04T16:45:23Z</time>
      </trkpt>
      <trkpt lat="49.3017" lon="1.21193">
        <ele>5</ele>
        <time>2017-04-04T16:45:23Z</time>
      </trkpt>
      <trkpt lat="49.30167" lon="1.21198">
        <ele>5</ele>
        <time>2017-04-04T16:45:39Z</time>
      </trkpt>
      <trkpt lat="49.30162" lon="1.21203">
        <ele>5</ele>
        <time>2017-04-04T16:45:39Z</time>
      </trkpt>
      <trkpt lat="49.30158" lon="1.21205">
        <ele>5</ele>
        <time>2017-04-04T16:45:39Z</time>
      </trkpt>
      <trkpt lat="49.30154" lon="1.21209">
        <ele>9</ele>
        <time>2017-04-04T16:45:39Z</time>
      </trkpt>
      <trkpt lat="49.3015" lon="1.21217">
        <ele>9</ele>
        <time>2017-04-04T16:45:56Z</time>
      </trkpt>
      <trkpt lat="49.30146" lon="1.21221">
        <ele>9</ele>
        <time>2017-04-04T16:45:56Z</time>
      </trkpt>
      <trkpt lat="49.30142" lon="1.21225">
        <ele>9</ele>
        <time>2017-04-04T16:45:56Z</time>
      </trkpt>
      <trkpt lat="49.30136" lon="1.21232">
        <ele>9</ele>
        <time>2017-04-04T16:45:56Z</time>
      </trkpt>
      <trkpt lat="49.30133" lon="1.21236">
        <ele>9</ele>
        <time>2017-04-04T16:46:11Z</time>
      </trkpt>
      <trkpt lat="49.30131" lon="1.2124">
        <ele>9</ele>
        <time>2017-04-04T16:46:11Z</time>
      </trkpt>
      <trkpt lat="49.30129" lon="1.21243">
        <ele>9</ele>
        <time>2017-04-04T16:46:11Z</time>
      </trkpt>
      <trkpt lat="49.30128" lon="1.21249">
        <ele>9</ele>
        <time>2017-04-04T16:46:11Z</time>
      </trkpt>
      <trkpt lat="49.30125" lon="1.21254">
        <ele>8</ele>
        <time>2017-04-04T16:46:27Z</time>
      </trkpt>
      <trkpt lat="49.30122" lon="1.21261">
        <ele>8</ele>
        <time>2017-04-04T16:46:27Z</time>
      </trkpt>
      <trkpt lat="49.30118" lon="1.21266">
        <ele>8</ele>
        <time>2017-04-04T16:46:27Z</time>
      </trkpt>
      <trkpt lat="49.30114" lon="1.21269">
        <ele>8</ele>
        <time>2017-04-04T16:46:27Z</time>
      </trkpt>
      <trkpt lat="49.3011" lon="1.21275">
        <ele>8</ele>
        <time>2017-04-04T16:46:43Z</time>
      </trkpt>
      <trkpt lat="49.30108" lon="1.21276">
        <ele>8</ele>
        <time>2017-04-04T16:46:43Z</time>
      </trkpt>
      <trkpt lat="49.30102" lon="1.21281">
        <ele>8</ele>
        <time>2017-04-04T16:46:43Z</time>
      </trkpt>
      <trkpt lat="49.30098" lon="1.21284">
        <ele>8</ele>
        <time>2017-04-04T16:46:43Z</time>
      </trkpt>
      <trkpt lat="49.30093" lon="1.21289">
        <ele>8</ele>
        <time>2017-04-04T16:46:59Z</time>
      </trkpt>
      <trkpt lat="49.3009" lon="1.21292">
        <ele>8</ele>
        <time>2017-04-04T16:46:59Z</time>
      </trkpt>
      <trkpt lat="49.30083" lon="1.21296">
        <ele>8</ele>
        <time>2017-04-04T16:46:59Z</time>
      </trkpt>
      <trkpt lat="49.30079" lon="1.21299">
        <ele>8</ele>
        <time>2017-04-04T16:46:59Z</time>
      </trkpt>
      <trkpt lat="49.30076" lon="1.21299">
        <ele>8</ele>
        <time>2017-04-04T16:48:08Z</time>
      </trkpt>
      <trkpt lat="49.30076" lon="1.213">
        <ele>8</ele>
        <time>2017-04-04T16:48:08Z</time>
      </trkpt>
      <trkpt lat="49.30074" lon="1.21303">
        <ele>8</ele>
        <time>2017-04-04T16:48:08Z</time>
      </trkpt>
      <trkpt lat="49.3007" lon="1.21306">
        <ele>8</ele>
        <time>2017-04-04T16:48:08Z</time>
      </trkpt>
      <trkpt lat="49.30066" lon="1.2131">
        <ele>8</ele>
        <time>2017-04-04T16:48:08Z</time>
      </trkpt>
      <trkpt lat="49.30063" lon="1.21315">
        <ele>8</ele>
        <time>2017-04-04T16:48:27Z</time>
      </trkpt>
      <trkpt lat="49.3006" lon="1.21317">
        <ele>8</ele>
        <time>2017-04-04T16:48:28Z</time>
      </trkpt>
      <trkpt lat="49.30059" lon="1.21321">
        <ele>8</ele>
        <time>2017-04-04T16:48:28Z</time>
      </trkpt>
      <trkpt lat="49.30057" lon="1.21324">
        <ele>8</ele>
        <time>2017-04-04T16:48:28Z</time>
      </trkpt>
      <trkpt lat="49.30052" lon="1.21328">
        <ele>8</ele>
        <time>2017-04-04T16:48:28Z</time>
      </trkpt>
      <trkpt lat="49.30051" lon="1.21328">
        <ele>8</ele>
        <time>2017-04-04T16:48:43Z</time>
      </trkpt>
      <trkpt lat="49.30046" lon="1.21331">
        <ele>8</ele>
        <time>2017-04-04T16:48:43Z</time>
      </trkpt>
      <trkpt lat="49.30043" lon="1.21332">
        <ele>8</ele>
        <time>2017-04-04T16:48:43Z</time>
      </trkpt>
      <trkpt lat="49.30041" lon="1.21331">
        <ele>7</ele>
        <time>2017-04-04T16:48:43Z</time>
      </trkpt>
      <trkpt lat="49.30037" lon="1.21335">
        <ele>7</ele>
        <time>2017-04-04T16:49:08Z</time>
      </trkpt>
      <trkpt lat="49.30035" lon="1.21338">
        <ele>7</ele>
        <time>2017-04-04T16:49:08Z</time>
      </trkpt>
      <trkpt lat="49.30032" lon="1.21341">
        <ele>7</ele>
        <time>2017-04-04T16:49:08Z</time>
      </trkpt>
      <trkpt lat="49.30029" lon="1.21341">
        <ele>7</ele>
        <time>2017-04-04T16:49:08Z</time>
      </trkpt>
      <trkpt lat="49.30022" lon="1.21347">
        <ele>7</ele>
        <time>2017-04-04T16:49:08Z</time>
      </trkpt>
      <trkpt lat="49.30019" lon="1.21349">
        <ele>7</ele>
        <time>2017-04-04T16:49:23Z</time>
      </trkpt>
      <trkpt lat="49.30016" lon="1.21352">
        <ele>7</ele>
        <time>2017-04-04T16:49:23Z</time>
      </trkpt>
      <trkpt lat="49.30012" lon="1.21355">
        <ele>7</ele>
        <time>2017-04-04T16:49:23Z</time>
      </trkpt>
      <trkpt lat="49.3001" lon="1.21356">
        <ele>7</ele>
        <time>2017-04-04T16:49:23Z</time>
      </trkpt>
      <trkpt lat="49.30009" lon="1.21359">
        <ele>7</ele>
        <time>2017-04-04T16:49:44Z</time>
      </trkpt>
      <trkpt lat="49.30009" lon="1.21359">
        <ele>7</ele>
        <time>2017-04-04T16:49:44Z</time>
      </trkpt>
      <trkpt lat="49.30006" lon="1.21363">
        <ele>7</ele>
        <time>2017-04-04T16:49:44Z</time>
      </trkpt>
      <trkpt lat="49.30002" lon="1.21366">
        <ele>7</ele>
        <time>2017-04-04T16:49:44Z</time>
      </trkpt>
      <trkpt lat="49.29999" lon="1.21368">
        <ele>7</ele>
        <time>2017-04-04T16:49:44Z</time>
      </trkpt>
      <trkpt lat="49.29997" lon="1.21371">
        <ele>7</ele>
        <time>2017-04-04T16:50:03Z</time>
      </trkpt>
      <trkpt lat="49.29995" lon="1.21373">
        <ele>7</ele>
        <time>2017-04-04T16:50:03Z</time>
      </trkpt>
      <trkpt lat="49.29996" lon="1.21376">
        <ele>8</ele>
        <time>2017-04-04T16:50:03Z</time>
      </trkpt>
      <trkpt lat="49.29996" lon="1.2138">
        <ele>8</ele>
        <time>2017-04-04T16:50:03Z</time>
      </trkpt>
      <trkpt lat="49.29994" lon="1.21385">
        <ele>8</ele>
        <time>2017-04-04T16:50:03Z</time>
      </trkpt>
      <trkpt lat="49.29994" lon="1.21392">
        <ele>8</ele>
        <time>2017-04-04T16:50:19Z</time>
      </trkpt>
      <trkpt lat="49.29994" lon="1.21397">
        <ele>8</ele>
        <time>2017-04-04T16:50:19Z</time>
      </trkpt>
      <trkpt lat="49.29993" lon="1.21405">
        <ele>8</ele>
        <time>2017-04-04T16:50:19Z</time>
      </trkpt>
      <trkpt lat="49.29994" lon="1.21409">
        <ele>8</ele>
        <time>2017-04-04T16:50:19Z</time>
      </trkpt>
      <trkpt lat="49.29997" lon="1.21416">
        <ele>8</ele>
        <time>2017-04-04T16:50:56Z</time>
      </trkpt>
      <trkpt lat="49.30001" lon="1.21416">
        <ele>8</ele>
        <time>2017-04-04T16:50:56Z</time>
      </trkpt>
      <trkpt lat="49.30005" lon="1.21419">
        <ele>8</ele>
        <time>2017-04-04T16:50:56Z</time>
      </trkpt>
      <trkpt lat="49.30008" lon="1.2142">
        <ele>8</ele>
        <time>2017-04-04T16:50:56Z</time>
      </trkpt>
      <trkpt lat="49.30012" lon="1.2142">
        <ele>8</ele>
        <time>2017-04-04T16:50:56Z</time>
      </trkpt>
      <trkpt lat="49.30015" lon="1.21421">
        <ele>8</ele>
        <time>2017-04-04T16:51:11Z</time>
      </trkpt>
      <trkpt lat="49.30018" lon="1.21421">
        <ele>8</ele>
        <time>2017-04-04T16:51:11Z</time>
      </trkpt>
      <trkpt lat="49.30022" lon="1.21423">
        <ele>8</ele>
        <time>2017-04-04T16:51:11Z</time>
      </trkpt>
      <trkpt lat="49.30024" lon="1.21424">
        <ele>8</ele>
        <time>2017-04-04T16:51:11Z</time>
      </trkpt>
      <trkpt lat="49.30029" lon="1.21423">
        <ele>8</ele>
        <time>2017-04-04T16:51:27Z</time>
      </trkpt>
      <trkpt lat="49.30033" lon="1.21423">
        <ele>8</ele>
        <time>2017-04-04T16:51:27Z</time>
      </trkpt>
      <trkpt lat="49.30036" lon="1.21424">
        <ele>8</ele>
        <time>2017-04-04T16:51:27Z</time>
      </trkpt>
      <trkpt lat="49.3004" lon="1.21426">
        <ele>8</ele>
        <time>2017-04-04T16:51:27Z</time>
      </trkpt>
      <trkpt lat="49.30045" lon="1.21426">
        <ele>9</ele>
        <time>2017-04-04T16:51:43Z</time>
      </trkpt>
      <trkpt lat="49.30047" lon="1.21426">
        <ele>9</ele>
        <time>2017-04-04T16:51:44Z</time>
      </trkpt>
      <trkpt lat="49.30052" lon="1.21421">
        <ele>9</ele>
        <time>2017-04-04T16:51:44Z</time>
      </trkpt>
      <trkpt lat="49.30057" lon="1.21421">
        <ele>9</ele>
        <time>2017-04-04T16:51:44Z</time>
      </trkpt>
      <trkpt lat="49.30061" lon="1.21419">
        <ele>9</ele>
        <time>2017-04-04T16:52:00Z</time>
      </trkpt>
      <trkpt lat="49.30065" lon="1.21417">
        <ele>9</ele>
        <time>2017-04-04T16:52:00Z</time>
      </trkpt>
      <trkpt lat="49.30067" lon="1.21416">
        <ele>9</ele>
        <time>2017-04-04T16:52:00Z</time>
      </trkpt>
      <trkpt lat="49.30073" lon="1.21412">
        <ele>9</ele>
        <time>2017-04-04T16:52:00Z</time>
      </trkpt>
      <trkpt lat="49.30076" lon="1.2141">
        <ele>9</ele>
        <time>2017-04-04T16:52:16Z</time>
      </trkpt>
      <trkpt lat="49.30082" lon="1.21408">
        <ele>9</ele>
        <time>2017-04-04T16:52:16Z</time>
      </trkpt>
      <trkpt lat="49.30085" lon="1.21409">
        <ele>9</ele>
        <time>2017-04-04T16:52:16Z</time>
      </trkpt>
      <trkpt lat="49.3009" lon="1.21411">
        <ele>9</ele>
        <time>2017-04-04T16:52:16Z</time>
      </trkpt>
      <trkpt lat="49.30094" lon="1.21412">
        <ele>9</ele>
        <time>2017-04-04T16:52:31Z</time>
      </trkpt>
      <trkpt lat="49.30097" lon="1.21415">
        <ele>9</ele>
        <time>2017-04-04T16:52:31Z</time>
      </trkpt>
      <trkpt lat="49.30099" lon="1.21419">
        <ele>9</ele>
        <time>2017-04-04T16:52:31Z</time>
      </trkpt>
      <trkpt lat="49.30103" lon="1.21423">
        <ele>9</ele>
        <time>2017-04-04T16:52:31Z</time>
      </trkpt>
      <trkpt lat="49.30108" lon="1.21429">
        <ele>9</ele>
        <time>2017-04-04T16:52:47Z</time>
      </trkpt>
      <trkpt lat="49.30111" lon="1.21433">
        <ele>9</ele>
        <time>2017-04-04T16:52:47Z</time>
      </trkpt>
      <trkpt lat="49.30115" lon="1.21436">
        <ele>9</ele>
        <time>2017-04-04T16:52:47Z</time>
      </trkpt>
      <trkpt lat="49.3012" lon="1.21439">
        <ele>9</ele>
        <time>2017-04-04T16:52:48Z</time>
      </trkpt>
      <trkpt lat="49.30124" lon="1.21442">
        <ele>9</ele>
        <time>2017-04-04T16:53:04Z</time>
      </trkpt>
      <trkpt lat="49.30128" lon="1.21448">
        <ele>9</ele>
        <time>2017-04-04T16:53:04Z</time>
      </trkpt>
      <trkpt lat="49.3013" lon="1.21451">
        <ele>9</ele>
        <time>2017-04-04T16:53:04Z</time>
      </trkpt>
      <trkpt lat="49.30136" lon="1.21453">
        <ele>9</ele>
        <time>2017-04-04T16:53:04Z</time>
      </trkpt>
      <trkpt lat="49.30141" lon="1.21456">
        <ele>9</ele>
        <time>2017-04-04T16:53:20Z</time>
      </trkpt>
      <trkpt lat="49.30145" lon="1.21458">
        <ele>9</ele>
        <time>2017-04-04T16:53:20Z</time>
      </trkpt>
      <trkpt lat="49.30149" lon="1.21459">
        <ele>10</ele>
        <time>2017-04-04T16:53:20Z</time>
      </trkpt>
      <trkpt lat="49.30155" lon="1.21461">
        <ele>10</ele>
        <time>2017-04-04T16:53:20Z</time>
      </trkpt>
      <trkpt lat="49.3016" lon="1.21463">
        <ele>10</ele>
        <time>2017-04-04T16:53:35Z</time>
      </trkpt>
      <trkpt lat="49.30164" lon="1.21464">
        <ele>10</ele>
        <time>2017-04-04T16:53:35Z</time>
      </trkpt>
      <trkpt lat="49.3017" lon="1.21465">
        <ele>10</ele>
        <time>2017-04-04T16:53:35Z</time>
      </trkpt>
      <trkpt lat="49.30173" lon="1.21465">
        <ele>10</ele>
        <time>2017-04-04T16:53:35Z</time>
      </trkpt>
      <trkpt lat="49.30178" lon="1.21465">
        <ele>10</ele>
        <time>2017-04-04T16:53:52Z</time>
      </trkpt>
      <trkpt lat="49.30183" lon="1.21464">
        <ele>10</ele>
        <time>2017-04-04T16:53:52Z</time>
      </trkpt>
      <trkpt lat="49.30189" lon="1.21464">
        <ele>10</ele>
        <time>2017-04-04T16:53:52Z</time>
      </trkpt>
      <trkpt lat="49.30194" lon="1.21462">
        <ele>10</ele>
        <time>2017-04-04T16:53:52Z</time>
      </trkpt>
      <trkpt lat="49.30198" lon="1.21462">
        <ele>10</ele>
        <time>2017-04-04T16:54:08Z</time>
      </trkpt>
      <trkpt lat="49.30203" lon="1.21464">
        <ele>10</ele>
        <time>2017-04-04T16:54:08Z</time>
      </trkpt>
      <trkpt lat="49.30206" lon="1.21465">
        <ele>10</ele>
        <time>2017-04-04T16:54:08Z</time>
      </trkpt>
      <trkpt lat="49.30208" lon="1.21466">
        <ele>10</ele>
        <time>2017-04-04T16:54:08Z</time>
      </trkpt>
      <trkpt lat="49.30217" lon="1.21465">
        <ele>10</ele>
        <time>2017-04-04T16:54:28Z</time>
      </trkpt>
      <trkpt lat="49.30221" lon="1.21464">
        <ele>10</ele>
        <time>2017-04-04T16:54:28Z</time>
      </trkpt>
      <trkpt lat="49.30227" lon="1.21461">
        <ele>10</ele>
        <time>2017-04-04T16:54:28Z</time>
      </trkpt>
      <trkpt lat="49.30232" lon="1.21459">
        <ele>10</ele>
        <time>2017-04-04T16:54:28Z</time>
      </trkpt>
      <trkpt lat="49.30235" lon="1.21457">
        <ele>11</ele>
        <time>2017-04-04T16:54:43Z</time>
      </trkpt>
      <trkpt lat="49.3024" lon="1.21457">
        <ele>11</ele>
        <time>2017-04-04T16:54:43Z</time>
      </trkpt>
      <trkpt lat="49.30245" lon="1.21459">
        <ele>10</ele>
        <time>2017-04-04T16:54:43Z</time>
      </trkpt>
      <trkpt lat="49.3025" lon="1.21461">
        <ele>10</ele>
        <time>2017-04-04T16:54:43Z</time>
      </trkpt>
      <trkpt lat="49.30255" lon="1.21465">
        <ele>10</ele>
        <time>2017-04-04T16:55:00Z</time>
      </trkpt>
      <trkpt lat="49.30259" lon="1.21469">
        <ele>10</ele>
        <time>2017-04-04T16:55:00Z</time>
      </trkpt>
      <trkpt lat="49.30261" lon="1.21472">
        <ele>10</ele>
        <time>2017-04-04T16:55:00Z</time>
      </trkpt>
      <trkpt lat="49.30266" lon="1.21477">
        <ele>10</ele>
        <time>2017-04-04T16:55:00Z</time>
      </trkpt>
      <trkpt lat="49.30269" lon="1.2148">
        <ele>10</ele>
        <time>2017-04-04T16:55:15Z</time>
      </trkpt>
      <trkpt lat="49.30273" lon="1.21485">
        <ele>10</ele>
        <time>2017-04-04T16:55:15Z</time>
      </trkpt>
      <trkpt lat="49.30276" lon="1.21489">
        <ele>10</ele>
        <time>2017-04-04T16:55:15Z</time>
      </trkpt>
      <trkpt lat="49.30281" lon="1.21493">
        <ele>10</ele>
        <time>2017-04-04T16:55:15Z</time>
      </trkpt>
      <trkpt lat="49.30283" lon="1.21502">
        <ele>10</ele>
        <time>2017-04-04T16:55:31Z</time>
      </trkpt>
      <trkpt lat="49.30285" lon="1.21506">
        <ele>10</ele>
        <time>2017-04-04T16:55:31Z</time>
      </trkpt>
      <trkpt lat="49.30288" lon="1.21511">
        <ele>10</ele>
        <time>2017-04-04T16:55:31Z</time>
      </trkpt>
      <trkpt lat="49.30291" lon="1.21516">
        <ele>10</ele>
        <time>2017-04-04T16:55:31Z</time>
      </trkpt>
      <trkpt lat="49.30293" lon="1.21522">
        <ele>12</ele>
        <time>2017-04-04T16:55:48Z</time>
      </trkpt>
      <trkpt lat="49.30296" lon="1.21529">
        <ele>12</ele>
        <time>2017-04-04T16:55:48Z</time>
      </trkpt>
      <trkpt lat="49.30298" lon="1.21534">
        <ele>12</ele>
        <time>2017-04-04T16:55:48Z</time>
      </trkpt>
      <trkpt lat="49.30301" lon="1.21542">
        <ele>10</ele>
        <time>2017-04-04T16:55:48Z</time>
      </trkpt>
      <trkpt lat="49.30305" lon="1.21547">
        <ele>10</ele>
        <time>2017-04-04T16:56:03Z</time>
      </trkpt>
      <trkpt lat="49.30307" lon="1.21551">
        <ele>10</ele>
        <time>2017-04-04T16:56:03Z</time>
      </trkpt>
      <trkpt lat="49.3031" lon="1.21559">
        <ele>10</ele>
        <time>2017-04-04T16:56:03Z</time>
      </trkpt>
      <trkpt lat="49.30313" lon="1.21565">
        <ele>10</ele>
        <time>2017-04-04T16:56:03Z</time>
      </trkpt>
      <trkpt lat="49.30315" lon="1.21569">
        <ele>10</ele>
        <time>2017-04-04T16:56:19Z</time>
      </trkpt>
      <trkpt lat="49.30317" lon="1.21577">
        <ele>10</ele>
        <time>2017-04-04T16:56:19Z</time>
      </trkpt>
      <trkpt lat="49.30318" lon="1.21582">
        <ele>10</ele>
        <time>2017-04-04T16:56:19Z</time>
      </trkpt>
      <trkpt lat="49.30321" lon="1.21587">
        <ele>10</ele>
        <time>2017-04-04T16:56:19Z</time>
      </trkpt>
      <trkpt lat="49.30324" lon="1.21593">
        <ele>10</ele>
        <time>2017-04-04T16:56:35Z</time>
      </trkpt>
      <trkpt lat="49.30327" lon="1.216">
        <ele>10</ele>
        <time>2017-04-04T16:56:35Z</time>
      </trkpt>
      <trkpt lat="49.3033" lon="1.21604">
        <ele>10</ele>
        <time>2017-04-04T16:56:35Z</time>
      </trkpt>
      <trkpt lat="49.30333" lon="1.21608">
        <ele>10</ele>
        <time>2017-04-04T16:56:35Z</time>
      </trkpt>
      <trkpt lat="49.30337" lon="1.21614">
        <ele>10</ele>
        <time>2017-04-04T16:56:51Z</time>
      </trkpt>
      <trkpt lat="49.3034" lon="1.2162">
        <ele>10</ele>
        <time>2017-04-04T16:56:51Z</time>
      </trkpt>
      <trkpt lat="49.30343" lon="1.21625">
        <ele>6</ele>
        <time>2017-04-04T16:56:51Z</time>
      </trkpt>
      <trkpt lat="49.30346" lon="1.21629">
        <ele>6</ele>
        <time>2017-04-04T16:56:51Z</time>
      </trkpt>
      <trkpt lat="49.30349" lon="1.21634">
        <ele>6</ele>
        <time>2017-04-04T16:57:07Z</time>
      </trkpt>
      <trkpt lat="49.30354" lon="1.21637">
        <ele>6</ele>
        <time>2017-04-04T16:57:07Z</time>
      </trkpt>
      <trkpt lat="49.30357" lon="1.21642">
        <ele>6</ele>
        <time>2017-04-04T16:57:07Z</time>
      </trkpt>
      <trkpt lat="49.3036" lon="1.21646">
        <ele>6</ele>
        <time>2017-04-04T16:57:07Z</time>
      </trkpt>
      <trkpt lat="49.30366" lon="1.21652">
        <ele>6</ele>
        <time>2017-04-04T16:57:23Z</time>
      </trkpt>
      <trkpt lat="49.30368" lon="1.21656">
        <ele>6</ele>
        <time>2017-04-04T16:57:23Z</time>
      </trkpt>
      <trkpt lat="49.3037" lon="1.21662">
        <ele>6</ele>
        <time>2017-04-04T16:57:23Z</time>
      </trkpt>
      <trkpt lat="49.30373" lon="1.21668">
        <ele>6</ele>
        <time>2017-04-04T16:57:23Z</time>
      </trkpt>
      <trkpt lat="49.30377" lon="1.21673">
        <ele>12</ele>
        <time>2017-04-04T16:57:39Z</time>
      </trkpt>
      <trkpt lat="49.3038" lon="1.21678">
        <ele>12</ele>
        <time>2017-04-04T16:57:39Z</time>
      </trkpt>
      <trkpt lat="49.30383" lon="1.21684">
        <ele>12</ele>
        <time>2017-04-04T16:57:39Z</time>
      </trkpt>
      <trkpt lat="49.30386" lon="1.21689">
        <ele>12</ele>
        <time>2017-04-04T16:57:39Z</time>
      </trkpt>
      <trkpt lat="49.30389" lon="1.21695">
        <ele>12</ele>
        <time>2017-04-04T16:57:55Z</time>
      </trkpt>
      <trkpt lat="49.30393" lon="1.217">
        <ele>12</ele>
        <time>2017-04-04T16:57:55Z</time>
      </trkpt>
      <trkpt lat="49.30395" lon="1.21706">
        <ele>12</ele>
        <time>2017-04-04T16:57:55Z</time>
      </trkpt>
      <trkpt lat="49.30398" lon="1.21711">
        <ele>8</ele>
        <time>2017-04-04T16:57:55Z</time>
      </trkpt>
      <trkpt lat="49.30402" lon="1.21715">
        <ele>8</ele>
        <time>2017-04-04T16:58:11Z</time>
      </trkpt>
      <trkpt lat="49.30405" lon="1.21721">
        <ele>8</ele>
        <time>2017-04-04T16:58:11Z</time>
      </trkpt>
      <trkpt lat="49.30408" lon="1.21727">
        <ele>8</ele>
        <time>2017-04-04T16:58:11Z</time>
      </trkpt>
      <trkpt lat="49.3041" lon="1.21734">
        <ele>8</ele>
        <time>2017-04-04T16:58:11Z</time>
      </trkpt>
      <trkpt lat="49.30412" lon="1.21739">
        <ele>8</ele>
        <time>2017-04-04T16:58:27Z</time>
      </trkpt>
      <trkpt lat="49.30414" lon="1.21746">
        <ele>8</ele>
        <time>2017-04-04T16:58:27Z</time>
      </trkpt>
      <trkpt lat="49.30416" lon="1.21753">
        <ele>8</ele>
        <time>2017-04-04T16:58:27Z</time>
      </trkpt>
      <trkpt lat="49.30419" lon="1.21758">
        <ele>8</ele>
        <time>2017-04-04T16:58:27Z</time>
      </trkpt>
      <trkpt lat="49.30422" lon="1.21764">
        <ele>8</ele>
        <time>2017-04-04T16:58:43Z</time>
      </trkpt>
      <trkpt lat="49.30426" lon="1.21769">
        <ele>8</ele>
        <time>2017-04-04T16:58:43Z</time>
      </trkpt>
      <trkpt lat="49.3043" lon="1.21777">
        <ele>8</ele>
        <time>2017-04-04T16:58:43Z</time>
      </trkpt>
      <trkpt lat="49.30432" lon="1.21784">
        <ele>8</ele>
        <time>2017-04-04T16:58:43Z</time>
      </trkpt>
      <trkpt lat="49.30434" lon="1.21789">
        <ele>8</ele>
        <time>2017-04-04T16:58:59Z</time>
      </trkpt>
      <trkpt lat="49.30438" lon="1.21794">
        <ele>6</ele>
        <time>2017-04-04T16:58:59Z</time>
      </trkpt>
      <trkpt lat="49.30442" lon="1.21799">
        <ele>6</ele>
        <time>2017-04-04T16:58:59Z</time>
      </trkpt>
      <trkpt lat="49.30445" lon="1.21804">
        <ele>6</ele>
        <time>2017-04-04T16:58:59Z</time>
      </trkpt>
      <trkpt lat="49.30448" lon="1.21808">
        <ele>6</ele>
        <time>2017-04-04T16:59:15Z</time>
      </trkpt>
      <trkpt lat="49.30451" lon="1.21811">
        <ele>6</ele>
        <time>2017-04-04T16:59:15Z</time>
      </trkpt>
      <trkpt lat="49.30454" lon="1.21814">
        <ele>6</ele>
        <time>2017-04-04T16:59:15Z</time>
      </trkpt>
      <trkpt lat="49.30457" lon="1.21816">
        <ele>6</ele>
        <time>2017-04-04T16:59:15Z</time>
      </trkpt>
      <trkpt lat="49.30462" lon="1.21817">
        <ele>9</ele>
        <time>2017-04-04T16:59:31Z</time>
      </trkpt>
      <trkpt lat="49.30468" lon="1.21815">
        <ele>9</ele>
        <time>2017-04-04T16:59:31Z</time>
      </trkpt>
      <trkpt lat="49.30473" lon="1.21815">
        <ele>9</ele>
        <time>2017-04-04T16:59:31Z</time>
      </trkpt>
      <trkpt lat="49.30478" lon="1.21814">
        <ele>9</ele>
        <time>2017-04-04T16:59:31Z</time>
      </trkpt>
      <trkpt lat="49.30485" lon="1.21812">
        <ele>9</ele>
        <time>2017-04-04T16:59:47Z</time>
      </trkpt>
      <trkpt lat="49.3049" lon="1.21811">
        <ele>9</ele>
        <time>2017-04-04T16:59:47Z</time>
      </trkpt>
      <trkpt lat="49.30495" lon="1.21811">
        <ele>9</ele>
        <time>2017-04-04T16:59:47Z</time>
      </trkpt>
      <trkpt lat="49.30498" lon="1.2181">
        <ele>9</ele>
        <time>2017-04-04T16:59:47Z</time>
      </trkpt>
      <trkpt lat="49.30502" lon="1.21806">
        <ele>9</ele>
        <time>2017-04-04T17:00:04Z</time>
      </trkpt>
      <trkpt lat="49.30507" lon="1.21803">
        <ele>9</ele>
        <time>2017-04-04T17:00:04Z</time>
      </trkpt>
      <trkpt lat="49.30512" lon="1.21801">
        <ele>9</ele>
        <time>2017-04-04T17:00:04Z</time>
      </trkpt>
      <trkpt lat="49.30519" lon="1.21797">
        <ele>9</ele>
        <time>2017-04-04T17:00:04Z</time>
      </trkpt>
      <trkpt lat="49.30522" lon="1.21795">
        <ele>9</ele>
        <time>2017-04-04T17:00:19Z</time>
      </trkpt>
      <trkpt lat="49.30525" lon="1.21796">
        <ele>9</ele>
        <time>2017-04-04T17:00:19Z</time>
      </trkpt>
      <trkpt lat="49.3053" lon="1.21795">
        <ele>9</ele>
        <time>2017-04-04T17:00:19Z</time>
      </trkpt>
      <trkpt lat="49.30534" lon="1.21795">
        <ele>9</ele>
        <time>2017-04-04T17:00:19Z</time>
      </trkpt>
      <trkpt lat="49.30539" lon="1.21795">
        <ele>9</ele>
        <time>2017-04-04T17:00:35Z</time>
      </trkpt>
      <trkpt lat="49.30544" lon="1.21796">
        <ele>8</ele>
        <time>2017-04-04T17:00:35Z</time>
      </trkpt>
      <trkpt lat="49.3055" lon="1.21796">
        <ele>8</ele>
        <time>2017-04-04T17:00:35Z</time>
      </trkpt>
      <trkpt lat="49.30554" lon="1.21794">
        <ele>8</ele>
        <time>2017-04-04T17:00:35Z</time>
      </trkpt>
      <trkpt lat="49.30559" lon="1.21794">
        <ele>8</ele>
        <time>2017-04-04T17:00:51Z</time>
      </trkpt>
      <trkpt lat="49.30562" lon="1.21793">
        <ele>8</ele>
        <time>2017-04-04T17:00:51Z</time>
      </trkpt>
      <trkpt lat="49.30568" lon="1.21791">
        <ele>14</ele>
        <time>2017-04-04T17:00:51Z</time>
      </trkpt>
      <trkpt lat="49.30571" lon="1.2179">
        <ele>14</ele>
        <time>2017-04-04T17:00:51Z</time>
      </trkpt>
      <trkpt lat="49.30574" lon="1.21787">
        <ele>14</ele>
        <time>2017-04-04T17:01:07Z</time>
      </trkpt>
      <trkpt lat="49.30579" lon="1.21784">
        <ele>14</ele>
        <time>2017-04-04T17:01:07Z</time>
      </trkpt>
      <trkpt lat="49.30585" lon="1.21782">
        <ele>14</ele>
        <time>2017-04-04T17:01:07Z</time>
      </trkpt>
      <trkpt lat="49.30589" lon="1.21781">
        <ele>14</ele>
        <time>2017-04-04T17:01:07Z</time>
      </trkpt>
      <trkpt lat="49.30593" lon="1.21781">
        <ele>14</ele>
        <time>2017-04-04T17:01:24Z</time>
      </trkpt>
      <trkpt lat="49.30598" lon="1.21781">
        <ele>14</ele>
        <time>2017-04-04T17:01:24Z</time>
      </trkpt>
      <trkpt lat="49.30601" lon="1.21781">
        <ele>14</ele>
        <time>2017-04-04T17:01:24Z</time>
      </trkpt>
      <trkpt lat="49.30606" lon="1.21782">
        <ele>14</ele>
        <time>2017-04-04T17:01:24Z</time>
      </trkpt>
      <trkpt lat="49.3061" lon="1.21784">
        <ele>14</ele>
        <time>2017-04-04T17:01:40Z</time>
      </trkpt>
      <trkpt lat="49.30613" lon="1.21787">
        <ele>14</ele>
        <time>2017-04-04T17:01:40Z</time>
      </trkpt>
      <trkpt lat="49.30617" lon="1.21789">
        <ele>14</ele>
        <time>2017-04-04T17:01:40Z</time>
      </trkpt>
      <trkpt lat="49.30623" lon="1.21792">
        <ele>8</ele>
        <time>2017-04-04T17:01:40Z</time>
      </trkpt>
      <trkpt lat="49.30626" lon="1.21797">
        <ele>8</ele>
        <time>2017-04-04T17:01:55Z</time>
      </trkpt>
      <trkpt lat="49.30628" lon="1.21802">
        <ele>8</ele>
        <time>2017-04-04T17:01:55Z</time>
      </trkpt>
      <trkpt lat="49.30631" lon="1.21811">
        <ele>8</ele>
        <time>2017-04-04T17:01:55Z</time>
      </trkpt>
      <trkpt lat="49.30632" lon="1.21817">
        <ele>8</ele>
        <time>2017-04-04T17:01:55Z</time>
      </trkpt>
      <trkpt lat="49.30632" lon="1.21825">
        <ele>8</ele>
        <time>2017-04-04T17:02:12Z</time>
      </trkpt>
      <trkpt lat="49.30632" lon="1.21829">
        <ele>8</ele>
        <time>2017-04-04T17:02:12Z</time>
      </trkpt>
      <trkpt lat="49.30632" lon="1.21836">
        <ele>8</ele>
        <time>2017-04-04T17:02:12Z</time>
      </trkpt>
      <trkpt lat="49.30631" lon="1.21844">
        <ele>8</ele>
        <time>2017-04-04T17:02:12Z</time>
      </trkpt>
      <trkpt lat="49.30629" lon="1.2185">
        <ele>8</ele>
        <time>2017-04-04T17:02:28Z</time>
      </trkpt>
      <trkpt lat="49.30627" lon="1.21856">
        <ele>8</ele>
        <time>2017-04-04T17:02:28Z</time>
      </trkpt>
      <trkpt lat="49.30625" lon="1.21861">
        <ele>8</ele>
        <time>2017-04-04T17:02:28Z</time>
      </trkpt>
      <trkpt lat="49.30624" lon="1.21868">
        <ele>8</ele>
        <time>2017-04-04T17:02:28Z</time>
      </trkpt>
      <trkpt lat="49.30622" lon="1.21874">
        <ele>8</ele>
        <time>2017-04-04T17:02:43Z</time>
      </trkpt>
      <trkpt lat="49.3062" lon="1.2188">
        <ele>9</ele>
        <time>2017-04-04T17:02:43Z</time>
      </trkpt>
      <trkpt lat="49.30618" lon="1.21888">
        <ele>9</ele>
        <time>2017-04-04T17:02:43Z</time>
      </trkpt>
      <trkpt lat="49.30619" lon="1.21896">
        <ele>9</ele>
        <time>2017-04-04T17:02:43Z</time>
      </trkpt>
      <trkpt lat="49.30621" lon="1.21902">
        <ele>9</ele>
        <time>2017-04-04T17:03:00Z</time>
      </trkpt>
      <trkpt lat="49.30623" lon="1.21909">
        <ele>9</ele>
        <time>2017-04-04T17:03:00Z</time>
      </trkpt>
      <trkpt lat="49.30623" lon="1.21919">
        <ele>9</ele>
        <time>2017-04-04T17:03:00Z</time>
      </trkpt>
      <trkpt lat="49.30624" lon="1.21926">
        <ele>9</ele>
        <time>2017-04-04T17:03:00Z</time>
      </trkpt>
      <trkpt lat="49.30626" lon="1.21933">
        <ele>8</ele>
        <time>2017-04-04T17:03:15Z</time>
      </trkpt>
      <trkpt lat="49.30629" lon="1.21937">
        <ele>8</ele>
        <time>2017-04-04T17:03:15Z</time>
      </trkpt>
      <trkpt lat="49.30634" lon="1.21942">
        <ele>8</ele>
        <time>2017-04-04T17:03:15Z</time>
      </trkpt>
      <trkpt lat="49.30636" lon="1.21947">
        <ele>8</ele>
        <time>2017-04-04T17:03:15Z</time>
      </trkpt>
      <trkpt lat="49.30639" lon="1.21955">
        <ele>8</ele>
        <time>2017-04-04T17:03:32Z</time>
      </trkpt>
      <trkpt lat="49.3064" lon="1.21962">
        <ele>6</ele>
        <time>2017-04-04T17:03:32Z</time>
      </trkpt>
      <trkpt lat="49.30641" lon="1.21967">
        <ele>6</ele>
        <time>2017-04-04T17:03:32Z</time>
      </trkpt>
      <trkpt lat="49.30641" lon="1.21975">
        <ele>6</ele>
        <time>2017-04-04T17:03:32Z</time>
      </trkpt>
      <trkpt lat="49.30641" lon="1.2198">
        <ele>6</ele>
        <time>2017-04-04T17:03:48Z</time>
      </trkpt>
      <trkpt lat="49.3064" lon="1.21989">
        <ele>6</ele>
        <time>2017-04-04T17:03:48Z</time>
      </trkpt>
      <trkpt lat="49.3064" lon="1.21994">
        <ele>6</ele>
        <time>2017-04-04T17:03:48Z</time>
      </trkpt>
      <trkpt lat="49.30641" lon="1.22003">
        <ele>6</ele>
        <time>2017-04-04T17:03:48Z</time>
      </trkpt>
      <trkpt lat="49.30642" lon="1.2201">
        <ele>6</ele>
        <time>2017-04-04T17:04:03Z</time>
      </trkpt>
      <trkpt lat="49.30642" lon="1.22018">
        <ele>6</ele>
        <time>2017-04-04T17:04:03Z</time>
      </trkpt>
      <trkpt lat="49.30644" lon="1.22026">
        <ele>6</ele>
        <time>2017-04-04T17:04:03Z</time>
      </trkpt>
      <trkpt lat="49.30646" lon="1.22033">
        <ele>6</ele>
        <time>2017-04-04T17:04:03Z</time>
      </trkpt>
      <trkpt lat="49.30646" lon="1.22039">
        <ele>6</ele>
        <time>2017-04-04T17:04:20Z</time>
      </trkpt>
      <trkpt lat="49.30646" lon="1.22049">
        <ele>5</ele>
        <time>2017-04-04T17:04:20Z</time>
      </trkpt>
      <trkpt lat="49.30647" lon="1.22056">
        <ele>5</ele>
        <time>2017-04-04T17:04:20Z</time>
      </trkpt>
      <trkpt lat="49.30646" lon="1.22062">
        <ele>5</ele>
        <time>2017-04-04T17:04:20Z</time>
      </trkpt>
      <trkpt lat="49.30647" lon="1.22069">
        <ele>5</ele>
        <time>2017-04-04T17:04:35Z</time>
      </trkpt>
      <trkpt lat="49.30648" lon="1.22078">
        <ele>5</ele>
        <time>2017-04-04T17:04:35Z</time>
      </trkpt>
      <trkpt lat="49.30648" lon="1.22084">
        <ele>5</ele>
        <time>2017-04-04T17:04:35Z</time>
      </trkpt>
      <trkpt lat="49.30648" lon="1.22088">
        <ele>5</ele>
        <time>2017-04-04T17:04:35Z</time>
      </trkpt>
      <trkpt lat="49.30649" lon="1.22098">
        <ele>5</ele>
        <time>2017-04-04T17:04:51Z</time>
      </trkpt>
      <trkpt lat="49.30649" lon="1.22105">
        <ele>5</ele>
        <time>2017-04-04T17:04:51Z</time>
      </trkpt>
      <trkpt lat="49.3065" lon="1.22113">
        <ele>5</ele>
        <time>2017-04-04T17:04:51Z</time>
      </trkpt>
      <trkpt lat="49.30651" lon="1.2212">
        <ele>5</ele>
        <time>2017-04-04T17:04:51Z</time>
      </trkpt>
      <trkpt lat="49.30652" lon="1.22128">
        <ele>5</ele>
        <time>2017-04-04T17:05:07Z</time>
      </trkpt>
      <trkpt lat="49.30653" lon="1.22134">
        <ele>5</ele>
        <time>2017-04-04T17:05:07Z</time>
      </trkpt>
      <trkpt lat="49.30653" lon="1.22143">
        <ele>5</ele>
        <time>2017-04-04T17:05:07Z</time>
      </trkpt>
      <trkpt lat="49.30653" lon="1.2215">
        <ele>5</ele>
        <time>2017-04-04T17:05:07Z</time>
      </trkpt>
      <trkpt lat="49.30653" lon="1.22155">
        <ele>5</ele>
        <time>2017-04-04T17:05:24Z</time>
      </trkpt>
      <trkpt lat="49.30654" lon="1.22162">
        <ele>5</ele>
        <time>2017-04-04T17:05:24Z</time>
      </trkpt>
      <trkpt lat="49.30654" lon="1.22172">
        <ele>5</ele>
        <time>2017-04-04T17:05:24Z</time>
      </trkpt>
      <trkpt lat="49.30653" lon="1.2218">
        <ele>5</ele>
        <time>2017-04-04T17:05:24Z</time>
      </trkpt>
      <trkpt lat="49.30652" lon="1.22185">
        <ele>5</ele>
        <time>2017-04-04T17:05:40Z</time>
      </trkpt>
      <trkpt lat="49.30656" lon="1.22194">
        <ele>5</ele>
        <time>2017-04-04T17:05:40Z</time>
      </trkpt>
      <trkpt lat="49.30657" lon="1.22202">
        <ele>5</ele>
        <time>2017-04-04T17:05:40Z</time>
      </trkpt>
      <trkpt lat="49.30657" lon="1.22209">
        <ele>6</ele>
        <time>2017-04-04T17:05:40Z</time>
      </trkpt>
      <trkpt lat="49.30658" lon="1.22214">
        <ele>6</ele>
        <time>2017-04-04T17:05:55Z</time>
      </trkpt>
      <trkpt lat="49.3066" lon="1.22222">
        <ele>6</ele>
        <time>2017-04-04T17:05:55Z</time>
      </trkpt>
      <trkpt lat="49.30661" lon="1.22228">
        <ele>6</ele>
        <time>2017-04-04T17:05:55Z</time>
      </trkpt>
      <trkpt lat="49.30663" lon="1.22234">
        <ele>6</ele>
        <time>2017-04-04T17:05:55Z</time>
      </trkpt>
      <trkpt lat="49.30665" lon="1.22241">
        <ele>6</ele>
        <time>2017-04-04T17:06:11Z</time>
      </trkpt>
      <trkpt lat="49.30665" lon="1.2225">
        <ele>6</ele>
        <time>2017-04-04T17:06:11Z</time>
      </trkpt>
      <trkpt lat="49.30665" lon="1.22258">
        <ele>6</ele>
        <time>2017-04-04T17:06:11Z</time>
      </trkpt>
      <trkpt lat="49.30666" lon="1.22266">
        <ele>6</ele>
        <time>2017-04-04T17:06:11Z</time>
      </trkpt>
      <trkpt lat="49.30668" lon="1.22272">
        <ele>6</ele>
        <time>2017-04-04T17:06:28Z</time>
      </trkpt>
      <trkpt lat="49.30669" lon="1.22278">
        <ele>6</ele>
        <time>2017-04-04T17:06:28Z</time>
      </trkpt>
      <trkpt lat="49.30669" lon="1.22285">
        <ele>6</ele>
        <time>2017-04-04T17:06:28Z</time>
      </trkpt>
      <trkpt lat="49.3067" lon="1.22294">
        <ele>8</ele>
        <time>2017-04-04T17:06:28Z</time>
      </trkpt>
      <trkpt lat="49.3067" lon="1.223">
        <ele>8</ele>
        <time>2017-04-04T17:06:43Z</time>
      </trkpt>
      <trkpt lat="49.30671" lon="1.22308">
        <ele>8</ele>
        <time>2017-04-04T17:06:44Z</time>
      </trkpt>
      <trkpt lat="49.30671" lon="1.22312">
        <ele>8</ele>
        <time>2017-04-04T17:06:44Z</time>
      </trkpt>
      <trkpt lat="49.30673" lon="1.22322">
        <ele>8</ele>
        <time>2017-04-04T17:06:44Z</time>
      </trkpt>
      <trkpt lat="49.30674" lon="1.2233">
        <ele>8</ele>
        <time>2017-04-04T17:07:00Z</time>
      </trkpt>
      <trkpt lat="49.30675" lon="1.22337">
        <ele>8</ele>
        <time>2017-04-04T17:07:00Z</time>
      </trkpt>
      <trkpt lat="49.30675" lon="1.22344">
        <ele>8</ele>
        <time>2017-04-04T17:07:00Z</time>
      </trkpt>
      <trkpt lat="49.30673" lon="1.2235">
        <ele>8</ele>
        <time>2017-04-04T17:07:00Z</time>
      </trkpt>
      <trkpt lat="49.30673" lon="1.22356">
        <ele>8</ele>
        <time>2017-04-04T17:07:15Z</time>
      </trkpt>
      <trkpt lat="49.30673" lon="1.22363">
        <ele>8</ele>
        <time>2017-04-04T17:07:15Z</time>
      </trkpt>
      <trkpt lat="49.30674" lon="1.22371">
        <ele>8</ele>
        <time>2017-04-04T17:07:15Z</time>
      </trkpt>
      <trkpt lat="49.30676" lon="1.22379">
        <ele>9</ele>
        <time>2017-04-04T17:07:15Z</time>
      </trkpt>
      <trkpt lat="49.30678" lon="1.22387">
        <ele>9</ele>
        <time>2017-04-04T17:07:31Z</time>
      </trkpt>
      <trkpt lat="49.30681" lon="1.22393">
        <ele>9</ele>
        <time>2017-04-04T17:07:31Z</time>
      </trkpt>
      <trkpt lat="49.30683" lon="1.22401">
        <ele>9</ele>
        <time>2017-04-04T17:07:31Z</time>
      </trkpt>
      <trkpt lat="49.30684" lon="1.22408">
        <ele>9</ele>
        <time>2017-04-04T17:07:31Z</time>
      </trkpt>
      <trkpt lat="49.30684" lon="1.22415">
        <ele>9</ele>
        <time>2017-04-04T17:07:47Z</time>
      </trkpt>
      <trkpt lat="49.30683" lon="1.22423">
        <ele>9</ele>
        <time>2017-04-04T17:07:47Z</time>
      </trkpt>
      <trkpt lat="49.30683" lon="1.2243">
        <ele>9</ele>
        <time>2017-04-04T17:07:47Z</time>
      </trkpt>
      <trkpt lat="49.30684" lon="1.22438">
        <ele>9</ele>
        <time>2017-04-04T17:07:47Z</time>
      </trkpt>
      <trkpt lat="49.30686" lon="1.22445">
        <ele>9</ele>
        <time>2017-04-04T17:08:03Z</time>
      </trkpt>
      <trkpt lat="49.30687" lon="1.22451">
        <ele>9</ele>
        <time>2017-04-04T17:08:03Z</time>
      </trkpt>
      <trkpt lat="49.30689" lon="1.22458">
        <ele>9</ele>
        <time>2017-04-04T17:08:03Z</time>
      </trkpt>
      <trkpt lat="49.3069" lon="1.22465">
        <ele>8</ele>
        <time>2017-04-04T17:08:03Z</time>
      </trkpt>
      <trkpt lat="49.3069" lon="1.22473">
        <ele>8</ele>
        <time>2017-04-04T17:08:19Z</time>
      </trkpt>
      <trkpt lat="49.30691" lon="1.22478">
        <ele>8</ele>
        <time>2017-04-04T17:08:19Z</time>
      </trkpt>
      <trkpt lat="49.30691" lon="1.22485">
        <ele>8</ele>
        <time>2017-04-04T17:08:19Z</time>
      </trkpt>
      <trkpt lat="49.30691" lon="1.22491">
        <ele>8</ele>
        <time>2017-04-04T17:08:19Z</time>
      </trkpt>
      <trkpt lat="49.30692" lon="1.22497">
        <ele>8</ele>
        <time>2017-04-04T17:08:36Z</time>
      </trkpt>
      <trkpt lat="49.30694" lon="1.22504">
        <ele>8</ele>
        <time>2017-04-04T17:08:36Z</time>
      </trkpt>
      <trkpt lat="49.307" lon="1.22507">
        <ele>8</ele>
        <time>2017-04-04T17:08:36Z</time>
      </trkpt>
      <trkpt lat="49.30704" lon="1.22507">
        <ele>8</ele>
        <time>2017-04-04T17:08:36Z</time>
      </trkpt>
      <trkpt lat="49.30713" lon="1.22507">
        <ele>8</ele>
        <time>2017-04-04T17:09:48Z</time>
      </trkpt>
      <trkpt lat="49.30714" lon="1.22508">
        <ele>8</ele>
        <time>2017-04-04T17:09:48Z</time>
      </trkpt>
      <trkpt lat="49.30715" lon="1.22515">
        <ele>8</ele>
        <time>2017-04-04T17:09:48Z</time>
      </trkpt>
      <trkpt lat="49.30717" lon="1.22519">
        <ele>8</ele>
        <time>2017-04-04T17:09:48Z</time>
      </trkpt>
      <trkpt lat="49.30719" lon="1.22526">
        <ele>8</ele>
        <time>2017-04-04T17:09:48Z</time>
      </trkpt>
      <trkpt lat="49.3072" lon="1.22531">
        <ele>8</ele>
        <time>2017-04-04T17:10:03Z</time>
      </trkpt>
      <trkpt lat="49.30722" lon="1.22538">
        <ele>8</ele>
        <time>2017-04-04T17:10:03Z</time>
      </trkpt>
      <trkpt lat="49.30725" lon="1.22541">
        <ele>8</ele>
        <time>2017-04-04T17:10:03Z</time>
      </trkpt>
      <trkpt lat="49.30729" lon="1.22546">
        <ele>9</ele>
        <time>2017-04-04T17:10:03Z</time>
      </trkpt>
      <trkpt lat="49.30732" lon="1.22552">
        <ele>9</ele>
        <time>2017-04-04T17:10:28Z</time>
      </trkpt>
      <trkpt lat="49.30733" lon="1.22557">
        <ele>9</ele>
        <time>2017-04-04T17:10:28Z</time>
      </trkpt>
      <trkpt lat="49.30743" lon="1.22576">
        <ele>9</ele>
        <time>2017-04-04T17:10:28Z</time>
      </trkpt>
      <trkpt lat="49.30745" lon="1.22581">
        <ele>9</ele>
        <time>2017-04-04T17:10:28Z</time>
      </trkpt>
      <trkpt lat="49.30752" lon="1.2259">
        <ele>9</ele>
        <time>2017-04-04T17:10:47Z</time>
      </trkpt>
      <trkpt lat="49.30757" lon="1.22594">
        <ele>9</ele>
        <time>2017-04-04T17:10:47Z</time>
      </trkpt>
      <trkpt lat="49.30762" lon="1.22597">
        <ele>9</ele>
        <time>2017-04-04T17:10:47Z</time>
      </trkpt>
      <trkpt lat="49.30766" lon="1.22602">
        <ele>9</ele>
        <time>2017-04-04T17:10:47Z</time>
      </trkpt>
      <trkpt lat="49.3077" lon="1.22606">
        <ele>9</ele>
        <time>2017-04-04T17:11:03Z</time>
      </trkpt>
      <trkpt lat="49.30774" lon="1.22613">
        <ele>9</ele>
        <time>2017-04-04T17:11:03Z</time>
      </trkpt>
      <trkpt lat="49.30777" lon="1.22617">
        <ele>9</ele>
        <time>2017-04-04T17:11:03Z</time>
      </trkpt>
      <trkpt lat="49.3078" lon="1.22621">
        <ele>9</ele>
        <time>2017-04-04T17:11:03Z</time>
      </trkpt>
      <trkpt lat="49.30784" lon="1.22626">
        <ele>8</ele>
        <time>2017-04-04T17:11:19Z</time>
      </trkpt>
      <trkpt lat="49.30787" lon="1.22629">
        <ele>8</ele>
        <time>2017-04-04T17:11:19Z</time>
      </trkpt>
      <trkpt lat="49.3079" lon="1.22637">
        <ele>8</ele>
        <time>2017-04-04T17:11:19Z</time>
      </trkpt>
      <trkpt lat="49.30792" lon="1.22639">
        <ele>7</ele>
        <time>2017-04-04T17:11:19Z</time>
      </trkpt>
      <trkpt lat="49.30797" lon="1.22644">
        <ele>7</ele>
        <time>2017-04-04T17:11:35Z</time>
      </trkpt>
      <trkpt lat="49.30801" lon="1.22645">
        <ele>7</ele>
        <time>2017-04-04T17:11:35Z</time>
      </trkpt>
      <trkpt lat="49.30806" lon="1.22648">
        <ele>7</ele>
        <time>2017-04-04T17:11:35Z</time>
      </trkpt>
      <trkpt lat="49.30811" lon="1.22651">
        <ele>7</ele>
        <time>2017-04-04T17:11:35Z</time>
      </trkpt>
      <trkpt lat="49.30814" lon="1.22654">
        <ele>7</ele>
        <time>2017-04-04T17:11:52Z</time>
      </trkpt>
      <trkpt lat="49.30819" lon="1.22659">
        <ele>7</ele>
        <time>2017-04-04T17:11:52Z</time>
      </trkpt>
      <trkpt lat="49.30822" lon="1.22662">
        <ele>7</ele>
        <time>2017-04-04T17:11:52Z</time>
      </trkpt>
      <trkpt lat="49.30828" lon="1.22667">
        <ele>7</ele>
        <time>2017-04-04T17:11:52Z</time>
      </trkpt>
      <trkpt lat="49.30832" lon="1.2267">
        <ele>7</ele>
        <time>2017-04-04T17:12:08Z</time>
      </trkpt>
      <trkpt lat="49.30835" lon="1.22672">
        <ele>7</ele>
        <time>2017-04-04T17:12:08Z</time>
      </trkpt>
      <trkpt lat="49.3084" lon="1.22675">
        <ele>7</ele>
        <time>2017-04-04T17:12:08Z</time>
      </trkpt>
      <trkpt lat="49.30846" lon="1.22678">
        <ele>7</ele>
        <time>2017-04-04T17:12:08Z</time>
      </trkpt>
      <trkpt lat="49.30849" lon="1.2268">
        <ele>7</ele>
        <time>2017-04-04T17:12:24Z</time>
      </trkpt>
      <trkpt lat="49.30852" lon="1.22685">
        <ele>7</ele>
        <time>2017-04-04T17:12:24Z</time>
      </trkpt>
      <trkpt lat="49.30857" lon="1.22688">
        <ele>7</ele>
        <time>2017-04-04T17:12:24Z</time>
      </trkpt>
      <trkpt lat="49.30862" lon="1.22692">
        <ele>7</ele>
        <time>2017-04-04T17:12:24Z</time>
      </trkpt>
      <trkpt lat="49.30865" lon="1.22696">
        <ele>7</ele>
        <time>2017-04-04T17:12:39Z</time>
      </trkpt>
      <trkpt lat="49.30869" lon="1.227">
        <ele>7</ele>
        <time>2017-04-04T17:12:39Z</time>
      </trkpt>
      <trkpt lat="49.30873" lon="1.22703">
        <ele>7</ele>
        <time>2017-04-04T17:12:39Z</time>
      </trkpt>
      <trkpt lat="49.30877" lon="1.22708">
        <ele>7</ele>
        <time>2017-04-04T17:12:39Z</time>
      </trkpt>
      <trkpt lat="49.30879" lon="1.22714">
        <ele>7</ele>
        <time>2017-04-04T17:12:56Z</time>
      </trkpt>
      <trkpt lat="49.30883" lon="1.22718">
        <ele>7</ele>
        <time>2017-04-04T17:12:56Z</time>
      </trkpt>
      <trkpt lat="49.30888" lon="1.22721">
        <ele>7</ele>
        <time>2017-04-04T17:12:56Z</time>
      </trkpt>
      <trkpt lat="49.30892" lon="1.22728">
        <ele>7</ele>
        <time>2017-04-04T17:12:56Z</time>
      </trkpt>
      <trkpt lat="49.30895" lon="1.22733">
        <ele>7</ele>
        <time>2017-04-04T17:13:11Z</time>
      </trkpt>
      <trkpt lat="49.30899" lon="1.22737">
        <ele>7</ele>
        <time>2017-04-04T17:13:11Z</time>
      </trkpt>
      <trkpt lat="49.30903" lon="1.2274">
        <ele>7</ele>
        <time>2017-04-04T17:13:11Z</time>
      </trkpt>
      <trkpt lat="49.30905" lon="1.22746">
        <ele>7</ele>
        <time>2017-04-04T17:13:11Z</time>
      </trkpt>
      <trkpt lat="49.30907" lon="1.22752">
        <ele>7</ele>
        <time>2017-04-04T17:13:28Z</time>
      </trkpt>
      <trkpt lat="49.30909" lon="1.22758">
        <ele>7</ele>
        <time>2017-04-04T17:13:28Z</time>
      </trkpt>
      <trkpt lat="49.3091" lon="1.22767">
        <ele>7</ele>
        <time>2017-04-04T17:13:28Z</time>
      </trkpt>
      <trkpt lat="49.30911" lon="1.22774">
        <ele>7</ele>
        <time>2017-04-04T17:13:28Z</time>
      </trkpt>
      <trkpt lat="49.30913" lon="1.22778">
        <ele>7</ele>
        <time>2017-04-04T17:13:43Z</time>
      </trkpt>
      <trkpt lat="49.30915" lon="1.22784">
        <ele>7</ele>
        <time>2017-04-04T17:13:43Z</time>
      </trkpt>
      <trkpt lat="49.30918" lon="1.22788">
        <ele>7</ele>
        <time>2017-04-04T17:13:43Z</time>
      </trkpt>
      <trkpt lat="49.30921" lon="1.22797">
        <ele>8</ele>
        <time>2017-04-04T17:13:43Z</time>
      </trkpt>
      <trkpt lat="49.30922" lon="1.22802">
        <ele>8</ele>
        <time>2017-04-04T17:14:00Z</time>
      </trkpt>
      <trkpt lat="49.30924" lon="1.22809">
        <ele>8</ele>
        <time>2017-04-04T17:14:00Z</time>
      </trkpt>
      <trkpt lat="49.30924" lon="1.22817">
        <ele>8</ele>
        <time>2017-04-04T17:14:00Z</time>
      </trkpt>
      <trkpt lat="49.30928" lon="1.22824">
        <ele>8</ele>
        <time>2017-04-04T17:14:00Z</time>
      </trkpt>
      <trkpt lat="49.30929" lon="1.22831">
        <ele>8</ele>
        <time>2017-04-04T17:14:15Z</time>
      </trkpt>
      <trkpt lat="49.30932" lon="1.22835">
        <ele>8</ele>
        <time>2017-04-04T17:14:15Z</time>
      </trkpt>
      <trkpt lat="49.30936" lon="1.22836">
        <ele>8</ele>
        <time>2017-04-04T17:14:15Z</time>
      </trkpt>
      <trkpt lat="49.30941" lon="1.22838">
        <ele>8</ele>
        <time>2017-04-04T17:14:15Z</time>
      </trkpt>
      <trkpt lat="49.30944" lon="1.22838">
        <ele>8</ele>
        <time>2017-04-04T17:14:32Z</time>
      </trkpt>
      <trkpt lat="49.30951" lon="1.22836">
        <ele>8</ele>
        <time>2017-04-04T17:14:32Z</time>
      </trkpt>
      <trkpt lat="49.30955" lon="1.22835">
        <ele>8</ele>
        <time>2017-04-04T17:14:32Z</time>
      </trkpt>
      <trkpt lat="49.30962" lon="1.22832">
        <ele>8</ele>
        <time>2017-04-04T17:14:32Z</time>
      </trkpt>
      <trkpt lat="49.30967" lon="1.2283">
        <ele>8</ele>
        <time>2017-04-04T17:14:47Z</time>
      </trkpt>
      <trkpt lat="49.30971" lon="1.22829">
        <ele>8</ele>
        <time>2017-04-04T17:14:47Z</time>
      </trkpt>
      <trkpt lat="49.30976" lon="1.22828">
        <ele>8</ele>
        <time>2017-04-04T17:14:47Z</time>
      </trkpt>
      <trkpt lat="49.3098" lon="1.22827">
        <ele>8</ele>
        <time>2017-04-04T17:14:47Z</time>
      </trkpt>
      <trkpt lat="49.30985" lon="1.22826">
        <ele>8</ele>
        <time>2017-04-04T17:15:04Z</time>
      </trkpt>
      <trkpt lat="49.30989" lon="1.22825">
        <ele>8</ele>
        <time>2017-04-04T17:15:04Z</time>
      </trkpt>
      <trkpt lat="49.30994" lon="1.22825">
        <ele>8</ele>
        <time>2017-04-04T17:15:04Z</time>
      </trkpt>
      <trkpt lat="49.30999" lon="1.22824">
        <ele>8</ele>
        <time>2017-04-04T17:15:04Z</time>
      </trkpt>
      <trkpt lat="49.31003" lon="1.22825">
        <ele>8</ele>
        <time>2017-04-04T17:15:19Z</time>
      </trkpt>
      <trkpt lat="49.31008" lon="1.22825">
        <ele>8</ele>
        <time>2017-04-04T17:15:19Z</time>
      </trkpt>
      <trkpt lat="49.31014" lon="1.22826">
        <ele>8</ele>
        <time>2017-04-04T17:15:19Z</time>
      </trkpt>
      <trkpt lat="49.31018" lon="1.22825">
        <ele>8</ele>
        <time>2017-04-04T17:15:19Z</time>
      </trkpt>
      <trkpt lat="49.31023" lon="1.22827">
        <ele>8</ele>
        <time>2017-04-04T17:15:35Z</time>
      </trkpt>
      <trkpt lat="49.3103" lon="1.22826">
        <ele>8</ele>
        <time>2017-04-04T17:15:35Z</time>
      </trkpt>
      <trkpt lat="49.31036" lon="1.22826">
        <ele>8</ele>
        <time>2017-04-04T17:15:35Z</time>
      </trkpt>
      <trkpt lat="49.31037" lon="1.2283">
        <ele>8</ele>
        <time>2017-04-04T17:15:35Z</time>
      </trkpt>
      <trkpt lat="49.31036" lon="1.22835">
        <ele>8</ele>
        <time>2017-04-04T17:15:52Z</time>
      </trkpt>
      <trkpt lat="49.31036" lon="1.22842">
        <ele>8</ele>
        <time>2017-04-04T17:15:52Z</time>
      </trkpt>
      <trkpt lat="49.31036" lon="1.22847">
        <ele>8</ele>
        <time>2017-04-04T17:15:52Z</time>
      </trkpt>
      <trkpt lat="49.31035" lon="1.22853">
        <ele>8</ele>
        <time>2017-04-04T17:15:52Z</time>
      </trkpt>
      <trkpt lat="49.31033" lon="1.22861">
        <ele>8</ele>
        <time>2017-04-04T17:16:08Z</time>
      </trkpt>
      <trkpt lat="49.31032" lon="1.22867">
        <ele>8</ele>
        <time>2017-04-04T17:16:08Z</time>
      </trkpt>
      <trkpt lat="49.31031" lon="1.22876">
        <ele>8</ele>
        <time>2017-04-04T17:16:08Z</time>
      </trkpt>
      <trkpt lat="49.3103" lon="1.22884">
        <ele>8</ele>
        <time>2017-04-04T17:16:08Z</time>
      </trkpt>
      <trkpt lat="49.31029" lon="1.22888">
        <ele>8</ele>
        <time>2017-04-04T17:16:23Z</time>
      </trkpt>
      <trkpt lat="49.31028" lon="1.22894">
        <ele>8</ele>
        <time>2017-04-04T17:16:23Z</time>
      </trkpt>
      <trkpt lat="49.31027" lon="1.22899">
        <ele>8</ele>
        <time>2017-04-04T17:16:23Z</time>
      </trkpt>
      <trkpt lat="49.31025" lon="1.22904">
        <ele>8</ele>
        <time>2017-04-04T17:16:23Z</time>
      </trkpt>
      <trkpt lat="49.31024" lon="1.22909">
        <ele>8</ele>
        <time>2017-04-04T17:16:40Z</time>
      </trkpt>
      <trkpt lat="49.31026" lon="1.22918">
        <ele>8</ele>
        <time>2017-04-04T17:16:40Z</time>
      </trkpt>
      <trkpt lat="49.31026" lon="1.22923">
        <ele>8</ele>
        <time>2017-04-04T17:16:40Z</time>
      </trkpt>
      <trkpt lat="49.31029" lon="1.22929">
        <ele>8</ele>
        <time>2017-04-04T17:16:40Z</time>
      </trkpt>
      <trkpt lat="49.31031" lon="1.22935">
        <ele>8</ele>
        <time>2017-04-04T17:16:55Z</time>
      </trkpt>
      <trkpt lat="49.3103" lon="1.22943">
        <ele>8</ele>
        <time>2017-04-04T17:16:55Z</time>
      </trkpt>
      <trkpt lat="49.3103" lon="1.2295">
        <ele>8</ele>
        <time>2017-04-04T17:16:55Z</time>
      </trkpt>
      <trkpt lat="49.3103" lon="1.22957">
        <ele>8</ele>
        <time>2017-04-04T17:16:55Z</time>
      </trkpt>
      <trkpt lat="49.3103" lon="1.22966">
        <ele>7</ele>
        <time>2017-04-04T17:17:11Z</time>
      </trkpt>
      <trkpt lat="49.3103" lon="1.22971">
        <ele>7</ele>
        <time>2017-04-04T17:17:11Z</time>
      </trkpt>
      <trkpt lat="49.3103" lon="1.22975">
        <ele>7</ele>
        <time>2017-04-04T17:17:11Z</time>
      </trkpt>
      <trkpt lat="49.31033" lon="1.22979">
        <ele>7</ele>
        <time>2017-04-04T17:17:11Z</time>
      </trkpt>
      <trkpt lat="49.31035" lon="1.22989">
        <ele>7</ele>
        <time>2017-04-04T17:17:28Z</time>
      </trkpt>
      <trkpt lat="49.31034" lon="1.22996">
        <ele>7</ele>
        <time>2017-04-04T17:17:28Z</time>
      </trkpt>
      <trkpt lat="49.31033" lon="1.23006">
        <ele>7</ele>
        <time>2017-04-04T17:17:28Z</time>
      </trkpt>
      <trkpt lat="49.31031" lon="1.23017">
        <ele>7</ele>
        <time>2017-04-04T17:17:28Z</time>
      </trkpt>
      <trkpt lat="49.31031" lon="1.23024">
        <ele>7</ele>
        <time>2017-04-04T17:17:43Z</time>
      </trkpt>
      <trkpt lat="49.31031" lon="1.2303">
        <ele>7</ele>
        <time>2017-04-04T17:17:43Z</time>
      </trkpt>
      <trkpt lat="49.31027" lon="1.23037">
        <ele>7</ele>
        <time>2017-04-04T17:17:43Z</time>
      </trkpt>
      <trkpt lat="49.31026" lon="1.23044">
        <ele>6</ele>
        <time>2017-04-04T17:17:43Z</time>
      </trkpt>
      <trkpt lat="49.31025" lon="1.2305">
        <ele>6</ele>
        <time>2017-04-04T17:17:59Z</time>
      </trkpt>
      <trkpt lat="49.31023" lon="1.23061">
        <ele>6</ele>
        <time>2017-04-04T17:17:59Z</time>
      </trkpt>
      <trkpt lat="49.31021" lon="1.23067">
        <ele>6</ele>
        <time>2017-04-04T17:17:59Z</time>
      </trkpt>
      <trkpt lat="49.3102" lon="1.23076">
        <ele>6</ele>
        <time>2017-04-04T17:17:59Z</time>
      </trkpt>
      <trkpt lat="49.31018" lon="1.23081">
        <ele>6</ele>
        <time>2017-04-04T17:18:15Z</time>
      </trkpt>
      <trkpt lat="49.31018" lon="1.23089">
        <ele>6</ele>
        <time>2017-04-04T17:18:15Z</time>
      </trkpt>
      <trkpt lat="49.31018" lon="1.23097">
        <ele>6</ele>
        <time>2017-04-04T17:18:15Z</time>
      </trkpt>
      <trkpt lat="49.31019" lon="1.23102">
        <ele>6</ele>
        <time>2017-04-04T17:18:15Z</time>
      </trkpt>
      <trkpt lat="49.31018" lon="1.23111">
        <ele>6</ele>
        <time>2017-04-04T17:18:32Z</time>
      </trkpt>
      <trkpt lat="49.31016" lon="1.23115">
        <ele>6</ele>
        <time>2017-04-04T17:18:32Z</time>
      </trkpt>
      <trkpt lat="49.31015" lon="1.23123">
        <ele>6</ele>
        <time>2017-04-04T17:18:32Z</time>
      </trkpt>
      <trkpt lat="49.31015" lon="1.23134">
        <ele>6</ele>
        <time>2017-04-04T17:18:32Z</time>
      </trkpt>
      <trkpt lat="49.31015" lon="1.23142">
        <ele>6</ele>
        <time>2017-04-04T17:18:48Z</time>
      </trkpt>
      <trkpt lat="49.31015" lon="1.23149">
        <ele>6</ele>
        <time>2017-04-04T17:18:48Z</time>
      </trkpt>
      <trkpt lat="49.31014" lon="1.23153">
        <ele>6</ele>
        <time>2017-04-04T17:18:48Z</time>
      </trkpt>
      <trkpt lat="49.31012" lon="1.2316">
        <ele>6</ele>
        <time>2017-04-04T17:18:48Z</time>
      </trkpt>
      <trkpt lat="49.31012" lon="1.23165">
        <ele>6</ele>
        <time>2017-04-04T17:19:04Z</time>
      </trkpt>
      <trkpt lat="49.31013" lon="1.23174">
        <ele>6</ele>
        <time>2017-04-04T17:19:04Z</time>
      </trkpt>
      <trkpt lat="49.31013" lon="1.23179">
        <ele>6</ele>
        <time>2017-04-04T17:19:04Z</time>
      </trkpt>
      <trkpt lat="49.31009" lon="1.23187">
        <ele>6</ele>
        <time>2017-04-04T17:19:04Z</time>
      </trkpt>
      <trkpt lat="49.31007" lon="1.23195">
        <ele>6</ele>
        <time>2017-04-04T17:19:20Z</time>
      </trkpt>
      <trkpt lat="49.31006" lon="1.23204">
        <ele>6</ele>
        <time>2017-04-04T17:19:20Z</time>
      </trkpt>
      <trkpt lat="49.31005" lon="1.23212">
        <ele>4</ele>
        <time>2017-04-04T17:19:20Z</time>
      </trkpt>
      <trkpt lat="49.31004" lon="1.23219">
        <ele>4</ele>
        <time>2017-04-04T17:19:20Z</time>
      </trkpt>
      <trkpt lat="49.31003" lon="1.23223">
        <ele>4</ele>
        <time>2017-04-04T17:19:35Z</time>
      </trkpt>
      <trkpt lat="49.31001" lon="1.2323">
        <ele>4</ele>
        <time>2017-04-04T17:19:35Z</time>
      </trkpt>
      <trkpt lat="49.31002" lon="1.23239">
        <ele>4</ele>
        <time>2017-04-04T17:19:35Z</time>
      </trkpt>
      <trkpt lat="49.31" lon="1.23246">
        <ele>4</ele>
        <time>2017-04-04T17:19:35Z</time>
      </trkpt>
      <trkpt lat="49.31" lon="1.23253">
        <ele>4</ele>
        <time>2017-04-04T17:19:51Z</time>
      </trkpt>
      <trkpt lat="49.31001" lon="1.23259">
        <ele>4</ele>
        <time>2017-04-04T17:19:51Z</time>
      </trkpt>
      <trkpt lat="49.30999" lon="1.23268">
        <ele>4</ele>
        <time>2017-04-04T17:19:51Z</time>
      </trkpt>
      <trkpt lat="49.30997" lon="1.23273">
        <ele>4</ele>
        <time>2017-04-04T17:19:51Z</time>
      </trkpt>
      <trkpt lat="49.30995" lon="1.23279">
        <ele>4</ele>
        <time>2017-04-04T17:20:08Z</time>
      </trkpt>
      <trkpt lat="49.30993" lon="1.23284">
        <ele>4</ele>
        <time>2017-04-04T17:20:08Z</time>
      </trkpt>
      <trkpt lat="49.30991" lon="1.23291">
        <ele>4</ele>
        <time>2017-04-04T17:20:08Z</time>
      </trkpt>
      <trkpt lat="49.3099" lon="1.23299">
        <ele>4</ele>
        <time>2017-04-04T17:20:08Z</time>
      </trkpt>
      <trkpt lat="49.30986" lon="1.23303">
        <ele>4</ele>
        <time>2017-04-04T17:20:23Z</time>
      </trkpt>
      <trkpt lat="49.30985" lon="1.23306">
        <ele>4</ele>
        <time>2017-04-04T17:20:23Z</time>
      </trkpt>
      <trkpt lat="49.30982" lon="1.23314">
        <ele>4</ele>
        <time>2017-04-04T17:20:23Z</time>
      </trkpt>
      <trkpt lat="49.30979" lon="1.23322">
        <ele>4</ele>
        <time>2017-04-04T17:20:23Z</time>
      </trkpt>
      <trkpt lat="49.30977" lon="1.23327">
        <ele>4</ele>
        <time>2017-04-04T17:20:40Z</time>
      </trkpt>
      <trkpt lat="49.30975" lon="1.23336">
        <ele>4</ele>
        <time>2017-04-04T17:20:40Z</time>
      </trkpt>
      <trkpt lat="49.30974" lon="1.23341">
        <ele>4</ele>
        <time>2017-04-04T17:20:40Z</time>
      </trkpt>
      <trkpt lat="49.30973" lon="1.23348">
        <ele>4</ele>
        <time>2017-04-04T17:20:40Z</time>
      </trkpt>
      <trkpt lat="49.30973" lon="1.23355">
        <ele>4</ele>
        <time>2017-04-04T17:20:55Z</time>
      </trkpt>
      <trkpt lat="49.3097" lon="1.2336">
        <ele>4</ele>
        <time>2017-04-04T17:20:55Z</time>
      </trkpt>
      <trkpt lat="49.30967" lon="1.23367">
        <ele>4</ele>
        <time>2017-04-04T17:20:55Z</time>
      </trkpt>
      <trkpt lat="49.30963" lon="1.2337">
        <ele>4</ele>
        <time>2017-04-04T17:20:55Z</time>
      </trkpt>
      <trkpt lat="49.30959" lon="1.23375">
        <ele>5</ele>
        <time>2017-04-04T17:21:11Z</time>
      </trkpt>
      <trkpt lat="49.30954" lon="1.2338">
        <ele>2</ele>
        <time>2017-04-04T17:21:11Z</time>
      </trkpt>
      <trkpt lat="49.30949" lon="1.23383">
        <ele>2</ele>
        <time>2017-04-04T17:21:11Z</time>
      </trkpt>
      <trkpt lat="49.30946" lon="1.23386">
        <ele>2</ele>
        <time>2017-04-04T17:21:11Z</time>
      </trkpt>
      <trkpt lat="49.30941" lon="1.23389">
        <ele>2</ele>
        <time>2017-04-04T17:21:27Z</time>
      </trkpt>
      <trkpt lat="49.30935" lon="1.23388">
        <ele>2</ele>
        <time>2017-04-04T17:21:27Z</time>
      </trkpt>
      <trkpt lat="49.30932" lon="1.23392">
        <ele>2</ele>
        <time>2017-04-04T17:21:27Z</time>
      </trkpt>
      <trkpt lat="49.30929" lon="1.23397">
        <ele>2</ele>
        <time>2017-04-04T17:21:27Z</time>
      </trkpt>
      <trkpt lat="49.30925" lon="1.23401">
        <ele>2</ele>
        <time>2017-04-04T17:21:43Z</time>
      </trkpt>
      <trkpt lat="49.3092" lon="1.23407">
        <ele>2</ele>
        <time>2017-04-04T17:21:43Z</time>
      </trkpt>
      <trkpt lat="49.30916" lon="1.23409">
        <ele>2</ele>
        <time>2017-04-04T17:21:43Z</time>
      </trkpt>
      <trkpt lat="49.30911" lon="1.23415">
        <ele>2</ele>
        <time>2017-04-04T17:21:43Z</time>
      </trkpt>
      <trkpt lat="49.30908" lon="1.23419">
        <ele>2</ele>
        <time>2017-04-04T17:21:59Z</time>
      </trkpt>
      <trkpt lat="49.30902" lon="1.23423">
        <ele>2</ele>
        <time>2017-04-04T17:21:59Z</time>
      </trkpt>
      <trkpt lat="49.309" lon="1.23427">
        <ele>2</ele>
        <time>2017-04-04T17:21:59Z</time>
      </trkpt>
      <trkpt lat="49.30897" lon="1.23429">
        <ele>2</ele>
        <time>2017-04-04T17:21:59Z</time>
      </trkpt>
      <trkpt lat="49.30893" lon="1.23434">
        <ele>2</ele>
        <time>2017-04-04T17:22:15Z</time>
      </trkpt>
      <trkpt lat="49.30888" lon="1.23439">
        <ele>2</ele>
        <time>2017-04-04T17:22:15Z</time>
      </trkpt>
      <trkpt lat="49.30885" lon="1.23443">
        <ele>2</ele>
        <time>2017-04-04T17:22:15Z</time>
      </trkpt>
      <trkpt lat="49.30882" lon="1.23448">
        <ele>2</ele>
        <time>2017-04-04T17:22:16Z</time>
      </trkpt>
      <trkpt lat="49.30879" lon="1.23454">
        <ele>2</ele>
        <time>2017-04-04T17:22:32Z</time>
      </trkpt>
      <trkpt lat="49.30876" lon="1.23458">
        <ele>2</ele>
        <time>2017-04-04T17:22:32Z</time>
      </trkpt>
      <trkpt lat="49.30873" lon="1.23463">
        <ele>9</ele>
        <time>2017-04-04T17:22:32Z</time>
      </trkpt>
      <trkpt lat="49.30869" lon="1.23468">
        <ele>9</ele>
        <time>2017-04-04T17:22:32Z</time>
      </trkpt>
      <trkpt lat="49.30867" lon="1.23475">
        <ele>9</ele>
        <time>2017-04-04T17:22:48Z</time>
      </trkpt>
      <trkpt lat="49.30865" lon="1.23481">
        <ele>9</ele>
        <time>2017-04-04T17:22:48Z</time>
      </trkpt>
      <trkpt lat="49.30865" lon="1.23488">
        <ele>9</ele>
        <time>2017-04-04T17:22:48Z</time>
      </trkpt>
      <trkpt lat="49.30865" lon="1.23493">
        <ele>9</ele>
        <time>2017-04-04T17:22:48Z</time>
      </trkpt>
      <trkpt lat="49.30866" lon="1.23496">
        <ele>9</ele>
        <time>2017-04-04T17:23:04Z</time>
      </trkpt>
      <trkpt lat="49.30867" lon="1.23503">
        <ele>9</ele>
        <time>2017-04-04T17:23:04Z</time>
      </trkpt>
      <trkpt lat="49.30869" lon="1.23507">
        <ele>9</ele>
        <time>2017-04-04T17:23:04Z</time>
      </trkpt>
      <trkpt lat="49.30872" lon="1.23509">
        <ele>9</ele>
        <time>2017-04-04T17:23:04Z</time>
      </trkpt>
      <trkpt lat="49.30874" lon="1.23512">
        <ele>9</ele>
        <time>2017-04-04T17:23:19Z</time>
      </trkpt>
      <trkpt lat="49.30877" lon="1.23516">
        <ele>5</ele>
        <time>2017-04-04T17:23:19Z</time>
      </trkpt>
      <trkpt lat="49.3088" lon="1.23522">
        <ele>5</ele>
        <time>2017-04-04T17:23:19Z</time>
      </trkpt>
      <trkpt lat="49.30882" lon="1.23523">
        <ele>5</ele>
        <time>2017-04-04T17:23:19Z</time>
      </trkpt>
      <trkpt lat="49.30885" lon="1.2353">
        <ele>5</ele>
        <time>2017-04-04T17:23:35Z</time>
      </trkpt>
      <trkpt lat="49.30888" lon="1.23535">
        <ele>5</ele>
        <time>2017-04-04T17:23:35Z</time>
      </trkpt>
      <trkpt lat="49.30891" lon="1.23537">
        <ele>5</ele>
        <time>2017-04-04T17:23:35Z</time>
      </trkpt>
      <trkpt lat="49.30895" lon="1.23541">
        <ele>5</ele>
        <time>2017-04-04T17:23:35Z</time>
      </trkpt>
      <trkpt lat="49.30898" lon="1.23543">
        <ele>5</ele>
        <time>2017-04-04T17:23:51Z</time>
      </trkpt>
      <trkpt lat="49.30902" lon="1.23545">
        <ele>5</ele>
        <time>2017-04-04T17:23:51Z</time>
      </trkpt>
      <trkpt lat="49.30905" lon="1.23548">
        <ele>5</ele>
        <time>2017-04-04T17:23:51Z</time>
      </trkpt>
      <trkpt lat="49.30909" lon="1.23551">
        <ele>5</ele>
        <time>2017-04-04T17:23:51Z</time>
      </trkpt>
      <trkpt lat="49.30912" lon="1.23555">
        <ele>5</ele>
        <time>2017-04-04T17:24:07Z</time>
      </trkpt>
      <trkpt lat="49.30917" lon="1.23559">
        <ele>5</ele>
        <time>2017-04-04T17:24:07Z</time>
      </trkpt>
      <trkpt lat="49.30921" lon="1.23563">
        <ele>5</ele>
        <time>2017-04-04T17:24:07Z</time>
      </trkpt>
      <trkpt lat="49.30926" lon="1.23566">
        <ele>5</ele>
        <time>2017-04-04T17:24:07Z</time>
      </trkpt>
      <trkpt lat="49.30928" lon="1.23568">
        <ele>5</ele>
        <time>2017-04-04T17:24:27Z</time>
      </trkpt>
      <trkpt lat="49.3093" lon="1.23569">
        <ele>5</ele>
        <time>2017-04-04T17:24:27Z</time>
      </trkpt>
      <trkpt lat="49.30933" lon="1.23573">
        <ele>5</ele>
        <time>2017-04-04T17:24:27Z</time>
      </trkpt>
      <trkpt lat="49.30935" lon="1.23573">
        <ele>5</ele>
        <time>2017-04-04T17:24:27Z</time>
      </trkpt>
      <trkpt lat="49.30938" lon="1.23575">
        <ele>5</ele>
        <time>2017-04-04T17:24:27Z</time>
      </trkpt>
      <trkpt lat="49.30942" lon="1.23578">
        <ele>5</ele>
        <time>2017-04-04T17:24:47Z</time>
      </trkpt>
      <trkpt lat="49.30947" lon="1.2358">
        <ele>5</ele>
        <time>2017-04-04T17:24:47Z</time>
      </trkpt>
      <trkpt lat="49.30947" lon="1.23582">
        <ele>5</ele>
        <time>2017-04-04T17:24:47Z</time>
      </trkpt>
      <trkpt lat="49.30949" lon="1.23584">
        <ele>5</ele>
        <time>2017-04-04T17:24:47Z</time>
      </trkpt>
      <trkpt lat="49.30955" lon="1.23587">
        <ele>5</ele>
        <time>2017-04-04T17:24:47Z</time>
      </trkpt>
      <trkpt lat="49.3096" lon="1.2359">
        <ele>5</ele>
        <time>2017-04-04T17:25:04Z</time>
      </trkpt>
      <trkpt lat="49.30963" lon="1.23593">
        <ele>5</ele>
        <time>2017-04-04T17:25:04Z</time>
      </trkpt>
      <trkpt lat="49.30967" lon="1.23596">
        <ele>5</ele>
        <time>2017-04-04T17:25:04Z</time>
      </trkpt>
      <trkpt lat="49.30971" lon="1.236">
        <ele>5</ele>
        <time>2017-04-04T17:25:04Z</time>
      </trkpt>
      <trkpt lat="49.30973" lon="1.23604">
        <ele>5</ele>
        <time>2017-04-04T17:25:19Z</time>
      </trkpt>
      <trkpt lat="49.30976" lon="1.23607">
        <ele>5</ele>
        <time>2017-04-04T17:25:19Z</time>
      </trkpt>
      <trkpt lat="49.3098" lon="1.23609">
        <ele>5</ele>
        <time>2017-04-04T17:25:19Z</time>
      </trkpt>
      <trkpt lat="49.30984" lon="1.23611">
        <ele>5</ele>
        <time>2017-04-04T17:25:19Z</time>
      </trkpt>
      <trkpt lat="49.30989" lon="1.23614">
        <ele>5</ele>
        <time>2017-04-04T17:25:35Z</time>
      </trkpt>
      <trkpt lat="49.30992" lon="1.23614">
        <ele>5</ele>
        <time>2017-04-04T17:25:35Z</time>
      </trkpt>
      <trkpt lat="49.30998" lon="1.23619">
        <ele>5</ele>
        <time>2017-04-04T17:25:35Z</time>
      </trkpt>
      <trkpt lat="49.31" lon="1.23621">
        <ele>5</ele>
        <time>2017-04-04T17:25:35Z</time>
      </trkpt>
      <trkpt lat="49.31004" lon="1.23624">
        <ele>5</ele>
        <time>2017-04-04T17:25:51Z</time>
      </trkpt>
      <trkpt lat="49.31006" lon="1.23627">
        <ele>5</ele>
        <time>2017-04-04T17:25:51Z</time>
      </trkpt>
      <trkpt lat="49.3101" lon="1.2363">
        <ele>5</ele>
        <time>2017-04-04T17:25:51Z</time>
      </trkpt>
      <trkpt lat="49.31014" lon="1.23634">
        <ele>5</ele>
        <time>2017-04-04T17:25:51Z</time>
      </trkpt>
      <trkpt lat="49.31018" lon="1.23639">
        <ele>5</ele>
        <time>2017-04-04T17:26:07Z</time>
      </trkpt>
      <trkpt lat="49.31022" lon="1.23642">
        <ele>5</ele>
        <time>2017-04-04T17:26:07Z</time>
      </trkpt>
      <trkpt lat="49.31027" lon="1.23646">
        <ele>5</ele>
        <time>2017-04-04T17:26:07Z</time>
      </trkpt>
      <trkpt lat="49.31029" lon="1.23649">
        <ele>5</ele>
        <time>2017-04-04T17:26:07Z</time>
      </trkpt>
      <trkpt lat="49.31032" lon="1.23653">
        <ele>5</ele>
        <time>2017-04-04T17:26:23Z</time>
      </trkpt>
      <trkpt lat="49.31039" lon="1.2366">
        <ele>5</ele>
        <time>2017-04-04T17:26:23Z</time>
      </trkpt>
      <trkpt lat="49.3104" lon="1.23661">
        <ele>5</ele>
        <time>2017-04-04T17:26:23Z</time>
      </trkpt>
      <trkpt lat="49.31044" lon="1.23664">
        <ele>5</ele>
        <time>2017-04-04T17:26:23Z</time>
      </trkpt>
      <trkpt lat="49.3105" lon="1.23666">
        <ele>5</ele>
        <time>2017-04-04T17:26:39Z</time>
      </trkpt>
      <trkpt lat="49.31053" lon="1.23669">
        <ele>5</ele>
        <time>2017-04-04T17:26:39Z</time>
      </trkpt>
      <trkpt lat="49.31055" lon="1.23673">
        <ele>5</ele>
        <time>2017-04-04T17:26:39Z</time>
      </trkpt>
      <trkpt lat="49.3106" lon="1.23676">
        <ele>5</ele>
        <time>2017-04-04T17:26:39Z</time>
      </trkpt>
      <trkpt lat="49.31064" lon="1.2368">
        <ele>5</ele>
        <time>2017-04-04T17:26:55Z</time>
      </trkpt>
      <trkpt lat="49.31068" lon="1.23682">
        <ele>5</ele>
        <time>2017-04-04T17:26:55Z</time>
      </trkpt>
      <trkpt lat="49.31072" lon="1.23685">
        <ele>5</ele>
        <time>2017-04-04T17:26:55Z</time>
      </trkpt>
      <trkpt lat="49.31075" lon="1.23687">
        <ele>5</ele>
        <time>2017-04-04T17:26:55Z</time>
      </trkpt>
      <trkpt lat="49.3108" lon="1.23691">
        <ele>5</ele>
        <time>2017-04-04T17:27:12Z</time>
      </trkpt>
      <trkpt lat="49.31086" lon="1.23695">
        <ele>5</ele>
        <time>2017-04-04T17:27:12Z</time>
      </trkpt>
      <trkpt lat="49.31089" lon="1.23699">
        <ele>5</ele>
        <time>2017-04-04T17:27:12Z</time>
      </trkpt>
      <trkpt lat="49.31093" lon="1.23702">
        <ele>5</ele>
        <time>2017-04-04T17:27:12Z</time>
      </trkpt>
      <trkpt lat="49.31096" lon="1.23705">
        <ele>5</ele>
        <time>2017-04-04T17:27:27Z</time>
      </trkpt>
      <trkpt lat="49.311" lon="1.23708">
        <ele>5</ele>
        <time>2017-04-04T17:27:27Z</time>
      </trkpt>
      <trkpt lat="49.31105" lon="1.23711">
        <ele>8</ele>
        <time>2017-04-04T17:27:27Z</time>
      </trkpt>
      <trkpt lat="49.31108" lon="1.23711">
        <ele>8</ele>
        <time>2017-04-04T17:27:27Z</time>
      </trkpt>
      <trkpt lat="49.31112" lon="1.23713">
        <ele>8</ele>
        <time>2017-04-04T17:27:43Z</time>
      </trkpt>
      <trkpt lat="49.31116" lon="1.23718">
        <ele>8</ele>
        <time>2017-04-04T17:27:43Z</time>
      </trkpt>
      <trkpt lat="49.3112" lon="1.23721">
        <ele>8</ele>
        <time>2017-04-04T17:27:44Z</time>
      </trkpt>
      <trkpt lat="49.31122" lon="1.23725">
        <ele>8</ele>
        <time>2017-04-04T17:27:44Z</time>
      </trkpt>
      <trkpt lat="49.31125" lon="1.23728">
        <ele>8</ele>
        <time>2017-04-04T17:28:00Z</time>
      </trkpt>
      <trkpt lat="49.31131" lon="1.23731">
        <ele>8</ele>
        <time>2017-04-04T17:28:00Z</time>
      </trkpt>
      <trkpt lat="49.31134" lon="1.23733">
        <ele>8</ele>
        <time>2017-04-04T17:28:00Z</time>
      </trkpt>
      <trkpt lat="49.3114" lon="1.23738">
        <ele>8</ele>
        <time>2017-04-04T17:28:00Z</time>
      </trkpt>
      <trkpt lat="49.31142" lon="1.23739">
        <ele>8</ele>
        <time>2017-04-04T17:28:15Z</time>
      </trkpt>
      <trkpt lat="49.31147" lon="1.23741">
        <ele>8</ele>
        <time>2017-04-04T17:28:15Z</time>
      </trkpt>
      <trkpt lat="49.3115" lon="1.23742">
        <ele>8</ele>
        <time>2017-04-04T17:28:15Z</time>
      </trkpt>
      <trkpt lat="49.31153" lon="1.23746">
        <ele>8</ele>
        <time>2017-04-04T17:28:15Z</time>
      </trkpt>
      <trkpt lat="49.31158" lon="1.23753">
        <ele>8</ele>
        <time>2017-04-04T17:28:31Z</time>
      </trkpt>
      <trkpt lat="49.31162" lon="1.23756">
        <ele>8</ele>
        <time>2017-04-04T17:28:31Z</time>
      </trkpt>
      <trkpt lat="49.31166" lon="1.2376">
        <ele>8</ele>
        <time>2017-04-04T17:28:31Z</time>
      </trkpt>
      <trkpt lat="49.31168" lon="1.23762">
        <ele>8</ele>
        <time>2017-04-04T17:28:31Z</time>
      </trkpt>
      <trkpt lat="49.31172" lon="1.23766">
        <ele>8</ele>
        <time>2017-04-04T17:28:48Z</time>
      </trkpt>
      <trkpt lat="49.31178" lon="1.23771">
        <ele>8</ele>
        <time>2017-04-04T17:28:48Z</time>
      </trkpt>
      <trkpt lat="49.31181" lon="1.23774">
        <ele>8</ele>
        <time>2017-04-04T17:28:48Z</time>
      </trkpt>
      <trkpt lat="49.31186" lon="1.23778">
        <ele>8</ele>
        <time>2017-04-04T17:28:48Z</time>
      </trkpt>
      <trkpt lat="49.31188" lon="1.23781">
        <ele>8</ele>
        <time>2017-04-04T17:29:03Z</time>
      </trkpt>
      <trkpt lat="49.31193" lon="1.23784">
        <ele>8</ele>
        <time>2017-04-04T17:29:03Z</time>
      </trkpt>
      <trkpt lat="49.31196" lon="1.23787">
        <ele>8</ele>
        <time>2017-04-04T17:29:03Z</time>
      </trkpt>
      <trkpt lat="49.31199" lon="1.23791">
        <ele>8</ele>
        <time>2017-04-04T17:29:03Z</time>
      </trkpt>
      <trkpt lat="49.31204" lon="1.23796">
        <ele>9</ele>
        <time>2017-04-04T17:29:20Z</time>
      </trkpt>
      <trkpt lat="49.3121" lon="1.23801">
        <ele>9</ele>
        <time>2017-04-04T17:29:20Z</time>
      </trkpt>
      <trkpt lat="49.31213" lon="1.23804">
        <ele>9</ele>
        <time>2017-04-04T17:29:20Z</time>
      </trkpt>
      <trkpt lat="49.31218" lon="1.2381">
        <ele>9</ele>
        <time>2017-04-04T17:29:20Z</time>
      </trkpt>
      <trkpt lat="49.31222" lon="1.23814">
        <ele>9</ele>
        <time>2017-04-04T17:29:36Z</time>
      </trkpt>
      <trkpt lat="49.31224" lon="1.23816">
        <ele>9</ele>
        <time>2017-04-04T17:29:36Z</time>
      </trkpt>
      <trkpt lat="49.31228" lon="1.23818">
        <ele>9</ele>
        <time>2017-04-04T17:29:36Z</time>
      </trkpt>
      <trkpt lat="49.31232" lon="1.23822">
        <ele>9</ele>
        <time>2017-04-04T17:29:36Z</time>
      </trkpt>
      <trkpt lat="49.31232" lon="1.23823">
        <ele>9</ele>
        <time>2017-04-04T17:29:51Z</time>
      </trkpt>
      <trkpt lat="49.31236" lon="1.23827">
        <ele>9</ele>
        <time>2017-04-04T17:29:52Z</time>
      </trkpt>
      <trkpt lat="49.31241" lon="1.23831">
        <ele>9</ele>
        <time>2017-04-04T17:29:52Z</time>
      </trkpt>
      <trkpt lat="49.31245" lon="1.23834">
        <ele>9</ele>
        <time>2017-04-04T17:29:52Z</time>
      </trkpt>
      <trkpt lat="49.31248" lon="1.23837">
        <ele>9</ele>
        <time>2017-04-04T17:30:07Z</time>
      </trkpt>
      <trkpt lat="49.31251" lon="1.23839">
        <ele>9</ele>
        <time>2017-04-04T17:30:07Z</time>
      </trkpt>
      <trkpt lat="49.31254" lon="1.23842">
        <ele>9</ele>
        <time>2017-04-04T17:30:07Z</time>
      </trkpt>
      <trkpt lat="49.31258" lon="1.23847">
        <ele>9</ele>
        <time>2017-04-04T17:30:07Z</time>
      </trkpt>
      <trkpt lat="49.31261" lon="1.2384">
        <ele>9</ele>
        <time>2017-04-04T17:30:23Z</time>
      </trkpt>
      <trkpt lat="49.31261" lon="1.23831">
        <ele>9</ele>
        <time>2017-04-04T17:30:23Z</time>
      </trkpt>
      <trkpt lat="49.31261" lon="1.23821">
        <ele>9</ele>
        <time>2017-04-04T17:30:23Z</time>
      </trkpt>
      <trkpt lat="49.31261" lon="1.23813">
        <ele>9</ele>
        <time>2017-04-04T17:30:23Z</time>
      </trkpt>
      <trkpt lat="49.3126" lon="1.23808">
        <ele>9</ele>
        <time>2017-04-04T17:30:39Z</time>
      </trkpt>
      <trkpt lat="49.31262" lon="1.238">
        <ele>9</ele>
        <time>2017-04-04T17:30:39Z</time>
      </trkpt>
      <trkpt lat="49.31263" lon="1.23797">
        <ele>9</ele>
        <time>2017-04-04T17:30:39Z</time>
      </trkpt>
      <trkpt lat="49.31263" lon="1.23794">
        <ele>9</ele>
        <time>2017-04-04T17:30:39Z</time>
      </trkpt>
      <trkpt lat="49.31262" lon="1.23786">
        <ele>8</ele>
        <time>2017-04-04T17:30:55Z</time>
      </trkpt>
      <trkpt lat="49.31261" lon="1.23779">
        <ele>8</ele>
        <time>2017-04-04T17:30:55Z</time>
      </trkpt>
      <trkpt lat="49.3126" lon="1.23772">
        <ele>8</ele>
        <time>2017-04-04T17:30:55Z</time>
      </trkpt>
      <trkpt lat="49.31258" lon="1.23767">
        <ele>8</ele>
        <time>2017-04-04T17:30:55Z</time>
      </trkpt>
      <trkpt lat="49.31259" lon="1.23761">
        <ele>8</ele>
        <time>2017-04-04T17:31:11Z</time>
      </trkpt>
      <trkpt lat="49.31258" lon="1.23755">
        <ele>8</ele>
        <time>2017-04-04T17:31:11Z</time>
      </trkpt>
      <trkpt lat="49.31255" lon="1.23749">
        <ele>8</ele>
        <time>2017-04-04T17:31:11Z</time>
      </trkpt>
      <trkpt lat="49.31249" lon="1.23744">
        <ele>8</ele>
        <time>2017-04-04T17:31:11Z</time>
      </trkpt>
      <trkpt lat="49.31246" lon="1.23739">
        <ele>8</ele>
        <time>2017-04-04T17:31:27Z</time>
      </trkpt>
      <trkpt lat="49.31242" lon="1.23734">
        <ele>8</ele>
        <time>2017-04-04T17:31:27Z</time>
      </trkpt>
      <trkpt lat="49.31239" lon="1.2373">
        <ele>8</ele>
        <time>2017-04-04T17:31:27Z</time>
      </trkpt>
      <trkpt lat="49.31236" lon="1.23725">
        <ele>8</ele>
        <time>2017-04-04T17:31:27Z</time>
      </trkpt>
      <trkpt lat="49.31233" lon="1.2372">
        <ele>8</ele>
        <time>2017-04-04T17:31:43Z</time>
      </trkpt>
      <trkpt lat="49.31231" lon="1.23713">
        <ele>8</ele>
        <time>2017-04-04T17:31:43Z</time>
      </trkpt>
      <trkpt lat="49.3123" lon="1.23707">
        <ele>7</ele>
        <time>2017-04-04T17:31:43Z</time>
      </trkpt>
      <trkpt lat="49.31229" lon="1.23702">
        <ele>7</ele>
        <time>2017-04-04T17:31:43Z</time>
      </trkpt>
    </trkseg>
  </trk>
</gpx>